<?xml version='1.0' encoding='UTF-8'?><gpx version="1.1" creator="JPX - https://github.com/jenetics/jpx" xmlns="http://www.topografix.com/GPX/1/1"><trk><trkseg><trkpt lat="37.2819298" lon="15.1885986"><ele>10.0</ele><time>2026-04-06T13:18:14.974Z</time></trkpt><trkpt lat="37.2818659" lon="15.1885941"><ele>10.0</ele><time>2026-04-06T13:19:23.965Z</time></trkpt><trkpt lat="37.2817974" lon="15.1885761"><ele>10.0</ele><time>2026-04-06T13:19:31.979Z</time></trkpt><trkpt lat="37.2817612" lon="15.1885033"><ele>10.0</ele><time>2026-04-06T13:19:38.998Z</time></trkpt><trkpt lat="37.2816839" lon="15.1885277"><ele>10.0</ele><time>2026-04-06T13:20:48.987Z</time></trkpt><trkpt lat="37.2817449" lon="15.1885008"><ele>10.0</ele><time>2026-04-06T13:24:57.006Z</time></trkpt><trkpt lat="37.2818449" lon="15.1885249"><ele>10.0</ele><time>2026-04-06T13:25:00.003Z</time></trkpt><trkpt lat="37.2819482" lon="15.1885134"><ele>10.0</ele><time>2026-04-06T13:25:01.997Z</time></trkpt><trkpt lat="37.282063" lon="15.1885025"><ele>10.0</ele><time>2026-04-06T13:25:04.008Z</time></trkpt><trkpt lat="37.2821782" lon="15.1884831"><ele>10.0</ele><time>2026-04-06T13:25:05.993Z</time></trkpt><trkpt lat="37.2822947" lon="15.1884663"><ele>10.0</ele><time>2026-04-06T13:25:08.007Z</time></trkpt><trkpt lat="37.2824164" lon="15.1884492"><ele>9.8</ele><time>2026-04-06T13:25:10.004Z</time></trkpt><trkpt lat="37.2825344" lon="15.1884104"><ele>9.6</ele><time>2026-04-06T13:25:11.99Z</time></trkpt><trkpt lat="37.2826455" lon="15.1883737"><ele>9.4</ele><time>2026-04-06T13:25:14Z</time></trkpt><trkpt lat="37.282747" lon="15.1883419"><ele>9.2</ele><time>2026-04-06T13:25:16.002Z</time></trkpt><trkpt lat="37.2828393" lon="15.1883205"><ele>9.0</ele><time>2026-04-06T13:25:17.999Z</time></trkpt><trkpt lat="37.2829281" lon="15.1882983"><ele>9.0</ele><time>2026-04-06T13:25:20.007Z</time></trkpt><trkpt lat="37.283016" lon="15.1882804"><ele>9.0</ele><time>2026-04-06T13:25:21.982Z</time></trkpt><trkpt lat="37.2831078" lon="15.1882646"><ele>9.0</ele><time>2026-04-06T13:25:23.997Z</time></trkpt><trkpt lat="37.2831971" lon="15.1882458"><ele>9.0</ele><time>2026-04-06T13:25:25.99Z</time></trkpt><trkpt lat="37.2832726" lon="15.1882382"><ele>9.0</ele><time>2026-04-06T13:25:30.006Z</time></trkpt><trkpt lat="37.2833444" lon="15.1882315"><ele>9.0</ele><time>2026-04-06T13:25:35.999Z</time></trkpt><trkpt lat="37.2834082" lon="15.1882096"><ele>8.833333333333334</ele><time>2026-04-06T13:25:39.006Z</time></trkpt><trkpt lat="37.2834886" lon="15.1881875"><ele>8.666666666666666</ele><time>2026-04-06T13:25:42Z</time></trkpt><trkpt lat="37.2835627" lon="15.188175"><ele>8.5</ele><time>2026-04-06T13:25:45.003Z</time></trkpt><trkpt lat="37.2836393" lon="15.1881509"><ele>8.333333333333332</ele><time>2026-04-06T13:25:48.98Z</time></trkpt><trkpt lat="37.2837185" lon="15.1881239"><ele>8.166666666666666</ele><time>2026-04-06T13:25:52.997Z</time></trkpt><trkpt lat="37.2837841" lon="15.1880983"><ele>8.0</ele><time>2026-04-06T13:25:55.006Z</time></trkpt><trkpt lat="37.2838721" lon="15.1880571"><ele>8.200000000000001</ele><time>2026-04-06T13:25:57.004Z</time></trkpt><trkpt lat="37.2839773" lon="15.1879989"><ele>8.4</ele><time>2026-04-06T13:25:59.004Z</time></trkpt><trkpt lat="37.2840802" lon="15.1879399"><ele>8.600000000000001</ele><time>2026-04-06T13:26:01.005Z</time></trkpt><trkpt lat="37.2841645" lon="15.1878883"><ele>8.8</ele><time>2026-04-06T13:26:03.014Z</time></trkpt><trkpt lat="37.2842266" lon="15.187854"><ele>9.0</ele><time>2026-04-06T13:26:05.993Z</time></trkpt><trkpt lat="37.284296" lon="15.1878181"><ele>9.0</ele><time>2026-04-06T13:26:09.003Z</time></trkpt><trkpt lat="37.2843898" lon="15.1877764"><ele>9.0</ele><time>2026-04-06T13:26:11.007Z</time></trkpt><trkpt lat="37.2844688" lon="15.1877231"><ele>9.0</ele><time>2026-04-06T13:26:13.006Z</time></trkpt><trkpt lat="37.2845683" lon="15.1876645"><ele>9.0</ele><time>2026-04-06T13:26:16.005Z</time></trkpt><trkpt lat="37.2846322" lon="15.1876391"><ele>9.0</ele><time>2026-04-06T13:26:17.008Z</time></trkpt><trkpt lat="37.2847043" lon="15.1876033"><ele>9.0</ele><time>2026-04-06T13:26:18.004Z</time></trkpt><trkpt lat="37.2847725" lon="15.1875632"><ele>8.833333333333334</ele><time>2026-04-06T13:26:19.004Z</time></trkpt><trkpt lat="37.2848361" lon="15.1875266"><ele>8.666666666666666</ele><time>2026-04-06T13:26:19.999Z</time></trkpt><trkpt lat="37.2848931" lon="15.1874923"><ele>8.5</ele><time>2026-04-06T13:26:21.007Z</time></trkpt><trkpt lat="37.2849824" lon="15.1874238"><ele>8.333333333333332</ele><time>2026-04-06T13:26:23.002Z</time></trkpt><trkpt lat="37.2850568" lon="15.1873872"><ele>8.166666666666666</ele><time>2026-04-06T13:26:24.997Z</time></trkpt><trkpt lat="37.2851216" lon="15.1873517"><ele>8.0</ele><time>2026-04-06T13:26:26.975Z</time></trkpt><trkpt lat="37.2851763" lon="15.1873065"><ele>7.999999999999999</ele><time>2026-04-06T13:26:29.003Z</time></trkpt><trkpt lat="37.2851531" lon="15.1871872"><ele>8.0</ele><time>2026-04-06T13:26:32.008Z</time></trkpt><trkpt lat="37.2851006" lon="15.1870791"><ele>8.0</ele><time>2026-04-06T13:26:34.005Z</time></trkpt><trkpt lat="37.2850616" lon="15.1869952"><ele>8.0</ele><time>2026-04-06T13:26:36.005Z</time></trkpt><trkpt lat="37.2850256" lon="15.1869257"><ele>7.999999999999999</ele><time>2026-04-06T13:26:37.997Z</time></trkpt><trkpt lat="37.2849837" lon="15.1868296"><ele>8.0</ele><time>2026-04-06T13:26:40.98Z</time></trkpt><trkpt lat="37.2849204" lon="15.1867967"><ele>8.0</ele><time>2026-04-06T13:26:44.006Z</time></trkpt><trkpt lat="37.2848483" lon="15.1868246"><ele>7.999999999999999</ele><time>2026-04-06T13:26:49.008Z</time></trkpt><trkpt lat="37.2847877" lon="15.1868505"><ele>8.0</ele><time>2026-04-06T13:27:46.992Z</time></trkpt><trkpt lat="37.2847245" lon="15.1868912"><ele>8.0</ele><time>2026-04-06T13:27:53.014Z</time></trkpt><trkpt lat="37.2846591" lon="15.1869265"><ele>7.999999999999999</ele><time>2026-04-06T13:27:57.008Z</time></trkpt><trkpt lat="37.284591" lon="15.1869628"><ele>8.0</ele><time>2026-04-06T13:28:00.008Z</time></trkpt><trkpt lat="37.284528" lon="15.186985"><ele>8.0</ele><time>2026-04-06T13:28:08.012Z</time></trkpt><trkpt lat="37.2844655" lon="15.18701"><ele>8.0</ele><time>2026-04-06T13:28:11.01Z</time></trkpt><trkpt lat="37.2843952" lon="15.1870426"><ele>7.999999999999999</ele><time>2026-04-06T13:28:14.004Z</time></trkpt><trkpt lat="37.2843234" lon="15.1870678"><ele>8.0</ele><time>2026-04-06T13:28:17.007Z</time></trkpt><trkpt lat="37.2842587" lon="15.1870909"><ele>8.0</ele><time>2026-04-06T13:28:20.016Z</time></trkpt><trkpt lat="37.2841933" lon="15.1871172"><ele>7.999999999999999</ele><time>2026-04-06T13:28:22.98Z</time></trkpt><trkpt lat="37.2841191" lon="15.1871484"><ele>8.0</ele><time>2026-04-06T13:28:26.009Z</time></trkpt><trkpt lat="37.2840479" lon="15.1871759"><ele>8.0</ele><time>2026-04-06T13:28:29.009Z</time></trkpt><trkpt lat="37.2839602" lon="15.1872074"><ele>7.999999999999999</ele><time>2026-04-06T13:28:31.993Z</time></trkpt><trkpt lat="37.2838954" lon="15.1872356"><ele>8.0</ele><time>2026-04-06T13:28:34.009Z</time></trkpt><trkpt lat="37.2838318" lon="15.1872505"><ele>8.0</ele><time>2026-04-06T13:28:38.007Z</time></trkpt><trkpt lat="37.2837548" lon="15.1872736"><ele>8.0</ele><time>2026-04-06T13:28:43.996Z</time></trkpt><trkpt lat="37.2836696" lon="15.1873"><ele>7.999999999999999</ele><time>2026-04-06T13:28:47.012Z</time></trkpt><trkpt lat="37.2835794" lon="15.187329"><ele>8.0</ele><time>2026-04-06T13:28:50.017Z</time></trkpt><trkpt lat="37.2835155" lon="15.1873424"><ele>8.333333333333332</ele><time>2026-04-06T13:28:52.018Z</time></trkpt><trkpt lat="37.2834465" lon="15.1873765"><ele>8.666666666666666</ele><time>2026-04-06T13:29:09.998Z</time></trkpt><trkpt lat="37.2833821" lon="15.1873967"><ele>9.0</ele><time>2026-04-06T13:29:13.004Z</time></trkpt><trkpt lat="37.2833169" lon="15.1874104"><ele>9.333333333333334</ele><time>2026-04-06T13:29:16.004Z</time></trkpt><trkpt lat="37.2832175" lon="15.1874313"><ele>9.666666666666668</ele><time>2026-04-06T13:29:19Z</time></trkpt><trkpt lat="37.2831292" lon="15.1874512"><ele>10.0</ele><time>2026-04-06T13:29:21.009Z</time></trkpt><trkpt lat="37.2830375" lon="15.1874702"><ele>10.4</ele><time>2026-04-06T13:29:23.008Z</time></trkpt><trkpt lat="37.2829481" lon="15.1874996"><ele>10.8</ele><time>2026-04-06T13:29:25.003Z</time></trkpt><trkpt lat="37.2828556" lon="15.1875303"><ele>11.2</ele><time>2026-04-06T13:29:26.998Z</time></trkpt><trkpt lat="37.2827633" lon="15.1875643"><ele>11.6</ele><time>2026-04-06T13:29:28.978Z</time></trkpt><trkpt lat="37.2826674" lon="15.1875893"><ele>12.0</ele><time>2026-04-06T13:29:31.01Z</time></trkpt><trkpt lat="37.282563" lon="15.1876207"><ele>12.0</ele><time>2026-04-06T13:29:33.008Z</time></trkpt><trkpt lat="37.2824514" lon="15.1876486"><ele>12.0</ele><time>2026-04-06T13:29:35.013Z</time></trkpt><trkpt lat="37.2823399" lon="15.1876781"><ele>12.0</ele><time>2026-04-06T13:29:36.994Z</time></trkpt><trkpt lat="37.2822209" lon="15.187714"><ele>12.0</ele><time>2026-04-06T13:29:39.012Z</time></trkpt><trkpt lat="37.282148" lon="15.1877261"><ele>12.0</ele><time>2026-04-06T13:29:40.013Z</time></trkpt><trkpt lat="37.2820801" lon="15.1877353"><ele>11.833333333333334</ele><time>2026-04-06T13:29:41.014Z</time></trkpt><trkpt lat="37.2820157" lon="15.1877523"><ele>11.666666666666666</ele><time>2026-04-06T13:29:42.006Z</time></trkpt><trkpt lat="37.2819485" lon="15.1877707"><ele>11.5</ele><time>2026-04-06T13:29:42.995Z</time></trkpt><trkpt lat="37.2818829" lon="15.1877923"><ele>11.333333333333332</ele><time>2026-04-06T13:29:44.007Z</time></trkpt><trkpt lat="37.2817808" lon="15.1878316"><ele>11.166666666666666</ele><time>2026-04-06T13:29:46.005Z</time></trkpt><trkpt lat="37.2817033" lon="15.1878492"><ele>11.0</ele><time>2026-04-06T13:29:48.005Z</time></trkpt><trkpt lat="37.2816299" lon="15.1878612"><ele>11.0</ele><time>2026-04-06T13:29:50.002Z</time></trkpt><trkpt lat="37.2815298" lon="15.1878842"><ele>11.0</ele><time>2026-04-06T13:29:52.02Z</time></trkpt><trkpt lat="37.2814087" lon="15.1879118"><ele>11.0</ele><time>2026-04-06T13:29:54.006Z</time></trkpt><trkpt lat="37.2812929" lon="15.1879436"><ele>11.0</ele><time>2026-04-06T13:29:56.001Z</time></trkpt><trkpt lat="37.2811856" lon="15.1879677"><ele>11.600000000000001</ele><time>2026-04-06T13:29:57.997Z</time></trkpt><trkpt lat="37.2810728" lon="15.1879976"><ele>12.2</ele><time>2026-04-06T13:29:59.974Z</time></trkpt><trkpt lat="37.2809599" lon="15.1880268"><ele>12.799999999999999</ele><time>2026-04-06T13:30:02.006Z</time></trkpt><trkpt lat="37.280861" lon="15.1880566"><ele>13.399999999999999</ele><time>2026-04-06T13:30:04.01Z</time></trkpt><trkpt lat="37.2807679" lon="15.1880846"><ele>14.0</ele><time>2026-04-06T13:30:05.977Z</time></trkpt><trkpt lat="37.2806742" lon="15.1881177"><ele>13.6</ele><time>2026-04-06T13:30:07.983Z</time></trkpt><trkpt lat="37.2805783" lon="15.1881476"><ele>13.2</ele><time>2026-04-06T13:30:09.997Z</time></trkpt><trkpt lat="37.2804684" lon="15.1881688"><ele>12.799999999999999</ele><time>2026-04-06T13:30:12.01Z</time></trkpt><trkpt lat="37.2803738" lon="15.1882176"><ele>12.399999999999999</ele><time>2026-04-06T13:30:14.008Z</time></trkpt><trkpt lat="37.2803215" lon="15.1882954"><ele>12.0</ele><time>2026-04-06T13:30:15.991Z</time></trkpt><trkpt lat="37.2803062" lon="15.1883777"><ele>11.666666666666666</ele><time>2026-04-06T13:30:18.014Z</time></trkpt><trkpt lat="37.2803056" lon="15.1884799"><ele>11.333333333333334</ele><time>2026-04-06T13:30:21.009Z</time></trkpt><trkpt lat="37.2802622" lon="15.1885392"><ele>11.0</ele><time>2026-04-06T13:30:24.008Z</time></trkpt><trkpt lat="37.2801538" lon="15.1885358"><ele>10.666666666666668</ele><time>2026-04-06T13:30:26.009Z</time></trkpt><trkpt lat="37.2800815" lon="15.1885296"><ele>10.333333333333334</ele><time>2026-04-06T13:30:26.991Z</time></trkpt><trkpt lat="37.2800114" lon="15.1885287"><ele>10.0</ele><time>2026-04-06T13:30:27.979Z</time></trkpt><trkpt lat="37.2799409" lon="15.1885306"><ele>10.0</ele><time>2026-04-06T13:30:29.01Z</time></trkpt><trkpt lat="37.279869" lon="15.188534"><ele>10.0</ele><time>2026-04-06T13:30:29.996Z</time></trkpt><trkpt lat="37.2797945" lon="15.1885385"><ele>10.0</ele><time>2026-04-06T13:30:31.009Z</time></trkpt><trkpt lat="37.2797149" lon="15.1885428"><ele>10.0</ele><time>2026-04-06T13:30:32.008Z</time></trkpt><trkpt lat="37.2796272" lon="15.1885459"><ele>10.0</ele><time>2026-04-06T13:30:33.007Z</time></trkpt><trkpt lat="37.2795294" lon="15.1885474"><ele>10.0</ele><time>2026-04-06T13:30:34.005Z</time></trkpt><trkpt lat="37.2794238" lon="15.1885488"><ele>10.8</ele><time>2026-04-06T13:30:35.003Z</time></trkpt><trkpt lat="37.2793213" lon="15.1885534"><ele>11.6</ele><time>2026-04-06T13:30:36.006Z</time></trkpt><trkpt lat="37.2792187" lon="15.1885611"><ele>12.399999999999999</ele><time>2026-04-06T13:30:36.995Z</time></trkpt><trkpt lat="37.2791115" lon="15.188569"><ele>13.2</ele><time>2026-04-06T13:30:38.016Z</time></trkpt><trkpt lat="37.2790008" lon="15.1885771"><ele>14.0</ele><time>2026-04-06T13:30:39.015Z</time></trkpt><trkpt lat="37.2788881" lon="15.1885823"><ele>15.25</ele><time>2026-04-06T13:30:40.014Z</time></trkpt><trkpt lat="37.278773" lon="15.188586"><ele>16.5</ele><time>2026-04-06T13:30:41.016Z</time></trkpt><trkpt lat="37.2786559" lon="15.1885886"><ele>17.75</ele><time>2026-04-06T13:30:42.029Z</time></trkpt><trkpt lat="37.2785382" lon="15.1885924"><ele>19.0</ele><time>2026-04-06T13:30:43.014Z</time></trkpt><trkpt lat="37.2784215" lon="15.1885956"><ele>19.0</ele><time>2026-04-06T13:30:44.02Z</time></trkpt><trkpt lat="37.2783043" lon="15.1885992"><ele>19.0</ele><time>2026-04-06T13:30:45.032Z</time></trkpt><trkpt lat="37.2781871" lon="15.1886062"><ele>19.0</ele><time>2026-04-06T13:30:45.996Z</time></trkpt><trkpt lat="37.278068" lon="15.1886144"><ele>19.0</ele><time>2026-04-06T13:30:47.03Z</time></trkpt><trkpt lat="37.2779449" lon="15.1886229"><ele>19.5</ele><time>2026-04-06T13:30:48.015Z</time></trkpt><trkpt lat="37.2778164" lon="15.1886319"><ele>20.0</ele><time>2026-04-06T13:30:49.023Z</time></trkpt><trkpt lat="37.2776821" lon="15.1886367"><ele>20.5</ele><time>2026-04-06T13:30:50.031Z</time></trkpt><trkpt lat="37.277539" lon="15.1886436"><ele>21.0</ele><time>2026-04-06T13:30:51.019Z</time></trkpt><trkpt lat="37.2773841" lon="15.1886492"><ele>22.333333333333336</ele><time>2026-04-06T13:30:52.016Z</time></trkpt><trkpt lat="37.2772217" lon="15.1886549"><ele>23.666666666666668</ele><time>2026-04-06T13:30:53.014Z</time></trkpt><trkpt lat="37.2770519" lon="15.1886607"><ele>25.0</ele><time>2026-04-06T13:30:54.012Z</time></trkpt><trkpt lat="37.2768821" lon="15.1886684"><ele>25.0</ele><time>2026-04-06T13:30:54.999Z</time></trkpt><trkpt lat="37.2767195" lon="15.188678"><ele>25.0</ele><time>2026-04-06T13:30:55.996Z</time></trkpt><trkpt lat="37.2765675" lon="15.1886885"><ele>25.0</ele><time>2026-04-06T13:30:57.014Z</time></trkpt><trkpt lat="37.2764255" lon="15.1886989"><ele>25.75</ele><time>2026-04-06T13:30:58.021Z</time></trkpt><trkpt lat="37.2762944" lon="15.1887132"><ele>26.5</ele><time>2026-04-06T13:30:59.016Z</time></trkpt><trkpt lat="37.2761741" lon="15.1887324"><ele>27.25</ele><time>2026-04-06T13:31:00.013Z</time></trkpt><trkpt lat="37.2760644" lon="15.1887587"><ele>28.0</ele><time>2026-04-06T13:31:01.016Z</time></trkpt><trkpt lat="37.2759592" lon="15.1887991"><ele>28.0</ele><time>2026-04-06T13:31:02.013Z</time></trkpt><trkpt lat="37.275855" lon="15.1888499"><ele>28.0</ele><time>2026-04-06T13:31:03.016Z</time></trkpt><trkpt lat="37.2757464" lon="15.1889092"><ele>28.0</ele><time>2026-04-06T13:31:04.013Z</time></trkpt><trkpt lat="37.2756342" lon="15.1889741"><ele>28.0</ele><time>2026-04-06T13:31:05.016Z</time></trkpt><trkpt lat="37.2755172" lon="15.1890444"><ele>29.75</ele><time>2026-04-06T13:31:06.014Z</time></trkpt><trkpt lat="37.2753984" lon="15.189116"><ele>31.5</ele><time>2026-04-06T13:31:07.016Z</time></trkpt><trkpt lat="37.2752775" lon="15.1891864"><ele>33.25</ele><time>2026-04-06T13:31:08.016Z</time></trkpt><trkpt lat="37.2751644" lon="15.18925"><ele>35.0</ele><time>2026-04-06T13:31:08.998Z</time></trkpt><trkpt lat="37.2750597" lon="15.189306"><ele>35.0</ele><time>2026-04-06T13:31:10.011Z</time></trkpt><trkpt lat="37.2749602" lon="15.1893611"><ele>35.0</ele><time>2026-04-06T13:31:11.019Z</time></trkpt><trkpt lat="37.2748634" lon="15.1894185"><ele>35.0</ele><time>2026-04-06T13:31:12.024Z</time></trkpt><trkpt lat="37.2747684" lon="15.1894746"><ele>35.0</ele><time>2026-04-06T13:31:13.014Z</time></trkpt><trkpt lat="37.2746777" lon="15.1895275"><ele>35.0</ele><time>2026-04-06T13:31:14.014Z</time></trkpt><trkpt lat="37.2745891" lon="15.189579"><ele>36.4</ele><time>2026-04-06T13:31:15.012Z</time></trkpt><trkpt lat="37.2744979" lon="15.1896293"><ele>37.8</ele><time>2026-04-06T13:31:16.012Z</time></trkpt><trkpt lat="37.2744027" lon="15.1896771"><ele>39.2</ele><time>2026-04-06T13:31:17.012Z</time></trkpt><trkpt lat="37.2743037" lon="15.189718"><ele>40.6</ele><time>2026-04-06T13:31:18.013Z</time></trkpt><trkpt lat="37.2742069" lon="15.1897522"><ele>42.0</ele><time>2026-04-06T13:31:19.016Z</time></trkpt><trkpt lat="37.2741118" lon="15.1897759"><ele>42.0</ele><time>2026-04-06T13:31:20.015Z</time></trkpt><trkpt lat="37.2740222" lon="15.1897864"><ele>42.0</ele><time>2026-04-06T13:31:21.014Z</time></trkpt><trkpt lat="37.2739394" lon="15.1897807"><ele>42.0</ele><time>2026-04-06T13:31:21.998Z</time></trkpt><trkpt lat="37.2738621" lon="15.1897586"><ele>42.0</ele><time>2026-04-06T13:31:23.015Z</time></trkpt><trkpt lat="37.2737915" lon="15.1897298"><ele>42.0</ele><time>2026-04-06T13:31:24.012Z</time></trkpt><trkpt lat="37.2737274" lon="15.1896863"><ele>42.0</ele><time>2026-04-06T13:31:25.031Z</time></trkpt><trkpt lat="37.2736711" lon="15.1896297"><ele>42.833333333333336</ele><time>2026-04-06T13:31:26.014Z</time></trkpt><trkpt lat="37.2736228" lon="15.189558"><ele>43.666666666666664</ele><time>2026-04-06T13:31:27.016Z</time></trkpt><trkpt lat="37.2735799" lon="15.1894731"><ele>44.5</ele><time>2026-04-06T13:31:28.033Z</time></trkpt><trkpt lat="37.2735425" lon="15.1893769"><ele>45.33333333333333</ele><time>2026-04-06T13:31:29.012Z</time></trkpt><trkpt lat="37.2735184" lon="15.1892685"><ele>46.166666666666664</ele><time>2026-04-06T13:31:30.011Z</time></trkpt><trkpt lat="37.2735021" lon="15.1891478"><ele>47.0</ele><time>2026-04-06T13:31:31.015Z</time></trkpt><trkpt lat="37.2734932" lon="15.1890133"><ele>47.2</ele><time>2026-04-06T13:31:32.01Z</time></trkpt><trkpt lat="37.2734877" lon="15.1888714"><ele>47.400000000000006</ele><time>2026-04-06T13:31:33.011Z</time></trkpt><trkpt lat="37.2734758" lon="15.1887388"><ele>47.599999999999994</ele><time>2026-04-06T13:31:34.012Z</time></trkpt><trkpt lat="37.2734604" lon="15.1886134"><ele>47.8</ele><time>2026-04-06T13:31:35.024Z</time></trkpt><trkpt lat="37.2734399" lon="15.1884979"><ele>48.0</ele><time>2026-04-06T13:31:36.013Z</time></trkpt><trkpt lat="37.2734072" lon="15.1883995"><ele>48.0</ele><time>2026-04-06T13:31:37.02Z</time></trkpt><trkpt lat="37.2733555" lon="15.188317"><ele>48.0</ele><time>2026-04-06T13:31:38.01Z</time></trkpt><trkpt lat="37.2732886" lon="15.1882466"><ele>48.0</ele><time>2026-04-06T13:31:39.012Z</time></trkpt><trkpt lat="37.2732287" lon="15.1881857"><ele>48.0</ele><time>2026-04-06T13:31:40.011Z</time></trkpt><trkpt lat="37.2731252" lon="15.1881104"><ele>48.0</ele><time>2026-04-06T13:31:41Z</time></trkpt><trkpt lat="37.2730272" lon="15.1880541"><ele>49.0</ele><time>2026-04-06T13:31:42.011Z</time></trkpt><trkpt lat="37.2729338" lon="15.1879922"><ele>50.0</ele><time>2026-04-06T13:31:43.018Z</time></trkpt><trkpt lat="37.2728559" lon="15.1879171"><ele>51.0</ele><time>2026-04-06T13:31:44.013Z</time></trkpt><trkpt lat="37.2728147" lon="15.1878192"><ele>52.0</ele><time>2026-04-06T13:31:45.015Z</time></trkpt><trkpt lat="37.2728048" lon="15.1876953"><ele>53.0</ele><time>2026-04-06T13:31:46.003Z</time></trkpt><trkpt lat="37.2727983" lon="15.1875517"><ele>53.0</ele><time>2026-04-06T13:31:47.012Z</time></trkpt><trkpt lat="37.2727884" lon="15.1873883"><ele>53.0</ele><time>2026-04-06T13:31:48.018Z</time></trkpt><trkpt lat="37.2727728" lon="15.1872279"><ele>53.0</ele><time>2026-04-06T13:31:49.017Z</time></trkpt><trkpt lat="37.2727585" lon="15.1870819"><ele>53.0</ele><time>2026-04-06T13:31:50.002Z</time></trkpt><trkpt lat="37.2727417" lon="15.1869552"><ele>53.00000000000001</ele><time>2026-04-06T13:31:51.015Z</time></trkpt><trkpt lat="37.2727051" lon="15.1868594"><ele>53.0</ele><time>2026-04-06T13:31:52.021Z</time></trkpt><trkpt lat="37.2726591" lon="15.1867778"><ele>53.0</ele><time>2026-04-06T13:31:53.014Z</time></trkpt><trkpt lat="37.272613" lon="15.1867064"><ele>53.0</ele><time>2026-04-06T13:31:54.003Z</time></trkpt><trkpt lat="37.2725589" lon="15.1866576"><ele>53.00000000000001</ele><time>2026-04-06T13:31:55.013Z</time></trkpt><trkpt lat="37.2724527" lon="15.1866309"><ele>53.0</ele><time>2026-04-06T13:31:57.001Z</time></trkpt><trkpt lat="37.2723463" lon="15.1867046"><ele>53.00000000000001</ele><time>2026-04-06T13:31:59.019Z</time></trkpt><trkpt lat="37.2722888" lon="15.1867604"><ele>53.0</ele><time>2026-04-06T13:31:59.998Z</time></trkpt><trkpt lat="37.2722227" lon="15.1868035"><ele>53.0</ele><time>2026-04-06T13:32:01.022Z</time></trkpt><trkpt lat="37.272148" lon="15.1868169"><ele>53.0</ele><time>2026-04-06T13:32:02.013Z</time></trkpt><trkpt lat="37.2720695" lon="15.1868045"><ele>53.00000000000001</ele><time>2026-04-06T13:32:02.998Z</time></trkpt><trkpt lat="37.2719854" lon="15.1867767"><ele>53.0</ele><time>2026-04-06T13:32:03.997Z</time></trkpt><trkpt lat="37.27189" lon="15.1867363"><ele>53.25</ele><time>2026-04-06T13:32:05.01Z</time></trkpt><trkpt lat="37.2717822" lon="15.1866952"><ele>53.5</ele><time>2026-04-06T13:32:06.014Z</time></trkpt><trkpt lat="37.271656" lon="15.1866554"><ele>53.75</ele><time>2026-04-06T13:32:07.016Z</time></trkpt><trkpt lat="37.2715178" lon="15.1866169"><ele>54.0</ele><time>2026-04-06T13:32:08.014Z</time></trkpt><trkpt lat="37.2713617" lon="15.1865882"><ele>54.0</ele><time>2026-04-06T13:32:09.015Z</time></trkpt><trkpt lat="37.271203" lon="15.1865685"><ele>54.0</ele><time>2026-04-06T13:32:10.027Z</time></trkpt><trkpt lat="37.2710472" lon="15.1865481"><ele>54.0</ele><time>2026-04-06T13:32:11.014Z</time></trkpt><trkpt lat="37.2708923" lon="15.186523"><ele>53.75</ele><time>2026-04-06T13:32:12.014Z</time></trkpt><trkpt lat="37.2707414" lon="15.1864938"><ele>53.5</ele><time>2026-04-06T13:32:13.015Z</time></trkpt><trkpt lat="37.2705961" lon="15.1864611"><ele>53.25</ele><time>2026-04-06T13:32:14.015Z</time></trkpt><trkpt lat="37.2704512" lon="15.1864276"><ele>53.0</ele><time>2026-04-06T13:32:15.016Z</time></trkpt><trkpt lat="37.270303" lon="15.1863916"><ele>53.66666666666667</ele><time>2026-04-06T13:32:15.978Z</time></trkpt><trkpt lat="37.270154" lon="15.1863554"><ele>54.33333333333333</ele><time>2026-04-06T13:32:17.014Z</time></trkpt><trkpt lat="37.2700036" lon="15.1863227"><ele>55.0</ele><time>2026-04-06T13:32:18.004Z</time></trkpt><trkpt lat="37.269851" lon="15.1862974"><ele>55.33333333333333</ele><time>2026-04-06T13:32:18.998Z</time></trkpt><trkpt lat="37.2696956" lon="15.1862817"><ele>55.66666666666667</ele><time>2026-04-06T13:32:20.013Z</time></trkpt><trkpt lat="37.2695379" lon="15.1862763"><ele>56.0</ele><time>2026-04-06T13:32:21.016Z</time></trkpt><trkpt lat="37.2693799" lon="15.1862806"><ele>56.0</ele><time>2026-04-06T13:32:22.024Z</time></trkpt><trkpt lat="37.2692295" lon="15.1862886"><ele>56.0</ele><time>2026-04-06T13:32:23.016Z</time></trkpt><trkpt lat="37.2690893" lon="15.1862978"><ele>56.0</ele><time>2026-04-06T13:32:24.015Z</time></trkpt><trkpt lat="37.2689581" lon="15.1863079"><ele>56.0</ele><time>2026-04-06T13:32:24.998Z</time></trkpt><trkpt lat="37.26883" lon="15.1863223"><ele>56.0</ele><time>2026-04-06T13:32:26.014Z</time></trkpt><trkpt lat="37.2687002" lon="15.1863398"><ele>56.0</ele><time>2026-04-06T13:32:26.998Z</time></trkpt><trkpt lat="37.2685689" lon="15.1863546"><ele>56.0</ele><time>2026-04-06T13:32:28.014Z</time></trkpt><trkpt lat="37.2684391" lon="15.1863603"><ele>56.0</ele><time>2026-04-06T13:32:29.013Z</time></trkpt><trkpt lat="37.2683158" lon="15.1863495"><ele>56.0</ele><time>2026-04-06T13:32:30.016Z</time></trkpt><trkpt lat="37.2681994" lon="15.1863247"><ele>56.0</ele><time>2026-04-06T13:32:31.03Z</time></trkpt><trkpt lat="37.2680798" lon="15.1862879"><ele>56.0</ele><time>2026-04-06T13:32:31.988Z</time></trkpt><trkpt lat="37.2679553" lon="15.1862476"><ele>56.0</ele><time>2026-04-06T13:32:33.014Z</time></trkpt><trkpt lat="37.2678283" lon="15.1862085"><ele>56.25</ele><time>2026-04-06T13:32:34.014Z</time></trkpt><trkpt lat="37.2677057" lon="15.1861727"><ele>56.5</ele><time>2026-04-06T13:32:35.014Z</time></trkpt><trkpt lat="37.2675884" lon="15.1861428"><ele>56.75</ele><time>2026-04-06T13:32:36.016Z</time></trkpt><trkpt lat="37.2674765" lon="15.1861269"><ele>57.0</ele><time>2026-04-06T13:32:37.014Z</time></trkpt><trkpt lat="37.2673669" lon="15.1861253"><ele>57.25</ele><time>2026-04-06T13:32:38.012Z</time></trkpt><trkpt lat="37.2672543" lon="15.1861337"><ele>57.5</ele><time>2026-04-06T13:32:38.999Z</time></trkpt><trkpt lat="37.2671376" lon="15.1861478"><ele>57.75</ele><time>2026-04-06T13:32:40.014Z</time></trkpt><trkpt lat="37.2670155" lon="15.1861599"><ele>58.0</ele><time>2026-04-06T13:32:41.014Z</time></trkpt><trkpt lat="37.2668885" lon="15.1861606"><ele>58.0</ele><time>2026-04-06T13:32:42.017Z</time></trkpt><trkpt lat="37.2667626" lon="15.1861538"><ele>58.0</ele><time>2026-04-06T13:32:43.025Z</time></trkpt><trkpt lat="37.2666436" lon="15.1861402"><ele>58.0</ele><time>2026-04-06T13:32:43.993Z</time></trkpt><trkpt lat="37.2665317" lon="15.186118"><ele>58.0</ele><time>2026-04-06T13:32:45.021Z</time></trkpt><trkpt lat="37.2664311" lon="15.1860866"><ele>57.8</ele><time>2026-04-06T13:32:45.979Z</time></trkpt><trkpt lat="37.2663369" lon="15.1860414"><ele>57.599999999999994</ele><time>2026-04-06T13:32:47.02Z</time></trkpt><trkpt lat="37.2662456" lon="15.1859824"><ele>57.400000000000006</ele><time>2026-04-06T13:32:47.997Z</time></trkpt><trkpt lat="37.2661556" lon="15.185914"><ele>57.2</ele><time>2026-04-06T13:32:49.01Z</time></trkpt><trkpt lat="37.2660561" lon="15.1858435"><ele>57.0</ele><time>2026-04-06T13:32:50.032Z</time></trkpt><trkpt lat="37.2659519" lon="15.1857845"><ele>57.0</ele><time>2026-04-06T13:32:50.98Z</time></trkpt><trkpt lat="37.2658422" lon="15.1857369"><ele>57.0</ele><time>2026-04-06T13:32:51.998Z</time></trkpt><trkpt lat="37.2657145" lon="15.185697"><ele>57.0</ele><time>2026-04-06T13:32:53.015Z</time></trkpt><trkpt lat="37.2655826" lon="15.1856635"><ele>57.0</ele><time>2026-04-06T13:32:54Z</time></trkpt><trkpt lat="37.2654455" lon="15.1856338"><ele>56.5</ele><time>2026-04-06T13:32:55.013Z</time></trkpt><trkpt lat="37.2653101" lon="15.1856077"><ele>56.0</ele><time>2026-04-06T13:32:56.016Z</time></trkpt><trkpt lat="37.2651799" lon="15.1855815"><ele>55.5</ele><time>2026-04-06T13:32:57.018Z</time></trkpt><trkpt lat="37.265054" lon="15.18555"><ele>55.0</ele><time>2026-04-06T13:32:58.015Z</time></trkpt><trkpt lat="37.2649329" lon="15.185517"><ele>55.0</ele><time>2026-04-06T13:32:59.011Z</time></trkpt><trkpt lat="37.2648106" lon="15.1854832"><ele>55.0</ele><time>2026-04-06T13:33:00.011Z</time></trkpt><trkpt lat="37.2646873" lon="15.1854452"><ele>55.0</ele><time>2026-04-06T13:33:01.018Z</time></trkpt><trkpt lat="37.2645639" lon="15.1853975"><ele>55.0</ele><time>2026-04-06T13:33:02.013Z</time></trkpt><trkpt lat="37.2644396" lon="15.185342"><ele>54.5</ele><time>2026-04-06T13:33:03.014Z</time></trkpt><trkpt lat="37.2643134" lon="15.1852844"><ele>54.0</ele><time>2026-04-06T13:33:04.029Z</time></trkpt><trkpt lat="37.2641887" lon="15.1852205"><ele>53.5</ele><time>2026-04-06T13:33:05.03Z</time></trkpt><trkpt lat="37.2640616" lon="15.1851563"><ele>53.0</ele><time>2026-04-06T13:33:06.013Z</time></trkpt><trkpt lat="37.2639347" lon="15.1850873"><ele>52.333333333333336</ele><time>2026-04-06T13:33:07.014Z</time></trkpt><trkpt lat="37.2638055" lon="15.1850078"><ele>51.66666666666667</ele><time>2026-04-06T13:33:07.978Z</time></trkpt><trkpt lat="37.2636734" lon="15.1849187"><ele>51.0</ele><time>2026-04-06T13:33:09.028Z</time></trkpt><trkpt lat="37.2635316" lon="15.1848177"><ele>51.66666666666667</ele><time>2026-04-06T13:33:10.013Z</time></trkpt><trkpt lat="37.2633712" lon="15.1847071"><ele>52.333333333333336</ele><time>2026-04-06T13:33:11.014Z</time></trkpt><trkpt lat="37.2632007" lon="15.184581"><ele>53.0</ele><time>2026-04-06T13:33:12.013Z</time></trkpt><trkpt lat="37.2630199" lon="15.1844357"><ele>53.0</ele><time>2026-04-06T13:33:13.016Z</time></trkpt><trkpt lat="37.2628295" lon="15.1842777"><ele>53.0</ele><time>2026-04-06T13:33:13.979Z</time></trkpt><trkpt lat="37.2626321" lon="15.1841194"><ele>53.0</ele><time>2026-04-06T13:33:15.013Z</time></trkpt><trkpt lat="37.2624325" lon="15.1839657"><ele>53.0</ele><time>2026-04-06T13:33:16.012Z</time></trkpt><trkpt lat="37.2622323" lon="15.1838149"><ele>53.0</ele><time>2026-04-06T13:33:16.998Z</time></trkpt><trkpt lat="37.2620334" lon="15.1836603"><ele>53.0</ele><time>2026-04-06T13:33:18.014Z</time></trkpt><trkpt lat="37.2618393" lon="15.1835116"><ele>53.0</ele><time>2026-04-06T13:33:19.013Z</time></trkpt><trkpt lat="37.2616503" lon="15.1833729"><ele>53.0</ele><time>2026-04-06T13:33:19.999Z</time></trkpt><trkpt lat="37.2614691" lon="15.1832483"><ele>53.0</ele><time>2026-04-06T13:33:21.01Z</time></trkpt><trkpt lat="37.2612989" lon="15.1831388"><ele>53.0</ele><time>2026-04-06T13:33:22.015Z</time></trkpt><trkpt lat="37.2611441" lon="15.1830377"><ele>53.0</ele><time>2026-04-06T13:33:23.022Z</time></trkpt><trkpt lat="37.2610066" lon="15.1829341"><ele>53.0</ele><time>2026-04-06T13:33:23.979Z</time></trkpt><trkpt lat="37.2608737" lon="15.182816"><ele>53.0</ele><time>2026-04-06T13:33:25.016Z</time></trkpt><trkpt lat="37.2607437" lon="15.1826887"><ele>53.0</ele><time>2026-04-06T13:33:25.998Z</time></trkpt><trkpt lat="37.2606133" lon="15.1825509"><ele>53.0</ele><time>2026-04-06T13:33:27.015Z</time></trkpt><trkpt lat="37.260491" lon="15.1824208"><ele>53.0</ele><time>2026-04-06T13:33:27.999Z</time></trkpt><trkpt lat="37.2603766" lon="15.1823092"><ele>53.0</ele><time>2026-04-06T13:33:29.013Z</time></trkpt><trkpt lat="37.2602646" lon="15.182225"><ele>53.0</ele><time>2026-04-06T13:33:29.999Z</time></trkpt><trkpt lat="37.260155" lon="15.182162"><ele>53.0</ele><time>2026-04-06T13:33:30.999Z</time></trkpt><trkpt lat="37.2600469" lon="15.1821169"><ele>53.0</ele><time>2026-04-06T13:33:32.016Z</time></trkpt><trkpt lat="37.2599361" lon="15.1820872"><ele>53.0</ele><time>2026-04-06T13:33:33.015Z</time></trkpt><trkpt lat="37.2598092" lon="15.1820667"><ele>53.0</ele><time>2026-04-06T13:33:34.014Z</time></trkpt><trkpt lat="37.2596675" lon="15.1820508"><ele>53.0</ele><time>2026-04-06T13:33:35.015Z</time></trkpt><trkpt lat="37.2595095" lon="15.1820335"><ele>52.333333333333336</ele><time>2026-04-06T13:33:36.015Z</time></trkpt><trkpt lat="37.2593341" lon="15.1820131"><ele>51.66666666666667</ele><time>2026-04-06T13:33:37.014Z</time></trkpt><trkpt lat="37.2591518" lon="15.1819888"><ele>51.0</ele><time>2026-04-06T13:33:38Z</time></trkpt><trkpt lat="37.2589762" lon="15.1819664"><ele>50.66666666666667</ele><time>2026-04-06T13:33:39.004Z</time></trkpt><trkpt lat="37.2588133" lon="15.1819457"><ele>50.333333333333336</ele><time>2026-04-06T13:33:40.031Z</time></trkpt><trkpt lat="37.2586641" lon="15.1819245"><ele>50.0</ele><time>2026-04-06T13:33:41.017Z</time></trkpt><trkpt lat="37.2585268" lon="15.181905"><ele>50.0</ele><time>2026-04-06T13:33:42.005Z</time></trkpt><trkpt lat="37.2584034" lon="15.1818859"><ele>50.0</ele><time>2026-04-06T13:33:43Z</time></trkpt><trkpt lat="37.2582938" lon="15.1818681"><ele>50.0</ele><time>2026-04-06T13:33:43.994Z</time></trkpt><trkpt lat="37.2581991" lon="15.1818411"><ele>50.0</ele><time>2026-04-06T13:33:45.011Z</time></trkpt><trkpt lat="37.2581164" lon="15.1818023"><ele>50.0</ele><time>2026-04-06T13:33:46.013Z</time></trkpt><trkpt lat="37.2580469" lon="15.181751"><ele>50.00000000000001</ele><time>2026-04-06T13:33:46.997Z</time></trkpt><trkpt lat="37.2579866" lon="15.181692"><ele>50.0</ele><time>2026-04-06T13:33:47.999Z</time></trkpt><trkpt lat="37.2579285" lon="15.181614"><ele>50.0</ele><time>2026-04-06T13:33:49.017Z</time></trkpt><trkpt lat="37.2578692" lon="15.181514"><ele>50.0</ele><time>2026-04-06T13:33:50.013Z</time></trkpt><trkpt lat="37.2578264" lon="15.1814035"><ele>50.00000000000001</ele><time>2026-04-06T13:33:51.013Z</time></trkpt><trkpt lat="37.2577994" lon="15.1812947"><ele>50.0</ele><time>2026-04-06T13:33:52.028Z</time></trkpt><trkpt lat="37.2577854" lon="15.1811917"><ele>50.00000000000001</ele><time>2026-04-06T13:33:53.025Z</time></trkpt><trkpt lat="37.2577685" lon="15.1810931"><ele>50.0</ele><time>2026-04-06T13:33:54.012Z</time></trkpt><trkpt lat="37.2577372" lon="15.1810215"><ele>50.0</ele><time>2026-04-06T13:33:55.024Z</time></trkpt><trkpt lat="37.257654" lon="15.1809593"><ele>50.0</ele><time>2026-04-06T13:33:57.019Z</time></trkpt><trkpt lat="37.2575835" lon="15.1809208"><ele>50.00000000000001</ele><time>2026-04-06T13:33:59.015Z</time></trkpt><trkpt lat="37.2574928" lon="15.1808153"><ele>50.0</ele><time>2026-04-06T13:34:01Z</time></trkpt><trkpt lat="37.2574458" lon="15.1807234"><ele>50.0</ele><time>2026-04-06T13:34:01.981Z</time></trkpt><trkpt lat="37.2573996" lon="15.180617"><ele>50.0</ele><time>2026-04-06T13:34:03.015Z</time></trkpt><trkpt lat="37.2573435" lon="15.180491"><ele>50.0</ele><time>2026-04-06T13:34:03.999Z</time></trkpt><trkpt lat="37.2572721" lon="15.1803394"><ele>50.0</ele><time>2026-04-06T13:34:05.013Z</time></trkpt><trkpt lat="37.2571955" lon="15.1801708"><ele>50.0</ele><time>2026-04-06T13:34:06.024Z</time></trkpt><trkpt lat="37.2571151" lon="15.1799531"><ele>50.0</ele><time>2026-04-06T13:34:07.025Z</time></trkpt><trkpt lat="37.2570236" lon="15.1797533"><ele>50.0</ele><time>2026-04-06T13:34:07.999Z</time></trkpt><trkpt lat="37.256921" lon="15.1795634"><ele>50.333333333333336</ele><time>2026-04-06T13:34:09.013Z</time></trkpt><trkpt lat="37.2568042" lon="15.1793682"><ele>50.66666666666667</ele><time>2026-04-06T13:34:10.026Z</time></trkpt><trkpt lat="37.256676" lon="15.1791647"><ele>51.0</ele><time>2026-04-06T13:34:11.035Z</time></trkpt><trkpt lat="37.2565556" lon="15.1789429"><ele>50.66666666666667</ele><time>2026-04-06T13:34:12.024Z</time></trkpt><trkpt lat="37.2564123" lon="15.1787429"><ele>50.333333333333336</ele><time>2026-04-06T13:34:13.023Z</time></trkpt><trkpt lat="37.2562767" lon="15.1785501"><ele>50.0</ele><time>2026-04-06T13:34:14.013Z</time></trkpt><trkpt lat="37.2561541" lon="15.1783618"><ele>50.0</ele><time>2026-04-06T13:34:15.029Z</time></trkpt><trkpt lat="37.2560348" lon="15.1781886"><ele>50.0</ele><time>2026-04-06T13:34:16.014Z</time></trkpt><trkpt lat="37.2559184" lon="15.1780201"><ele>50.0</ele><time>2026-04-06T13:34:17.016Z</time></trkpt><trkpt lat="37.2557993" lon="15.1778614"><ele>50.333333333333336</ele><time>2026-04-06T13:34:18.029Z</time></trkpt><trkpt lat="37.2556904" lon="15.1777011"><ele>50.66666666666667</ele><time>2026-04-06T13:34:19.02Z</time></trkpt><trkpt lat="37.2555439" lon="15.1775513"><ele>51.0</ele><time>2026-04-06T13:34:20.02Z</time></trkpt><trkpt lat="37.2553742" lon="15.1773919"><ele>50.5</ele><time>2026-04-06T13:34:21Z</time></trkpt><trkpt lat="37.255187" lon="15.1772203"><ele>50.0</ele><time>2026-04-06T13:34:22.02Z</time></trkpt><trkpt lat="37.2549892" lon="15.1770411"><ele>50.0</ele><time>2026-04-06T13:34:23.02Z</time></trkpt><trkpt lat="37.254792" lon="15.1768565"><ele>50.0</ele><time>2026-04-06T13:34:24.013Z</time></trkpt><trkpt lat="37.254604" lon="15.1766793"><ele>50.0</ele><time>2026-04-06T13:34:25.017Z</time></trkpt><trkpt lat="37.2544259" lon="15.1765053"><ele>50.0</ele><time>2026-04-06T13:34:26.026Z</time></trkpt><trkpt lat="37.2542568" lon="15.1763404"><ele>50.0</ele><time>2026-04-06T13:34:27.001Z</time></trkpt><trkpt lat="37.2541026" lon="15.1761745"><ele>50.0</ele><time>2026-04-06T13:34:27.999Z</time></trkpt><trkpt lat="37.2539627" lon="15.1760113"><ele>50.0</ele><time>2026-04-06T13:34:29.023Z</time></trkpt><trkpt lat="37.2538404" lon="15.1758533"><ele>50.0</ele><time>2026-04-06T13:34:30.015Z</time></trkpt><trkpt lat="37.2537291" lon="15.1756904"><ele>50.0</ele><time>2026-04-06T13:34:31.017Z</time></trkpt><trkpt lat="37.2536168" lon="15.1755131"><ele>50.0</ele><time>2026-04-06T13:34:32.015Z</time></trkpt><trkpt lat="37.253501" lon="15.1753265"><ele>50.0</ele><time>2026-04-06T13:34:33.017Z</time></trkpt><trkpt lat="37.2533768" lon="15.1751311"><ele>50.0</ele><time>2026-04-06T13:34:34Z</time></trkpt><trkpt lat="37.2532555" lon="15.174911"><ele>50.0</ele><time>2026-04-06T13:34:35.014Z</time></trkpt><trkpt lat="37.2531345" lon="15.1746894"><ele>50.0</ele><time>2026-04-06T13:34:35.998Z</time></trkpt><trkpt lat="37.2530148" lon="15.1744768"><ele>50.333333333333336</ele><time>2026-04-06T13:34:37.013Z</time></trkpt><trkpt lat="37.2529045" lon="15.1742683"><ele>50.66666666666667</ele><time>2026-04-06T13:34:38.012Z</time></trkpt><trkpt lat="37.2528002" lon="15.1740738"><ele>51.0</ele><time>2026-04-06T13:34:39.014Z</time></trkpt><trkpt lat="37.2526943" lon="15.1739015"><ele>51.33333333333333</ele><time>2026-04-06T13:34:39.996Z</time></trkpt><trkpt lat="37.2525782" lon="15.1737399"><ele>51.666666666666664</ele><time>2026-04-06T13:34:41.014Z</time></trkpt><trkpt lat="37.2524523" lon="15.1735772"><ele>52.0</ele><time>2026-04-06T13:34:42.025Z</time></trkpt><trkpt lat="37.2523179" lon="15.1734167"><ele>51.0</ele><time>2026-04-06T13:34:42.996Z</time></trkpt><trkpt lat="37.2521834" lon="15.1732545"><ele>50.0</ele><time>2026-04-06T13:34:44.014Z</time></trkpt><trkpt lat="37.2520613" lon="15.1731026"><ele>49.0</ele><time>2026-04-06T13:34:45.024Z</time></trkpt><trkpt lat="37.2519514" lon="15.1729635"><ele>48.800000000000004</ele><time>2026-04-06T13:34:46.016Z</time></trkpt><trkpt lat="37.2518542" lon="15.1728399"><ele>48.6</ele><time>2026-04-06T13:34:46.983Z</time></trkpt><trkpt lat="37.2517736" lon="15.1727377"><ele>48.4</ele><time>2026-04-06T13:34:48.02Z</time></trkpt><trkpt lat="37.2517026" lon="15.172661"><ele>48.2</ele><time>2026-04-06T13:34:49.019Z</time></trkpt><trkpt lat="37.2516317" lon="15.17261"><ele>48.0</ele><time>2026-04-06T13:34:50.012Z</time></trkpt><trkpt lat="37.2515561" lon="15.1725844"><ele>48.0</ele><time>2026-04-06T13:34:51.026Z</time></trkpt><trkpt lat="37.2514658" lon="15.1725727"><ele>48.0</ele><time>2026-04-06T13:34:52.029Z</time></trkpt><trkpt lat="37.2513623" lon="15.1725807"><ele>48.0</ele><time>2026-04-06T13:34:53.013Z</time></trkpt><trkpt lat="37.2512461" lon="15.1725927"><ele>48.0</ele><time>2026-04-06T13:34:54.013Z</time></trkpt><trkpt lat="37.251117" lon="15.1726135"><ele>48.0</ele><time>2026-04-06T13:34:55.012Z</time></trkpt><trkpt lat="37.250996" lon="15.1726484"><ele>47.8</ele><time>2026-04-06T13:34:56.014Z</time></trkpt><trkpt lat="37.2508913" lon="15.1727027"><ele>47.599999999999994</ele><time>2026-04-06T13:34:57.018Z</time></trkpt><trkpt lat="37.250809" lon="15.1727568"><ele>47.400000000000006</ele><time>2026-04-06T13:34:58.012Z</time></trkpt><trkpt lat="37.2507461" lon="15.1728221"><ele>47.2</ele><time>2026-04-06T13:34:59.012Z</time></trkpt><trkpt lat="37.2506941" lon="15.172902"><ele>47.0</ele><time>2026-04-06T13:35:00.014Z</time></trkpt><trkpt lat="37.2506441" lon="15.173005"><ele>47.5</ele><time>2026-04-06T13:35:01.012Z</time></trkpt><trkpt lat="37.2505871" lon="15.1731344"><ele>48.0</ele><time>2026-04-06T13:35:02.015Z</time></trkpt><trkpt lat="37.2505235" lon="15.1732826"><ele>48.5</ele><time>2026-04-06T13:35:03.013Z</time></trkpt><trkpt lat="37.2504537" lon="15.173453"><ele>49.0</ele><time>2026-04-06T13:35:04.012Z</time></trkpt><trkpt lat="37.2503633" lon="15.1736662"><ele>49.0</ele><time>2026-04-06T13:35:05.025Z</time></trkpt><trkpt lat="37.2502689" lon="15.1738978"><ele>49.0</ele><time>2026-04-06T13:35:06.03Z</time></trkpt><trkpt lat="37.2501784" lon="15.17413"><ele>49.0</ele><time>2026-04-06T13:35:07.016Z</time></trkpt><trkpt lat="37.2500938" lon="15.1743505"><ele>48.33333333333333</ele><time>2026-04-06T13:35:08.012Z</time></trkpt><trkpt lat="37.2500137" lon="15.1745554"><ele>47.666666666666664</ele><time>2026-04-06T13:35:09.011Z</time></trkpt><trkpt lat="37.2499382" lon="15.1747395"><ele>47.0</ele><time>2026-04-06T13:35:10.012Z</time></trkpt><trkpt lat="37.2498731" lon="15.1748952"><ele>46.83333333333333</ele><time>2026-04-06T13:35:10.981Z</time></trkpt><trkpt lat="37.2498177" lon="15.1750189"><ele>46.666666666666664</ele><time>2026-04-06T13:35:12.012Z</time></trkpt><trkpt lat="37.2497644" lon="15.1751128"><ele>46.5</ele><time>2026-04-06T13:35:12.984Z</time></trkpt><trkpt lat="37.2497065" lon="15.1751734"><ele>46.333333333333336</ele><time>2026-04-06T13:35:14.016Z</time></trkpt><trkpt lat="37.2496416" lon="15.1752064"><ele>46.16666666666667</ele><time>2026-04-06T13:35:15.014Z</time></trkpt><trkpt lat="37.2495653" lon="15.1752208"><ele>46.0</ele><time>2026-04-06T13:35:16.014Z</time></trkpt><trkpt lat="37.2494751" lon="15.1752145"><ele>45.75</ele><time>2026-04-06T13:35:17.012Z</time></trkpt><trkpt lat="37.2493742" lon="15.1751912"><ele>45.5</ele><time>2026-04-06T13:35:18.015Z</time></trkpt><trkpt lat="37.2492597" lon="15.175145"><ele>45.25</ele><time>2026-04-06T13:35:19.016Z</time></trkpt><trkpt lat="37.249124" lon="15.1750865"><ele>45.0</ele><time>2026-04-06T13:35:20.001Z</time></trkpt><trkpt lat="37.2489671" lon="15.1750185"><ele>45.0</ele><time>2026-04-06T13:35:21.027Z</time></trkpt><trkpt lat="37.2487876" lon="15.1749399"><ele>45.0</ele><time>2026-04-06T13:35:22.046Z</time></trkpt><trkpt lat="37.2485956" lon="15.1748525"><ele>45.0</ele><time>2026-04-06T13:35:23.018Z</time></trkpt><trkpt lat="37.2483951" lon="15.1747573"><ele>45.0</ele><time>2026-04-06T13:35:24.001Z</time></trkpt><trkpt lat="37.2481925" lon="15.1746609"><ele>45.0</ele><time>2026-04-06T13:35:25.014Z</time></trkpt><trkpt lat="37.2479915" lon="15.1745624"><ele>45.0</ele><time>2026-04-06T13:35:26.015Z</time></trkpt><trkpt lat="37.2477984" lon="15.1744701"><ele>45.0</ele><time>2026-04-06T13:35:27.014Z</time></trkpt><trkpt lat="37.2476191" lon="15.1743805"><ele>45.0</ele><time>2026-04-06T13:35:28.022Z</time></trkpt><trkpt lat="37.2474552" lon="15.1743052"><ele>45.0</ele><time>2026-04-06T13:35:29.012Z</time></trkpt><trkpt lat="37.2472989" lon="15.1742431"><ele>44.5</ele><time>2026-04-06T13:35:30.015Z</time></trkpt><trkpt lat="37.2471453" lon="15.1741985"><ele>44.0</ele><time>2026-04-06T13:35:31.014Z</time></trkpt><trkpt lat="37.2469957" lon="15.1741789"><ele>43.5</ele><time>2026-04-06T13:35:32.015Z</time></trkpt><trkpt lat="37.2468599" lon="15.1741712"><ele>43.0</ele><time>2026-04-06T13:35:33.015Z</time></trkpt><trkpt lat="37.2467422" lon="15.1741728"><ele>43.0</ele><time>2026-04-06T13:35:34.014Z</time></trkpt><trkpt lat="37.246646" lon="15.1741875"><ele>43.0</ele><time>2026-04-06T13:35:35.014Z</time></trkpt><trkpt lat="37.2465586" lon="15.1742181"><ele>43.0</ele><time>2026-04-06T13:35:36.018Z</time></trkpt><trkpt lat="37.246466" lon="15.174271"><ele>43.0</ele><time>2026-04-06T13:35:37.031Z</time></trkpt><trkpt lat="37.2463577" lon="15.1743471"><ele>43.0</ele><time>2026-04-06T13:35:38.021Z</time></trkpt><trkpt lat="37.2462288" lon="15.1744379"><ele>44.0</ele><time>2026-04-06T13:35:39.029Z</time></trkpt><trkpt lat="37.2460761" lon="15.1745381"><ele>45.0</ele><time>2026-04-06T13:35:40.029Z</time></trkpt><trkpt lat="37.2459109" lon="15.1746483"><ele>46.0</ele><time>2026-04-06T13:35:41.016Z</time></trkpt><trkpt lat="37.2457504" lon="15.1747461"><ele>45.5</ele><time>2026-04-06T13:35:41.997Z</time></trkpt><trkpt lat="37.2456039" lon="15.1748356"><ele>45.0</ele><time>2026-04-06T13:35:43.016Z</time></trkpt><trkpt lat="37.2454775" lon="15.1749153"><ele>44.5</ele><time>2026-04-06T13:35:44.029Z</time></trkpt><trkpt lat="37.2453796" lon="15.1749719"><ele>44.0</ele><time>2026-04-06T13:35:45.014Z</time></trkpt><trkpt lat="37.245302" lon="15.1750022"><ele>44.0</ele><time>2026-04-06T13:35:46.013Z</time></trkpt><trkpt lat="37.24523" lon="15.1749981"><ele>44.0</ele><time>2026-04-06T13:35:47.017Z</time></trkpt><trkpt lat="37.2451569" lon="15.1749627"><ele>44.0</ele><time>2026-04-06T13:35:48.011Z</time></trkpt><trkpt lat="37.2450792" lon="15.1748955"><ele>44.0</ele><time>2026-04-06T13:35:49.014Z</time></trkpt><trkpt lat="37.2450002" lon="15.1748011"><ele>44.0</ele><time>2026-04-06T13:35:50Z</time></trkpt><trkpt lat="37.2449151" lon="15.174677"><ele>44.0</ele><time>2026-04-06T13:35:51.033Z</time></trkpt><trkpt lat="37.244825" lon="15.1745326"><ele>44.0</ele><time>2026-04-06T13:35:52.033Z</time></trkpt><trkpt lat="37.2447217" lon="15.1743957"><ele>44.0</ele><time>2026-04-06T13:35:52.996Z</time></trkpt><trkpt lat="37.2446271" lon="15.1742741"><ele>44.0</ele><time>2026-04-06T13:35:54.014Z</time></trkpt><trkpt lat="37.2445308" lon="15.1741682"><ele>44.0</ele><time>2026-04-06T13:35:54.985Z</time></trkpt><trkpt lat="37.244431" lon="15.17408"><ele>44.0</ele><time>2026-04-06T13:35:55.998Z</time></trkpt><trkpt lat="37.2443198" lon="15.174011"><ele>44.0</ele><time>2026-04-06T13:35:57.012Z</time></trkpt><trkpt lat="37.2441985" lon="15.1739631"><ele>44.0</ele><time>2026-04-06T13:35:58.014Z</time></trkpt><trkpt lat="37.2440638" lon="15.1739248"><ele>43.33333333333333</ele><time>2026-04-06T13:35:58.998Z</time></trkpt><trkpt lat="37.2439181" lon="15.1738804"><ele>42.666666666666664</ele><time>2026-04-06T13:36:00.032Z</time></trkpt><trkpt lat="37.243752" lon="15.173849"><ele>42.0</ele><time>2026-04-06T13:36:01.005Z</time></trkpt><trkpt lat="37.2435729" lon="15.1738203"><ele>42.0</ele><time>2026-04-06T13:36:01.992Z</time></trkpt><trkpt lat="37.2433927" lon="15.1737868"><ele>42.0</ele><time>2026-04-06T13:36:03.031Z</time></trkpt><trkpt lat="37.243227" lon="15.173754"><ele>42.0</ele><time>2026-04-06T13:36:04.013Z</time></trkpt><trkpt lat="37.2430818" lon="15.1737265"><ele>41.0</ele><time>2026-04-06T13:36:05.013Z</time></trkpt><trkpt lat="37.2429489" lon="15.1736985"><ele>40.0</ele><time>2026-04-06T13:36:06.011Z</time></trkpt><trkpt lat="37.2428163" lon="15.1736685"><ele>39.0</ele><time>2026-04-06T13:36:07.016Z</time></trkpt><trkpt lat="37.2426844" lon="15.173642"><ele>38.0</ele><time>2026-04-06T13:36:08.028Z</time></trkpt><trkpt lat="37.24256" lon="15.1736202"><ele>38.0</ele><time>2026-04-06T13:36:09.011Z</time></trkpt><trkpt lat="37.242444" lon="15.1735994"><ele>38.0</ele><time>2026-04-06T13:36:10.012Z</time></trkpt><trkpt lat="37.242335" lon="15.1735803"><ele>38.0</ele><time>2026-04-06T13:36:11.014Z</time></trkpt><trkpt lat="37.2422256" lon="15.1735732"><ele>38.0</ele><time>2026-04-06T13:36:12.01Z</time></trkpt><trkpt lat="37.2421183" lon="15.1735804"><ele>38.0</ele><time>2026-04-06T13:36:13.014Z</time></trkpt><trkpt lat="37.2420118" lon="15.1735981"><ele>36.4</ele><time>2026-04-06T13:36:14.013Z</time></trkpt><trkpt lat="37.2419054" lon="15.1736266"><ele>34.8</ele><time>2026-04-06T13:36:15.014Z</time></trkpt><trkpt lat="37.241806" lon="15.1736558"><ele>33.2</ele><time>2026-04-06T13:36:16.012Z</time></trkpt><trkpt lat="37.2417132" lon="15.173678"><ele>31.6</ele><time>2026-04-06T13:36:17.013Z</time></trkpt><trkpt lat="37.2416227" lon="15.1736842"><ele>30.0</ele><time>2026-04-06T13:36:18.021Z</time></trkpt><trkpt lat="37.241534" lon="15.1736723"><ele>28.2</ele><time>2026-04-06T13:36:19.012Z</time></trkpt><trkpt lat="37.2414517" lon="15.173648"><ele>26.4</ele><time>2026-04-06T13:36:20.012Z</time></trkpt><trkpt lat="37.2413809" lon="15.1735991"><ele>24.6</ele><time>2026-04-06T13:36:21.017Z</time></trkpt><trkpt lat="37.2413069" lon="15.1735259"><ele>22.8</ele><time>2026-04-06T13:36:22.013Z</time></trkpt><trkpt lat="37.2412398" lon="15.1734289"><ele>21.0</ele><time>2026-04-06T13:36:23.016Z</time></trkpt><trkpt lat="37.2411712" lon="15.1733182"><ele>21.0</ele><time>2026-04-06T13:36:24.017Z</time></trkpt><trkpt lat="37.2410865" lon="15.1732012"><ele>21.0</ele><time>2026-04-06T13:36:25.014Z</time></trkpt><trkpt lat="37.2409832" lon="15.1730896"><ele>21.0</ele><time>2026-04-06T13:36:26.015Z</time></trkpt><trkpt lat="37.2408728" lon="15.1729868"><ele>21.0</ele><time>2026-04-06T13:36:27.013Z</time></trkpt><trkpt lat="37.240754" lon="15.1729024"><ele>21.5</ele><time>2026-04-06T13:36:28.018Z</time></trkpt><trkpt lat="37.2406332" lon="15.1728406"><ele>22.0</ele><time>2026-04-06T13:36:29.013Z</time></trkpt><trkpt lat="37.240512" lon="15.1728016"><ele>22.5</ele><time>2026-04-06T13:36:30.013Z</time></trkpt><trkpt lat="37.2403792" lon="15.1727839"><ele>23.0</ele><time>2026-04-06T13:36:31.014Z</time></trkpt><trkpt lat="37.2402359" lon="15.1727847"><ele>22.666666666666668</ele><time>2026-04-06T13:36:31.997Z</time></trkpt><trkpt lat="37.2400784" lon="15.1727995"><ele>22.333333333333332</ele><time>2026-04-06T13:36:33.014Z</time></trkpt><trkpt lat="37.239888" lon="15.1728152"><ele>22.0</ele><time>2026-04-06T13:36:34.015Z</time></trkpt><trkpt lat="37.2396742" lon="15.1728387"><ele>22.0</ele><time>2026-04-06T13:36:35.016Z</time></trkpt><trkpt lat="37.2394478" lon="15.1728541"><ele>22.0</ele><time>2026-04-06T13:36:36.028Z</time></trkpt><trkpt lat="37.2392184" lon="15.1728752"><ele>22.0</ele><time>2026-04-06T13:36:37.011Z</time></trkpt><trkpt lat="37.2389847" lon="15.1729002"><ele>22.0</ele><time>2026-04-06T13:36:38Z</time></trkpt><trkpt lat="37.2387613" lon="15.1729199"><ele>22.333333333333332</ele><time>2026-04-06T13:36:39.01Z</time></trkpt><trkpt lat="37.238552" lon="15.1729377"><ele>22.666666666666668</ele><time>2026-04-06T13:36:40.012Z</time></trkpt><trkpt lat="37.2383558" lon="15.1729497"><ele>23.0</ele><time>2026-04-06T13:36:40.999Z</time></trkpt><trkpt lat="37.2381703" lon="15.1729535"><ele>22.333333333333336</ele><time>2026-04-06T13:36:42.002Z</time></trkpt><trkpt lat="37.2379877" lon="15.1729472"><ele>21.666666666666668</ele><time>2026-04-06T13:36:42.997Z</time></trkpt><trkpt lat="37.2377984" lon="15.1729228"><ele>21.0</ele><time>2026-04-06T13:36:44.015Z</time></trkpt><trkpt lat="37.2376018" lon="15.1728782"><ele>21.0</ele><time>2026-04-06T13:36:45.018Z</time></trkpt><trkpt lat="37.2374017" lon="15.1728182"><ele>21.0</ele><time>2026-04-06T13:36:46.017Z</time></trkpt><trkpt lat="37.2372124" lon="15.1727541"><ele>21.0</ele><time>2026-04-06T13:36:47.014Z</time></trkpt><trkpt lat="37.237035" lon="15.1726945"><ele>19.333333333333332</ele><time>2026-04-06T13:36:47.998Z</time></trkpt><trkpt lat="37.2368651" lon="15.1726431"><ele>17.666666666666664</ele><time>2026-04-06T13:36:49.013Z</time></trkpt><trkpt lat="37.2367121" lon="15.1725924"><ele>16.0</ele><time>2026-04-06T13:36:50.01Z</time></trkpt><trkpt lat="37.2365733" lon="15.1725425"><ele>17.200000000000003</ele><time>2026-04-06T13:36:51.03Z</time></trkpt><trkpt lat="37.2364493" lon="15.172491"><ele>18.400000000000002</ele><time>2026-04-06T13:36:52.012Z</time></trkpt><trkpt lat="37.2363419" lon="15.1724452"><ele>19.6</ele><time>2026-04-06T13:36:53.019Z</time></trkpt><trkpt lat="37.2362469" lon="15.172409"><ele>20.8</ele><time>2026-04-06T13:36:53.996Z</time></trkpt><trkpt lat="37.2361618" lon="15.1723913"><ele>22.0</ele><time>2026-04-06T13:36:55.015Z</time></trkpt><trkpt lat="37.2360819" lon="15.1723935"><ele>22.0</ele><time>2026-04-06T13:36:55.998Z</time></trkpt><trkpt lat="37.2360037" lon="15.1724188"><ele>22.0</ele><time>2026-04-06T13:36:57.012Z</time></trkpt><trkpt lat="37.2359163" lon="15.1724728"><ele>22.0</ele><time>2026-04-06T13:36:58.015Z</time></trkpt><trkpt lat="37.2358148" lon="15.1725461"><ele>22.0</ele><time>2026-04-06T13:36:59.012Z</time></trkpt><trkpt lat="37.2356973" lon="15.1726322"><ele>22.0</ele><time>2026-04-06T13:37:00.023Z</time></trkpt><trkpt lat="37.2355878" lon="15.1727332"><ele>22.75</ele><time>2026-04-06T13:37:01.017Z</time></trkpt><trkpt lat="37.2354878" lon="15.1728515"><ele>23.5</ele><time>2026-04-06T13:37:02.014Z</time></trkpt><trkpt lat="37.2353949" lon="15.1729837"><ele>24.25</ele><time>2026-04-06T13:37:03.029Z</time></trkpt><trkpt lat="37.2353067" lon="15.1731305"><ele>25.0</ele><time>2026-04-06T13:37:04.014Z</time></trkpt><trkpt lat="37.235211" lon="15.1732898"><ele>25.0</ele><time>2026-04-06T13:37:05.022Z</time></trkpt><trkpt lat="37.235108" lon="15.1734551"><ele>25.0</ele><time>2026-04-06T13:37:06.016Z</time></trkpt><trkpt lat="37.2349984" lon="15.1736214"><ele>25.0</ele><time>2026-04-06T13:37:07.014Z</time></trkpt><trkpt lat="37.234887" lon="15.1737778"><ele>27.0</ele><time>2026-04-06T13:37:08.028Z</time></trkpt><trkpt lat="37.234775" lon="15.173919"><ele>29.0</ele><time>2026-04-06T13:37:09.011Z</time></trkpt><trkpt lat="37.23466" lon="15.1740508"><ele>31.0</ele><time>2026-04-06T13:37:10.012Z</time></trkpt><trkpt lat="37.2345469" lon="15.174174"><ele>31.0</ele><time>2026-04-06T13:37:11.011Z</time></trkpt><trkpt lat="37.2344378" lon="15.1742836"><ele>31.0</ele><time>2026-04-06T13:37:12.014Z</time></trkpt><trkpt lat="37.2343222" lon="15.1743764"><ele>31.0</ele><time>2026-04-06T13:37:13Z</time></trkpt><trkpt lat="37.2342076" lon="15.1744518"><ele>31.0</ele><time>2026-04-06T13:37:14.012Z</time></trkpt><trkpt lat="37.2340831" lon="15.1745117"><ele>31.75</ele><time>2026-04-06T13:37:15.024Z</time></trkpt><trkpt lat="37.2339589" lon="15.1745575"><ele>32.5</ele><time>2026-04-06T13:37:16.025Z</time></trkpt><trkpt lat="37.2338317" lon="15.1746039"><ele>33.25</ele><time>2026-04-06T13:37:17.013Z</time></trkpt><trkpt lat="37.2337213" lon="15.1746511"><ele>34.0</ele><time>2026-04-06T13:37:18.013Z</time></trkpt><trkpt lat="37.233626" lon="15.1746966"><ele>34.0</ele><time>2026-04-06T13:37:19.011Z</time></trkpt><trkpt lat="37.2335498" lon="15.1747429"><ele>34.0</ele><time>2026-04-06T13:37:20.012Z</time></trkpt><trkpt lat="37.2334856" lon="15.174801"><ele>34.0</ele><time>2026-04-06T13:37:21.016Z</time></trkpt><trkpt lat="37.2334406" lon="15.1748713"><ele>34.0</ele><time>2026-04-06T13:37:22.026Z</time></trkpt><trkpt lat="37.2334064" lon="15.1749557"><ele>34.0</ele><time>2026-04-06T13:37:22.997Z</time></trkpt><trkpt lat="37.2333783" lon="15.1750631"><ele>34.0</ele><time>2026-04-06T13:37:24.011Z</time></trkpt><trkpt lat="37.2333449" lon="15.1751845"><ele>34.0</ele><time>2026-04-06T13:37:25.011Z</time></trkpt><trkpt lat="37.2333058" lon="15.1753144"><ele>34.0</ele><time>2026-04-06T13:37:26.025Z</time></trkpt><trkpt lat="37.2332562" lon="15.1754523"><ele>34.0</ele><time>2026-04-06T13:37:27.011Z</time></trkpt><trkpt lat="37.2332082" lon="15.1755745"><ele>34.0</ele><time>2026-04-06T13:37:28.012Z</time></trkpt><trkpt lat="37.2331463" lon="15.1756608"><ele>34.0</ele><time>2026-04-06T13:37:29.013Z</time></trkpt><trkpt lat="37.2330949" lon="15.1757335"><ele>34.0</ele><time>2026-04-06T13:37:30.006Z</time></trkpt><trkpt lat="37.2330259" lon="15.175766"><ele>34.0</ele><time>2026-04-06T13:37:31.001Z</time></trkpt><trkpt lat="37.2329076" lon="15.1757869"><ele>34.0</ele><time>2026-04-06T13:37:33.007Z</time></trkpt><trkpt lat="37.2328458" lon="15.1757682"><ele>34.0</ele><time>2026-04-06T13:37:34.003Z</time></trkpt><trkpt lat="37.2327977" lon="15.1757162"><ele>34.0</ele><time>2026-04-06T13:37:35.014Z</time></trkpt><trkpt lat="37.2327565" lon="15.175651"><ele>34.0</ele><time>2026-04-06T13:37:36.015Z</time></trkpt><trkpt lat="37.2327136" lon="15.1755604"><ele>34.4</ele><time>2026-04-06T13:37:37.009Z</time></trkpt><trkpt lat="37.2326776" lon="15.1754484"><ele>34.8</ele><time>2026-04-06T13:37:38.017Z</time></trkpt><trkpt lat="37.2326535" lon="15.1753299"><ele>35.2</ele><time>2026-04-06T13:37:38.985Z</time></trkpt><trkpt lat="37.2326364" lon="15.1752065"><ele>35.6</ele><time>2026-04-06T13:37:40.015Z</time></trkpt><trkpt lat="37.2326284" lon="15.1750902"><ele>36.0</ele><time>2026-04-06T13:37:41.011Z</time></trkpt><trkpt lat="37.2326262" lon="15.1749739"><ele>36.0</ele><time>2026-04-06T13:37:42.011Z</time></trkpt><trkpt lat="37.2326416" lon="15.1748702"><ele>36.0</ele><time>2026-04-06T13:37:43.024Z</time></trkpt><trkpt lat="37.2326764" lon="15.1747833"><ele>36.0</ele><time>2026-04-06T13:37:43.978Z</time></trkpt><trkpt lat="37.2327205" lon="15.1747111"><ele>36.0</ele><time>2026-04-06T13:37:45.014Z</time></trkpt><trkpt lat="37.2327753" lon="15.1746537"><ele>36.0</ele><time>2026-04-06T13:37:46.033Z</time></trkpt><trkpt lat="37.2328522" lon="15.1746066"><ele>36.0</ele><time>2026-04-06T13:37:47.023Z</time></trkpt><trkpt lat="37.2329422" lon="15.1745762"><ele>36.0</ele><time>2026-04-06T13:37:47.997Z</time></trkpt><trkpt lat="37.2330535" lon="15.1745576"><ele>36.0</ele><time>2026-04-06T13:37:48.994Z</time></trkpt><trkpt lat="37.2331884" lon="15.1745249"><ele>36.0</ele><time>2026-04-06T13:37:50.014Z</time></trkpt><trkpt lat="37.2333303" lon="15.1744851"><ele>36.0</ele><time>2026-04-06T13:37:51.015Z</time></trkpt><trkpt lat="37.2334747" lon="15.1744351"><ele>35.5</ele><time>2026-04-06T13:37:52.013Z</time></trkpt><trkpt lat="37.2336149" lon="15.1743744"><ele>35.0</ele><time>2026-04-06T13:37:53.014Z</time></trkpt><trkpt lat="37.2337418" lon="15.1743101"><ele>34.5</ele><time>2026-04-06T13:37:54.014Z</time></trkpt><trkpt lat="37.2338565" lon="15.1742312"><ele>34.0</ele><time>2026-04-06T13:37:55.013Z</time></trkpt><trkpt lat="37.2339557" lon="15.1741545"><ele>34.4</ele><time>2026-04-06T13:37:56.014Z</time></trkpt><trkpt lat="37.2340417" lon="15.1740692"><ele>34.8</ele><time>2026-04-06T13:37:57.014Z</time></trkpt><trkpt lat="37.2341132" lon="15.1739766"><ele>35.2</ele><time>2026-04-06T13:37:58.023Z</time></trkpt><trkpt lat="37.2341719" lon="15.1738888"><ele>35.6</ele><time>2026-04-06T13:37:58.999Z</time></trkpt><trkpt lat="37.2342066" lon="15.1737933"><ele>36.0</ele><time>2026-04-06T13:38:00.014Z</time></trkpt><trkpt lat="37.2342212" lon="15.1737006"><ele>36.0</ele><time>2026-04-06T13:38:01.015Z</time></trkpt><trkpt lat="37.2342167" lon="15.1735992"><ele>36.0</ele><time>2026-04-06T13:38:02.015Z</time></trkpt><trkpt lat="37.2341876" lon="15.1735097"><ele>36.0</ele><time>2026-04-06T13:38:03.029Z</time></trkpt><trkpt lat="37.2341409" lon="15.1734395"><ele>36.0</ele><time>2026-04-06T13:38:04.017Z</time></trkpt><trkpt lat="37.2340862" lon="15.1733875"><ele>36.0</ele><time>2026-04-06T13:38:05.018Z</time></trkpt><trkpt lat="37.2339585" lon="15.1733629"><ele>36.0</ele><time>2026-04-06T13:38:07.017Z</time></trkpt><trkpt lat="37.2338744" lon="15.1733748"><ele>35.75</ele><time>2026-04-06T13:38:07.999Z</time></trkpt><trkpt lat="37.2337764" lon="15.1734008"><ele>35.5</ele><time>2026-04-06T13:38:09.015Z</time></trkpt><trkpt lat="37.2336555" lon="15.1734325"><ele>35.25</ele><time>2026-04-06T13:38:10.015Z</time></trkpt><trkpt lat="37.233507" lon="15.1734666"><ele>35.0</ele><time>2026-04-06T13:38:11.016Z</time></trkpt><trkpt lat="37.2333568" lon="15.1734977"><ele>35.0</ele><time>2026-04-06T13:38:12.001Z</time></trkpt><trkpt lat="37.233205" lon="15.1735183"><ele>35.0</ele><time>2026-04-06T13:38:13.023Z</time></trkpt><trkpt lat="37.2330388" lon="15.1735342"><ele>35.0</ele><time>2026-04-06T13:38:13.997Z</time></trkpt><trkpt lat="37.232868" lon="15.1735437"><ele>34.666666666666664</ele><time>2026-04-06T13:38:15.002Z</time></trkpt><trkpt lat="37.232691" lon="15.173546"><ele>34.333333333333336</ele><time>2026-04-06T13:38:15.998Z</time></trkpt><trkpt lat="37.2325075" lon="15.1735379"><ele>34.0</ele><time>2026-04-06T13:38:17.016Z</time></trkpt><trkpt lat="37.2323212" lon="15.1735197"><ele>34.333333333333336</ele><time>2026-04-06T13:38:18Z</time></trkpt><trkpt lat="37.2321403" lon="15.1734936"><ele>34.666666666666664</ele><time>2026-04-06T13:38:19.004Z</time></trkpt><trkpt lat="37.231964" lon="15.1734522"><ele>35.0</ele><time>2026-04-06T13:38:20.012Z</time></trkpt><trkpt lat="37.2317904" lon="15.1734015"><ele>35.0</ele><time>2026-04-06T13:38:21.034Z</time></trkpt><trkpt lat="37.2316093" lon="15.1733416"><ele>35.0</ele><time>2026-04-06T13:38:22.046Z</time></trkpt><trkpt lat="37.231429" lon="15.1732664"><ele>35.0</ele><time>2026-04-06T13:38:23.011Z</time></trkpt><trkpt lat="37.2312538" lon="15.1731826"><ele>35.666666666666664</ele><time>2026-04-06T13:38:24.011Z</time></trkpt><trkpt lat="37.2310746" lon="15.1730956"><ele>36.333333333333336</ele><time>2026-04-06T13:38:25.014Z</time></trkpt><trkpt lat="37.2308889" lon="15.1730014"><ele>37.0</ele><time>2026-04-06T13:38:26.013Z</time></trkpt><trkpt lat="37.2306958" lon="15.1728957"><ele>36.0</ele><time>2026-04-06T13:38:26.999Z</time></trkpt><trkpt lat="37.2304924" lon="15.1727838"><ele>35.0</ele><time>2026-04-06T13:38:27.996Z</time></trkpt><trkpt lat="37.230278" lon="15.1726676"><ele>35.0</ele><time>2026-04-06T13:38:29.013Z</time></trkpt><trkpt lat="37.2300608" lon="15.1725516"><ele>35.0</ele><time>2026-04-06T13:38:30.011Z</time></trkpt><trkpt lat="37.2298477" lon="15.1724397"><ele>34.5</ele><time>2026-04-06T13:38:31.014Z</time></trkpt><trkpt lat="37.229637" lon="15.1723282"><ele>34.0</ele><time>2026-04-06T13:38:32.018Z</time></trkpt><trkpt lat="37.2294298" lon="15.1722179"><ele>34.0</ele><time>2026-04-06T13:38:33.013Z</time></trkpt><trkpt lat="37.2292267" lon="15.172108"><ele>34.0</ele><time>2026-04-06T13:38:34.014Z</time></trkpt><trkpt lat="37.2290237" lon="15.1720002"><ele>34.0</ele><time>2026-04-06T13:38:34.999Z</time></trkpt><trkpt lat="37.2288167" lon="15.1718926"><ele>34.5</ele><time>2026-04-06T13:38:36.014Z</time></trkpt><trkpt lat="37.228609" lon="15.171786"><ele>35.0</ele><time>2026-04-06T13:38:37.021Z</time></trkpt><trkpt lat="37.2283988" lon="15.1716786"><ele>35.0</ele><time>2026-04-06T13:38:38.013Z</time></trkpt><trkpt lat="37.228187" lon="15.1715688"><ele>35.0</ele><time>2026-04-06T13:38:38.994Z</time></trkpt><trkpt lat="37.2279752" lon="15.1714576"><ele>35.5</ele><time>2026-04-06T13:38:40.015Z</time></trkpt><trkpt lat="37.2277641" lon="15.1713443"><ele>36.0</ele><time>2026-04-06T13:38:41Z</time></trkpt><trkpt lat="37.2275524" lon="15.1712295"><ele>36.0</ele><time>2026-04-06T13:38:42.02Z</time></trkpt><trkpt lat="37.227338" lon="15.1711151"><ele>36.0</ele><time>2026-04-06T13:38:42.997Z</time></trkpt><trkpt lat="37.2271251" lon="15.1710018"><ele>36.0</ele><time>2026-04-06T13:38:44.013Z</time></trkpt><trkpt lat="37.2269119" lon="15.1708886"><ele>36.0</ele><time>2026-04-06T13:38:45.013Z</time></trkpt><trkpt lat="37.2266988" lon="15.1707758"><ele>35.5</ele><time>2026-04-06T13:38:46.015Z</time></trkpt><trkpt lat="37.2264879" lon="15.1706585"><ele>35.0</ele><time>2026-04-06T13:38:46.978Z</time></trkpt><trkpt lat="37.2262765" lon="15.1705417"><ele>33.5</ele><time>2026-04-06T13:38:48.016Z</time></trkpt><trkpt lat="37.2260635" lon="15.1704278"><ele>32.0</ele><time>2026-04-06T13:38:49.012Z</time></trkpt><trkpt lat="37.2258541" lon="15.1703172"><ele>32.0</ele><time>2026-04-06T13:38:50.017Z</time></trkpt><trkpt lat="37.2256491" lon="15.1702058"><ele>32.0</ele><time>2026-04-06T13:38:50.999Z</time></trkpt><trkpt lat="37.2254529" lon="15.1700958"><ele>32.0</ele><time>2026-04-06T13:38:52.016Z</time></trkpt><trkpt lat="37.2252616" lon="15.1699868"><ele>32.0</ele><time>2026-04-06T13:38:53.016Z</time></trkpt><trkpt lat="37.2250696" lon="15.1698759"><ele>32.0</ele><time>2026-04-06T13:38:53.997Z</time></trkpt><trkpt lat="37.2248779" lon="15.1697615"><ele>32.0</ele><time>2026-04-06T13:38:55.011Z</time></trkpt><trkpt lat="37.2246855" lon="15.1696428"><ele>31.666666666666664</ele><time>2026-04-06T13:38:56.026Z</time></trkpt><trkpt lat="37.2244927" lon="15.1695172"><ele>31.333333333333336</ele><time>2026-04-06T13:38:57.02Z</time></trkpt><trkpt lat="37.2242999" lon="15.1693869"><ele>31.0</ele><time>2026-04-06T13:38:58.032Z</time></trkpt><trkpt lat="37.224107" lon="15.1692491"><ele>29.0</ele><time>2026-04-06T13:38:58.996Z</time></trkpt><trkpt lat="37.223918" lon="15.1691064"><ele>27.0</ele><time>2026-04-06T13:39:00.015Z</time></trkpt><trkpt lat="37.2237374" lon="15.1689604"><ele>25.0</ele><time>2026-04-06T13:39:01.001Z</time></trkpt><trkpt lat="37.2235619" lon="15.1688105"><ele>25.0</ele><time>2026-04-06T13:39:02.015Z</time></trkpt><trkpt lat="37.2233934" lon="15.1686574"><ele>25.0</ele><time>2026-04-06T13:39:03.012Z</time></trkpt><trkpt lat="37.2232313" lon="15.1685144"><ele>25.0</ele><time>2026-04-06T13:39:04.022Z</time></trkpt><trkpt lat="37.223076" lon="15.1683747"><ele>22.333333333333336</ele><time>2026-04-06T13:39:05.018Z</time></trkpt><trkpt lat="37.2229352" lon="15.1682317"><ele>19.666666666666668</ele><time>2026-04-06T13:39:05.999Z</time></trkpt><trkpt lat="37.2228139" lon="15.168093"><ele>17.0</ele><time>2026-04-06T13:39:07.017Z</time></trkpt><trkpt lat="37.2227021" lon="15.1679634"><ele>17.0</ele><time>2026-04-06T13:39:08.012Z</time></trkpt><trkpt lat="37.222584" lon="15.1678338"><ele>17.0</ele><time>2026-04-06T13:39:09.013Z</time></trkpt><trkpt lat="37.2224676" lon="15.1676996"><ele>17.0</ele><time>2026-04-06T13:39:10.014Z</time></trkpt><trkpt lat="37.2223498" lon="15.1675636"><ele>15.666666666666668</ele><time>2026-04-06T13:39:11.014Z</time></trkpt><trkpt lat="37.2222268" lon="15.1674197"><ele>14.333333333333332</ele><time>2026-04-06T13:39:12Z</time></trkpt><trkpt lat="37.2221088" lon="15.1672618"><ele>13.0</ele><time>2026-04-06T13:39:13.012Z</time></trkpt><trkpt lat="37.2219891" lon="15.1670919"><ele>13.0</ele><time>2026-04-06T13:39:14.013Z</time></trkpt><trkpt lat="37.2218712" lon="15.1669153"><ele>13.0</ele><time>2026-04-06T13:39:15.004Z</time></trkpt><trkpt lat="37.2217508" lon="15.1667333"><ele>13.0</ele><time>2026-04-06T13:39:15.999Z</time></trkpt><trkpt lat="37.221631" lon="15.1665449"><ele>12.666666666666666</ele><time>2026-04-06T13:39:17.013Z</time></trkpt><trkpt lat="37.2215091" lon="15.1663491"><ele>12.333333333333332</ele><time>2026-04-06T13:39:18.012Z</time></trkpt><trkpt lat="37.221389" lon="15.1661483"><ele>12.0</ele><time>2026-04-06T13:39:19.002Z</time></trkpt><trkpt lat="37.2212708" lon="15.1659386"><ele>12.0</ele><time>2026-04-06T13:39:20.012Z</time></trkpt><trkpt lat="37.22116" lon="15.165725"><ele>12.0</ele><time>2026-04-06T13:39:21.002Z</time></trkpt><trkpt lat="37.2210506" lon="15.1655032"><ele>12.0</ele><time>2026-04-06T13:39:22.026Z</time></trkpt><trkpt lat="37.2209446" lon="15.165279"><ele>11.666666666666666</ele><time>2026-04-06T13:39:23.011Z</time></trkpt><trkpt lat="37.2208415" lon="15.1650446"><ele>11.333333333333332</ele><time>2026-04-06T13:39:24.03Z</time></trkpt><trkpt lat="37.2207395" lon="15.1648053"><ele>11.0</ele><time>2026-04-06T13:39:25.014Z</time></trkpt><trkpt lat="37.2206394" lon="15.1645617"><ele>11.0</ele><time>2026-04-06T13:39:26.014Z</time></trkpt><trkpt lat="37.2205466" lon="15.1643091"><ele>11.0</ele><time>2026-04-06T13:39:27.012Z</time></trkpt><trkpt lat="37.2204583" lon="15.1640532"><ele>11.0</ele><time>2026-04-06T13:39:28.012Z</time></trkpt><trkpt lat="37.2203727" lon="15.1637961"><ele>13.0</ele><time>2026-04-06T13:39:29.015Z</time></trkpt><trkpt lat="37.2202905" lon="15.163533"><ele>15.0</ele><time>2026-04-06T13:39:30.013Z</time></trkpt><trkpt lat="37.2202129" lon="15.1632639"><ele>14.5</ele><time>2026-04-06T13:39:30.999Z</time></trkpt><trkpt lat="37.2201402" lon="15.1629911"><ele>14.0</ele><time>2026-04-06T13:39:32.014Z</time></trkpt><trkpt lat="37.2200703" lon="15.1627109"><ele>14.0</ele><time>2026-04-06T13:39:33.014Z</time></trkpt><trkpt lat="37.2200052" lon="15.1624263"><ele>14.0</ele><time>2026-04-06T13:39:34.013Z</time></trkpt><trkpt lat="37.2199414" lon="15.1621305"><ele>13.0</ele><time>2026-04-06T13:39:35.013Z</time></trkpt><trkpt lat="37.2198776" lon="15.1618222"><ele>12.0</ele><time>2026-04-06T13:39:36Z</time></trkpt><trkpt lat="37.2198149" lon="15.161505"><ele>11.0</ele><time>2026-04-06T13:39:37.015Z</time></trkpt><trkpt lat="37.2197472" lon="15.1611818"><ele>10.0</ele><time>2026-04-06T13:39:37.979Z</time></trkpt><trkpt lat="37.2196785" lon="15.1608534"><ele>9.5</ele><time>2026-04-06T13:39:39.024Z</time></trkpt><trkpt lat="37.219612" lon="15.1605181"><ele>9.0</ele><time>2026-04-06T13:39:40.001Z</time></trkpt><trkpt lat="37.2195452" lon="15.1601713"><ele>10.0</ele><time>2026-04-06T13:39:41.017Z</time></trkpt><trkpt lat="37.2194786" lon="15.1598173"><ele>11.0</ele><time>2026-04-06T13:39:42.014Z</time></trkpt><trkpt lat="37.2194155" lon="15.1594722"><ele>11.0</ele><time>2026-04-06T13:39:43.026Z</time></trkpt><trkpt lat="37.2193504" lon="15.1591462"><ele>11.0</ele><time>2026-04-06T13:39:43.997Z</time></trkpt><trkpt lat="37.219289" lon="15.1588326"><ele>11.5</ele><time>2026-04-06T13:39:45.011Z</time></trkpt><trkpt lat="37.21923" lon="15.1585303"><ele>12.0</ele><time>2026-04-06T13:39:46.026Z</time></trkpt><trkpt lat="37.2191713" lon="15.1582395"><ele>11.666666666666666</ele><time>2026-04-06T13:39:46.999Z</time></trkpt><trkpt lat="37.2191159" lon="15.1579603"><ele>11.333333333333332</ele><time>2026-04-06T13:39:48.015Z</time></trkpt><trkpt lat="37.2190596" lon="15.1576948"><ele>11.0</ele><time>2026-04-06T13:39:49.03Z</time></trkpt><trkpt lat="37.2189941" lon="15.1574352"><ele>13.666666666666666</ele><time>2026-04-06T13:39:50.013Z</time></trkpt><trkpt lat="37.218945" lon="15.1571936"><ele>16.333333333333332</ele><time>2026-04-06T13:39:51.027Z</time></trkpt><trkpt lat="37.2188968" lon="15.1569621"><ele>19.0</ele><time>2026-04-06T13:39:52.004Z</time></trkpt><trkpt lat="37.2188454" lon="15.1567414"><ele>19.666666666666664</ele><time>2026-04-06T13:39:53.015Z</time></trkpt><trkpt lat="37.218789" lon="15.1565328"><ele>20.333333333333332</ele><time>2026-04-06T13:39:54.019Z</time></trkpt><trkpt lat="37.218721" lon="15.1563306"><ele>21.0</ele><time>2026-04-06T13:39:55.012Z</time></trkpt><trkpt lat="37.2186464" lon="15.1561314"><ele>21.0</ele><time>2026-04-06T13:39:56.011Z</time></trkpt><trkpt lat="37.2185701" lon="15.1559366"><ele>21.0</ele><time>2026-04-06T13:39:57.014Z</time></trkpt><trkpt lat="37.2184893" lon="15.1557538"><ele>21.0</ele><time>2026-04-06T13:39:58.039Z</time></trkpt><trkpt lat="37.218398" lon="15.1555872"><ele>21.333333333333332</ele><time>2026-04-06T13:39:59.012Z</time></trkpt><trkpt lat="37.2182926" lon="15.1554232"><ele>21.666666666666664</ele><time>2026-04-06T13:40:00.027Z</time></trkpt><trkpt lat="37.2181751" lon="15.1552652"><ele>22.0</ele><time>2026-04-06T13:40:01.016Z</time></trkpt><trkpt lat="37.2180502" lon="15.1551141"><ele>22.333333333333332</ele><time>2026-04-06T13:40:02.012Z</time></trkpt><trkpt lat="37.217926" lon="15.1549766"><ele>22.666666666666668</ele><time>2026-04-06T13:40:02.998Z</time></trkpt><trkpt lat="37.217789" lon="15.1548424"><ele>23.0</ele><time>2026-04-06T13:40:04.028Z</time></trkpt><trkpt lat="37.2176442" lon="15.154713"><ele>23.333333333333336</ele><time>2026-04-06T13:40:05.015Z</time></trkpt><trkpt lat="37.2174924" lon="15.1545974"><ele>23.666666666666668</ele><time>2026-04-06T13:40:06.015Z</time></trkpt><trkpt lat="37.2173345" lon="15.1544964"><ele>24.0</ele><time>2026-04-06T13:40:07Z</time></trkpt><trkpt lat="37.2171696" lon="15.1544088"><ele>25.0</ele><time>2026-04-06T13:40:08.017Z</time></trkpt><trkpt lat="37.2169968" lon="15.1543291"><ele>26.0</ele><time>2026-04-06T13:40:09.001Z</time></trkpt><trkpt lat="37.2168193" lon="15.1542564"><ele>27.0</ele><time>2026-04-06T13:40:10.014Z</time></trkpt><trkpt lat="37.2166425" lon="15.1541888"><ele>28.333333333333336</ele><time>2026-04-06T13:40:11.017Z</time></trkpt><trkpt lat="37.2164673" lon="15.1541325"><ele>29.666666666666668</ele><time>2026-04-06T13:40:12.016Z</time></trkpt><trkpt lat="37.2162955" lon="15.1540971"><ele>31.0</ele><time>2026-04-06T13:40:13.017Z</time></trkpt><trkpt lat="37.2161202" lon="15.1540742"><ele>31.0</ele><time>2026-04-06T13:40:14.013Z</time></trkpt><trkpt lat="37.2159356" lon="15.1540518"><ele>31.0</ele><time>2026-04-06T13:40:15.013Z</time></trkpt><trkpt lat="37.2157356" lon="15.1540369"><ele>31.0</ele><time>2026-04-06T13:40:16.013Z</time></trkpt><trkpt lat="37.2155218" lon="15.1540301"><ele>34.0</ele><time>2026-04-06T13:40:17.029Z</time></trkpt><trkpt lat="37.2152935" lon="15.1540377"><ele>37.0</ele><time>2026-04-06T13:40:18.031Z</time></trkpt><trkpt lat="37.2150599" lon="15.1540552"><ele>37.0</ele><time>2026-04-06T13:40:18.994Z</time></trkpt><trkpt lat="37.2148268" lon="15.1540759"><ele>37.0</ele><time>2026-04-06T13:40:20.014Z</time></trkpt><trkpt lat="37.2145945" lon="15.154108"><ele>37.0</ele><time>2026-04-06T13:40:21.03Z</time></trkpt><trkpt lat="37.2143745" lon="15.1541573"><ele>37.0</ele><time>2026-04-06T13:40:22.02Z</time></trkpt><trkpt lat="37.2141625" lon="15.1542056"><ele>37.0</ele><time>2026-04-06T13:40:23.01Z</time></trkpt><trkpt lat="37.2139462" lon="15.1542658"><ele>36.333333333333336</ele><time>2026-04-06T13:40:24.013Z</time></trkpt><trkpt lat="37.2137333" lon="15.1543351"><ele>35.666666666666664</ele><time>2026-04-06T13:40:25.016Z</time></trkpt><trkpt lat="37.2135203" lon="15.1544113"><ele>35.0</ele><time>2026-04-06T13:40:26.02Z</time></trkpt><trkpt lat="37.2133042" lon="15.1544955"><ele>34.0</ele><time>2026-04-06T13:40:26.998Z</time></trkpt><trkpt lat="37.2130894" lon="15.1545892"><ele>33.0</ele><time>2026-04-06T13:40:28.017Z</time></trkpt><trkpt lat="37.2128725" lon="15.1546873"><ele>33.0</ele><time>2026-04-06T13:40:29.016Z</time></trkpt><trkpt lat="37.2126587" lon="15.1547905"><ele>33.0</ele><time>2026-04-06T13:40:30Z</time></trkpt><trkpt lat="37.2124448" lon="15.1549012"><ele>30.5</ele><time>2026-04-06T13:40:31.015Z</time></trkpt><trkpt lat="37.2122325" lon="15.1550174"><ele>28.0</ele><time>2026-04-06T13:40:32.013Z</time></trkpt><trkpt lat="37.2120103" lon="15.1551391"><ele>28.0</ele><time>2026-04-06T13:40:33.011Z</time></trkpt><trkpt lat="37.2117858" lon="15.1552762"><ele>28.0</ele><time>2026-04-06T13:40:33.978Z</time></trkpt><trkpt lat="37.2115639" lon="15.1554181"><ele>27.0</ele><time>2026-04-06T13:40:35.016Z</time></trkpt><trkpt lat="37.2113401" lon="15.1555616"><ele>26.0</ele><time>2026-04-06T13:40:36Z</time></trkpt><trkpt lat="37.2111088" lon="15.1557023"><ele>25.5</ele><time>2026-04-06T13:40:37.013Z</time></trkpt><trkpt lat="37.2108757" lon="15.1558464"><ele>25.0</ele><time>2026-04-06T13:40:38.013Z</time></trkpt><trkpt lat="37.210643" lon="15.1559956"><ele>25.0</ele><time>2026-04-06T13:40:38.999Z</time></trkpt><trkpt lat="37.2104106" lon="15.1561472"><ele>25.0</ele><time>2026-04-06T13:40:40.015Z</time></trkpt><trkpt lat="37.2101808" lon="15.1562999"><ele>25.0</ele><time>2026-04-06T13:40:40.999Z</time></trkpt><trkpt lat="37.2099542" lon="15.1564509"><ele>25.0</ele><time>2026-04-06T13:40:42.015Z</time></trkpt><trkpt lat="37.209726" lon="15.1566031"><ele>26.0</ele><time>2026-04-06T13:40:43.02Z</time></trkpt><trkpt lat="37.2094975" lon="15.1567578"><ele>27.0</ele><time>2026-04-06T13:40:44.02Z</time></trkpt><trkpt lat="37.2092708" lon="15.1569126"><ele>27.0</ele><time>2026-04-06T13:40:45.014Z</time></trkpt><trkpt lat="37.2090533" lon="15.1570613"><ele>27.0</ele><time>2026-04-06T13:40:45.999Z</time></trkpt><trkpt lat="37.208842" lon="15.1572046"><ele>27.0</ele><time>2026-04-06T13:40:47Z</time></trkpt><trkpt lat="37.208634" lon="15.1573445"><ele>27.0</ele><time>2026-04-06T13:40:48.013Z</time></trkpt><trkpt lat="37.2084249" lon="15.1574894"><ele>27.5</ele><time>2026-04-06T13:40:48.996Z</time></trkpt><trkpt lat="37.2082138" lon="15.157633"><ele>28.0</ele><time>2026-04-06T13:40:50.012Z</time></trkpt><trkpt lat="37.2080003" lon="15.157772"><ele>31.0</ele><time>2026-04-06T13:40:50.98Z</time></trkpt><trkpt lat="37.2077843" lon="15.1579112"><ele>34.0</ele><time>2026-04-06T13:40:52.003Z</time></trkpt><trkpt lat="37.2075662" lon="15.1580504"><ele>34.0</ele><time>2026-04-06T13:40:53.014Z</time></trkpt><trkpt lat="37.2073456" lon="15.1581876"><ele>34.0</ele><time>2026-04-06T13:40:54.012Z</time></trkpt><trkpt lat="37.2071259" lon="15.158323"><ele>34.5</ele><time>2026-04-06T13:40:54.997Z</time></trkpt><trkpt lat="37.2069049" lon="15.1584603"><ele>35.0</ele><time>2026-04-06T13:40:56.028Z</time></trkpt><trkpt lat="37.2066815" lon="15.158596"><ele>34.0</ele><time>2026-04-06T13:40:56.997Z</time></trkpt><trkpt lat="37.2064593" lon="15.1587313"><ele>33.0</ele><time>2026-04-06T13:40:58.018Z</time></trkpt><trkpt lat="37.2062364" lon="15.1588645"><ele>33.0</ele><time>2026-04-06T13:40:59.014Z</time></trkpt><trkpt lat="37.2060134" lon="15.1590005"><ele>33.0</ele><time>2026-04-06T13:41:00.014Z</time></trkpt><trkpt lat="37.2057903" lon="15.1591401"><ele>33.5</ele><time>2026-04-06T13:41:01.017Z</time></trkpt><trkpt lat="37.2055679" lon="15.1592807"><ele>34.0</ele><time>2026-04-06T13:41:02.013Z</time></trkpt><trkpt lat="37.2053442" lon="15.159421"><ele>34.0</ele><time>2026-04-06T13:41:03.02Z</time></trkpt><trkpt lat="37.2051215" lon="15.1595597"><ele>34.0</ele><time>2026-04-06T13:41:04.019Z</time></trkpt><trkpt lat="37.2048988" lon="15.1597"><ele>34.5</ele><time>2026-04-06T13:41:05Z</time></trkpt><trkpt lat="37.2046749" lon="15.1598413"><ele>35.0</ele><time>2026-04-06T13:41:06.013Z</time></trkpt><trkpt lat="37.2044507" lon="15.1599827"><ele>32.5</ele><time>2026-04-06T13:41:06.998Z</time></trkpt><trkpt lat="37.2042251" lon="15.160123"><ele>30.0</ele><time>2026-04-06T13:41:08.014Z</time></trkpt><trkpt lat="37.2039984" lon="15.1602621"><ele>31.5</ele><time>2026-04-06T13:41:09.015Z</time></trkpt><trkpt lat="37.2037716" lon="15.1604028"><ele>33.0</ele><time>2026-04-06T13:41:10.013Z</time></trkpt><trkpt lat="37.2035474" lon="15.1605426"><ele>33.0</ele><time>2026-04-06T13:41:11.001Z</time></trkpt><trkpt lat="37.2033323" lon="15.160674"><ele>33.0</ele><time>2026-04-06T13:41:12.029Z</time></trkpt><trkpt lat="37.2031268" lon="15.1607975"><ele>31.666666666666664</ele><time>2026-04-06T13:41:13.013Z</time></trkpt><trkpt lat="37.2029289" lon="15.1609197"><ele>30.333333333333332</ele><time>2026-04-06T13:41:13.999Z</time></trkpt><trkpt lat="37.2027334" lon="15.1610419"><ele>29.0</ele><time>2026-04-06T13:41:15.029Z</time></trkpt><trkpt lat="37.2025395" lon="15.1611643"><ele>29.0</ele><time>2026-04-06T13:41:16.013Z</time></trkpt><trkpt lat="37.2023437" lon="15.1612891"><ele>29.0</ele><time>2026-04-06T13:41:17.015Z</time></trkpt><trkpt lat="37.2021449" lon="15.1614141"><ele>29.0</ele><time>2026-04-06T13:41:18.015Z</time></trkpt><trkpt lat="37.2019438" lon="15.161539"><ele>29.5</ele><time>2026-04-06T13:41:19.022Z</time></trkpt><trkpt lat="37.2017395" lon="15.1616661"><ele>30.0</ele><time>2026-04-06T13:41:20.012Z</time></trkpt><trkpt lat="37.2015323" lon="15.1617944"><ele>28.5</ele><time>2026-04-06T13:41:21.017Z</time></trkpt><trkpt lat="37.201322" lon="15.1619221"><ele>27.0</ele><time>2026-04-06T13:41:22.038Z</time></trkpt><trkpt lat="37.2011113" lon="15.1620535"><ele>27.0</ele><time>2026-04-06T13:41:23.028Z</time></trkpt><trkpt lat="37.2008992" lon="15.1621864"><ele>27.0</ele><time>2026-04-06T13:41:24.012Z</time></trkpt><trkpt lat="37.2006835" lon="15.1623212"><ele>28.5</ele><time>2026-04-06T13:41:25.013Z</time></trkpt><trkpt lat="37.2004634" lon="15.162456"><ele>30.0</ele><time>2026-04-06T13:41:26.025Z</time></trkpt><trkpt lat="37.2002419" lon="15.1625928"><ele>30.0</ele><time>2026-04-06T13:41:27.005Z</time></trkpt><trkpt lat="37.2000176" lon="15.1627301"><ele>30.0</ele><time>2026-04-06T13:41:28.012Z</time></trkpt><trkpt lat="37.1997923" lon="15.1628694"><ele>31.0</ele><time>2026-04-06T13:41:29.014Z</time></trkpt><trkpt lat="37.1995668" lon="15.1630097"><ele>32.0</ele><time>2026-04-06T13:41:30.008Z</time></trkpt><trkpt lat="37.1993408" lon="15.1631507"><ele>30.5</ele><time>2026-04-06T13:41:31.041Z</time></trkpt><trkpt lat="37.199114" lon="15.1632919"><ele>29.0</ele><time>2026-04-06T13:41:32.027Z</time></trkpt><trkpt lat="37.1988861" lon="15.1634329"><ele>29.0</ele><time>2026-04-06T13:41:33.012Z</time></trkpt><trkpt lat="37.198658" lon="15.1635746"><ele>29.0</ele><time>2026-04-06T13:41:34.017Z</time></trkpt><trkpt lat="37.19843" lon="15.1637186"><ele>29.0</ele><time>2026-04-06T13:41:34.999Z</time></trkpt><trkpt lat="37.1982032" lon="15.1638643"><ele>29.0</ele><time>2026-04-06T13:41:36Z</time></trkpt><trkpt lat="37.1979787" lon="15.1640133"><ele>29.0</ele><time>2026-04-06T13:41:36.998Z</time></trkpt><trkpt lat="37.1977596" lon="15.1641647"><ele>29.0</ele><time>2026-04-06T13:41:38.017Z</time></trkpt><trkpt lat="37.1975494" lon="15.1643162"><ele>29.0</ele><time>2026-04-06T13:41:39.015Z</time></trkpt><trkpt lat="37.1973499" lon="15.1644658"><ele>29.0</ele><time>2026-04-06T13:41:40.015Z</time></trkpt><trkpt lat="37.1971599" lon="15.1646172"><ele>28.666666666666664</ele><time>2026-04-06T13:41:41.017Z</time></trkpt><trkpt lat="37.1969745" lon="15.1647717"><ele>28.333333333333336</ele><time>2026-04-06T13:41:42.014Z</time></trkpt><trkpt lat="37.1967901" lon="15.1649337"><ele>28.0</ele><time>2026-04-06T13:41:43.016Z</time></trkpt><trkpt lat="37.1966075" lon="15.1651015"><ele>27.5</ele><time>2026-04-06T13:41:44.012Z</time></trkpt><trkpt lat="37.1964271" lon="15.1652783"><ele>27.0</ele><time>2026-04-06T13:41:45.014Z</time></trkpt><trkpt lat="37.1962485" lon="15.1654641"><ele>27.0</ele><time>2026-04-06T13:41:46.021Z</time></trkpt><trkpt lat="37.1960716" lon="15.1656619"><ele>27.0</ele><time>2026-04-06T13:41:46.999Z</time></trkpt><trkpt lat="37.1958958" lon="15.1658681"><ele>26.5</ele><time>2026-04-06T13:41:48.016Z</time></trkpt><trkpt lat="37.1957233" lon="15.1660855"><ele>26.0</ele><time>2026-04-06T13:41:49.026Z</time></trkpt><trkpt lat="37.1955509" lon="15.1663063"><ele>26.0</ele><time>2026-04-06T13:41:49.998Z</time></trkpt><trkpt lat="37.1953826" lon="15.1665274"><ele>26.0</ele><time>2026-04-06T13:41:51.033Z</time></trkpt><trkpt lat="37.195217" lon="15.166753"><ele>25.5</ele><time>2026-04-06T13:41:51.979Z</time></trkpt><trkpt lat="37.1950553" lon="15.166981"><ele>25.0</ele><time>2026-04-06T13:41:52.987Z</time></trkpt><trkpt lat="37.194893" lon="15.1672128"><ele>23.5</ele><time>2026-04-06T13:41:54.013Z</time></trkpt><trkpt lat="37.1947336" lon="15.1674456"><ele>22.0</ele><time>2026-04-06T13:41:55.015Z</time></trkpt><trkpt lat="37.1945768" lon="15.1676764"><ele>22.0</ele><time>2026-04-06T13:41:56.024Z</time></trkpt><trkpt lat="37.1944207" lon="15.1679037"><ele>22.0</ele><time>2026-04-06T13:41:57.023Z</time></trkpt><trkpt lat="37.1942675" lon="15.1681279"><ele>21.0</ele><time>2026-04-06T13:41:58Z</time></trkpt><trkpt lat="37.1941163" lon="15.1683483"><ele>20.0</ele><time>2026-04-06T13:41:59.014Z</time></trkpt><trkpt lat="37.1939673" lon="15.1685656"><ele>19.5</ele><time>2026-04-06T13:41:59.98Z</time></trkpt><trkpt lat="37.1938203" lon="15.1687826"><ele>19.0</ele><time>2026-04-06T13:42:00.978Z</time></trkpt><trkpt lat="37.193673" lon="15.1689958"><ele>19.666666666666664</ele><time>2026-04-06T13:42:01.98Z</time></trkpt><trkpt lat="37.1935291" lon="15.1692059"><ele>20.333333333333332</ele><time>2026-04-06T13:42:02.982Z</time></trkpt><trkpt lat="37.1933851" lon="15.169415"><ele>21.0</ele><time>2026-04-06T13:42:04.03Z</time></trkpt><trkpt lat="37.1932409" lon="15.1696252"><ele>20.333333333333332</ele><time>2026-04-06T13:42:05.015Z</time></trkpt><trkpt lat="37.1930974" lon="15.1698359"><ele>19.666666666666664</ele><time>2026-04-06T13:42:06.014Z</time></trkpt><trkpt lat="37.1929526" lon="15.1700455"><ele>19.0</ele><time>2026-04-06T13:42:06.998Z</time></trkpt><trkpt lat="37.1928072" lon="15.1702553"><ele>19.0</ele><time>2026-04-06T13:42:08.014Z</time></trkpt><trkpt lat="37.1926615" lon="15.1704655"><ele>19.0</ele><time>2026-04-06T13:42:09Z</time></trkpt><trkpt lat="37.1925134" lon="15.1706768"><ele>19.0</ele><time>2026-04-06T13:42:10.016Z</time></trkpt><trkpt lat="37.1923646" lon="15.1708908"><ele>16.5</ele><time>2026-04-06T13:42:11.018Z</time></trkpt><trkpt lat="37.1922146" lon="15.1711034"><ele>14.0</ele><time>2026-04-06T13:42:12.022Z</time></trkpt><trkpt lat="37.1920642" lon="15.1713154"><ele>14.5</ele><time>2026-04-06T13:42:12.998Z</time></trkpt><trkpt lat="37.1919148" lon="15.1715286"><ele>15.0</ele><time>2026-04-06T13:42:14.013Z</time></trkpt><trkpt lat="37.1917664" lon="15.1717397"><ele>15.0</ele><time>2026-04-06T13:42:15.02Z</time></trkpt><trkpt lat="37.1916199" lon="15.171949"><ele>15.0</ele><time>2026-04-06T13:42:16.02Z</time></trkpt><trkpt lat="37.1914714" lon="15.1721564"><ele>15.0</ele><time>2026-04-06T13:42:16.999Z</time></trkpt><trkpt lat="37.1913213" lon="15.1723625"><ele>14.0</ele><time>2026-04-06T13:42:18Z</time></trkpt><trkpt lat="37.1911718" lon="15.1725698"><ele>13.0</ele><time>2026-04-06T13:42:19.024Z</time></trkpt><trkpt lat="37.1910226" lon="15.1727781"><ele>12.0</ele><time>2026-04-06T13:42:20.023Z</time></trkpt><trkpt lat="37.1908719" lon="15.1729821"><ele>12.0</ele><time>2026-04-06T13:42:21.035Z</time></trkpt><trkpt lat="37.1907246" lon="15.173179"><ele>12.0</ele><time>2026-04-06T13:42:22.021Z</time></trkpt><trkpt lat="37.190581" lon="15.1733634"><ele>12.0</ele><time>2026-04-06T13:42:22.984Z</time></trkpt><trkpt lat="37.1904396" lon="15.1735399"><ele>12.666666666666668</ele><time>2026-04-06T13:42:24.03Z</time></trkpt><trkpt lat="37.1902959" lon="15.173711"><ele>13.333333333333334</ele><time>2026-04-06T13:42:25.026Z</time></trkpt><trkpt lat="37.1901473" lon="15.1738775"><ele>14.0</ele><time>2026-04-06T13:42:26.027Z</time></trkpt><trkpt lat="37.1899972" lon="15.1740418"><ele>16.0</ele><time>2026-04-06T13:42:26.995Z</time></trkpt><trkpt lat="37.1898398" lon="15.1741984"><ele>18.0</ele><time>2026-04-06T13:42:27.982Z</time></trkpt><trkpt lat="37.189679" lon="15.1743501"><ele>20.0</ele><time>2026-04-06T13:42:29.013Z</time></trkpt><trkpt lat="37.1895105" lon="15.174492"><ele>20.0</ele><time>2026-04-06T13:42:30.014Z</time></trkpt><trkpt lat="37.1893429" lon="15.174627"><ele>20.0</ele><time>2026-04-06T13:42:31.016Z</time></trkpt><trkpt lat="37.1891691" lon="15.1747646"><ele>20.0</ele><time>2026-04-06T13:42:32.014Z</time></trkpt><trkpt lat="37.1889859" lon="15.1748973"><ele>24.333333333333336</ele><time>2026-04-06T13:42:33.014Z</time></trkpt><trkpt lat="37.1887959" lon="15.175034"><ele>28.666666666666668</ele><time>2026-04-06T13:42:34.017Z</time></trkpt><trkpt lat="37.1885977" lon="15.1751678"><ele>33.0</ele><time>2026-04-06T13:42:35.026Z</time></trkpt><trkpt lat="37.1884022" lon="15.1753002"><ele>33.0</ele><time>2026-04-06T13:42:36.013Z</time></trkpt><trkpt lat="37.1882116" lon="15.1754249"><ele>33.0</ele><time>2026-04-06T13:42:37.013Z</time></trkpt><trkpt lat="37.188024" lon="15.1755507"><ele>33.0</ele><time>2026-04-06T13:42:38.015Z</time></trkpt><trkpt lat="37.1878465" lon="15.1756774"><ele>34.666666666666664</ele><time>2026-04-06T13:42:39.009Z</time></trkpt><trkpt lat="37.1876808" lon="15.1758084"><ele>36.33333333333333</ele><time>2026-04-06T13:42:40.009Z</time></trkpt><trkpt lat="37.1875274" lon="15.1759473"><ele>38.0</ele><time>2026-04-06T13:42:41.015Z</time></trkpt><trkpt lat="37.1873833" lon="15.1760892"><ele>37.666666666666664</ele><time>2026-04-06T13:42:42.012Z</time></trkpt><trkpt lat="37.1872492" lon="15.1762376"><ele>37.333333333333336</ele><time>2026-04-06T13:42:42.986Z</time></trkpt><trkpt lat="37.1871195" lon="15.176392"><ele>37.0</ele><time>2026-04-06T13:42:43.995Z</time></trkpt><trkpt lat="37.1869926" lon="15.176557"><ele>37.0</ele><time>2026-04-06T13:42:45.02Z</time></trkpt><trkpt lat="37.1868609" lon="15.176731"><ele>37.0</ele><time>2026-04-06T13:42:45.999Z</time></trkpt><trkpt lat="37.1867174" lon="15.1769152"><ele>37.0</ele><time>2026-04-06T13:42:47.009Z</time></trkpt><trkpt lat="37.1865639" lon="15.1771025"><ele>38.0</ele><time>2026-04-06T13:42:48.037Z</time></trkpt><trkpt lat="37.1864037" lon="15.1772979"><ele>39.0</ele><time>2026-04-06T13:42:49.015Z</time></trkpt><trkpt lat="37.1862363" lon="15.1774966"><ele>39.0</ele><time>2026-04-06T13:42:50.035Z</time></trkpt><trkpt lat="37.1860668" lon="15.1776948"><ele>39.0</ele><time>2026-04-06T13:42:51.025Z</time></trkpt><trkpt lat="37.1858954" lon="15.1778935"><ele>39.0</ele><time>2026-04-06T13:42:52.054Z</time></trkpt><trkpt lat="37.1857205" lon="15.1780928"><ele>39.0</ele><time>2026-04-06T13:42:53.016Z</time></trkpt><trkpt lat="37.1855434" lon="15.178292"><ele>39.0</ele><time>2026-04-06T13:42:54.012Z</time></trkpt><trkpt lat="37.1853684" lon="15.1784847"><ele>39.0</ele><time>2026-04-06T13:42:55.017Z</time></trkpt><trkpt lat="37.185197" lon="15.1786667"><ele>39.0</ele><time>2026-04-06T13:42:56.031Z</time></trkpt><trkpt lat="37.1850282" lon="15.1788355"><ele>39.0</ele><time>2026-04-06T13:42:57.019Z</time></trkpt><trkpt lat="37.1848616" lon="15.1789918"><ele>39.0</ele><time>2026-04-06T13:42:58.033Z</time></trkpt><trkpt lat="37.1846973" lon="15.1791304"><ele>38.666666666666664</ele><time>2026-04-06T13:42:58.985Z</time></trkpt><trkpt lat="37.1845355" lon="15.179254"><ele>38.33333333333333</ele><time>2026-04-06T13:43:00Z</time></trkpt><trkpt lat="37.1843755" lon="15.1793582"><ele>38.0</ele><time>2026-04-06T13:43:01.002Z</time></trkpt><trkpt lat="37.1842185" lon="15.1794465"><ele>38.0</ele><time>2026-04-06T13:43:01.979Z</time></trkpt><trkpt lat="37.184072" lon="15.1795159"><ele>38.0</ele><time>2026-04-06T13:43:03.016Z</time></trkpt><trkpt lat="37.1839322" lon="15.1795737"><ele>38.0</ele><time>2026-04-06T13:43:04.015Z</time></trkpt><trkpt lat="37.1837841" lon="15.1796262"><ele>38.0</ele><time>2026-04-06T13:43:05.021Z</time></trkpt><trkpt lat="37.1836305" lon="15.1796754"><ele>38.0</ele><time>2026-04-06T13:43:06.014Z</time></trkpt><trkpt lat="37.1834695" lon="15.1797262"><ele>38.0</ele><time>2026-04-06T13:43:07.014Z</time></trkpt><trkpt lat="37.1833007" lon="15.1797801"><ele>38.0</ele><time>2026-04-06T13:43:08.019Z</time></trkpt><trkpt lat="37.1831218" lon="15.1798388"><ele>38.0</ele><time>2026-04-06T13:43:09.014Z</time></trkpt><trkpt lat="37.1829377" lon="15.1799001"><ele>38.0</ele><time>2026-04-06T13:43:10.014Z</time></trkpt><trkpt lat="37.1827479" lon="15.1799655"><ele>37.33333333333333</ele><time>2026-04-06T13:43:11.019Z</time></trkpt><trkpt lat="37.1825585" lon="15.1800402"><ele>36.666666666666664</ele><time>2026-04-06T13:43:12.014Z</time></trkpt><trkpt lat="37.18237" lon="15.1801243"><ele>36.0</ele><time>2026-04-06T13:43:13.014Z</time></trkpt><trkpt lat="37.1821818" lon="15.1802164"><ele>35.0</ele><time>2026-04-06T13:43:13.998Z</time></trkpt><trkpt lat="37.1819956" lon="15.1803189"><ele>34.0</ele><time>2026-04-06T13:43:15.03Z</time></trkpt><trkpt lat="37.1818158" lon="15.1804296"><ele>33.0</ele><time>2026-04-06T13:43:16.024Z</time></trkpt><trkpt lat="37.1816422" lon="15.1805452"><ele>32.666666666666664</ele><time>2026-04-06T13:43:17.016Z</time></trkpt><trkpt lat="37.1814744" lon="15.1806627"><ele>32.33333333333333</ele><time>2026-04-06T13:43:18.022Z</time></trkpt><trkpt lat="37.1813054" lon="15.1807785"><ele>32.0</ele><time>2026-04-06T13:43:19.024Z</time></trkpt><trkpt lat="37.1811406" lon="15.1808934"><ele>31.333333333333332</ele><time>2026-04-06T13:43:20.022Z</time></trkpt><trkpt lat="37.1809764" lon="15.1810045"><ele>30.666666666666664</ele><time>2026-04-06T13:43:21.017Z</time></trkpt><trkpt lat="37.1808133" lon="15.1811161"><ele>30.0</ele><time>2026-04-06T13:43:22.023Z</time></trkpt><trkpt lat="37.1806512" lon="15.1812263"><ele>29.0</ele><time>2026-04-06T13:43:23.022Z</time></trkpt><trkpt lat="37.1804874" lon="15.181338"><ele>28.0</ele><time>2026-04-06T13:43:24.014Z</time></trkpt><trkpt lat="37.180318" lon="15.1814502"><ele>27.0</ele><time>2026-04-06T13:43:25.022Z</time></trkpt><trkpt lat="37.1801493" lon="15.1815634"><ele>26.666666666666664</ele><time>2026-04-06T13:43:25.985Z</time></trkpt><trkpt lat="37.179971" lon="15.1816835"><ele>26.333333333333332</ele><time>2026-04-06T13:43:27.02Z</time></trkpt><trkpt lat="37.1797943" lon="15.1818042"><ele>26.0</ele><time>2026-04-06T13:43:28.023Z</time></trkpt><trkpt lat="37.1796156" lon="15.1819271"><ele>27.0</ele><time>2026-04-06T13:43:29.002Z</time></trkpt><trkpt lat="37.179432" lon="15.1820535"><ele>28.0</ele><time>2026-04-06T13:43:30.016Z</time></trkpt><trkpt lat="37.179251" lon="15.1821819"><ele>29.0</ele><time>2026-04-06T13:43:30.981Z</time></trkpt><trkpt lat="37.1790622" lon="15.1823154"><ele>26.666666666666664</ele><time>2026-04-06T13:43:32.019Z</time></trkpt><trkpt lat="37.178875" lon="15.1824449"><ele>24.333333333333332</ele><time>2026-04-06T13:43:33.014Z</time></trkpt><trkpt lat="37.1786849" lon="15.1825741"><ele>22.0</ele><time>2026-04-06T13:43:34.016Z</time></trkpt><trkpt lat="37.1784954" lon="15.1827037"><ele>22.0</ele><time>2026-04-06T13:43:35.013Z</time></trkpt><trkpt lat="37.1783033" lon="15.1828308"><ele>22.0</ele><time>2026-04-06T13:43:36.014Z</time></trkpt><trkpt lat="37.1781104" lon="15.1829606"><ele>22.0</ele><time>2026-04-06T13:43:37.031Z</time></trkpt><trkpt lat="37.1779205" lon="15.1830922"><ele>22.0</ele><time>2026-04-06T13:43:38.014Z</time></trkpt><trkpt lat="37.1777291" lon="15.1832253"><ele>22.0</ele><time>2026-04-06T13:43:39.016Z</time></trkpt><trkpt lat="37.1775393" lon="15.1833584"><ele>22.0</ele><time>2026-04-06T13:43:40.014Z</time></trkpt><trkpt lat="37.1773446" lon="15.183493"><ele>22.0</ele><time>2026-04-06T13:43:41.019Z</time></trkpt><trkpt lat="37.177146" lon="15.1836298"><ele>22.0</ele><time>2026-04-06T13:43:42.024Z</time></trkpt><trkpt lat="37.1769433" lon="15.1837695"><ele>22.0</ele><time>2026-04-06T13:43:43.018Z</time></trkpt><trkpt lat="37.176737" lon="15.1839119"><ele>22.0</ele><time>2026-04-06T13:43:44.024Z</time></trkpt><trkpt lat="37.1765274" lon="15.1840568"><ele>20.5</ele><time>2026-04-06T13:43:45.022Z</time></trkpt><trkpt lat="37.1763137" lon="15.1842034"><ele>19.0</ele><time>2026-04-06T13:43:45.999Z</time></trkpt><trkpt lat="37.176092" lon="15.1843555"><ele>19.0</ele><time>2026-04-06T13:43:47.024Z</time></trkpt><trkpt lat="37.1758724" lon="15.1845073"><ele>19.0</ele><time>2026-04-06T13:43:48Z</time></trkpt><trkpt lat="37.175646" lon="15.1846644"><ele>19.0</ele><time>2026-04-06T13:43:49.014Z</time></trkpt><trkpt lat="37.1754235" lon="15.184819"><ele>19.0</ele><time>2026-04-06T13:43:49.989Z</time></trkpt><trkpt lat="37.1752003" lon="15.1849742"><ele>19.0</ele><time>2026-04-06T13:43:50.978Z</time></trkpt><trkpt lat="37.1749747" lon="15.185129"><ele>19.0</ele><time>2026-04-06T13:43:52.018Z</time></trkpt><trkpt lat="37.1747563" lon="15.1852785"><ele>21.0</ele><time>2026-04-06T13:43:53.021Z</time></trkpt><trkpt lat="37.1745401" lon="15.1854258"><ele>23.0</ele><time>2026-04-06T13:43:54.013Z</time></trkpt><trkpt lat="37.174326" lon="15.1855715"><ele>21.5</ele><time>2026-04-06T13:43:55.023Z</time></trkpt><trkpt lat="37.174118" lon="15.185715"><ele>20.0</ele><time>2026-04-06T13:43:56.03Z</time></trkpt><trkpt lat="37.1739163" lon="15.185855"><ele>20.0</ele><time>2026-04-06T13:43:57.011Z</time></trkpt><trkpt lat="37.1737149" lon="15.1859934"><ele>20.0</ele><time>2026-04-06T13:43:58.012Z</time></trkpt><trkpt lat="37.173516" lon="15.1861308"><ele>20.0</ele><time>2026-04-06T13:43:59.011Z</time></trkpt><trkpt lat="37.173317" lon="15.1862696"><ele>20.0</ele><time>2026-04-06T13:44:00.02Z</time></trkpt><trkpt lat="37.1731178" lon="15.1864071"><ele>18.5</ele><time>2026-04-06T13:44:01.017Z</time></trkpt><trkpt lat="37.1729184" lon="15.1865414"><ele>17.0</ele><time>2026-04-06T13:44:01.997Z</time></trkpt><trkpt lat="37.1727167" lon="15.1866772"><ele>17.0</ele><time>2026-04-06T13:44:03.014Z</time></trkpt><trkpt lat="37.1725184" lon="15.1868105"><ele>17.0</ele><time>2026-04-06T13:44:04.015Z</time></trkpt><trkpt lat="37.1723201" lon="15.1869456"><ele>17.0</ele><time>2026-04-06T13:44:05.016Z</time></trkpt><trkpt lat="37.1721238" lon="15.1870812"><ele>17.0</ele><time>2026-04-06T13:44:06.016Z</time></trkpt><trkpt lat="37.1719304" lon="15.1872134"><ele>17.0</ele><time>2026-04-06T13:44:06.982Z</time></trkpt><trkpt lat="37.1717303" lon="15.1873494"><ele>17.0</ele><time>2026-04-06T13:44:08.015Z</time></trkpt><trkpt lat="37.1715349" lon="15.187484"><ele>17.0</ele><time>2026-04-06T13:44:09.013Z</time></trkpt><trkpt lat="37.1713394" lon="15.1876204"><ele>17.0</ele><time>2026-04-06T13:44:10.014Z</time></trkpt><trkpt lat="37.1711435" lon="15.1877581"><ele>17.666666666666668</ele><time>2026-04-06T13:44:11.047Z</time></trkpt><trkpt lat="37.1709529" lon="15.1878911"><ele>18.333333333333332</ele><time>2026-04-06T13:44:12.004Z</time></trkpt><trkpt lat="37.1707566" lon="15.1880263"><ele>19.0</ele><time>2026-04-06T13:44:13Z</time></trkpt><trkpt lat="37.1705578" lon="15.188163"><ele>19.333333333333332</ele><time>2026-04-06T13:44:14.031Z</time></trkpt><trkpt lat="37.170362" lon="15.188297"><ele>19.666666666666668</ele><time>2026-04-06T13:44:15.031Z</time></trkpt><trkpt lat="37.1701672" lon="15.1884299"><ele>20.0</ele><time>2026-04-06T13:44:16.002Z</time></trkpt><trkpt lat="37.1699683" lon="15.1885646"><ele>19.0</ele><time>2026-04-06T13:44:17.015Z</time></trkpt><trkpt lat="37.1697711" lon="15.188699"><ele>18.0</ele><time>2026-04-06T13:44:17.999Z</time></trkpt><trkpt lat="37.1695681" lon="15.1888377"><ele>18.0</ele><time>2026-04-06T13:44:19.041Z</time></trkpt><trkpt lat="37.1693693" lon="15.1889743"><ele>18.0</ele><time>2026-04-06T13:44:20.018Z</time></trkpt><trkpt lat="37.169165" lon="15.1891151"><ele>17.5</ele><time>2026-04-06T13:44:21.021Z</time></trkpt><trkpt lat="37.1689616" lon="15.1892558"><ele>17.0</ele><time>2026-04-06T13:44:21.98Z</time></trkpt><trkpt lat="37.1687499" lon="15.1894032"><ele>17.0</ele><time>2026-04-06T13:44:23.022Z</time></trkpt><trkpt lat="37.1685431" lon="15.1895462"><ele>17.0</ele><time>2026-04-06T13:44:23.98Z</time></trkpt><trkpt lat="37.1683286" lon="15.1896939"><ele>17.5</ele><time>2026-04-06T13:44:24.998Z</time></trkpt><trkpt lat="37.1681148" lon="15.1898404"><ele>18.0</ele><time>2026-04-06T13:44:25.979Z</time></trkpt><trkpt lat="37.1678983" lon="15.1899885"><ele>16.5</ele><time>2026-04-06T13:44:27.022Z</time></trkpt><trkpt lat="37.1676948" lon="15.1901283"><ele>15.0</ele><time>2026-04-06T13:44:28.001Z</time></trkpt><trkpt lat="37.1674966" lon="15.1902656"><ele>15.0</ele><time>2026-04-06T13:44:29.013Z</time></trkpt><trkpt lat="37.1673079" lon="15.1903984"><ele>15.0</ele><time>2026-04-06T13:44:30.014Z</time></trkpt><trkpt lat="37.167128" lon="15.1905259"><ele>15.0</ele><time>2026-04-06T13:44:31.002Z</time></trkpt><trkpt lat="37.1669505" lon="15.1906508"><ele>14.666666666666668</ele><time>2026-04-06T13:44:32.015Z</time></trkpt><trkpt lat="37.1667744" lon="15.1907705"><ele>14.333333333333334</ele><time>2026-04-06T13:44:33.024Z</time></trkpt><trkpt lat="37.1665997" lon="15.1908819"><ele>14.0</ele><time>2026-04-06T13:44:34.014Z</time></trkpt><trkpt lat="37.1664238" lon="15.1909832"><ele>14.0</ele><time>2026-04-06T13:44:35.02Z</time></trkpt><trkpt lat="37.1662463" lon="15.1910726"><ele>14.0</ele><time>2026-04-06T13:44:36.001Z</time></trkpt><trkpt lat="37.1660587" lon="15.191155"><ele>14.0</ele><time>2026-04-06T13:44:37.013Z</time></trkpt><trkpt lat="37.165866" lon="15.1912282"><ele>15.0</ele><time>2026-04-06T13:44:38.017Z</time></trkpt><trkpt lat="37.1656709" lon="15.1912924"><ele>16.0</ele><time>2026-04-06T13:44:38.999Z</time></trkpt><trkpt lat="37.1654696" lon="15.191347"><ele>17.0</ele><time>2026-04-06T13:44:39.999Z</time></trkpt><trkpt lat="37.1652611" lon="15.1913891"><ele>17.0</ele><time>2026-04-06T13:44:41.019Z</time></trkpt><trkpt lat="37.1650508" lon="15.1914195"><ele>17.0</ele><time>2026-04-06T13:44:42Z</time></trkpt><trkpt lat="37.1648317" lon="15.1914439"><ele>17.0</ele><time>2026-04-06T13:44:43.022Z</time></trkpt><trkpt lat="37.1646079" lon="15.1914643"><ele>17.5</ele><time>2026-04-06T13:44:44.024Z</time></trkpt><trkpt lat="37.1643727" lon="15.1914874"><ele>18.0</ele><time>2026-04-06T13:44:45.021Z</time></trkpt><trkpt lat="37.1641229" lon="15.191513"><ele>16.5</ele><time>2026-04-06T13:44:46.022Z</time></trkpt><trkpt lat="37.1638715" lon="15.1915376"><ele>15.0</ele><time>2026-04-06T13:44:47.024Z</time></trkpt><trkpt lat="37.1636268" lon="15.1915601"><ele>15.0</ele><time>2026-04-06T13:44:48.023Z</time></trkpt><trkpt lat="37.1633918" lon="15.1915819"><ele>15.0</ele><time>2026-04-06T13:44:49.022Z</time></trkpt><trkpt lat="37.1631685" lon="15.1916047"><ele>15.666666666666668</ele><time>2026-04-06T13:44:50.029Z</time></trkpt><trkpt lat="37.162958" lon="15.1916249"><ele>16.333333333333336</ele><time>2026-04-06T13:44:51.02Z</time></trkpt><trkpt lat="37.1627576" lon="15.1916455"><ele>17.0</ele><time>2026-04-06T13:44:51.999Z</time></trkpt><trkpt lat="37.162564" lon="15.1916668"><ele>17.0</ele><time>2026-04-06T13:44:52.996Z</time></trkpt><trkpt lat="37.1623806" lon="15.191687"><ele>17.0</ele><time>2026-04-06T13:44:53.98Z</time></trkpt><trkpt lat="37.1622008" lon="15.1917061"><ele>17.0</ele><time>2026-04-06T13:44:55.015Z</time></trkpt><trkpt lat="37.162028" lon="15.1917234"><ele>18.0</ele><time>2026-04-06T13:44:56.03Z</time></trkpt><trkpt lat="37.1618667" lon="15.1917408"><ele>19.0</ele><time>2026-04-06T13:44:57.023Z</time></trkpt><trkpt lat="37.1617122" lon="15.1917568"><ele>20.0</ele><time>2026-04-06T13:44:57.999Z</time></trkpt><trkpt lat="37.161561" lon="15.1917727"><ele>19.75</ele><time>2026-04-06T13:44:59.025Z</time></trkpt><trkpt lat="37.1614196" lon="15.1917882"><ele>19.5</ele><time>2026-04-06T13:44:59.995Z</time></trkpt><trkpt lat="37.1612772" lon="15.191801"><ele>19.25</ele><time>2026-04-06T13:45:01.011Z</time></trkpt><trkpt lat="37.1611341" lon="15.1918112"><ele>19.0</ele><time>2026-04-06T13:45:02.013Z</time></trkpt><trkpt lat="37.1609926" lon="15.1918206"><ele>19.0</ele><time>2026-04-06T13:45:03.014Z</time></trkpt><trkpt lat="37.1608538" lon="15.1918321"><ele>19.0</ele><time>2026-04-06T13:45:03.999Z</time></trkpt><trkpt lat="37.1607193" lon="15.1918466"><ele>19.0</ele><time>2026-04-06T13:45:04.997Z</time></trkpt><trkpt lat="37.1605941" lon="15.1918619"><ele>19.0</ele><time>2026-04-06T13:45:05.996Z</time></trkpt><trkpt lat="37.1604786" lon="15.1918777"><ele>19.0</ele><time>2026-04-06T13:45:07.024Z</time></trkpt><trkpt lat="37.1603757" lon="15.191892"><ele>19.0</ele><time>2026-04-06T13:45:08.018Z</time></trkpt><trkpt lat="37.1602799" lon="15.1919069"><ele>19.0</ele><time>2026-04-06T13:45:09.015Z</time></trkpt><trkpt lat="37.1601889" lon="15.1919234"><ele>19.0</ele><time>2026-04-06T13:45:10.013Z</time></trkpt><trkpt lat="37.1601018" lon="15.1919436"><ele>19.0</ele><time>2026-04-06T13:45:11.018Z</time></trkpt><trkpt lat="37.1600215" lon="15.1919659"><ele>19.0</ele><time>2026-04-06T13:45:12.015Z</time></trkpt><trkpt lat="37.1599488" lon="15.1919799"><ele>19.0</ele><time>2026-04-06T13:45:13.017Z</time></trkpt><trkpt lat="37.1598833" lon="15.1919801"><ele>19.0</ele><time>2026-04-06T13:45:14.013Z</time></trkpt><trkpt lat="37.1597761" lon="15.1919668"><ele>19.0</ele><time>2026-04-06T13:45:16.015Z</time></trkpt><trkpt lat="37.1596975" lon="15.1920121"><ele>19.0</ele><time>2026-04-06T13:45:18.016Z</time></trkpt><trkpt lat="37.1596727" lon="15.1921263"><ele>19.0</ele><time>2026-04-06T13:45:20.019Z</time></trkpt><trkpt lat="37.1597056" lon="15.1922854"><ele>19.2</ele><time>2026-04-06T13:45:22Z</time></trkpt><trkpt lat="37.1597364" lon="15.1923868"><ele>19.4</ele><time>2026-04-06T13:45:22.981Z</time></trkpt><trkpt lat="37.1597679" lon="15.1925063"><ele>19.6</ele><time>2026-04-06T13:45:24.031Z</time></trkpt><trkpt lat="37.1597882" lon="15.1926332"><ele>19.8</ele><time>2026-04-06T13:45:25.036Z</time></trkpt><trkpt lat="37.1598019" lon="15.1927616"><ele>20.0</ele><time>2026-04-06T13:45:26.014Z</time></trkpt><trkpt lat="37.1598106" lon="15.1928882"><ele>20.0</ele><time>2026-04-06T13:45:27.014Z</time></trkpt><trkpt lat="37.1598147" lon="15.1930096"><ele>20.0</ele><time>2026-04-06T13:45:28.025Z</time></trkpt><trkpt lat="37.1598176" lon="15.1931171"><ele>20.0</ele><time>2026-04-06T13:45:29.013Z</time></trkpt><trkpt lat="37.1598161" lon="15.1932152"><ele>20.0</ele><time>2026-04-06T13:45:29.982Z</time></trkpt><trkpt lat="37.1598133" lon="15.1933056"><ele>20.0</ele><time>2026-04-06T13:45:31.014Z</time></trkpt><trkpt lat="37.1598078" lon="15.1933871"><ele>20.0</ele><time>2026-04-06T13:45:32.013Z</time></trkpt><trkpt lat="37.1597711" lon="15.1935358"><ele>19.5</ele><time>2026-04-06T13:45:34.013Z</time></trkpt><trkpt lat="37.1597025" lon="15.1936685"><ele>19.0</ele><time>2026-04-06T13:45:35.989Z</time></trkpt><trkpt lat="37.1596025" lon="15.1937613"><ele>18.5</ele><time>2026-04-06T13:45:38.022Z</time></trkpt><trkpt lat="37.1595415" lon="15.193786"><ele>18.0</ele><time>2026-04-06T13:45:39.012Z</time></trkpt><trkpt lat="37.1594776" lon="15.1938114"><ele>17.5</ele><time>2026-04-06T13:45:40.003Z</time></trkpt><trkpt lat="37.1594171" lon="15.1938354"><ele>17.0</ele><time>2026-04-06T13:45:40.998Z</time></trkpt><trkpt lat="37.1593548" lon="15.1938562"><ele>16.999999999999996</ele><time>2026-04-06T13:45:42.014Z</time></trkpt><trkpt lat="37.1592936" lon="15.1938803"><ele>17.0</ele><time>2026-04-06T13:45:43.017Z</time></trkpt><trkpt lat="37.1592315" lon="15.1939019"><ele>17.0</ele><time>2026-04-06T13:45:44.016Z</time></trkpt><trkpt lat="37.1591621" lon="15.1939203"><ele>17.0</ele><time>2026-04-06T13:45:45.027Z</time></trkpt><trkpt lat="37.1590913" lon="15.1939391"><ele>17.0</ele><time>2026-04-06T13:45:46.012Z</time></trkpt><trkpt lat="37.1590224" lon="15.1939583"><ele>16.999999999999996</ele><time>2026-04-06T13:45:47.015Z</time></trkpt><trkpt lat="37.1589543" lon="15.1939786"><ele>17.0</ele><time>2026-04-06T13:45:48.014Z</time></trkpt><trkpt lat="37.1588888" lon="15.1939927"><ele>17.166666666666668</ele><time>2026-04-06T13:45:49.009Z</time></trkpt><trkpt lat="37.1588219" lon="15.1940014"><ele>17.333333333333336</ele><time>2026-04-06T13:45:50.016Z</time></trkpt><trkpt lat="37.1587559" lon="15.1940074"><ele>17.5</ele><time>2026-04-06T13:45:51.016Z</time></trkpt><trkpt lat="37.1586472" lon="15.1940264"><ele>17.666666666666668</ele><time>2026-04-06T13:45:53.018Z</time></trkpt><trkpt lat="37.1585822" lon="15.1941063"><ele>17.833333333333332</ele><time>2026-04-06T13:45:55.001Z</time></trkpt><trkpt lat="37.1585728" lon="15.1942419"><ele>18.0</ele><time>2026-04-06T13:45:57.001Z</time></trkpt><trkpt lat="37.1585834" lon="15.1943325"><ele>17.5</ele><time>2026-04-06T13:45:58.023Z</time></trkpt><trkpt lat="37.158592" lon="15.1944337"><ele>17.0</ele><time>2026-04-06T13:45:59.033Z</time></trkpt><trkpt lat="37.1586003" lon="15.194534"><ele>16.5</ele><time>2026-04-06T13:46:00.026Z</time></trkpt><trkpt lat="37.1586079" lon="15.1946358"><ele>16.0</ele><time>2026-04-06T13:46:01.001Z</time></trkpt><trkpt lat="37.1586101" lon="15.1947401"><ele>15.5</ele><time>2026-04-06T13:46:02.027Z</time></trkpt><trkpt lat="37.1586009" lon="15.1948434"><ele>15.0</ele><time>2026-04-06T13:46:03.017Z</time></trkpt><trkpt lat="37.158582" lon="15.1949454"><ele>14.666666666666666</ele><time>2026-04-06T13:46:04.013Z</time></trkpt><trkpt lat="37.1585533" lon="15.1950406"><ele>14.333333333333332</ele><time>2026-04-06T13:46:04.999Z</time></trkpt><trkpt lat="37.1585191" lon="15.1951375"><ele>14.0</ele><time>2026-04-06T13:46:06.012Z</time></trkpt><trkpt lat="37.1584837" lon="15.1952325"><ele>13.666666666666666</ele><time>2026-04-06T13:46:07.023Z</time></trkpt><trkpt lat="37.1584507" lon="15.1953295"><ele>13.333333333333332</ele><time>2026-04-06T13:46:08.025Z</time></trkpt><trkpt lat="37.1584188" lon="15.1954282"><ele>13.0</ele><time>2026-04-06T13:46:09.013Z</time></trkpt><trkpt lat="37.1583886" lon="15.1955288"><ele>12.999999999999998</ele><time>2026-04-06T13:46:10.023Z</time></trkpt><trkpt lat="37.158359" lon="15.195631"><ele>13.0</ele><time>2026-04-06T13:46:11.007Z</time></trkpt><trkpt lat="37.1583279" lon="15.1957319"><ele>13.0</ele><time>2026-04-06T13:46:12.01Z</time></trkpt><trkpt lat="37.1582969" lon="15.195832"><ele>13.0</ele><time>2026-04-06T13:46:12.998Z</time></trkpt><trkpt lat="37.1582659" lon="15.1959324"><ele>12.999999999999998</ele><time>2026-04-06T13:46:14.015Z</time></trkpt><trkpt lat="37.1582344" lon="15.196031"><ele>13.0</ele><time>2026-04-06T13:46:15.003Z</time></trkpt><trkpt lat="37.1582025" lon="15.1961296"><ele>12.666666666666666</ele><time>2026-04-06T13:46:16.024Z</time></trkpt><trkpt lat="37.1581698" lon="15.1962246"><ele>12.333333333333332</ele><time>2026-04-06T13:46:17.026Z</time></trkpt><trkpt lat="37.1581399" lon="15.1963134"><ele>12.0</ele><time>2026-04-06T13:46:18.014Z</time></trkpt><trkpt lat="37.1581128" lon="15.1963976"><ele>11.666666666666666</ele><time>2026-04-06T13:46:19.014Z</time></trkpt><trkpt lat="37.158091" lon="15.1964781"><ele>11.333333333333332</ele><time>2026-04-06T13:46:20.016Z</time></trkpt><trkpt lat="37.1580749" lon="15.1965552"><ele>11.0</ele><time>2026-04-06T13:46:21.014Z</time></trkpt><trkpt lat="37.1580875" lon="15.1966983"><ele>10.8</ele><time>2026-04-06T13:46:23.016Z</time></trkpt><trkpt lat="37.1581555" lon="15.1967943"><ele>10.600000000000001</ele><time>2026-04-06T13:46:25.023Z</time></trkpt><trkpt lat="37.1582664" lon="15.1968335"><ele>10.4</ele><time>2026-04-06T13:46:27Z</time></trkpt><trkpt lat="37.158343" lon="15.1968372"><ele>10.2</ele><time>2026-04-06T13:46:28.016Z</time></trkpt><trkpt lat="37.1584266" lon="15.1968202"><ele>10.0</ele><time>2026-04-06T13:46:29Z</time></trkpt><trkpt lat="37.1585261" lon="15.1967814"><ele>9.8</ele><time>2026-04-06T13:46:30.032Z</time></trkpt><trkpt lat="37.1586315" lon="15.196736"><ele>9.6</ele><time>2026-04-06T13:46:31.002Z</time></trkpt><trkpt lat="37.1587271" lon="15.196694"><ele>9.4</ele><time>2026-04-06T13:46:32.014Z</time></trkpt><trkpt lat="37.1588126" lon="15.1966585"><ele>9.2</ele><time>2026-04-06T13:46:33.016Z</time></trkpt><trkpt lat="37.1588923" lon="15.1966211"><ele>9.0</ele><time>2026-04-06T13:46:33.995Z</time></trkpt><trkpt lat="37.1589652" lon="15.1965816"><ele>9.0</ele><time>2026-04-06T13:46:35Z</time></trkpt><trkpt lat="37.1590332" lon="15.1965419"><ele>9.0</ele><time>2026-04-06T13:46:36.031Z</time></trkpt><trkpt lat="37.1590959" lon="15.1965053"><ele>9.0</ele><time>2026-04-06T13:46:37.028Z</time></trkpt><trkpt lat="37.159206" lon="15.1964553"><ele>9.0</ele><time>2026-04-06T13:46:38.998Z</time></trkpt><trkpt lat="37.1593037" lon="15.1964499"><ele>9.0</ele><time>2026-04-06T13:46:41.033Z</time></trkpt><trkpt lat="37.1593832" lon="15.1964983"><ele>9.0</ele><time>2026-04-06T13:46:43.025Z</time></trkpt><trkpt lat="37.1594898" lon="15.1965915"><ele>8.8</ele><time>2026-04-06T13:46:45.001Z</time></trkpt><trkpt lat="37.1595597" lon="15.1966407"><ele>8.600000000000001</ele><time>2026-04-06T13:46:46.012Z</time></trkpt><trkpt lat="37.1596417" lon="15.1966883"><ele>8.4</ele><time>2026-04-06T13:46:47.013Z</time></trkpt><trkpt lat="37.1597349" lon="15.196735"><ele>8.200000000000001</ele><time>2026-04-06T13:46:48.02Z</time></trkpt><trkpt lat="37.1598323" lon="15.1967786"><ele>8.0</ele><time>2026-04-06T13:46:49.005Z</time></trkpt><trkpt lat="37.1599317" lon="15.1968207"><ele>8.0</ele><time>2026-04-06T13:46:49.998Z</time></trkpt><trkpt lat="37.1600304" lon="15.1968646"><ele>8.0</ele><time>2026-04-06T13:46:51.015Z</time></trkpt><trkpt lat="37.1601312" lon="15.1969141"><ele>8.0</ele><time>2026-04-06T13:46:52.016Z</time></trkpt><trkpt lat="37.1602229" lon="15.1969619"><ele>8.0</ele><time>2026-04-06T13:46:53.018Z</time></trkpt><trkpt lat="37.1603142" lon="15.1970045"><ele>8.0</ele><time>2026-04-06T13:46:53.999Z</time></trkpt><trkpt lat="37.1604049" lon="15.1970447"><ele>8.0</ele><time>2026-04-06T13:46:54.98Z</time></trkpt><trkpt lat="37.1604923" lon="15.1970909"><ele>8.0</ele><time>2026-04-06T13:46:56Z</time></trkpt><trkpt lat="37.1605734" lon="15.1971432"><ele>8.0</ele><time>2026-04-06T13:46:57.019Z</time></trkpt><trkpt lat="37.1606513" lon="15.1972063"><ele>8.0</ele><time>2026-04-06T13:46:58.016Z</time></trkpt><trkpt lat="37.1607263" lon="15.197282"><ele>8.0</ele><time>2026-04-06T13:46:59.013Z</time></trkpt><trkpt lat="37.1607914" lon="15.1973729"><ele>7.2</ele><time>2026-04-06T13:47:00.027Z</time></trkpt><trkpt lat="37.1608484" lon="15.1974765"><ele>6.4</ele><time>2026-04-06T13:47:01.014Z</time></trkpt><trkpt lat="37.1608979" lon="15.1975821"><ele>5.6000000000000005</ele><time>2026-04-06T13:47:02.017Z</time></trkpt><trkpt lat="37.1609436" lon="15.1976878"><ele>4.800000000000001</ele><time>2026-04-06T13:47:03.016Z</time></trkpt><trkpt lat="37.1609913" lon="15.197795"><ele>4.0</ele><time>2026-04-06T13:47:04.031Z</time></trkpt><trkpt lat="37.1610412" lon="15.1979034"><ele>4.0</ele><time>2026-04-06T13:47:05.015Z</time></trkpt><trkpt lat="37.1610898" lon="15.1980126"><ele>4.0</ele><time>2026-04-06T13:47:06.03Z</time></trkpt><trkpt lat="37.1611372" lon="15.1981258"><ele>4.0</ele><time>2026-04-06T13:47:07.014Z</time></trkpt><trkpt lat="37.1611812" lon="15.1982433"><ele>4.0</ele><time>2026-04-06T13:47:08.013Z</time></trkpt><trkpt lat="37.1612167" lon="15.1983615"><ele>4.0</ele><time>2026-04-06T13:47:09.001Z</time></trkpt><trkpt lat="37.1612378" lon="15.1984752"><ele>4.0</ele><time>2026-04-06T13:47:09.998Z</time></trkpt><trkpt lat="37.1612424" lon="15.1985906"><ele>4.0</ele><time>2026-04-06T13:47:11.031Z</time></trkpt><trkpt lat="37.1612381" lon="15.198709"><ele>4.0</ele><time>2026-04-06T13:47:12.014Z</time></trkpt><trkpt lat="37.1612223" lon="15.1988263"><ele>4.0</ele><time>2026-04-06T13:47:13.03Z</time></trkpt><trkpt lat="37.1612016" lon="15.1989517"><ele>4.0</ele><time>2026-04-06T13:47:13.999Z</time></trkpt><trkpt lat="37.1611825" lon="15.1990785"><ele>4.0</ele><time>2026-04-06T13:47:15.015Z</time></trkpt><trkpt lat="37.1611666" lon="15.1992072"><ele>4.0</ele><time>2026-04-06T13:47:16.022Z</time></trkpt><trkpt lat="37.1611536" lon="15.1993356"><ele>4.0</ele><time>2026-04-06T13:47:17.014Z</time></trkpt><trkpt lat="37.1611401" lon="15.199466"><ele>4.0</ele><time>2026-04-06T13:47:18.019Z</time></trkpt><trkpt lat="37.161122" lon="15.1995945"><ele>4.0</ele><time>2026-04-06T13:47:18.998Z</time></trkpt><trkpt lat="37.1611021" lon="15.1997219"><ele>4.2</ele><time>2026-04-06T13:47:20Z</time></trkpt><trkpt lat="37.1610849" lon="15.1998484"><ele>4.4</ele><time>2026-04-06T13:47:21.001Z</time></trkpt><trkpt lat="37.161071" lon="15.1999747"><ele>4.6</ele><time>2026-04-06T13:47:21.999Z</time></trkpt><trkpt lat="37.1610561" lon="15.2001013"><ele>4.8</ele><time>2026-04-06T13:47:23.001Z</time></trkpt><trkpt lat="37.1610396" lon="15.2002259"><ele>5.0</ele><time>2026-04-06T13:47:24.017Z</time></trkpt><trkpt lat="37.1610237" lon="15.2003496"><ele>5.0</ele><time>2026-04-06T13:47:25.018Z</time></trkpt><trkpt lat="37.1610092" lon="15.2004715"><ele>5.0</ele><time>2026-04-06T13:47:26.015Z</time></trkpt><trkpt lat="37.1609963" lon="15.2005869"><ele>5.0</ele><time>2026-04-06T13:47:26.999Z</time></trkpt><trkpt lat="37.1609815" lon="15.2006957"><ele>5.0</ele><time>2026-04-06T13:47:28.011Z</time></trkpt><trkpt lat="37.160965" lon="15.2008001"><ele>5.0</ele><time>2026-04-06T13:47:29.015Z</time></trkpt><trkpt lat="37.1609443" lon="15.2009011"><ele>5.0</ele><time>2026-04-06T13:47:29.999Z</time></trkpt><trkpt lat="37.1609178" lon="15.2009967"><ele>4.666666666666667</ele><time>2026-04-06T13:47:31.015Z</time></trkpt><trkpt lat="37.1608816" lon="15.2010823"><ele>4.333333333333334</ele><time>2026-04-06T13:47:32.011Z</time></trkpt><trkpt lat="37.1608359" lon="15.2011565"><ele>4.0</ele><time>2026-04-06T13:47:33.02Z</time></trkpt><trkpt lat="37.1607806" lon="15.201216"><ele>3.666666666666667</ele><time>2026-04-06T13:47:34.017Z</time></trkpt><trkpt lat="37.1607187" lon="15.2012574"><ele>3.3333333333333335</ele><time>2026-04-06T13:47:35.016Z</time></trkpt><trkpt lat="37.1606451" lon="15.2012937"><ele>3.0</ele><time>2026-04-06T13:47:36.016Z</time></trkpt><trkpt lat="37.1605677" lon="15.2013335"><ele>3.0</ele><time>2026-04-06T13:47:37.012Z</time></trkpt><trkpt lat="37.1604903" lon="15.2013733"><ele>3.0</ele><time>2026-04-06T13:47:38.019Z</time></trkpt><trkpt lat="37.1604093" lon="15.2014154"><ele>3.0</ele><time>2026-04-06T13:47:39.015Z</time></trkpt><trkpt lat="37.1603278" lon="15.2014593"><ele>3.0</ele><time>2026-04-06T13:47:40.03Z</time></trkpt><trkpt lat="37.1602447" lon="15.2015087"><ele>3.0</ele><time>2026-04-06T13:47:41.001Z</time></trkpt><trkpt lat="37.1601616" lon="15.2015625"><ele>3.0</ele><time>2026-04-06T13:47:42.029Z</time></trkpt><trkpt lat="37.1600753" lon="15.2016144"><ele>3.0</ele><time>2026-04-06T13:47:43.027Z</time></trkpt><trkpt lat="37.1599864" lon="15.2016669"><ele>3.0</ele><time>2026-04-06T13:47:44.032Z</time></trkpt><trkpt lat="37.1598971" lon="15.2017203"><ele>3.0</ele><time>2026-04-06T13:47:45.016Z</time></trkpt><trkpt lat="37.1598063" lon="15.2017736"><ele>3.0</ele><time>2026-04-06T13:47:46.011Z</time></trkpt><trkpt lat="37.1597143" lon="15.2018262"><ele>3.0</ele><time>2026-04-06T13:47:47.014Z</time></trkpt><trkpt lat="37.1596215" lon="15.2018795"><ele>3.0</ele><time>2026-04-06T13:47:47.994Z</time></trkpt><trkpt lat="37.1595281" lon="15.2019347"><ele>3.0</ele><time>2026-04-06T13:47:49.01Z</time></trkpt><trkpt lat="37.1594337" lon="15.2019885"><ele>3.0</ele><time>2026-04-06T13:47:50.014Z</time></trkpt><trkpt lat="37.1593396" lon="15.2020443"><ele>3.0</ele><time>2026-04-06T13:47:51.039Z</time></trkpt><trkpt lat="37.1592442" lon="15.2021014"><ele>3.0</ele><time>2026-04-06T13:47:52.04Z</time></trkpt><trkpt lat="37.1591437" lon="15.202159"><ele>3.0</ele><time>2026-04-06T13:47:53.014Z</time></trkpt><trkpt lat="37.1590459" lon="15.202214"><ele>3.0</ele><time>2026-04-06T13:47:54.02Z</time></trkpt><trkpt lat="37.158953" lon="15.2022727"><ele>3.0</ele><time>2026-04-06T13:47:55.013Z</time></trkpt><trkpt lat="37.1588593" lon="15.2023347"><ele>3.0</ele><time>2026-04-06T13:47:56.023Z</time></trkpt><trkpt lat="37.1587643" lon="15.2023965"><ele>3.0</ele><time>2026-04-06T13:47:56.991Z</time></trkpt><trkpt lat="37.1586655" lon="15.202454"><ele>3.4</ele><time>2026-04-06T13:47:58.014Z</time></trkpt><trkpt lat="37.1585651" lon="15.202509"><ele>3.8</ele><time>2026-04-06T13:47:59.01Z</time></trkpt><trkpt lat="37.1584651" lon="15.2025623"><ele>4.2</ele><time>2026-04-06T13:48:00.025Z</time></trkpt><trkpt lat="37.1583653" lon="15.202619"><ele>4.6</ele><time>2026-04-06T13:48:01.02Z</time></trkpt><trkpt lat="37.1582666" lon="15.2026768"><ele>5.0</ele><time>2026-04-06T13:48:02.011Z</time></trkpt><trkpt lat="37.1581679" lon="15.2027349"><ele>5.0</ele><time>2026-04-06T13:48:02.985Z</time></trkpt><trkpt lat="37.1580685" lon="15.2027955"><ele>5.0</ele><time>2026-04-06T13:48:04.017Z</time></trkpt><trkpt lat="37.1579689" lon="15.2028556"><ele>5.0</ele><time>2026-04-06T13:48:05.017Z</time></trkpt><trkpt lat="37.1578695" lon="15.2029124"><ele>5.0</ele><time>2026-04-06T13:48:06.039Z</time></trkpt><trkpt lat="37.1577712" lon="15.2029689"><ele>5.0</ele><time>2026-04-06T13:48:07.034Z</time></trkpt><trkpt lat="37.1576741" lon="15.2030245"><ele>5.0</ele><time>2026-04-06T13:48:07.999Z</time></trkpt><trkpt lat="37.1575762" lon="15.2030785"><ele>5.0</ele><time>2026-04-06T13:48:09.027Z</time></trkpt><trkpt lat="37.1574815" lon="15.2031336"><ele>5.0</ele><time>2026-04-06T13:48:09.999Z</time></trkpt><trkpt lat="37.1573886" lon="15.2031878"><ele>5.0</ele><time>2026-04-06T13:48:11.015Z</time></trkpt><trkpt lat="37.1572968" lon="15.2032418"><ele>5.0</ele><time>2026-04-06T13:48:12.041Z</time></trkpt><trkpt lat="37.1572051" lon="15.2032959"><ele>4.4</ele><time>2026-04-06T13:48:12.999Z</time></trkpt><trkpt lat="37.1571137" lon="15.2033493"><ele>3.8</ele><time>2026-04-06T13:48:14.033Z</time></trkpt><trkpt lat="37.1570224" lon="15.2034046"><ele>3.2</ele><time>2026-04-06T13:48:15.03Z</time></trkpt><trkpt lat="37.1569318" lon="15.2034591"><ele>2.6</ele><time>2026-04-06T13:48:15.991Z</time></trkpt><trkpt lat="37.1568415" lon="15.2035127"><ele>2.0</ele><time>2026-04-06T13:48:17.014Z</time></trkpt><trkpt lat="37.156752" lon="15.2035669"><ele>2.0</ele><time>2026-04-06T13:48:18.03Z</time></trkpt><trkpt lat="37.1566625" lon="15.2036204"><ele>2.0</ele><time>2026-04-06T13:48:19.013Z</time></trkpt><trkpt lat="37.1565736" lon="15.2036725"><ele>2.0</ele><time>2026-04-06T13:48:19.994Z</time></trkpt><trkpt lat="37.1564834" lon="15.2037248"><ele>2.0</ele><time>2026-04-06T13:48:21.024Z</time></trkpt><trkpt lat="37.1563928" lon="15.2037769"><ele>2.0</ele><time>2026-04-06T13:48:22.014Z</time></trkpt><trkpt lat="37.1563032" lon="15.2038296"><ele>2.2</ele><time>2026-04-06T13:48:23.015Z</time></trkpt><trkpt lat="37.1562134" lon="15.2038833"><ele>2.4000000000000004</ele><time>2026-04-06T13:48:24.01Z</time></trkpt><trkpt lat="37.1561239" lon="15.2039389"><ele>2.5999999999999996</ele><time>2026-04-06T13:48:24.999Z</time></trkpt><trkpt lat="37.1560327" lon="15.2039923"><ele>2.8</ele><time>2026-04-06T13:48:25.998Z</time></trkpt><trkpt lat="37.1559385" lon="15.2040437"><ele>3.0</ele><time>2026-04-06T13:48:26.993Z</time></trkpt><trkpt lat="37.1558414" lon="15.2040944"><ele>3.0</ele><time>2026-04-06T13:48:28.032Z</time></trkpt><trkpt lat="37.1557405" lon="15.2041405"><ele>3.0</ele><time>2026-04-06T13:48:29.03Z</time></trkpt><trkpt lat="37.1556333" lon="15.204181"><ele>3.0</ele><time>2026-04-06T13:48:30.016Z</time></trkpt><trkpt lat="37.1555211" lon="15.2042113"><ele>3.0</ele><time>2026-04-06T13:48:31.015Z</time></trkpt><trkpt lat="37.1554009" lon="15.2042307"><ele>3.0</ele><time>2026-04-06T13:48:32.012Z</time></trkpt><trkpt lat="37.1552677" lon="15.204244"><ele>3.0</ele><time>2026-04-06T13:48:33.02Z</time></trkpt><trkpt lat="37.1551289" lon="15.2042562"><ele>3.0</ele><time>2026-04-06T13:48:34.021Z</time></trkpt><trkpt lat="37.1549935" lon="15.2042675"><ele>3.0</ele><time>2026-04-06T13:48:35.01Z</time></trkpt><trkpt lat="37.1548678" lon="15.2042829"><ele>3.4</ele><time>2026-04-06T13:48:36.013Z</time></trkpt><trkpt lat="37.1547497" lon="15.2043032"><ele>3.8</ele><time>2026-04-06T13:48:37.013Z</time></trkpt><trkpt lat="37.1546369" lon="15.2043394"><ele>4.2</ele><time>2026-04-06T13:48:38.021Z</time></trkpt><trkpt lat="37.1545382" lon="15.2043865"><ele>4.6</ele><time>2026-04-06T13:48:39.015Z</time></trkpt><trkpt lat="37.1544444" lon="15.2044468"><ele>5.0</ele><time>2026-04-06T13:48:40.001Z</time></trkpt><trkpt lat="37.1543579" lon="15.2045147"><ele>5.0</ele><time>2026-04-06T13:48:41.015Z</time></trkpt><trkpt lat="37.1542702" lon="15.2045989"><ele>5.0</ele><time>2026-04-06T13:48:42.003Z</time></trkpt><trkpt lat="37.1541743" lon="15.2046887"><ele>5.0</ele><time>2026-04-06T13:48:43Z</time></trkpt><trkpt lat="37.1540673" lon="15.2047774"><ele>5.0</ele><time>2026-04-06T13:48:44.015Z</time></trkpt><trkpt lat="37.1539513" lon="15.2048718"><ele>4.0</ele><time>2026-04-06T13:48:45.012Z</time></trkpt><trkpt lat="37.1538268" lon="15.2049787"><ele>3.0</ele><time>2026-04-06T13:48:46.016Z</time></trkpt><trkpt lat="37.1536949" lon="15.2050847"><ele>2.0</ele><time>2026-04-06T13:48:47.011Z</time></trkpt><trkpt lat="37.1535606" lon="15.205178"><ele>2.0</ele><time>2026-04-06T13:48:48.002Z</time></trkpt><trkpt lat="37.1534271" lon="15.2052593"><ele>2.0</ele><time>2026-04-06T13:48:48.996Z</time></trkpt><trkpt lat="37.1532977" lon="15.2053241"><ele>2.0</ele><time>2026-04-06T13:48:50.017Z</time></trkpt><trkpt lat="37.1531734" lon="15.2053824"><ele>2.0</ele><time>2026-04-06T13:48:51.012Z</time></trkpt><trkpt lat="37.1530549" lon="15.2054344"><ele>2.4000000000000004</ele><time>2026-04-06T13:48:52.033Z</time></trkpt><trkpt lat="37.1529425" lon="15.2054834"><ele>2.8000000000000003</ele><time>2026-04-06T13:48:53.014Z</time></trkpt><trkpt lat="37.1528338" lon="15.2055232"><ele>3.2</ele><time>2026-04-06T13:48:54.035Z</time></trkpt><trkpt lat="37.1527289" lon="15.2055466"><ele>3.6</ele><time>2026-04-06T13:48:55.047Z</time></trkpt><trkpt lat="37.1526317" lon="15.2055555"><ele>4.0</ele><time>2026-04-06T13:48:56.031Z</time></trkpt><trkpt lat="37.1525394" lon="15.2055542"><ele>3.9999999999999996</ele><time>2026-04-06T13:48:56.985Z</time></trkpt><trkpt lat="37.1524499" lon="15.2055434"><ele>4.0</ele><time>2026-04-06T13:48:58.013Z</time></trkpt><trkpt lat="37.1523692" lon="15.205523"><ele>4.0</ele><time>2026-04-06T13:48:59.028Z</time></trkpt><trkpt lat="37.1522913" lon="15.2054946"><ele>4.0</ele><time>2026-04-06T13:49:00.013Z</time></trkpt><trkpt lat="37.1522106" lon="15.205466"><ele>3.9999999999999996</ele><time>2026-04-06T13:49:01.019Z</time></trkpt><trkpt lat="37.1521233" lon="15.2054412"><ele>4.0</ele><time>2026-04-06T13:49:01.999Z</time></trkpt><trkpt lat="37.1520302" lon="15.2054178"><ele>3.9999999999999996</ele><time>2026-04-06T13:49:03.01Z</time></trkpt><trkpt lat="37.1519374" lon="15.2053931"><ele>4.0</ele><time>2026-04-06T13:49:04.014Z</time></trkpt><trkpt lat="37.1518481" lon="15.2053748"><ele>4.0</ele><time>2026-04-06T13:49:05.014Z</time></trkpt><trkpt lat="37.1517631" lon="15.2053614"><ele>4.0</ele><time>2026-04-06T13:49:05.999Z</time></trkpt><trkpt lat="37.1516819" lon="15.2053519"><ele>3.9999999999999996</ele><time>2026-04-06T13:49:07.011Z</time></trkpt><trkpt lat="37.1516001" lon="15.205353"><ele>4.0</ele><time>2026-04-06T13:49:08.008Z</time></trkpt><trkpt lat="37.1515136" lon="15.2053676"><ele>3.8000000000000003</ele><time>2026-04-06T13:49:09Z</time></trkpt><trkpt lat="37.1514251" lon="15.205396"><ele>3.6000000000000005</ele><time>2026-04-06T13:49:10.004Z</time></trkpt><trkpt lat="37.1513357" lon="15.2054393"><ele>3.4</ele><time>2026-04-06T13:49:11.021Z</time></trkpt><trkpt lat="37.151244" lon="15.2054965"><ele>3.2</ele><time>2026-04-06T13:49:12.028Z</time></trkpt><trkpt lat="37.1511505" lon="15.2055575"><ele>3.0</ele><time>2026-04-06T13:49:13.007Z</time></trkpt><trkpt lat="37.1510546" lon="15.2056238"><ele>3.2</ele><time>2026-04-06T13:49:14.025Z</time></trkpt><trkpt lat="37.1509549" lon="15.2056944"><ele>3.4</ele><time>2026-04-06T13:49:15.002Z</time></trkpt><trkpt lat="37.1508534" lon="15.2057671"><ele>3.6000000000000005</ele><time>2026-04-06T13:49:16.014Z</time></trkpt><trkpt lat="37.150756" lon="15.2058335"><ele>3.8000000000000003</ele><time>2026-04-06T13:49:17.015Z</time></trkpt><trkpt lat="37.1506661" lon="15.2058962"><ele>4.0</ele><time>2026-04-06T13:49:18.018Z</time></trkpt><trkpt lat="37.1505837" lon="15.2059523"><ele>3.9999999999999996</ele><time>2026-04-06T13:49:19.013Z</time></trkpt><trkpt lat="37.1505052" lon="15.2060061"><ele>4.0</ele><time>2026-04-06T13:49:20.016Z</time></trkpt><trkpt lat="37.150427" lon="15.2060462"><ele>4.0</ele><time>2026-04-06T13:49:21.02Z</time></trkpt><trkpt lat="37.1503477" lon="15.2060913"><ele>4.0</ele><time>2026-04-06T13:49:22.013Z</time></trkpt><trkpt lat="37.1502667" lon="15.206137"><ele>3.9999999999999996</ele><time>2026-04-06T13:49:23.016Z</time></trkpt><trkpt lat="37.150193" lon="15.2061888"><ele>4.0</ele><time>2026-04-06T13:49:24.015Z</time></trkpt><trkpt lat="37.1501201" lon="15.2062398"><ele>3.9999999999999996</ele><time>2026-04-06T13:49:25.022Z</time></trkpt><trkpt lat="37.1500519" lon="15.2062878"><ele>4.0</ele><time>2026-04-06T13:49:26.017Z</time></trkpt><trkpt lat="37.1499915" lon="15.2063306"><ele>4.0</ele><time>2026-04-06T13:49:27.033Z</time></trkpt><trkpt lat="37.1499133" lon="15.2064143"><ele>4.0</ele><time>2026-04-06T13:49:29.038Z</time></trkpt><trkpt lat="37.1499061" lon="15.2064973"><ele>3.9999999999999996</ele><time>2026-04-06T13:49:31.031Z</time></trkpt><trkpt lat="37.149935" lon="15.206578"><ele>4.0</ele><time>2026-04-06T13:49:33.014Z</time></trkpt><trkpt lat="37.1500023" lon="15.2066574"><ele>4.166666666666666</ele><time>2026-04-06T13:49:35.012Z</time></trkpt><trkpt lat="37.1500994" lon="15.2067605"><ele>4.333333333333333</ele><time>2026-04-06T13:49:36.986Z</time></trkpt><trkpt lat="37.1501545" lon="15.2068218"><ele>4.5</ele><time>2026-04-06T13:49:38.009Z</time></trkpt><trkpt lat="37.1502125" lon="15.2068822"><ele>4.666666666666667</ele><time>2026-04-06T13:49:39.011Z</time></trkpt><trkpt lat="37.1502746" lon="15.206946"><ele>4.833333333333334</ele><time>2026-04-06T13:49:40.01Z</time></trkpt><trkpt lat="37.1503371" lon="15.2070082"><ele>5.0</ele><time>2026-04-06T13:49:40.998Z</time></trkpt><trkpt lat="37.1504002" lon="15.2070696"><ele>5.0</ele><time>2026-04-06T13:49:42.011Z</time></trkpt><trkpt lat="37.1504653" lon="15.2071298"><ele>5.0</ele><time>2026-04-06T13:49:43.012Z</time></trkpt><trkpt lat="37.1505289" lon="15.2071992"><ele>5.0</ele><time>2026-04-06T13:49:44.017Z</time></trkpt><trkpt lat="37.1505882" lon="15.2072759"><ele>5.0</ele><time>2026-04-06T13:49:45.029Z</time></trkpt><trkpt lat="37.1506385" lon="15.207358"><ele>5.0</ele><time>2026-04-06T13:49:45.979Z</time></trkpt><trkpt lat="37.1506791" lon="15.207446"><ele>5.0</ele><time>2026-04-06T13:49:46.995Z</time></trkpt><trkpt lat="37.1507093" lon="15.2075373"><ele>4.666666666666667</ele><time>2026-04-06T13:49:47.996Z</time></trkpt><trkpt lat="37.1507282" lon="15.2076376"><ele>4.333333333333334</ele><time>2026-04-06T13:49:49.02Z</time></trkpt><trkpt lat="37.1507373" lon="15.2077446"><ele>4.0</ele><time>2026-04-06T13:49:49.981Z</time></trkpt><trkpt lat="37.1507418" lon="15.2078561"><ele>3.666666666666667</ele><time>2026-04-06T13:49:51Z</time></trkpt><trkpt lat="37.1507451" lon="15.2079744"><ele>3.3333333333333335</ele><time>2026-04-06T13:49:52.012Z</time></trkpt><trkpt lat="37.1507483" lon="15.2080938"><ele>3.0</ele><time>2026-04-06T13:49:52.999Z</time></trkpt><trkpt lat="37.1507522" lon="15.2082145"><ele>2.8</ele><time>2026-04-06T13:49:53.999Z</time></trkpt><trkpt lat="37.1507516" lon="15.2083359"><ele>2.5999999999999996</ele><time>2026-04-06T13:49:55.03Z</time></trkpt><trkpt lat="37.1507446" lon="15.2084664"><ele>2.4000000000000004</ele><time>2026-04-06T13:49:56.012Z</time></trkpt><trkpt lat="37.1507361" lon="15.2086004"><ele>2.2</ele><time>2026-04-06T13:49:57.022Z</time></trkpt><trkpt lat="37.150727" lon="15.2087309"><ele>2.0</ele><time>2026-04-06T13:49:58.015Z</time></trkpt><trkpt lat="37.150716" lon="15.2088628"><ele>2.4000000000000004</ele><time>2026-04-06T13:49:59.015Z</time></trkpt><trkpt lat="37.1507042" lon="15.2089967"><ele>2.8000000000000003</ele><time>2026-04-06T13:50:00.015Z</time></trkpt><trkpt lat="37.1506922" lon="15.2091333"><ele>3.2</ele><time>2026-04-06T13:50:01.001Z</time></trkpt><trkpt lat="37.1506763" lon="15.2092713"><ele>3.6</ele><time>2026-04-06T13:50:02.014Z</time></trkpt><trkpt lat="37.1506542" lon="15.2094097"><ele>4.0</ele><time>2026-04-06T13:50:03.014Z</time></trkpt><trkpt lat="37.150628" lon="15.2095465"><ele>4.0</ele><time>2026-04-06T13:50:04.015Z</time></trkpt><trkpt lat="37.1505947" lon="15.2096794"><ele>4.0</ele><time>2026-04-06T13:50:05.03Z</time></trkpt><trkpt lat="37.1505566" lon="15.209808"><ele>4.0</ele><time>2026-04-06T13:50:06.032Z</time></trkpt><trkpt lat="37.1505146" lon="15.2099344"><ele>4.0</ele><time>2026-04-06T13:50:07.016Z</time></trkpt><trkpt lat="37.1504703" lon="15.2100559"><ele>4.0</ele><time>2026-04-06T13:50:08.014Z</time></trkpt><trkpt lat="37.1504226" lon="15.2101714"><ele>4.0</ele><time>2026-04-06T13:50:09.015Z</time></trkpt><trkpt lat="37.150375" lon="15.2102831"><ele>4.0</ele><time>2026-04-06T13:50:10.028Z</time></trkpt><trkpt lat="37.1503277" lon="15.2103955"><ele>4.0</ele><time>2026-04-06T13:50:11.045Z</time></trkpt><trkpt lat="37.1502778" lon="15.2105048"><ele>4.0</ele><time>2026-04-06T13:50:12.029Z</time></trkpt><trkpt lat="37.1502283" lon="15.2106147"><ele>4.0</ele><time>2026-04-06T13:50:13.014Z</time></trkpt><trkpt lat="37.1501791" lon="15.2107211"><ele>3.6</ele><time>2026-04-06T13:50:14Z</time></trkpt><trkpt lat="37.150131" lon="15.2108273"><ele>3.2</ele><time>2026-04-06T13:50:15.016Z</time></trkpt><trkpt lat="37.150084" lon="15.2109294"><ele>2.8000000000000003</ele><time>2026-04-06T13:50:16.021Z</time></trkpt><trkpt lat="37.150038" lon="15.2110309"><ele>2.4000000000000004</ele><time>2026-04-06T13:50:17.012Z</time></trkpt><trkpt lat="37.149993" lon="15.2111337"><ele>2.0</ele><time>2026-04-06T13:50:18.015Z</time></trkpt><trkpt lat="37.1499485" lon="15.2112342"><ele>2.0</ele><time>2026-04-06T13:50:19.011Z</time></trkpt><trkpt lat="37.1499056" lon="15.2113345"><ele>2.0</ele><time>2026-04-06T13:50:20.012Z</time></trkpt><trkpt lat="37.1498625" lon="15.2114312"><ele>2.0</ele><time>2026-04-06T13:50:21.014Z</time></trkpt><trkpt lat="37.1498191" lon="15.2115271"><ele>2.0</ele><time>2026-04-06T13:50:22.015Z</time></trkpt><trkpt lat="37.1497729" lon="15.2116268"><ele>2.0</ele><time>2026-04-06T13:50:23.015Z</time></trkpt><trkpt lat="37.1497281" lon="15.2117312"><ele>2.4000000000000004</ele><time>2026-04-06T13:50:24.032Z</time></trkpt><trkpt lat="37.1496813" lon="15.2118402"><ele>2.8000000000000003</ele><time>2026-04-06T13:50:25.012Z</time></trkpt><trkpt lat="37.1496353" lon="15.2119566"><ele>3.2</ele><time>2026-04-06T13:50:25.998Z</time></trkpt><trkpt lat="37.1495925" lon="15.2120808"><ele>3.6</ele><time>2026-04-06T13:50:27.039Z</time></trkpt><trkpt lat="37.1495517" lon="15.2122102"><ele>4.0</ele><time>2026-04-06T13:50:28.021Z</time></trkpt><trkpt lat="37.1495159" lon="15.2123451"><ele>4.0</ele><time>2026-04-06T13:50:28.992Z</time></trkpt><trkpt lat="37.1494827" lon="15.2124823"><ele>4.0</ele><time>2026-04-06T13:50:30.014Z</time></trkpt><trkpt lat="37.1494529" lon="15.2126196"><ele>4.0</ele><time>2026-04-06T13:50:31.019Z</time></trkpt><trkpt lat="37.1494303" lon="15.2127582"><ele>4.0</ele><time>2026-04-06T13:50:32.002Z</time></trkpt><trkpt lat="37.1494105" lon="15.2128906"><ele>4.0</ele><time>2026-04-06T13:50:33.032Z</time></trkpt><trkpt lat="37.1493936" lon="15.2130203"><ele>4.0</ele><time>2026-04-06T13:50:34.038Z</time></trkpt><trkpt lat="37.1493771" lon="15.213147"><ele>4.0</ele><time>2026-04-06T13:50:35.014Z</time></trkpt><trkpt lat="37.1493601" lon="15.2132707"><ele>4.0</ele><time>2026-04-06T13:50:36.029Z</time></trkpt><trkpt lat="37.1493442" lon="15.2133941"><ele>4.0</ele><time>2026-04-06T13:50:37.016Z</time></trkpt><trkpt lat="37.1493346" lon="15.2135228"><ele>4.0</ele><time>2026-04-06T13:50:38.001Z</time></trkpt><trkpt lat="37.1493307" lon="15.2136601"><ele>4.25</ele><time>2026-04-06T13:50:39.016Z</time></trkpt><trkpt lat="37.1493321" lon="15.2138002"><ele>4.5</ele><time>2026-04-06T13:50:40.014Z</time></trkpt><trkpt lat="37.149342" lon="15.2139406"><ele>4.75</ele><time>2026-04-06T13:50:41.019Z</time></trkpt><trkpt lat="37.1493578" lon="15.2140866"><ele>5.0</ele><time>2026-04-06T13:50:42.015Z</time></trkpt><trkpt lat="37.1493776" lon="15.2142377"><ele>5.0</ele><time>2026-04-06T13:50:42.98Z</time></trkpt><trkpt lat="37.1493983" lon="15.2143878"><ele>5.0</ele><time>2026-04-06T13:50:43.999Z</time></trkpt><trkpt lat="37.1494223" lon="15.2145405"><ele>5.0</ele><time>2026-04-06T13:50:45.007Z</time></trkpt><trkpt lat="37.1494457" lon="15.2146944"><ele>5.0</ele><time>2026-04-06T13:50:45.99Z</time></trkpt><trkpt lat="37.149469" lon="15.214848"><ele>4.75</ele><time>2026-04-06T13:50:47.016Z</time></trkpt><trkpt lat="37.1494924" lon="15.2149995"><ele>4.5</ele><time>2026-04-06T13:50:48.017Z</time></trkpt><trkpt lat="37.1495173" lon="15.2151476"><ele>4.25</ele><time>2026-04-06T13:50:49.013Z</time></trkpt><trkpt lat="37.1495424" lon="15.2152922"><ele>4.0</ele><time>2026-04-06T13:50:50.028Z</time></trkpt><trkpt lat="37.1495654" lon="15.2154336"><ele>4.0</ele><time>2026-04-06T13:50:51.031Z</time></trkpt><trkpt lat="37.1495878" lon="15.215572"><ele>4.0</ele><time>2026-04-06T13:50:52.002Z</time></trkpt><trkpt lat="37.1496119" lon="15.2157114"><ele>4.0</ele><time>2026-04-06T13:50:53.024Z</time></trkpt><trkpt lat="37.1496352" lon="15.2158504"><ele>4.0</ele><time>2026-04-06T13:50:53.999Z</time></trkpt><trkpt lat="37.1496598" lon="15.2160038"><ele>4.0</ele><time>2026-04-06T13:50:55.012Z</time></trkpt><trkpt lat="37.1496893" lon="15.2161737"><ele>4.0</ele><time>2026-04-06T13:50:56.028Z</time></trkpt><trkpt lat="37.1497244" lon="15.2163604"><ele>4.0</ele><time>2026-04-06T13:50:57.02Z</time></trkpt><trkpt lat="37.1497599" lon="15.2165574"><ele>4.0</ele><time>2026-04-06T13:50:58.021Z</time></trkpt><trkpt lat="37.1497895" lon="15.2167529"><ele>4.0</ele><time>2026-04-06T13:50:59.001Z</time></trkpt><trkpt lat="37.149808" lon="15.2169559"><ele>4.0</ele><time>2026-04-06T13:51:00.002Z</time></trkpt><trkpt lat="37.149816" lon="15.2171657"><ele>3.6666666666666665</ele><time>2026-04-06T13:51:01.02Z</time></trkpt><trkpt lat="37.1498138" lon="15.217383"><ele>3.333333333333333</ele><time>2026-04-06T13:51:01.999Z</time></trkpt><trkpt lat="37.1497983" lon="15.2176122"><ele>3.0</ele><time>2026-04-06T13:51:03.032Z</time></trkpt><trkpt lat="37.1497709" lon="15.2178405"><ele>3.0</ele><time>2026-04-06T13:51:04.019Z</time></trkpt><trkpt lat="37.1497406" lon="15.2180768"><ele>3.0</ele><time>2026-04-06T13:51:05.014Z</time></trkpt><trkpt lat="37.1497039" lon="15.2183164"><ele>3.0</ele><time>2026-04-06T13:51:06.037Z</time></trkpt><trkpt lat="37.1496736" lon="15.2185551"><ele>3.0</ele><time>2026-04-06T13:51:07.016Z</time></trkpt><trkpt lat="37.1496516" lon="15.218797"><ele>3.0</ele><time>2026-04-06T13:51:08.014Z</time></trkpt><trkpt lat="37.1496388" lon="15.2190372"><ele>3.0</ele><time>2026-04-06T13:51:08.998Z</time></trkpt><trkpt lat="37.1496353" lon="15.2192799"><ele>3.0</ele><time>2026-04-06T13:51:10.012Z</time></trkpt><trkpt lat="37.1496417" lon="15.219515"><ele>3.0</ele><time>2026-04-06T13:51:11.017Z</time></trkpt><trkpt lat="37.1496545" lon="15.2197455"><ele>3.0</ele><time>2026-04-06T13:51:12.013Z</time></trkpt><trkpt lat="37.149671" lon="15.2199681"><ele>2.6666666666666665</ele><time>2026-04-06T13:51:13.014Z</time></trkpt><trkpt lat="37.1496913" lon="15.2201849"><ele>2.333333333333333</ele><time>2026-04-06T13:51:14.019Z</time></trkpt><trkpt lat="37.149718" lon="15.2203935"><ele>2.0</ele><time>2026-04-06T13:51:15.015Z</time></trkpt><trkpt lat="37.1497537" lon="15.2205961"><ele>2.0</ele><time>2026-04-06T13:51:16.023Z</time></trkpt><trkpt lat="37.1497974" lon="15.2207914"><ele>2.0</ele><time>2026-04-06T13:51:17.034Z</time></trkpt><trkpt lat="37.1498445" lon="15.220974"><ele>2.0</ele><time>2026-04-06T13:51:17.98Z</time></trkpt><trkpt lat="37.1498955" lon="15.2211556"><ele>1.75</ele><time>2026-04-06T13:51:19.027Z</time></trkpt><trkpt lat="37.1499464" lon="15.2213232"><ele>1.5</ele><time>2026-04-06T13:51:20.03Z</time></trkpt><trkpt lat="37.1499953" lon="15.2214824"><ele>1.25</ele><time>2026-04-06T13:51:21.04Z</time></trkpt><trkpt lat="37.1500414" lon="15.2216341"><ele>1.0</ele><time>2026-04-06T13:51:22.039Z</time></trkpt><trkpt lat="37.1500861" lon="15.2217787"><ele>1.75</ele><time>2026-04-06T13:51:23.021Z</time></trkpt><trkpt lat="37.150128" lon="15.2219188"><ele>2.5</ele><time>2026-04-06T13:51:24.012Z</time></trkpt><trkpt lat="37.1501698" lon="15.2220526"><ele>3.25</ele><time>2026-04-06T13:51:25.024Z</time></trkpt><trkpt lat="37.1502116" lon="15.2221817"><ele>4.0</ele><time>2026-04-06T13:51:26.013Z</time></trkpt><trkpt lat="37.1502542" lon="15.2223158"><ele>4.0</ele><time>2026-04-06T13:51:27.028Z</time></trkpt><trkpt lat="37.1502953" lon="15.2224486"><ele>4.0</ele><time>2026-04-06T13:51:28.028Z</time></trkpt><trkpt lat="37.1503354" lon="15.2225748"><ele>4.0</ele><time>2026-04-06T13:51:29.012Z</time></trkpt><trkpt lat="37.1503734" lon="15.2226912"><ele>4.0</ele><time>2026-04-06T13:51:30.014Z</time></trkpt><trkpt lat="37.1504065" lon="15.222794"><ele>4.0</ele><time>2026-04-06T13:51:31.021Z</time></trkpt><trkpt lat="37.1504347" lon="15.2228824"><ele>3.9999999999999996</ele><time>2026-04-06T13:51:32.03Z</time></trkpt><trkpt lat="37.150454" lon="15.2229637"><ele>4.0</ele><time>2026-04-06T13:51:33.015Z</time></trkpt><trkpt lat="37.1504595" lon="15.2230954"><ele>4.0</ele><time>2026-04-06T13:51:35.015Z</time></trkpt><trkpt lat="37.1504033" lon="15.2231703"><ele>4.0</ele><time>2026-04-06T13:51:36.999Z</time></trkpt><trkpt lat="37.1503089" lon="15.2232042"><ele>3.9999999999999996</ele><time>2026-04-06T13:51:39.013Z</time></trkpt><trkpt lat="37.1502192" lon="15.2231819"><ele>4.0</ele><time>2026-04-06T13:51:41.018Z</time></trkpt><trkpt lat="37.150148" lon="15.2231194"><ele>4.0</ele><time>2026-04-06T13:51:43.013Z</time></trkpt><trkpt lat="37.1500989" lon="15.2230697"><ele>3.9999999999999996</ele><time>2026-04-06T13:51:45.026Z</time></trkpt><trkpt lat="37.1500407" lon="15.2230088"><ele>4.0</ele><time>2026-04-06T13:51:48.027Z</time></trkpt><trkpt lat="37.149987" lon="15.222962"><ele>4.0</ele><time>2026-04-06T13:51:50.03Z</time></trkpt><trkpt lat="37.1499223" lon="15.222908"><ele>3.9999999999999996</ele><time>2026-04-06T13:51:52.039Z</time></trkpt><trkpt lat="37.149862" lon="15.2228491"><ele>4.0</ele><time>2026-04-06T13:51:54.022Z</time></trkpt><trkpt lat="37.1497981" lon="15.2227984"><ele>4.0</ele><time>2026-04-06T13:51:56Z</time></trkpt><trkpt lat="37.1497338" lon="15.2227365"><ele>3.8000000000000003</ele><time>2026-04-06T13:51:57.995Z</time></trkpt><trkpt lat="37.1496574" lon="15.222683"><ele>3.6000000000000005</ele><time>2026-04-06T13:52:00.011Z</time></trkpt><trkpt lat="37.1495818" lon="15.2226139"><ele>3.4</ele><time>2026-04-06T13:52:02.012Z</time></trkpt><trkpt lat="37.1495089" lon="15.2225538"><ele>3.2</ele><time>2026-04-06T13:52:04.014Z</time></trkpt><trkpt lat="37.1494349" lon="15.2224894"><ele>3.0</ele><time>2026-04-06T13:52:06.028Z</time></trkpt><trkpt lat="37.1493566" lon="15.2224124"><ele>3.0</ele><time>2026-04-06T13:52:08.015Z</time></trkpt><trkpt lat="37.1492655" lon="15.2223309"><ele>3.0</ele><time>2026-04-06T13:52:10.011Z</time></trkpt><trkpt lat="37.1491721" lon="15.2222578"><ele>3.0</ele><time>2026-04-06T13:52:12Z</time></trkpt><trkpt lat="37.149069" lon="15.2221761"><ele>3.0</ele><time>2026-04-06T13:52:14Z</time></trkpt><trkpt lat="37.1490148" lon="15.2221291"><ele>3.0</ele><time>2026-04-06T13:52:14.996Z</time></trkpt><trkpt lat="37.1489611" lon="15.2220846"><ele>2.8</ele><time>2026-04-06T13:52:15.986Z</time></trkpt><trkpt lat="37.1488673" lon="15.2220083"><ele>2.5999999999999996</ele><time>2026-04-06T13:52:18.016Z</time></trkpt><trkpt lat="37.1487884" lon="15.2219447"><ele>2.4000000000000004</ele><time>2026-04-06T13:52:20.001Z</time></trkpt><trkpt lat="37.1487118" lon="15.2218801"><ele>2.2</ele><time>2026-04-06T13:52:22.033Z</time></trkpt><trkpt lat="37.1486347" lon="15.221817"><ele>2.0</ele><time>2026-04-06T13:52:23.993Z</time></trkpt><trkpt lat="37.1485602" lon="15.2217557"><ele>2.0</ele><time>2026-04-06T13:52:26.012Z</time></trkpt><trkpt lat="37.1484939" lon="15.221697"><ele>2.0</ele><time>2026-04-06T13:52:27.994Z</time></trkpt><trkpt lat="37.1484202" lon="15.2216422"><ele>2.0</ele><time>2026-04-06T13:52:30.013Z</time></trkpt><trkpt lat="37.1483235" lon="15.2215743"><ele>2.0</ele><time>2026-04-06T13:52:32.011Z</time></trkpt><trkpt lat="37.148171" lon="15.2214554"><ele>2.833333333333333</ele><time>2026-04-06T13:52:34.979Z</time></trkpt><trkpt lat="37.1480667" lon="15.2213713"><ele>3.666666666666667</ele><time>2026-04-06T13:52:37.012Z</time></trkpt><trkpt lat="37.1480095" lon="15.2213344"><ele>4.5</ele><time>2026-04-06T13:52:38.028Z</time></trkpt><trkpt lat="37.1479444" lon="15.2212945"><ele>5.333333333333334</ele><time>2026-04-06T13:52:39.029Z</time></trkpt><trkpt lat="37.1478698" lon="15.2212495"><ele>6.166666666666667</ele><time>2026-04-06T13:52:39.984Z</time></trkpt><trkpt lat="37.1477893" lon="15.2211995"><ele>7.0</ele><time>2026-04-06T13:52:41.002Z</time></trkpt><trkpt lat="37.1477013" lon="15.2211362"><ele>7.0</ele><time>2026-04-06T13:52:42.001Z</time></trkpt><trkpt lat="37.147605" lon="15.2210652"><ele>6.999999999999999</ele><time>2026-04-06T13:52:43.012Z</time></trkpt><trkpt lat="37.1475062" lon="15.2209947"><ele>6.999999999999999</ele><time>2026-04-06T13:52:44.027Z</time></trkpt><trkpt lat="37.1474065" lon="15.2209272"><ele>7.0</ele><time>2026-04-06T13:52:44.983Z</time></trkpt><trkpt lat="37.1473112" lon="15.2208651"><ele>7.0</ele><time>2026-04-06T13:52:46.012Z</time></trkpt><trkpt lat="37.1472194" lon="15.2208091"><ele>6.333333333333334</ele><time>2026-04-06T13:52:47.019Z</time></trkpt><trkpt lat="37.1471331" lon="15.220758"><ele>5.666666666666667</ele><time>2026-04-06T13:52:48.004Z</time></trkpt><trkpt lat="37.1470518" lon="15.2207119"><ele>5.0</ele><time>2026-04-06T13:52:49.019Z</time></trkpt><trkpt lat="37.146976" lon="15.2206664"><ele>4.333333333333334</ele><time>2026-04-06T13:52:50.003Z</time></trkpt><trkpt lat="37.1469069" lon="15.2206262"><ele>3.666666666666667</ele><time>2026-04-06T13:52:51.039Z</time></trkpt><trkpt lat="37.1468425" lon="15.2205921"><ele>3.0</ele><time>2026-04-06T13:52:52.019Z</time></trkpt><trkpt lat="37.1467817" lon="15.2205599"><ele>3.0</ele><time>2026-04-06T13:52:53.011Z</time></trkpt><trkpt lat="37.1467232" lon="15.2205269"><ele>3.0</ele><time>2026-04-06T13:52:54.023Z</time></trkpt><trkpt lat="37.1466139" lon="15.2204727"><ele>3.0</ele><time>2026-04-06T13:52:56.021Z</time></trkpt><trkpt lat="37.146501" lon="15.2204245"><ele>3.0</ele><time>2026-04-06T13:52:58.02Z</time></trkpt><trkpt lat="37.1464396" lon="15.2203968"><ele>3.0</ele><time>2026-04-06T13:52:59.03Z</time></trkpt><trkpt lat="37.1463719" lon="15.2203667"><ele>3.0</ele><time>2026-04-06T13:52:59.994Z</time></trkpt><trkpt lat="37.146301" lon="15.2203334"><ele>3.0</ele><time>2026-04-06T13:53:01.033Z</time></trkpt><trkpt lat="37.1462257" lon="15.2202976"><ele>3.0</ele><time>2026-04-06T13:53:02Z</time></trkpt><trkpt lat="37.1461455" lon="15.2202607"><ele>3.0</ele><time>2026-04-06T13:53:03.016Z</time></trkpt><trkpt lat="37.1460583" lon="15.2202211"><ele>3.0</ele><time>2026-04-06T13:53:04.016Z</time></trkpt><trkpt lat="37.1459681" lon="15.2201837"><ele>3.0</ele><time>2026-04-06T13:53:05.016Z</time></trkpt><trkpt lat="37.1458748" lon="15.2201454"><ele>3.0</ele><time>2026-04-06T13:53:06.014Z</time></trkpt><trkpt lat="37.145779" lon="15.2201079"><ele>3.0</ele><time>2026-04-06T13:53:07.014Z</time></trkpt><trkpt lat="37.145683" lon="15.2200704"><ele>3.0</ele><time>2026-04-06T13:53:08Z</time></trkpt><trkpt lat="37.1455856" lon="15.2200341"><ele>3.0</ele><time>2026-04-06T13:53:09.011Z</time></trkpt><trkpt lat="37.145488" lon="15.2200002"><ele>3.0</ele><time>2026-04-06T13:53:10.016Z</time></trkpt><trkpt lat="37.1453919" lon="15.2199666"><ele>3.0</ele><time>2026-04-06T13:53:11.016Z</time></trkpt><trkpt lat="37.1452961" lon="15.2199346"><ele>3.0</ele><time>2026-04-06T13:53:12.023Z</time></trkpt><trkpt lat="37.1452004" lon="15.2199041"><ele>3.0</ele><time>2026-04-06T13:53:12.997Z</time></trkpt><trkpt lat="37.145106" lon="15.2198742"><ele>3.0</ele><time>2026-04-06T13:53:14.023Z</time></trkpt><trkpt lat="37.1450113" lon="15.2198449"><ele>3.0</ele><time>2026-04-06T13:53:15.014Z</time></trkpt><trkpt lat="37.1449163" lon="15.2198192"><ele>2.8</ele><time>2026-04-06T13:53:16.02Z</time></trkpt><trkpt lat="37.1448188" lon="15.2197939"><ele>2.5999999999999996</ele><time>2026-04-06T13:53:17.011Z</time></trkpt><trkpt lat="37.1447189" lon="15.2197673"><ele>2.4000000000000004</ele><time>2026-04-06T13:53:18.024Z</time></trkpt><trkpt lat="37.1446174" lon="15.2197373"><ele>2.2</ele><time>2026-04-06T13:53:18.998Z</time></trkpt><trkpt lat="37.1445148" lon="15.2197077"><ele>2.0</ele><time>2026-04-06T13:53:20.002Z</time></trkpt><trkpt lat="37.144412" lon="15.2196814"><ele>2.0</ele><time>2026-04-06T13:53:21.024Z</time></trkpt><trkpt lat="37.1443079" lon="15.2196604"><ele>2.0</ele><time>2026-04-06T13:53:22.02Z</time></trkpt><trkpt lat="37.1442035" lon="15.2196415"><ele>2.0</ele><time>2026-04-06T13:53:23.014Z</time></trkpt><trkpt lat="37.1441013" lon="15.2196225"><ele>2.0</ele><time>2026-04-06T13:53:24.023Z</time></trkpt><trkpt lat="37.1440013" lon="15.2196026"><ele>2.0</ele><time>2026-04-06T13:53:25.019Z</time></trkpt><trkpt lat="37.1439027" lon="15.2195853"><ele>2.2</ele><time>2026-04-06T13:53:26.032Z</time></trkpt><trkpt lat="37.1438067" lon="15.219571"><ele>2.4000000000000004</ele><time>2026-04-06T13:53:26.998Z</time></trkpt><trkpt lat="37.1437117" lon="15.2195597"><ele>2.5999999999999996</ele><time>2026-04-06T13:53:28.008Z</time></trkpt><trkpt lat="37.1436183" lon="15.2195477"><ele>2.8</ele><time>2026-04-06T13:53:29.018Z</time></trkpt><trkpt lat="37.1435273" lon="15.2195361"><ele>3.0</ele><time>2026-04-06T13:53:30.038Z</time></trkpt><trkpt lat="37.1434382" lon="15.219526"><ele>3.0</ele><time>2026-04-06T13:53:30.992Z</time></trkpt><trkpt lat="37.1433499" lon="15.2195183"><ele>3.0</ele><time>2026-04-06T13:53:32.031Z</time></trkpt><trkpt lat="37.1432579" lon="15.2195152"><ele>3.0</ele><time>2026-04-06T13:53:33.014Z</time></trkpt><trkpt lat="37.1431644" lon="15.2195123"><ele>3.0</ele><time>2026-04-06T13:53:34.031Z</time></trkpt><trkpt lat="37.1430672" lon="15.2195052"><ele>3.0</ele><time>2026-04-06T13:53:34.998Z</time></trkpt><trkpt lat="37.1429677" lon="15.2194984"><ele>3.2</ele><time>2026-04-06T13:53:36.012Z</time></trkpt><trkpt lat="37.1428653" lon="15.2194861"><ele>3.4</ele><time>2026-04-06T13:53:37.009Z</time></trkpt><trkpt lat="37.1427626" lon="15.2194723"><ele>3.6000000000000005</ele><time>2026-04-06T13:53:38.016Z</time></trkpt><trkpt lat="37.1426602" lon="15.2194586"><ele>3.8000000000000003</ele><time>2026-04-06T13:53:39.024Z</time></trkpt><trkpt lat="37.1425569" lon="15.2194403"><ele>4.0</ele><time>2026-04-06T13:53:40.012Z</time></trkpt><trkpt lat="37.1424538" lon="15.2194228"><ele>4.6</ele><time>2026-04-06T13:53:41.004Z</time></trkpt><trkpt lat="37.1423508" lon="15.2194073"><ele>5.2</ele><time>2026-04-06T13:53:42.009Z</time></trkpt><trkpt lat="37.1422475" lon="15.2193941"><ele>5.799999999999999</ele><time>2026-04-06T13:53:42.993Z</time></trkpt><trkpt lat="37.1421442" lon="15.2193832"><ele>6.3999999999999995</ele><time>2026-04-06T13:53:44.031Z</time></trkpt><trkpt lat="37.1420423" lon="15.2193723"><ele>7.0</ele><time>2026-04-06T13:53:45.025Z</time></trkpt><trkpt lat="37.1419413" lon="15.2193641"><ele>7.0</ele><time>2026-04-06T13:53:46.013Z</time></trkpt><trkpt lat="37.141843" lon="15.2193534"><ele>6.999999999999999</ele><time>2026-04-06T13:53:47.022Z</time></trkpt><trkpt lat="37.1417457" lon="15.2193423"><ele>6.999999999999999</ele><time>2026-04-06T13:53:48.011Z</time></trkpt><trkpt lat="37.1416504" lon="15.2193335"><ele>7.0</ele><time>2026-04-06T13:53:49.027Z</time></trkpt><trkpt lat="37.1415568" lon="15.2193255"><ele>7.0</ele><time>2026-04-06T13:53:50.011Z</time></trkpt><trkpt lat="37.1414638" lon="15.219315"><ele>6.6</ele><time>2026-04-06T13:53:51.022Z</time></trkpt><trkpt lat="37.1413716" lon="15.2193077"><ele>6.199999999999999</ele><time>2026-04-06T13:53:52.027Z</time></trkpt><trkpt lat="37.1412767" lon="15.2192973"><ele>5.8</ele><time>2026-04-06T13:53:53.024Z</time></trkpt><trkpt lat="37.1411771" lon="15.2192873"><ele>5.4</ele><time>2026-04-06T13:53:53.999Z</time></trkpt><trkpt lat="37.1410709" lon="15.2192788"><ele>5.0</ele><time>2026-04-06T13:53:55.011Z</time></trkpt><trkpt lat="37.1409575" lon="15.2192702"><ele>5.0</ele><time>2026-04-06T13:53:56.001Z</time></trkpt><trkpt lat="37.1408393" lon="15.219262"><ele>5.0</ele><time>2026-04-06T13:53:57.02Z</time></trkpt><trkpt lat="37.1407168" lon="15.2192535"><ele>5.0</ele><time>2026-04-06T13:53:58.023Z</time></trkpt><trkpt lat="37.1405915" lon="15.2192436"><ele>5.0</ele><time>2026-04-06T13:53:59.011Z</time></trkpt><trkpt lat="37.1404629" lon="15.2192308"><ele>5.75</ele><time>2026-04-06T13:54:00.015Z</time></trkpt><trkpt lat="37.1403328" lon="15.2192172"><ele>6.5</ele><time>2026-04-06T13:54:01.02Z</time></trkpt><trkpt lat="37.1401987" lon="15.2192039"><ele>7.25</ele><time>2026-04-06T13:54:02.015Z</time></trkpt><trkpt lat="37.1400635" lon="15.2191915"><ele>8.0</ele><time>2026-04-06T13:54:03.03Z</time></trkpt><trkpt lat="37.1399293" lon="15.2191809"><ele>7.75</ele><time>2026-04-06T13:54:04.02Z</time></trkpt><trkpt lat="37.1397945" lon="15.2191682"><ele>7.5</ele><time>2026-04-06T13:54:05.016Z</time></trkpt><trkpt lat="37.1396585" lon="15.2191538"><ele>7.25</ele><time>2026-04-06T13:54:06.015Z</time></trkpt><trkpt lat="37.1395198" lon="15.2191443"><ele>7.0</ele><time>2026-04-06T13:54:07.014Z</time></trkpt><trkpt lat="37.1393798" lon="15.2191323"><ele>7.0</ele><time>2026-04-06T13:54:08.03Z</time></trkpt><trkpt lat="37.1392385" lon="15.2191166"><ele>7.0</ele><time>2026-04-06T13:54:09.032Z</time></trkpt><trkpt lat="37.1391021" lon="15.2191012"><ele>7.0</ele><time>2026-04-06T13:54:10.027Z</time></trkpt><trkpt lat="37.1389715" lon="15.2190886"><ele>7.0</ele><time>2026-04-06T13:54:11.016Z</time></trkpt><trkpt lat="37.138847" lon="15.219077"><ele>6.8</ele><time>2026-04-06T13:54:12.003Z</time></trkpt><trkpt lat="37.1387315" lon="15.2190712"><ele>6.6</ele><time>2026-04-06T13:54:13.03Z</time></trkpt><trkpt lat="37.1386211" lon="15.219073"><ele>6.3999999999999995</ele><time>2026-04-06T13:54:14.013Z</time></trkpt><trkpt lat="37.1385153" lon="15.2190774"><ele>6.199999999999999</ele><time>2026-04-06T13:54:14.994Z</time></trkpt><trkpt lat="37.1384152" lon="15.2190811"><ele>6.0</ele><time>2026-04-06T13:54:16.025Z</time></trkpt><trkpt lat="37.1383162" lon="15.2190889"><ele>6.0</ele><time>2026-04-06T13:54:17.016Z</time></trkpt><trkpt lat="37.1382227" lon="15.2190988"><ele>6.0</ele><time>2026-04-06T13:54:18.005Z</time></trkpt><trkpt lat="37.1381334" lon="15.2191044"><ele>6.0</ele><time>2026-04-06T13:54:18.997Z</time></trkpt><trkpt lat="37.1380453" lon="15.2191101"><ele>6.0</ele><time>2026-04-06T13:54:19.98Z</time></trkpt><trkpt lat="37.1379564" lon="15.2191168"><ele>6.0</ele><time>2026-04-06T13:54:21.003Z</time></trkpt><trkpt lat="37.1378687" lon="15.2191222"><ele>6.0</ele><time>2026-04-06T13:54:22.008Z</time></trkpt><trkpt lat="37.1377811" lon="15.2191297"><ele>6.199999999999999</ele><time>2026-04-06T13:54:22.989Z</time></trkpt><trkpt lat="37.1376902" lon="15.2191389"><ele>6.3999999999999995</ele><time>2026-04-06T13:54:24.01Z</time></trkpt><trkpt lat="37.1375942" lon="15.2191473"><ele>6.6</ele><time>2026-04-06T13:54:25.02Z</time></trkpt><trkpt lat="37.1374931" lon="15.2191535"><ele>6.8</ele><time>2026-04-06T13:54:25.98Z</time></trkpt><trkpt lat="37.1373883" lon="15.2191647"><ele>7.0</ele><time>2026-04-06T13:54:27.022Z</time></trkpt><trkpt lat="37.137281" lon="15.2191777"><ele>6.199999999999999</ele><time>2026-04-06T13:54:28.005Z</time></trkpt><trkpt lat="37.1371723" lon="15.2191918"><ele>5.3999999999999995</ele><time>2026-04-06T13:54:29.014Z</time></trkpt><trkpt lat="37.1370622" lon="15.2192066"><ele>4.6</ele><time>2026-04-06T13:54:30.012Z</time></trkpt><trkpt lat="37.13695" lon="15.2192242"><ele>3.8</ele><time>2026-04-06T13:54:31.018Z</time></trkpt><trkpt lat="37.1368371" lon="15.219242"><ele>3.0</ele><time>2026-04-06T13:54:32.015Z</time></trkpt><trkpt lat="37.1367248" lon="15.2192588"><ele>3.0</ele><time>2026-04-06T13:54:33.019Z</time></trkpt><trkpt lat="37.1366116" lon="15.2192732"><ele>3.0</ele><time>2026-04-06T13:54:34.027Z</time></trkpt><trkpt lat="37.1364977" lon="15.219288"><ele>3.0</ele><time>2026-04-06T13:54:35.023Z</time></trkpt><trkpt lat="37.1363846" lon="15.2193039"><ele>3.0</ele><time>2026-04-06T13:54:36.013Z</time></trkpt><trkpt lat="37.1362713" lon="15.2193193"><ele>3.2</ele><time>2026-04-06T13:54:37.015Z</time></trkpt><trkpt lat="37.1361604" lon="15.2193303"><ele>3.4</ele><time>2026-04-06T13:54:38Z</time></trkpt><trkpt lat="37.136051" lon="15.2193402"><ele>3.6000000000000005</ele><time>2026-04-06T13:54:39.016Z</time></trkpt><trkpt lat="37.1359468" lon="15.2193509"><ele>3.8000000000000003</ele><time>2026-04-06T13:54:40.032Z</time></trkpt><trkpt lat="37.1358453" lon="15.2193615"><ele>4.0</ele><time>2026-04-06T13:54:41.016Z</time></trkpt><trkpt lat="37.1357467" lon="15.2193711"><ele>4.0</ele><time>2026-04-06T13:54:42.029Z</time></trkpt><trkpt lat="37.1356478" lon="15.2193808"><ele>4.0</ele><time>2026-04-06T13:54:43.027Z</time></trkpt><trkpt lat="37.1355478" lon="15.2193905"><ele>4.0</ele><time>2026-04-06T13:54:44.03Z</time></trkpt><trkpt lat="37.1354454" lon="15.2194022"><ele>4.0</ele><time>2026-04-06T13:54:45.031Z</time></trkpt><trkpt lat="37.135341" lon="15.2194147"><ele>4.0</ele><time>2026-04-06T13:54:46.022Z</time></trkpt><trkpt lat="37.1352353" lon="15.2194251"><ele>4.0</ele><time>2026-04-06T13:54:47.035Z</time></trkpt><trkpt lat="37.1351289" lon="15.2194325"><ele>4.0</ele><time>2026-04-06T13:54:48.016Z</time></trkpt><trkpt lat="37.1350226" lon="15.2194334"><ele>4.0</ele><time>2026-04-06T13:54:49.027Z</time></trkpt><trkpt lat="37.1349207" lon="15.2194324"><ele>4.0</ele><time>2026-04-06T13:54:50.036Z</time></trkpt><trkpt lat="37.1348238" lon="15.2194301"><ele>4.0</ele><time>2026-04-06T13:54:51.004Z</time></trkpt><trkpt lat="37.1347304" lon="15.2194292"><ele>4.2</ele><time>2026-04-06T13:54:52.002Z</time></trkpt><trkpt lat="37.1346372" lon="15.2194344"><ele>4.4</ele><time>2026-04-06T13:54:53.012Z</time></trkpt><trkpt lat="37.1345452" lon="15.2194427"><ele>4.6</ele><time>2026-04-06T13:54:54.01Z</time></trkpt><trkpt lat="37.1344537" lon="15.2194523"><ele>4.8</ele><time>2026-04-06T13:54:55.028Z</time></trkpt><trkpt lat="37.1343634" lon="15.219467"><ele>5.0</ele><time>2026-04-06T13:54:56.011Z</time></trkpt><trkpt lat="37.1342749" lon="15.2194816"><ele>5.0</ele><time>2026-04-06T13:54:57Z</time></trkpt><trkpt lat="37.1341869" lon="15.2194911"><ele>5.0</ele><time>2026-04-06T13:54:57.999Z</time></trkpt><trkpt lat="37.1341008" lon="15.2195002"><ele>5.0</ele><time>2026-04-06T13:54:59.028Z</time></trkpt><trkpt lat="37.1340131" lon="15.2195088"><ele>5.0</ele><time>2026-04-06T13:55:00.004Z</time></trkpt><trkpt lat="37.133926" lon="15.2195202"><ele>5.0</ele><time>2026-04-06T13:55:01.017Z</time></trkpt><trkpt lat="37.1338411" lon="15.2195363"><ele>5.0</ele><time>2026-04-06T13:55:02.015Z</time></trkpt><trkpt lat="37.1337552" lon="15.219551"><ele>4.5</ele><time>2026-04-06T13:55:02.991Z</time></trkpt><trkpt lat="37.1336678" lon="15.2195634"><ele>4.0</ele><time>2026-04-06T13:55:03.996Z</time></trkpt><trkpt lat="37.1335809" lon="15.2195718"><ele>3.5</ele><time>2026-04-06T13:55:05.002Z</time></trkpt><trkpt lat="37.1334934" lon="15.219576"><ele>3.0</ele><time>2026-04-06T13:55:06.002Z</time></trkpt><trkpt lat="37.1334069" lon="15.2195809"><ele>2.5</ele><time>2026-04-06T13:55:07.025Z</time></trkpt><trkpt lat="37.1333199" lon="15.2195853"><ele>2.0</ele><time>2026-04-06T13:55:08.014Z</time></trkpt><trkpt lat="37.1332331" lon="15.2195941"><ele>2.2</ele><time>2026-04-06T13:55:09.001Z</time></trkpt><trkpt lat="37.133146" lon="15.2196025"><ele>2.4000000000000004</ele><time>2026-04-06T13:55:10.016Z</time></trkpt><trkpt lat="37.1330578" lon="15.2196115"><ele>2.5999999999999996</ele><time>2026-04-06T13:55:11.03Z</time></trkpt><trkpt lat="37.1329681" lon="15.2196224"><ele>2.8</ele><time>2026-04-06T13:55:12.002Z</time></trkpt><trkpt lat="37.1328758" lon="15.2196358"><ele>3.0</ele><time>2026-04-06T13:55:13.015Z</time></trkpt><trkpt lat="37.1327816" lon="15.2196507"><ele>3.0</ele><time>2026-04-06T13:55:14.034Z</time></trkpt><trkpt lat="37.1326771" lon="15.2196654"><ele>3.0</ele><time>2026-04-06T13:55:14.998Z</time></trkpt><trkpt lat="37.1325771" lon="15.2196843"><ele>3.0</ele><time>2026-04-06T13:55:15.981Z</time></trkpt><trkpt lat="37.1324759" lon="15.219701"><ele>3.0</ele><time>2026-04-06T13:55:17Z</time></trkpt><trkpt lat="37.1323766" lon="15.2197194"><ele>3.0</ele><time>2026-04-06T13:55:18.031Z</time></trkpt><trkpt lat="37.1322786" lon="15.2197397"><ele>2.6</ele><time>2026-04-06T13:55:19.016Z</time></trkpt><trkpt lat="37.132179" lon="15.2197595"><ele>2.1999999999999997</ele><time>2026-04-06T13:55:20.034Z</time></trkpt><trkpt lat="37.1320774" lon="15.2197767"><ele>1.8</ele><time>2026-04-06T13:55:21.017Z</time></trkpt><trkpt lat="37.1319724" lon="15.2197926"><ele>1.4</ele><time>2026-04-06T13:55:22.049Z</time></trkpt><trkpt lat="37.1318639" lon="15.2198065"><ele>1.0</ele><time>2026-04-06T13:55:23.024Z</time></trkpt><trkpt lat="37.1317535" lon="15.2198197"><ele>1.0</ele><time>2026-04-06T13:55:24.024Z</time></trkpt><trkpt lat="37.1316425" lon="15.2198345"><ele>1.0</ele><time>2026-04-06T13:55:25.017Z</time></trkpt><trkpt lat="37.1315294" lon="15.2198494"><ele>1.0</ele><time>2026-04-06T13:55:26.031Z</time></trkpt><trkpt lat="37.1314152" lon="15.2198672"><ele>1.0</ele><time>2026-04-06T13:55:27.025Z</time></trkpt><trkpt lat="37.1313008" lon="15.2198824"><ele>1.25</ele><time>2026-04-06T13:55:28.022Z</time></trkpt><trkpt lat="37.1311874" lon="15.219897"><ele>1.5</ele><time>2026-04-06T13:55:29.011Z</time></trkpt><trkpt lat="37.1310751" lon="15.2199138"><ele>1.75</ele><time>2026-04-06T13:55:29.985Z</time></trkpt><trkpt lat="37.1309619" lon="15.2199301"><ele>2.0</ele><time>2026-04-06T13:55:31.017Z</time></trkpt><trkpt lat="37.1308485" lon="15.2199444"><ele>2.0</ele><time>2026-04-06T13:55:31.999Z</time></trkpt><trkpt lat="37.1307357" lon="15.2199588"><ele>2.0</ele><time>2026-04-06T13:55:33.015Z</time></trkpt><trkpt lat="37.1306233" lon="15.2199767"><ele>2.0</ele><time>2026-04-06T13:55:33.999Z</time></trkpt><trkpt lat="37.1305094" lon="15.2199927"><ele>2.0</ele><time>2026-04-06T13:55:35.014Z</time></trkpt><trkpt lat="37.1303976" lon="15.2200088"><ele>2.5</ele><time>2026-04-06T13:55:35.989Z</time></trkpt><trkpt lat="37.1302854" lon="15.2200266"><ele>3.0</ele><time>2026-04-06T13:55:37.017Z</time></trkpt><trkpt lat="37.1301696" lon="15.2200454"><ele>3.5</ele><time>2026-04-06T13:55:38.013Z</time></trkpt><trkpt lat="37.1300454" lon="15.2200658"><ele>4.0</ele><time>2026-04-06T13:55:39.003Z</time></trkpt><trkpt lat="37.1299083" lon="15.2200897"><ele>4.333333333333333</ele><time>2026-04-06T13:55:40.011Z</time></trkpt><trkpt lat="37.1297588" lon="15.220119"><ele>4.666666666666667</ele><time>2026-04-06T13:55:41.019Z</time></trkpt><trkpt lat="37.1296013" lon="15.2201521"><ele>5.0</ele><time>2026-04-06T13:55:42.016Z</time></trkpt><trkpt lat="37.1294423" lon="15.2201894"><ele>5.0</ele><time>2026-04-06T13:55:43.022Z</time></trkpt><trkpt lat="37.1292843" lon="15.2202335"><ele>5.0</ele><time>2026-04-06T13:55:44.025Z</time></trkpt><trkpt lat="37.1291341" lon="15.2202758"><ele>5.0</ele><time>2026-04-06T13:55:45.024Z</time></trkpt><trkpt lat="37.1289938" lon="15.2203194"><ele>5.75</ele><time>2026-04-06T13:55:46Z</time></trkpt><trkpt lat="37.1288598" lon="15.2203614"><ele>6.5</ele><time>2026-04-06T13:55:46.999Z</time></trkpt><trkpt lat="37.1287307" lon="15.2204065"><ele>7.25</ele><time>2026-04-06T13:55:47.991Z</time></trkpt><trkpt lat="37.1286043" lon="15.2204526"><ele>8.0</ele><time>2026-04-06T13:55:49.02Z</time></trkpt><trkpt lat="37.1284863" lon="15.2204922"><ele>8.0</ele><time>2026-04-06T13:55:50.021Z</time></trkpt><trkpt lat="37.1283765" lon="15.2205306"><ele>8.0</ele><time>2026-04-06T13:55:51.027Z</time></trkpt><trkpt lat="37.1282738" lon="15.2205677"><ele>8.0</ele><time>2026-04-06T13:55:52.012Z</time></trkpt><trkpt lat="37.1281789" lon="15.2206003"><ele>8.0</ele><time>2026-04-06T13:55:53.014Z</time></trkpt><trkpt lat="37.1280888" lon="15.2206287"><ele>8.0</ele><time>2026-04-06T13:55:53.981Z</time></trkpt><trkpt lat="37.1280067" lon="15.2206537"><ele>7.333333333333333</ele><time>2026-04-06T13:55:55.009Z</time></trkpt><trkpt lat="37.1279315" lon="15.2206768"><ele>6.666666666666666</ele><time>2026-04-06T13:55:56.023Z</time></trkpt><trkpt lat="37.1278603" lon="15.2206992"><ele>6.0</ele><time>2026-04-06T13:55:57.014Z</time></trkpt><trkpt lat="37.1277926" lon="15.2207212"><ele>5.333333333333333</ele><time>2026-04-06T13:55:58.012Z</time></trkpt><trkpt lat="37.1277258" lon="15.220742"><ele>4.666666666666666</ele><time>2026-04-06T13:55:59.03Z</time></trkpt><trkpt lat="37.1276616" lon="15.2207629"><ele>4.0</ele><time>2026-04-06T13:56:00.016Z</time></trkpt><trkpt lat="37.1275491" lon="15.2208021"><ele>3.9999999999999996</ele><time>2026-04-06T13:56:02.015Z</time></trkpt><trkpt lat="37.1274668" lon="15.220816"><ele>4.0</ele><time>2026-04-06T13:56:04.01Z</time></trkpt><trkpt lat="37.1274182" lon="15.2208672"><ele>4.0</ele><time>2026-04-06T13:56:07.013Z</time></trkpt><trkpt lat="37.1274881" lon="15.2209049"><ele>4.0</ele><time>2026-04-06T13:56:10.989Z</time></trkpt><trkpt lat="37.1275733" lon="15.220844"><ele>3.9999999999999996</ele><time>2026-04-06T13:56:13.01Z</time></trkpt><trkpt lat="37.1276518" lon="15.2208035"><ele>4.0</ele><time>2026-04-06T13:56:13.998Z</time></trkpt><trkpt lat="37.1277423" lon="15.2207681"><ele>4.0</ele><time>2026-04-06T13:56:15.019Z</time></trkpt><trkpt lat="37.1278433" lon="15.2207302"><ele>4.0</ele><time>2026-04-06T13:56:16.004Z</time></trkpt><trkpt lat="37.1279521" lon="15.2206882"><ele>4.0</ele><time>2026-04-06T13:56:17.006Z</time></trkpt><trkpt lat="37.1280587" lon="15.2206453"><ele>4.0</ele><time>2026-04-06T13:56:18.024Z</time></trkpt><trkpt lat="37.1281642" lon="15.2206075"><ele>4.0</ele><time>2026-04-06T13:56:19.018Z</time></trkpt><trkpt lat="37.1282652" lon="15.2205742"><ele>4.666666666666666</ele><time>2026-04-06T13:56:20.023Z</time></trkpt><trkpt lat="37.1283587" lon="15.2205468"><ele>5.333333333333333</ele><time>2026-04-06T13:56:21.006Z</time></trkpt><trkpt lat="37.1284422" lon="15.22052"><ele>6.0</ele><time>2026-04-06T13:56:22.032Z</time></trkpt><trkpt lat="37.1285173" lon="15.2204974"><ele>6.666666666666666</ele><time>2026-04-06T13:56:23.036Z</time></trkpt><trkpt lat="37.1285802" lon="15.2204813"><ele>7.333333333333333</ele><time>2026-04-06T13:56:24.016Z</time></trkpt><trkpt lat="37.1286718" lon="15.2204594"><ele>8.0</ele><time>2026-04-06T13:56:26.026Z</time></trkpt><trkpt lat="37.128732" lon="15.2204231"><ele>8.0</ele><time>2026-04-06T13:56:27.991Z</time></trkpt><trkpt lat="37.1287731" lon="15.220343"><ele>8.0</ele><time>2026-04-06T13:56:30.01Z</time></trkpt><trkpt lat="37.1287652" lon="15.2202202"><ele>8.0</ele><time>2026-04-06T13:56:32.024Z</time></trkpt><trkpt lat="37.1286954" lon="15.2200842"><ele>8.0</ele><time>2026-04-06T13:56:34.015Z</time></trkpt><trkpt lat="37.1286453" lon="15.2200052"><ele>8.0</ele><time>2026-04-06T13:56:35.019Z</time></trkpt><trkpt lat="37.1285831" lon="15.2199129"><ele>8.0</ele><time>2026-04-06T13:56:36.028Z</time></trkpt><trkpt lat="37.128515" lon="15.2198124"><ele>8.0</ele><time>2026-04-06T13:56:37.013Z</time></trkpt><trkpt lat="37.1284411" lon="15.2196993"><ele>8.0</ele><time>2026-04-06T13:56:38.014Z</time></trkpt><trkpt lat="37.1283664" lon="15.219583"><ele>8.0</ele><time>2026-04-06T13:56:38.999Z</time></trkpt><trkpt lat="37.128298" lon="15.2194686"><ele>8.0</ele><time>2026-04-06T13:56:40.014Z</time></trkpt><trkpt lat="37.128238" lon="15.2193678"><ele>8.0</ele><time>2026-04-06T13:56:40.993Z</time></trkpt><trkpt lat="37.1281813" lon="15.2192769"><ele>8.0</ele><time>2026-04-06T13:56:42.031Z</time></trkpt><trkpt lat="37.1281363" lon="15.2191979"><ele>8.0</ele><time>2026-04-06T13:56:42.996Z</time></trkpt><trkpt lat="37.1281143" lon="15.2190844"><ele>8.0</ele><time>2026-04-06T13:56:45.01Z</time></trkpt><trkpt lat="37.1281402" lon="15.2189707"><ele>8.666666666666666</ele><time>2026-04-06T13:56:47.012Z</time></trkpt><trkpt lat="37.1281146" lon="15.2188629"><ele>9.333333333333332</ele><time>2026-04-06T13:56:49.01Z</time></trkpt><trkpt lat="37.1280297" lon="15.218779"><ele>10.0</ele><time>2026-04-06T13:56:50.992Z</time></trkpt><trkpt lat="37.1279789" lon="15.2187196"><ele>10.666666666666666</ele><time>2026-04-06T13:56:52.018Z</time></trkpt><trkpt lat="37.1279306" lon="15.2186496"><ele>11.333333333333334</ele><time>2026-04-06T13:56:53.031Z</time></trkpt><trkpt lat="37.1278827" lon="15.2185724"><ele>12.0</ele><time>2026-04-06T13:56:54.022Z</time></trkpt><trkpt lat="37.1278377" lon="15.2185037"><ele>12.0</ele><time>2026-04-06T13:56:55Z</time></trkpt><trkpt lat="37.1277747" lon="15.2184206"><ele>12.0</ele><time>2026-04-06T13:56:57.023Z</time></trkpt><trkpt lat="37.1277135" lon="15.2183765"><ele>12.0</ele><time>2026-04-06T13:57:16.994Z</time></trkpt><trkpt lat="37.1276374" lon="15.2183616"><ele>12.0</ele><time>2026-04-06T13:57:19.01Z</time></trkpt><trkpt lat="37.127541" lon="15.2184093"><ele>12.0</ele><time>2026-04-06T13:57:21.02Z</time></trkpt><trkpt lat="37.127493" lon="15.2184669"><ele>12.0</ele><time>2026-04-06T13:57:22.017Z</time></trkpt><trkpt lat="37.1274454" lon="15.2185488"><ele>12.0</ele><time>2026-04-06T13:57:22.979Z</time></trkpt><trkpt lat="37.1273949" lon="15.2186394"><ele>12.0</ele><time>2026-04-06T13:57:24.021Z</time></trkpt><trkpt lat="37.1273438" lon="15.2187358"><ele>12.0</ele><time>2026-04-06T13:57:25.024Z</time></trkpt><trkpt lat="37.1272875" lon="15.2188457"><ele>12.0</ele><time>2026-04-06T13:57:26.02Z</time></trkpt><trkpt lat="37.1272281" lon="15.2189625"><ele>12.0</ele><time>2026-04-06T13:57:27.003Z</time></trkpt><trkpt lat="37.1271643" lon="15.2190841"><ele>11.75</ele><time>2026-04-06T13:57:28.005Z</time></trkpt><trkpt lat="37.1270976" lon="15.2192075"><ele>11.5</ele><time>2026-04-06T13:57:28.994Z</time></trkpt><trkpt lat="37.1270276" lon="15.2193353"><ele>11.25</ele><time>2026-04-06T13:57:30.014Z</time></trkpt><trkpt lat="37.1269541" lon="15.2194654"><ele>11.0</ele><time>2026-04-06T13:57:31.016Z</time></trkpt><trkpt lat="37.1268773" lon="15.2195977"><ele>11.0</ele><time>2026-04-06T13:57:32.014Z</time></trkpt><trkpt lat="37.1267991" lon="15.2197279"><ele>11.0</ele><time>2026-04-06T13:57:32.996Z</time></trkpt><trkpt lat="37.1267206" lon="15.219859"><ele>11.0</ele><time>2026-04-06T13:57:33.999Z</time></trkpt><trkpt lat="37.12664" lon="15.219991"><ele>11.0</ele><time>2026-04-06T13:57:35.013Z</time></trkpt><trkpt lat="37.126559" lon="15.2201235"><ele>11.0</ele><time>2026-04-06T13:57:36.013Z</time></trkpt><trkpt lat="37.1264732" lon="15.2202513"><ele>11.0</ele><time>2026-04-06T13:57:36.991Z</time></trkpt><trkpt lat="37.1263857" lon="15.2203796"><ele>11.0</ele><time>2026-04-06T13:57:38.012Z</time></trkpt><trkpt lat="37.1262973" lon="15.2205023"><ele>11.0</ele><time>2026-04-06T13:57:38.991Z</time></trkpt><trkpt lat="37.1262084" lon="15.2206246"><ele>10.5</ele><time>2026-04-06T13:57:39.993Z</time></trkpt><trkpt lat="37.1261184" lon="15.2207492"><ele>10.0</ele><time>2026-04-06T13:57:40.998Z</time></trkpt><trkpt lat="37.1260259" lon="15.2208724"><ele>9.5</ele><time>2026-04-06T13:57:41.978Z</time></trkpt><trkpt lat="37.1259325" lon="15.2209953"><ele>9.0</ele><time>2026-04-06T13:57:42.986Z</time></trkpt><trkpt lat="37.1258392" lon="15.2211186"><ele>9.0</ele><time>2026-04-06T13:57:43.978Z</time></trkpt><trkpt lat="37.1257452" lon="15.2212426"><ele>9.0</ele><time>2026-04-06T13:57:44.994Z</time></trkpt><trkpt lat="37.1255546" lon="15.2214926"><ele>9.0</ele><time>2026-04-06T13:57:47.017Z</time></trkpt><trkpt lat="37.1254596" lon="15.2216142"><ele>8.75</ele><time>2026-04-06T13:57:47.994Z</time></trkpt><trkpt lat="37.1253648" lon="15.2217354"><ele>8.5</ele><time>2026-04-06T13:57:48.987Z</time></trkpt><trkpt lat="37.1252717" lon="15.2218575"><ele>8.25</ele><time>2026-04-06T13:57:50.012Z</time></trkpt><trkpt lat="37.1251811" lon="15.2219784"><ele>8.0</ele><time>2026-04-06T13:57:51.029Z</time></trkpt><trkpt lat="37.1250903" lon="15.2220965"><ele>8.0</ele><time>2026-04-06T13:57:52.028Z</time></trkpt><trkpt lat="37.1249998" lon="15.2222137"><ele>8.0</ele><time>2026-04-06T13:57:53.022Z</time></trkpt><trkpt lat="37.1249123" lon="15.2223306"><ele>8.0</ele><time>2026-04-06T13:57:54.022Z</time></trkpt><trkpt lat="37.124826" lon="15.2224435"><ele>8.0</ele><time>2026-04-06T13:57:55.027Z</time></trkpt><trkpt lat="37.1247397" lon="15.2225556"><ele>8.5</ele><time>2026-04-06T13:57:56.021Z</time></trkpt><trkpt lat="37.1246554" lon="15.2226671"><ele>9.0</ele><time>2026-04-06T13:57:57.019Z</time></trkpt><trkpt lat="37.1245703" lon="15.2227743"><ele>9.5</ele><time>2026-04-06T13:57:58.021Z</time></trkpt><trkpt lat="37.124486" lon="15.2228793"><ele>10.0</ele><time>2026-04-06T13:57:59.013Z</time></trkpt><trkpt lat="37.124403" lon="15.2229859"><ele>10.0</ele><time>2026-04-06T13:58:00.014Z</time></trkpt><trkpt lat="37.1243225" lon="15.2230906"><ele>10.0</ele><time>2026-04-06T13:58:01.031Z</time></trkpt><trkpt lat="37.1242431" lon="15.223198"><ele>10.0</ele><time>2026-04-06T13:58:02.014Z</time></trkpt><trkpt lat="37.1241637" lon="15.2233066"><ele>10.0</ele><time>2026-04-06T13:58:03.015Z</time></trkpt><trkpt lat="37.1240843" lon="15.2234173"><ele>11.0</ele><time>2026-04-06T13:58:04.017Z</time></trkpt><trkpt lat="37.1240023" lon="15.2235286"><ele>12.0</ele><time>2026-04-06T13:58:05.012Z</time></trkpt><trkpt lat="37.1239206" lon="15.2236379"><ele>13.0</ele><time>2026-04-06T13:58:05.979Z</time></trkpt><trkpt lat="37.1238388" lon="15.2237454"><ele>14.0</ele><time>2026-04-06T13:58:07.029Z</time></trkpt><trkpt lat="37.1237587" lon="15.2238539"><ele>14.0</ele><time>2026-04-06T13:58:08.022Z</time></trkpt><trkpt lat="37.1236748" lon="15.2239623"><ele>14.0</ele><time>2026-04-06T13:58:09Z</time></trkpt><trkpt lat="37.1235917" lon="15.2240679"><ele>14.0</ele><time>2026-04-06T13:58:10.025Z</time></trkpt><trkpt lat="37.1235083" lon="15.2241722"><ele>14.0</ele><time>2026-04-06T13:58:11Z</time></trkpt><trkpt lat="37.1234247" lon="15.2242706"><ele>13.0</ele><time>2026-04-06T13:58:12.012Z</time></trkpt><trkpt lat="37.1233428" lon="15.2243701"><ele>12.0</ele><time>2026-04-06T13:58:13.025Z</time></trkpt><trkpt lat="37.1232632" lon="15.2244724"><ele>11.0</ele><time>2026-04-06T13:58:14.02Z</time></trkpt><trkpt lat="37.1231847" lon="15.224579"><ele>10.0</ele><time>2026-04-06T13:58:15.024Z</time></trkpt><trkpt lat="37.1231061" lon="15.2246823"><ele>10.0</ele><time>2026-04-06T13:58:16.027Z</time></trkpt><trkpt lat="37.1230296" lon="15.2247852"><ele>10.0</ele><time>2026-04-06T13:58:17.018Z</time></trkpt><trkpt lat="37.1229529" lon="15.2248901"><ele>10.0</ele><time>2026-04-06T13:58:18.022Z</time></trkpt><trkpt lat="37.1228765" lon="15.2249925"><ele>10.0</ele><time>2026-04-06T13:58:19.018Z</time></trkpt><trkpt lat="37.1227984" lon="15.2250962"><ele>10.25</ele><time>2026-04-06T13:58:20.023Z</time></trkpt><trkpt lat="37.12272" lon="15.2252011"><ele>10.5</ele><time>2026-04-06T13:58:21.024Z</time></trkpt><trkpt lat="37.1226411" lon="15.2253071"><ele>10.75</ele><time>2026-04-06T13:58:22.039Z</time></trkpt><trkpt lat="37.1225588" lon="15.2254145"><ele>11.0</ele><time>2026-04-06T13:58:23.023Z</time></trkpt><trkpt lat="37.1224711" lon="15.2255289"><ele>10.666666666666666</ele><time>2026-04-06T13:58:24.022Z</time></trkpt><trkpt lat="37.1223768" lon="15.2256508"><ele>10.333333333333334</ele><time>2026-04-06T13:58:25.029Z</time></trkpt><trkpt lat="37.1222728" lon="15.2257886"><ele>10.0</ele><time>2026-04-06T13:58:26.023Z</time></trkpt><trkpt lat="37.122157" lon="15.2259446"><ele>10.0</ele><time>2026-04-06T13:58:27.022Z</time></trkpt><trkpt lat="37.1220271" lon="15.2261157"><ele>10.0</ele><time>2026-04-06T13:58:28.021Z</time></trkpt><trkpt lat="37.121886" lon="15.2262982"><ele>10.0</ele><time>2026-04-06T13:58:29.016Z</time></trkpt><trkpt lat="37.1217391" lon="15.2264883"><ele>9.666666666666668</ele><time>2026-04-06T13:58:30.019Z</time></trkpt><trkpt lat="37.1215881" lon="15.2266826"><ele>9.333333333333334</ele><time>2026-04-06T13:58:31.015Z</time></trkpt><trkpt lat="37.1214393" lon="15.2268775"><ele>9.0</ele><time>2026-04-06T13:58:32.013Z</time></trkpt><trkpt lat="37.1212943" lon="15.2270715"><ele>9.0</ele><time>2026-04-06T13:58:32.997Z</time></trkpt><trkpt lat="37.1211513" lon="15.2272599"><ele>9.0</ele><time>2026-04-06T13:58:33.979Z</time></trkpt><trkpt lat="37.1210111" lon="15.2274461"><ele>9.0</ele><time>2026-04-06T13:58:35.017Z</time></trkpt><trkpt lat="37.1208751" lon="15.2276262"><ele>9.333333333333334</ele><time>2026-04-06T13:58:36.015Z</time></trkpt><trkpt lat="37.1207418" lon="15.2278022"><ele>9.666666666666668</ele><time>2026-04-06T13:58:37.021Z</time></trkpt><trkpt lat="37.1206107" lon="15.2279763"><ele>10.0</ele><time>2026-04-06T13:58:38.013Z</time></trkpt><trkpt lat="37.1204808" lon="15.2281474"><ele>9.333333333333334</ele><time>2026-04-06T13:58:38.997Z</time></trkpt><trkpt lat="37.120352" lon="15.2283159"><ele>8.666666666666666</ele><time>2026-04-06T13:58:40.023Z</time></trkpt><trkpt lat="37.120224" lon="15.228483"><ele>8.0</ele><time>2026-04-06T13:58:41.025Z</time></trkpt><trkpt lat="37.1201005" lon="15.2286425"><ele>8.0</ele><time>2026-04-06T13:58:42.021Z</time></trkpt><trkpt lat="37.1199775" lon="15.2288015"><ele>8.0</ele><time>2026-04-06T13:58:43Z</time></trkpt><trkpt lat="37.1198515" lon="15.2289732"><ele>8.0</ele><time>2026-04-06T13:58:44.025Z</time></trkpt><trkpt lat="37.11972" lon="15.2291519"><ele>9.0</ele><time>2026-04-06T13:58:45.03Z</time></trkpt><trkpt lat="37.1195816" lon="15.2293364"><ele>10.0</ele><time>2026-04-06T13:58:46.03Z</time></trkpt><trkpt lat="37.1194382" lon="15.2295235"><ele>11.0</ele><time>2026-04-06T13:58:47.024Z</time></trkpt><trkpt lat="37.1192922" lon="15.2297227"><ele>10.666666666666666</ele><time>2026-04-06T13:58:48.022Z</time></trkpt><trkpt lat="37.1191408" lon="15.2299255"><ele>10.333333333333334</ele><time>2026-04-06T13:58:49.031Z</time></trkpt><trkpt lat="37.1189846" lon="15.2301322"><ele>10.0</ele><time>2026-04-06T13:58:50.025Z</time></trkpt><trkpt lat="37.1188301" lon="15.2303356"><ele>10.666666666666668</ele><time>2026-04-06T13:58:51.025Z</time></trkpt><trkpt lat="37.1186847" lon="15.2305268"><ele>11.333333333333334</ele><time>2026-04-06T13:58:52.02Z</time></trkpt><trkpt lat="37.1185472" lon="15.2307098"><ele>12.0</ele><time>2026-04-06T13:58:53.028Z</time></trkpt><trkpt lat="37.1184128" lon="15.2308939"><ele>12.0</ele><time>2026-04-06T13:58:54.027Z</time></trkpt><trkpt lat="37.118284" lon="15.2310623"><ele>12.0</ele><time>2026-04-06T13:58:55.014Z</time></trkpt><trkpt lat="37.1181713" lon="15.2312133"><ele>12.0</ele><time>2026-04-06T13:58:56.024Z</time></trkpt><trkpt lat="37.1180663" lon="15.2313445"><ele>12.0</ele><time>2026-04-06T13:58:57.012Z</time></trkpt><trkpt lat="37.1179695" lon="15.2314636"><ele>12.0</ele><time>2026-04-06T13:58:58.018Z</time></trkpt><trkpt lat="37.1178816" lon="15.2315752"><ele>12.0</ele><time>2026-04-06T13:58:59.014Z</time></trkpt><trkpt lat="37.1177996" lon="15.2316722"><ele>12.0</ele><time>2026-04-06T13:59:00.013Z</time></trkpt><trkpt lat="37.1177241" lon="15.2317632"><ele>12.0</ele><time>2026-04-06T13:59:01.011Z</time></trkpt><trkpt lat="37.1176476" lon="15.2318442"><ele>12.0</ele><time>2026-04-06T13:59:02.013Z</time></trkpt><trkpt lat="37.1175703" lon="15.2319145"><ele>12.0</ele><time>2026-04-06T13:59:03.014Z</time></trkpt><trkpt lat="37.1174928" lon="15.2319758"><ele>12.0</ele><time>2026-04-06T13:59:04.01Z</time></trkpt><trkpt lat="37.1174248" lon="15.2320416"><ele>12.0</ele><time>2026-04-06T13:59:04.997Z</time></trkpt><trkpt lat="37.1173728" lon="15.2321233"><ele>11.2</ele><time>2026-04-06T13:59:06.013Z</time></trkpt><trkpt lat="37.1173301" lon="15.2322249"><ele>10.399999999999999</ele><time>2026-04-06T13:59:07.012Z</time></trkpt><trkpt lat="37.1172791" lon="15.2323336"><ele>9.600000000000001</ele><time>2026-04-06T13:59:07.999Z</time></trkpt><trkpt lat="37.1172152" lon="15.2324521"><ele>8.8</ele><time>2026-04-06T13:59:09Z</time></trkpt><trkpt lat="37.1171439" lon="15.2325643"><ele>8.0</ele><time>2026-04-06T13:59:10.012Z</time></trkpt><trkpt lat="37.1170719" lon="15.2326728"><ele>8.0</ele><time>2026-04-06T13:59:11.017Z</time></trkpt><trkpt lat="37.1170005" lon="15.2327718"><ele>8.0</ele><time>2026-04-06T13:59:11.997Z</time></trkpt><trkpt lat="37.1169297" lon="15.2328609"><ele>8.0</ele><time>2026-04-06T13:59:13.02Z</time></trkpt><trkpt lat="37.1168614" lon="15.2329466"><ele>8.0</ele><time>2026-04-06T13:59:14.02Z</time></trkpt><trkpt lat="37.116797" lon="15.2330314"><ele>8.0</ele><time>2026-04-06T13:59:15.018Z</time></trkpt><trkpt lat="37.1167339" lon="15.2331148"><ele>7.800000000000001</ele><time>2026-04-06T13:59:16Z</time></trkpt><trkpt lat="37.1166698" lon="15.2331991"><ele>7.6000000000000005</ele><time>2026-04-06T13:59:17.018Z</time></trkpt><trkpt lat="37.1166037" lon="15.2332844"><ele>7.3999999999999995</ele><time>2026-04-06T13:59:17.998Z</time></trkpt><trkpt lat="37.116533" lon="15.2333726"><ele>7.199999999999999</ele><time>2026-04-06T13:59:19.022Z</time></trkpt><trkpt lat="37.1164602" lon="15.2334637"><ele>7.0</ele><time>2026-04-06T13:59:20.019Z</time></trkpt><trkpt lat="37.116384" lon="15.2335588"><ele>7.0</ele><time>2026-04-06T13:59:21.023Z</time></trkpt><trkpt lat="37.1163047" lon="15.2336555"><ele>6.999999999999999</ele><time>2026-04-06T13:59:21.998Z</time></trkpt><trkpt lat="37.1162239" lon="15.2337522"><ele>6.999999999999999</ele><time>2026-04-06T13:59:23.03Z</time></trkpt><trkpt lat="37.1161431" lon="15.2338439"><ele>7.0</ele><time>2026-04-06T13:59:24.031Z</time></trkpt><trkpt lat="37.1160639" lon="15.2339316"><ele>7.0</ele><time>2026-04-06T13:59:25.024Z</time></trkpt><trkpt lat="37.1159869" lon="15.2340157"><ele>7.0</ele><time>2026-04-06T13:59:26.021Z</time></trkpt><trkpt lat="37.1159092" lon="15.2340994"><ele>6.999999999999999</ele><time>2026-04-06T13:59:27.031Z</time></trkpt><trkpt lat="37.1158283" lon="15.2341818"><ele>6.999999999999999</ele><time>2026-04-06T13:59:28.022Z</time></trkpt><trkpt lat="37.1157467" lon="15.2342653"><ele>7.0</ele><time>2026-04-06T13:59:29.015Z</time></trkpt><trkpt lat="37.1156683" lon="15.2343495"><ele>7.0</ele><time>2026-04-06T13:59:30.03Z</time></trkpt><trkpt lat="37.1155913" lon="15.234427"><ele>7.0</ele><time>2026-04-06T13:59:31.015Z</time></trkpt><trkpt lat="37.1155187" lon="15.2345018"><ele>6.999999999999999</ele><time>2026-04-06T13:59:32.012Z</time></trkpt><trkpt lat="37.1154534" lon="15.2345731"><ele>6.999999999999999</ele><time>2026-04-06T13:59:33.011Z</time></trkpt><trkpt lat="37.1153887" lon="15.2346432"><ele>7.0</ele><time>2026-04-06T13:59:34.035Z</time></trkpt><trkpt lat="37.1153142" lon="15.2347208"><ele>7.0</ele><time>2026-04-06T13:59:35.013Z</time></trkpt><trkpt lat="37.1152226" lon="15.2348113"><ele>7.0</ele><time>2026-04-06T13:59:36.012Z</time></trkpt><trkpt lat="37.1151142" lon="15.2349123"><ele>7.0</ele><time>2026-04-06T13:59:37.016Z</time></trkpt><trkpt lat="37.1149928" lon="15.2350304"><ele>7.0</ele><time>2026-04-06T13:59:38.029Z</time></trkpt><trkpt lat="37.1148679" lon="15.2351517"><ele>7.0</ele><time>2026-04-06T13:59:39.021Z</time></trkpt><trkpt lat="37.114741" lon="15.2352753"><ele>7.0</ele><time>2026-04-06T13:59:40.016Z</time></trkpt><trkpt lat="37.1146133" lon="15.2353986"><ele>7.0</ele><time>2026-04-06T13:59:41.012Z</time></trkpt><trkpt lat="37.1144895" lon="15.2355199"><ele>7.0</ele><time>2026-04-06T13:59:42.013Z</time></trkpt><trkpt lat="37.114374" lon="15.235638"><ele>7.0</ele><time>2026-04-06T13:59:43.013Z</time></trkpt><trkpt lat="37.1142667" lon="15.2357497"><ele>7.0</ele><time>2026-04-06T13:59:44.015Z</time></trkpt><trkpt lat="37.1141662" lon="15.2358511"><ele>7.0</ele><time>2026-04-06T13:59:44.992Z</time></trkpt><trkpt lat="37.114073" lon="15.2359464"><ele>7.0</ele><time>2026-04-06T13:59:46.016Z</time></trkpt><trkpt lat="37.1139825" lon="15.2360326"><ele>7.199999999999999</ele><time>2026-04-06T13:59:47.012Z</time></trkpt><trkpt lat="37.1138983" lon="15.2361155"><ele>7.3999999999999995</ele><time>2026-04-06T13:59:48.013Z</time></trkpt><trkpt lat="37.1138161" lon="15.2361914"><ele>7.6000000000000005</ele><time>2026-04-06T13:59:49.014Z</time></trkpt><trkpt lat="37.1137324" lon="15.2362563"><ele>7.800000000000001</ele><time>2026-04-06T13:59:49.996Z</time></trkpt><trkpt lat="37.1136467" lon="15.2363059"><ele>8.0</ele><time>2026-04-06T13:59:51.003Z</time></trkpt><trkpt lat="37.1135605" lon="15.2363388"><ele>7.999999999999999</ele><time>2026-04-06T13:59:52.02Z</time></trkpt><trkpt lat="37.1134804" lon="15.2363595"><ele>8.0</ele><time>2026-04-06T13:59:53.001Z</time></trkpt><trkpt lat="37.1134045" lon="15.2363565"><ele>8.0</ele><time>2026-04-06T13:59:54.003Z</time></trkpt><trkpt lat="37.113326" lon="15.2363446"><ele>8.0</ele><time>2026-04-06T13:59:55.016Z</time></trkpt><trkpt lat="37.1132425" lon="15.2363403"><ele>7.999999999999999</ele><time>2026-04-06T13:59:56.017Z</time></trkpt><trkpt lat="37.1131543" lon="15.2363523"><ele>8.0</ele><time>2026-04-06T13:59:57.023Z</time></trkpt><trkpt lat="37.1130667" lon="15.2363791"><ele>7.999999999999999</ele><time>2026-04-06T13:59:58.015Z</time></trkpt><trkpt lat="37.1129821" lon="15.2364066"><ele>8.0</ele><time>2026-04-06T13:59:59.033Z</time></trkpt><trkpt lat="37.1129022" lon="15.2364308"><ele>8.0</ele><time>2026-04-06T14:00:00.011Z</time></trkpt><trkpt lat="37.1128238" lon="15.2364552"><ele>8.0</ele><time>2026-04-06T14:00:01.029Z</time></trkpt><trkpt lat="37.1127387" lon="15.2364802"><ele>7.999999999999999</ele><time>2026-04-06T14:00:02.013Z</time></trkpt><trkpt lat="37.1126481" lon="15.2365072"><ele>8.0</ele><time>2026-04-06T14:00:02.993Z</time></trkpt><trkpt lat="37.1125597" lon="15.2365351"><ele>7.999999999999999</ele><time>2026-04-06T14:00:04.015Z</time></trkpt><trkpt lat="37.1124852" lon="15.2365706"><ele>8.0</ele><time>2026-04-06T14:00:04.978Z</time></trkpt><trkpt lat="37.1124325" lon="15.2366163"><ele>8.0</ele><time>2026-04-06T14:00:05.98Z</time></trkpt><trkpt lat="37.112391" lon="15.236725"><ele>8.0</ele><time>2026-04-06T14:00:07.997Z</time></trkpt><trkpt lat="37.1124101" lon="15.2368661"><ele>7.999999999999999</ele><time>2026-04-06T14:00:10.014Z</time></trkpt><trkpt lat="37.1124431" lon="15.2369546"><ele>8.0</ele><time>2026-04-06T14:00:11.014Z</time></trkpt><trkpt lat="37.1124852" lon="15.2370494"><ele>7.999999999999999</ele><time>2026-04-06T14:00:12.017Z</time></trkpt><trkpt lat="37.1125162" lon="15.2371522"><ele>8.0</ele><time>2026-04-06T14:00:13.019Z</time></trkpt><trkpt lat="37.1125328" lon="15.2372498"><ele>8.0</ele><time>2026-04-06T14:00:13.979Z</time></trkpt><trkpt lat="37.1125312" lon="15.2373362"><ele>8.0</ele><time>2026-04-06T14:00:15.021Z</time></trkpt><trkpt lat="37.1125102" lon="15.2374124"><ele>7.999999999999999</ele><time>2026-04-06T14:00:15.976Z</time></trkpt><trkpt lat="37.1124705" lon="15.2374826"><ele>8.0</ele><time>2026-04-06T14:00:17.016Z</time></trkpt><trkpt lat="37.1124113" lon="15.2375557"><ele>8.75</ele><time>2026-04-06T14:00:18.001Z</time></trkpt><trkpt lat="37.1123405" lon="15.2376351"><ele>9.5</ele><time>2026-04-06T14:00:18.984Z</time></trkpt><trkpt lat="37.1122604" lon="15.237734"><ele>10.25</ele><time>2026-04-06T14:00:20.013Z</time></trkpt><trkpt lat="37.1121659" lon="15.2378354"><ele>11.0</ele><time>2026-04-06T14:00:21.013Z</time></trkpt><trkpt lat="37.1120628" lon="15.2379374"><ele>11.0</ele><time>2026-04-06T14:00:22.024Z</time></trkpt><trkpt lat="37.1119571" lon="15.2380429"><ele>11.0</ele><time>2026-04-06T14:00:23.015Z</time></trkpt><trkpt lat="37.1118497" lon="15.2381501"><ele>11.0</ele><time>2026-04-06T14:00:24.011Z</time></trkpt><trkpt lat="37.1117387" lon="15.2382621"><ele>11.0</ele><time>2026-04-06T14:00:25.011Z</time></trkpt><trkpt lat="37.1116272" lon="15.2383804"><ele>12.0</ele><time>2026-04-06T14:00:26.021Z</time></trkpt><trkpt lat="37.1115181" lon="15.2385082"><ele>13.0</ele><time>2026-04-06T14:00:27.018Z</time></trkpt><trkpt lat="37.1114144" lon="15.2386441"><ele>14.0</ele><time>2026-04-06T14:00:28.018Z</time></trkpt><trkpt lat="37.1113155" lon="15.238792"><ele>14.0</ele><time>2026-04-06T14:00:29.015Z</time></trkpt><trkpt lat="37.1112191" lon="15.2389459"><ele>14.0</ele><time>2026-04-06T14:00:30.015Z</time></trkpt><trkpt lat="37.1111266" lon="15.2391071"><ele>14.0</ele><time>2026-04-06T14:00:31.012Z</time></trkpt><trkpt lat="37.1110385" lon="15.2392772"><ele>14.0</ele><time>2026-04-06T14:00:31.982Z</time></trkpt><trkpt lat="37.1109558" lon="15.2394541"><ele>14.0</ele><time>2026-04-06T14:00:32.977Z</time></trkpt><trkpt lat="37.1108756" lon="15.239634"><ele>14.0</ele><time>2026-04-06T14:00:33.994Z</time></trkpt><trkpt lat="37.110797" lon="15.2398166"><ele>14.0</ele><time>2026-04-06T14:00:34.993Z</time></trkpt><trkpt lat="37.1107178" lon="15.2400062"><ele>14.0</ele><time>2026-04-06T14:00:36.012Z</time></trkpt><trkpt lat="37.1106391" lon="15.2401927"><ele>14.0</ele><time>2026-04-06T14:00:37.011Z</time></trkpt><trkpt lat="37.1105647" lon="15.2403718"><ele>14.0</ele><time>2026-04-06T14:00:38.014Z</time></trkpt><trkpt lat="37.1104937" lon="15.2405403"><ele>14.0</ele><time>2026-04-06T14:00:38.998Z</time></trkpt><trkpt lat="37.1104242" lon="15.2407008"><ele>14.0</ele><time>2026-04-06T14:00:40.002Z</time></trkpt><trkpt lat="37.1103563" lon="15.2408528"><ele>14.0</ele><time>2026-04-06T14:00:41.011Z</time></trkpt><trkpt lat="37.1102878" lon="15.2410017"><ele>14.0</ele><time>2026-04-06T14:00:42.013Z</time></trkpt><trkpt lat="37.1102192" lon="15.2411517"><ele>14.0</ele><time>2026-04-06T14:00:43.011Z</time></trkpt><trkpt lat="37.1101503" lon="15.2413052"><ele>14.0</ele><time>2026-04-06T14:00:44.018Z</time></trkpt><trkpt lat="37.1100804" lon="15.241465"><ele>14.0</ele><time>2026-04-06T14:00:44.994Z</time></trkpt><trkpt lat="37.1100075" lon="15.241632"><ele>13.666666666666668</ele><time>2026-04-06T14:00:45.99Z</time></trkpt><trkpt lat="37.1099321" lon="15.2418079"><ele>13.333333333333332</ele><time>2026-04-06T14:00:47.021Z</time></trkpt><trkpt lat="37.1098513" lon="15.2419869"><ele>13.0</ele><time>2026-04-06T14:00:48.014Z</time></trkpt><trkpt lat="37.1097623" lon="15.2421757"><ele>13.666666666666666</ele><time>2026-04-06T14:00:49.018Z</time></trkpt><trkpt lat="37.1096729" lon="15.2423781"><ele>14.333333333333332</ele><time>2026-04-06T14:00:50.012Z</time></trkpt><trkpt lat="37.1095808" lon="15.2425943"><ele>15.0</ele><time>2026-04-06T14:00:51.024Z</time></trkpt><trkpt lat="37.1094813" lon="15.2428264"><ele>15.0</ele><time>2026-04-06T14:00:52.023Z</time></trkpt><trkpt lat="37.1093726" lon="15.2430862"><ele>15.0</ele><time>2026-04-06T14:00:53.021Z</time></trkpt><trkpt lat="37.1092519" lon="15.2433714"><ele>15.0</ele><time>2026-04-06T14:00:54.02Z</time></trkpt><trkpt lat="37.1091202" lon="15.243679"><ele>15.0</ele><time>2026-04-06T14:00:55.019Z</time></trkpt><trkpt lat="37.1089831" lon="15.2439947"><ele>14.0</ele><time>2026-04-06T14:00:55.981Z</time></trkpt><trkpt lat="37.1088473" lon="15.2443045"><ele>13.0</ele><time>2026-04-06T14:00:57.019Z</time></trkpt><trkpt lat="37.1087182" lon="15.2445968"><ele>12.5</ele><time>2026-04-06T14:00:58Z</time></trkpt><trkpt lat="37.1085961" lon="15.2448713"><ele>12.0</ele><time>2026-04-06T14:00:59.013Z</time></trkpt><trkpt lat="37.1084815" lon="15.245133"><ele>12.0</ele><time>2026-04-06T14:01:00.013Z</time></trkpt><trkpt lat="37.1083684" lon="15.2453848"><ele>12.0</ele><time>2026-04-06T14:01:01.013Z</time></trkpt><trkpt lat="37.1082585" lon="15.2456339"><ele>12.0</ele><time>2026-04-06T14:01:01.979Z</time></trkpt><trkpt lat="37.1081515" lon="15.245878"><ele>12.0</ele><time>2026-04-06T14:01:02.997Z</time></trkpt><trkpt lat="37.1080445" lon="15.2461163"><ele>12.0</ele><time>2026-04-06T14:01:03.977Z</time></trkpt><trkpt lat="37.1079409" lon="15.2463522"><ele>12.0</ele><time>2026-04-06T14:01:05.017Z</time></trkpt><trkpt lat="37.1078371" lon="15.2465903"><ele>12.0</ele><time>2026-04-06T14:01:06.013Z</time></trkpt><trkpt lat="37.1077316" lon="15.2468279"><ele>12.0</ele><time>2026-04-06T14:01:07.015Z</time></trkpt><trkpt lat="37.1076247" lon="15.2470664"><ele>12.333333333333332</ele><time>2026-04-06T14:01:07.997Z</time></trkpt><trkpt lat="37.1075201" lon="15.2473087"><ele>12.666666666666666</ele><time>2026-04-06T14:01:09.015Z</time></trkpt><trkpt lat="37.1074153" lon="15.2475559"><ele>13.0</ele><time>2026-04-06T14:01:10.015Z</time></trkpt><trkpt lat="37.1073082" lon="15.2478025"><ele>13.333333333333332</ele><time>2026-04-06T14:01:11.023Z</time></trkpt><trkpt lat="37.1072029" lon="15.2480438"><ele>13.666666666666668</ele><time>2026-04-06T14:01:12.011Z</time></trkpt><trkpt lat="37.1071017" lon="15.2482762"><ele>14.0</ele><time>2026-04-06T14:01:13.017Z</time></trkpt><trkpt lat="37.1070037" lon="15.248502"><ele>14.0</ele><time>2026-04-06T14:01:14.022Z</time></trkpt><trkpt lat="37.1069091" lon="15.248716"><ele>14.0</ele><time>2026-04-06T14:01:15.021Z</time></trkpt><trkpt lat="37.1068198" lon="15.248923"><ele>14.0</ele><time>2026-04-06T14:01:15.998Z</time></trkpt><trkpt lat="37.106732" lon="15.2491208"><ele>14.0</ele><time>2026-04-06T14:01:16.998Z</time></trkpt><trkpt lat="37.1066443" lon="15.2493126"><ele>14.0</ele><time>2026-04-06T14:01:18.021Z</time></trkpt><trkpt lat="37.1065568" lon="15.2495043"><ele>14.0</ele><time>2026-04-06T14:01:19.014Z</time></trkpt><trkpt lat="37.1064709" lon="15.2496999"><ele>13.666666666666668</ele><time>2026-04-06T14:01:20.022Z</time></trkpt><trkpt lat="37.1063846" lon="15.2498968"><ele>13.333333333333332</ele><time>2026-04-06T14:01:21.017Z</time></trkpt><trkpt lat="37.1062992" lon="15.2500936"><ele>13.0</ele><time>2026-04-06T14:01:22.027Z</time></trkpt><trkpt lat="37.1062122" lon="15.2502913"><ele>13.0</ele><time>2026-04-06T14:01:23.029Z</time></trkpt><trkpt lat="37.1061263" lon="15.2504899"><ele>13.0</ele><time>2026-04-06T14:01:24.019Z</time></trkpt><trkpt lat="37.1060411" lon="15.2506882"><ele>13.0</ele><time>2026-04-06T14:01:25.014Z</time></trkpt><trkpt lat="37.105955" lon="15.2508867"><ele>13.333333333333332</ele><time>2026-04-06T14:01:26.015Z</time></trkpt><trkpt lat="37.1058685" lon="15.2510844"><ele>13.666666666666668</ele><time>2026-04-06T14:01:27.013Z</time></trkpt><trkpt lat="37.105785" lon="15.2512769"><ele>14.0</ele><time>2026-04-06T14:01:28.014Z</time></trkpt><trkpt lat="37.1057017" lon="15.2514726"><ele>14.0</ele><time>2026-04-06T14:01:28.988Z</time></trkpt><trkpt lat="37.1056134" lon="15.2516833"><ele>14.0</ele><time>2026-04-06T14:01:30.021Z</time></trkpt><trkpt lat="37.1055198" lon="15.2519126"><ele>14.0</ele><time>2026-04-06T14:01:31.001Z</time></trkpt><trkpt lat="37.1054193" lon="15.2521499"><ele>13.5</ele><time>2026-04-06T14:01:32.016Z</time></trkpt><trkpt lat="37.1053115" lon="15.2523997"><ele>13.0</ele><time>2026-04-06T14:01:33.021Z</time></trkpt><trkpt lat="37.105194" lon="15.2526481"><ele>13.0</ele><time>2026-04-06T14:01:34.024Z</time></trkpt><trkpt lat="37.1050739" lon="15.2528946"><ele>13.0</ele><time>2026-04-06T14:01:35.011Z</time></trkpt><trkpt lat="37.1049614" lon="15.2531414"><ele>15.666666666666666</ele><time>2026-04-06T14:01:35.999Z</time></trkpt><trkpt lat="37.1048494" lon="15.2533693"><ele>18.333333333333332</ele><time>2026-04-06T14:01:36.999Z</time></trkpt><trkpt lat="37.1047384" lon="15.2535823"><ele>21.0</ele><time>2026-04-06T14:01:38.014Z</time></trkpt><trkpt lat="37.1046324" lon="15.253784"><ele>20.333333333333332</ele><time>2026-04-06T14:01:39.016Z</time></trkpt><trkpt lat="37.1045303" lon="15.2539772"><ele>19.666666666666664</ele><time>2026-04-06T14:01:40.01Z</time></trkpt><trkpt lat="37.1044357" lon="15.2541716"><ele>19.0</ele><time>2026-04-06T14:01:41.005Z</time></trkpt><trkpt lat="37.104344" lon="15.2543678"><ele>19.0</ele><time>2026-04-06T14:01:42.013Z</time></trkpt><trkpt lat="37.1042557" lon="15.2545655"><ele>19.0</ele><time>2026-04-06T14:01:43.017Z</time></trkpt><trkpt lat="37.1041723" lon="15.254764"><ele>19.0</ele><time>2026-04-06T14:01:43.981Z</time></trkpt><trkpt lat="37.1040933" lon="15.2549622"><ele>20.333333333333332</ele><time>2026-04-06T14:01:45.013Z</time></trkpt><trkpt lat="37.1040173" lon="15.2551561"><ele>21.666666666666668</ele><time>2026-04-06T14:01:45.997Z</time></trkpt><trkpt lat="37.103939" lon="15.2553453"><ele>23.0</ele><time>2026-04-06T14:01:47.004Z</time></trkpt><trkpt lat="37.1038565" lon="15.2555259"><ele>22.666666666666668</ele><time>2026-04-06T14:01:48.015Z</time></trkpt><trkpt lat="37.1037728" lon="15.2557042"><ele>22.333333333333332</ele><time>2026-04-06T14:01:48.979Z</time></trkpt><trkpt lat="37.103695" lon="15.255882"><ele>22.0</ele><time>2026-04-06T14:01:50.013Z</time></trkpt><trkpt lat="37.1036213" lon="15.2560536"><ele>22.0</ele><time>2026-04-06T14:01:51.015Z</time></trkpt><trkpt lat="37.103548" lon="15.2562224"><ele>22.0</ele><time>2026-04-06T14:01:52.021Z</time></trkpt><trkpt lat="37.1034793" lon="15.2563865"><ele>22.0</ele><time>2026-04-06T14:01:53.012Z</time></trkpt><trkpt lat="37.1034167" lon="15.2565462"><ele>22.0</ele><time>2026-04-06T14:01:53.979Z</time></trkpt><trkpt lat="37.1033599" lon="15.2567014"><ele>22.25</ele><time>2026-04-06T14:01:55.011Z</time></trkpt><trkpt lat="37.1033071" lon="15.2568551"><ele>22.5</ele><time>2026-04-06T14:01:55.979Z</time></trkpt><trkpt lat="37.1032584" lon="15.2570073"><ele>22.75</ele><time>2026-04-06T14:01:57.022Z</time></trkpt><trkpt lat="37.1032152" lon="15.2571554"><ele>23.0</ele><time>2026-04-06T14:01:58.023Z</time></trkpt><trkpt lat="37.1031809" lon="15.2573104"><ele>24.75</ele><time>2026-04-06T14:01:59.012Z</time></trkpt><trkpt lat="37.1031521" lon="15.2574668"><ele>26.5</ele><time>2026-04-06T14:02:00.015Z</time></trkpt><trkpt lat="37.1031275" lon="15.2576238"><ele>28.25</ele><time>2026-04-06T14:02:00.979Z</time></trkpt><trkpt lat="37.1031113" lon="15.2577847"><ele>30.0</ele><time>2026-04-06T14:02:02.014Z</time></trkpt><trkpt lat="37.103104" lon="15.257951"><ele>30.5</ele><time>2026-04-06T14:02:03.015Z</time></trkpt><trkpt lat="37.1031016" lon="15.2581201"><ele>31.0</ele><time>2026-04-06T14:02:04.024Z</time></trkpt><trkpt lat="37.1030975" lon="15.2582916"><ele>31.5</ele><time>2026-04-06T14:02:05.014Z</time></trkpt><trkpt lat="37.1030934" lon="15.2584641"><ele>32.0</ele><time>2026-04-06T14:02:06.015Z</time></trkpt><trkpt lat="37.1030917" lon="15.258636"><ele>32.0</ele><time>2026-04-06T14:02:07.026Z</time></trkpt><trkpt lat="37.1030927" lon="15.2588104"><ele>32.0</ele><time>2026-04-06T14:02:08.01Z</time></trkpt><trkpt lat="37.1030949" lon="15.2589933"><ele>32.0</ele><time>2026-04-06T14:02:09.019Z</time></trkpt><trkpt lat="37.1030944" lon="15.2591819"><ele>32.0</ele><time>2026-04-06T14:02:10.012Z</time></trkpt><trkpt lat="37.1030903" lon="15.2593723"><ele>33.33333333333333</ele><time>2026-04-06T14:02:10.999Z</time></trkpt><trkpt lat="37.1030849" lon="15.2595708"><ele>34.666666666666664</ele><time>2026-04-06T14:02:12.015Z</time></trkpt><trkpt lat="37.103076" lon="15.2597775"><ele>36.0</ele><time>2026-04-06T14:02:13.011Z</time></trkpt><trkpt lat="37.1030684" lon="15.2600041"><ele>36.333333333333336</ele><time>2026-04-06T14:02:14.019Z</time></trkpt><trkpt lat="37.1030647" lon="15.2602552"><ele>36.66666666666667</ele><time>2026-04-06T14:02:14.988Z</time></trkpt><trkpt lat="37.1030618" lon="15.2605267"><ele>37.0</ele><time>2026-04-06T14:02:16.028Z</time></trkpt><trkpt lat="37.103059" lon="15.2608115"><ele>38.66666666666667</ele><time>2026-04-06T14:02:17.003Z</time></trkpt><trkpt lat="37.1030536" lon="15.2610898"><ele>40.333333333333336</ele><time>2026-04-06T14:02:17.98Z</time></trkpt><trkpt lat="37.1030461" lon="15.2613535"><ele>42.0</ele><time>2026-04-06T14:02:19.026Z</time></trkpt><trkpt lat="37.1030386" lon="15.2616007"><ele>44.0</ele><time>2026-04-06T14:02:19.98Z</time></trkpt><trkpt lat="37.1030308" lon="15.2618329"><ele>46.0</ele><time>2026-04-06T14:02:21.023Z</time></trkpt><trkpt lat="37.1030243" lon="15.2620483"><ele>48.0</ele><time>2026-04-06T14:02:22.018Z</time></trkpt><trkpt lat="37.1030209" lon="15.2622514"><ele>47.5</ele><time>2026-04-06T14:02:23.019Z</time></trkpt><trkpt lat="37.1030169" lon="15.2624419"><ele>47.0</ele><time>2026-04-06T14:02:24.021Z</time></trkpt><trkpt lat="37.103014" lon="15.2626271"><ele>46.5</ele><time>2026-04-06T14:02:25.02Z</time></trkpt><trkpt lat="37.1030103" lon="15.2628101"><ele>46.0</ele><time>2026-04-06T14:02:25.997Z</time></trkpt><trkpt lat="37.1030055" lon="15.2629851"><ele>46.0</ele><time>2026-04-06T14:02:27.018Z</time></trkpt><trkpt lat="37.1030019" lon="15.2631499"><ele>46.0</ele><time>2026-04-06T14:02:28.014Z</time></trkpt><trkpt lat="37.1029933" lon="15.2633019"><ele>46.0</ele><time>2026-04-06T14:02:29.012Z</time></trkpt><trkpt lat="37.1029761" lon="15.2634428"><ele>46.0</ele><time>2026-04-06T14:02:30.014Z</time></trkpt><trkpt lat="37.1029472" lon="15.2635748"><ele>46.0</ele><time>2026-04-06T14:02:31.013Z</time></trkpt><trkpt lat="37.1029072" lon="15.2636938"><ele>46.0</ele><time>2026-04-06T14:02:32.011Z</time></trkpt><trkpt lat="37.102858" lon="15.263808"><ele>46.0</ele><time>2026-04-06T14:02:33.011Z</time></trkpt><trkpt lat="37.102795" lon="15.2639158"><ele>46.0</ele><time>2026-04-06T14:02:33.993Z</time></trkpt><trkpt lat="37.1027058" lon="15.2640161"><ele>46.0</ele><time>2026-04-06T14:02:35.01Z</time></trkpt><trkpt lat="37.1026203" lon="15.2641287"><ele>46.25</ele><time>2026-04-06T14:02:36.013Z</time></trkpt><trkpt lat="37.1025461" lon="15.2642543"><ele>46.5</ele><time>2026-04-06T14:02:37.014Z</time></trkpt><trkpt lat="37.1024878" lon="15.2643859"><ele>46.75</ele><time>2026-04-06T14:02:38.011Z</time></trkpt><trkpt lat="37.1024442" lon="15.2645202"><ele>47.0</ele><time>2026-04-06T14:02:39.013Z</time></trkpt><trkpt lat="37.102417" lon="15.2646536"><ele>47.6</ele><time>2026-04-06T14:02:40.004Z</time></trkpt><trkpt lat="37.1023998" lon="15.2647846"><ele>48.2</ele><time>2026-04-06T14:02:41.014Z</time></trkpt><trkpt lat="37.1023927" lon="15.2649099"><ele>48.8</ele><time>2026-04-06T14:02:42.031Z</time></trkpt><trkpt lat="37.102394" lon="15.2650236"><ele>49.4</ele><time>2026-04-06T14:02:43.013Z</time></trkpt><trkpt lat="37.1024068" lon="15.2651291"><ele>50.0</ele><time>2026-04-06T14:02:44.02Z</time></trkpt><trkpt lat="37.1024221" lon="15.2652257"><ele>50.0</ele><time>2026-04-06T14:02:45.014Z</time></trkpt><trkpt lat="37.1024398" lon="15.2653157"><ele>50.0</ele><time>2026-04-06T14:02:46.013Z</time></trkpt><trkpt lat="37.1024548" lon="15.265399"><ele>50.0</ele><time>2026-04-06T14:02:47.014Z</time></trkpt><trkpt lat="37.1024561" lon="15.2655473"><ele>50.0</ele><time>2026-04-06T14:02:49.013Z</time></trkpt><trkpt lat="37.102396" lon="15.2656395"><ele>50.0</ele><time>2026-04-06T14:02:51.002Z</time></trkpt><trkpt lat="37.1022833" lon="15.265722"><ele>52.0</ele><time>2026-04-06T14:02:53.003Z</time></trkpt><trkpt lat="37.1022172" lon="15.2657719"><ele>54.0</ele><time>2026-04-06T14:02:54.02Z</time></trkpt><trkpt lat="37.1021329" lon="15.2658201"><ele>56.0</ele><time>2026-04-06T14:02:55.013Z</time></trkpt><trkpt lat="37.1020451" lon="15.2658682"><ele>58.0</ele><time>2026-04-06T14:02:56.012Z</time></trkpt><trkpt lat="37.1019427" lon="15.2659127"><ele>60.0</ele><time>2026-04-06T14:02:56.991Z</time></trkpt><trkpt lat="37.1018374" lon="15.265963"><ele>60.0</ele><time>2026-04-06T14:02:58.008Z</time></trkpt><trkpt lat="37.1017294" lon="15.2660135"><ele>60.0</ele><time>2026-04-06T14:02:59.032Z</time></trkpt><trkpt lat="37.1016198" lon="15.2660647"><ele>60.0</ele><time>2026-04-06T14:03:00.009Z</time></trkpt><trkpt lat="37.1015077" lon="15.2661181"><ele>60.0</ele><time>2026-04-06T14:03:01.015Z</time></trkpt><trkpt lat="37.1013915" lon="15.2661684"><ele>61.0</ele><time>2026-04-06T14:03:02.01Z</time></trkpt><trkpt lat="37.1012731" lon="15.2662218"><ele>62.0</ele><time>2026-04-06T14:03:02.98Z</time></trkpt><trkpt lat="37.1011532" lon="15.2662777"><ele>63.0</ele><time>2026-04-06T14:03:04.015Z</time></trkpt><trkpt lat="37.1010368" lon="15.2663314"><ele>64.0</ele><time>2026-04-06T14:03:04.984Z</time></trkpt><trkpt lat="37.1009255" lon="15.2663813"><ele>64.0</ele><time>2026-04-06T14:03:06.014Z</time></trkpt><trkpt lat="37.1008161" lon="15.2664311"><ele>64.0</ele><time>2026-04-06T14:03:06.982Z</time></trkpt><trkpt lat="37.1007073" lon="15.266481"><ele>64.0</ele><time>2026-04-06T14:03:07.984Z</time></trkpt><trkpt lat="37.1005988" lon="15.2665288"><ele>64.0</ele><time>2026-04-06T14:03:09.012Z</time></trkpt><trkpt lat="37.1004887" lon="15.266578"><ele>63.25</ele><time>2026-04-06T14:03:09.998Z</time></trkpt><trkpt lat="37.1003809" lon="15.2666262"><ele>62.5</ele><time>2026-04-06T14:03:11.014Z</time></trkpt><trkpt lat="37.1002728" lon="15.2666781"><ele>61.75</ele><time>2026-04-06T14:03:12.014Z</time></trkpt><trkpt lat="37.100163" lon="15.266731"><ele>61.0</ele><time>2026-04-06T14:03:12.984Z</time></trkpt><trkpt lat="37.1000509" lon="15.2667821"><ele>61.0</ele><time>2026-04-06T14:03:14.014Z</time></trkpt><trkpt lat="37.0999354" lon="15.2668357"><ele>61.0</ele><time>2026-04-06T14:03:15.016Z</time></trkpt><trkpt lat="37.0998176" lon="15.2668891"><ele>61.0</ele><time>2026-04-06T14:03:15.997Z</time></trkpt><trkpt lat="37.099698" lon="15.2669425"><ele>61.0</ele><time>2026-04-06T14:03:17.013Z</time></trkpt><trkpt lat="37.0995782" lon="15.2669955"><ele>61.25</ele><time>2026-04-06T14:03:18.018Z</time></trkpt><trkpt lat="37.0994594" lon="15.267049"><ele>61.5</ele><time>2026-04-06T14:03:19.014Z</time></trkpt><trkpt lat="37.0993422" lon="15.2671021"><ele>61.75</ele><time>2026-04-06T14:03:20.011Z</time></trkpt><trkpt lat="37.0992293" lon="15.2671559"><ele>62.0</ele><time>2026-04-06T14:03:21.017Z</time></trkpt><trkpt lat="37.0991194" lon="15.2672089"><ele>62.25</ele><time>2026-04-06T14:03:22.026Z</time></trkpt><trkpt lat="37.0990124" lon="15.2672597"><ele>62.5</ele><time>2026-04-06T14:03:22.985Z</time></trkpt><trkpt lat="37.0989082" lon="15.2673121"><ele>62.75</ele><time>2026-04-06T14:03:24.013Z</time></trkpt><trkpt lat="37.0988024" lon="15.267365"><ele>63.0</ele><time>2026-04-06T14:03:25.011Z</time></trkpt><trkpt lat="37.098697" lon="15.2674145"><ele>63.0</ele><time>2026-04-06T14:03:26.016Z</time></trkpt><trkpt lat="37.098592" lon="15.2674633"><ele>63.0</ele><time>2026-04-06T14:03:27.013Z</time></trkpt><trkpt lat="37.0984863" lon="15.267511"><ele>63.0</ele><time>2026-04-06T14:03:28.013Z</time></trkpt><trkpt lat="37.0983794" lon="15.2675598"><ele>63.0</ele><time>2026-04-06T14:03:29.012Z</time></trkpt><trkpt lat="37.0982717" lon="15.2676061"><ele>64.25</ele><time>2026-04-06T14:03:29.987Z</time></trkpt><trkpt lat="37.0981641" lon="15.2676582"><ele>65.5</ele><time>2026-04-06T14:03:31.013Z</time></trkpt><trkpt lat="37.0980587" lon="15.2677106"><ele>66.75</ele><time>2026-04-06T14:03:31.982Z</time></trkpt><trkpt lat="37.0979517" lon="15.2677632"><ele>68.0</ele><time>2026-04-06T14:03:32.997Z</time></trkpt><trkpt lat="37.0978439" lon="15.2678128"><ele>68.0</ele><time>2026-04-06T14:03:34.016Z</time></trkpt><trkpt lat="37.0977371" lon="15.267865"><ele>68.0</ele><time>2026-04-06T14:03:35.012Z</time></trkpt><trkpt lat="37.0976285" lon="15.2679186"><ele>68.0</ele><time>2026-04-06T14:03:36.016Z</time></trkpt><trkpt lat="37.0975193" lon="15.2679766"><ele>68.0</ele><time>2026-04-06T14:03:37.016Z</time></trkpt><trkpt lat="37.0974082" lon="15.2680324"><ele>68.25</ele><time>2026-04-06T14:03:37.984Z</time></trkpt><trkpt lat="37.0972955" lon="15.2680877"><ele>68.5</ele><time>2026-04-06T14:03:39.012Z</time></trkpt><trkpt lat="37.0971848" lon="15.2681413"><ele>68.75</ele><time>2026-04-06T14:03:40.01Z</time></trkpt><trkpt lat="37.0970799" lon="15.2681921"><ele>69.0</ele><time>2026-04-06T14:03:41.017Z</time></trkpt><trkpt lat="37.0969768" lon="15.2682454"><ele>69.0</ele><time>2026-04-06T14:03:41.976Z</time></trkpt><trkpt lat="37.0968732" lon="15.2682973"><ele>69.0</ele><time>2026-04-06T14:03:42.982Z</time></trkpt><trkpt lat="37.096771" lon="15.2683441"><ele>69.0</ele><time>2026-04-06T14:03:44.011Z</time></trkpt><trkpt lat="37.0966667" lon="15.2683935"><ele>69.0</ele><time>2026-04-06T14:03:44.977Z</time></trkpt><trkpt lat="37.0965614" lon="15.2684421"><ele>69.0</ele><time>2026-04-06T14:03:46.016Z</time></trkpt><trkpt lat="37.0964521" lon="15.2684934"><ele>69.0</ele><time>2026-04-06T14:03:46.977Z</time></trkpt><trkpt lat="37.0963409" lon="15.268548"><ele>69.0</ele><time>2026-04-06T14:03:47.983Z</time></trkpt><trkpt lat="37.0962282" lon="15.2686087"><ele>69.0</ele><time>2026-04-06T14:03:48.978Z</time></trkpt><trkpt lat="37.0961107" lon="15.2686696"><ele>69.0</ele><time>2026-04-06T14:03:50.012Z</time></trkpt><trkpt lat="37.095989" lon="15.268727"><ele>69.0</ele><time>2026-04-06T14:03:50.978Z</time></trkpt><trkpt lat="37.0958639" lon="15.2687847"><ele>69.0</ele><time>2026-04-06T14:03:52Z</time></trkpt><trkpt lat="37.0957334" lon="15.2688447"><ele>69.0</ele><time>2026-04-06T14:03:53.019Z</time></trkpt><trkpt lat="37.0956017" lon="15.2689071"><ele>69.0</ele><time>2026-04-06T14:03:54.012Z</time></trkpt><trkpt lat="37.0954756" lon="15.2689706"><ele>68.0</ele><time>2026-04-06T14:03:55.013Z</time></trkpt><trkpt lat="37.0953556" lon="15.2690317"><ele>67.0</ele><time>2026-04-06T14:03:56.015Z</time></trkpt><trkpt lat="37.0952402" lon="15.2690913"><ele>66.0</ele><time>2026-04-06T14:03:57.013Z</time></trkpt><trkpt lat="37.0951274" lon="15.2691466"><ele>65.0</ele><time>2026-04-06T14:03:58.018Z</time></trkpt><trkpt lat="37.0950163" lon="15.2692005"><ele>65.4</ele><time>2026-04-06T14:03:59.014Z</time></trkpt><trkpt lat="37.0949066" lon="15.2692486"><ele>65.8</ele><time>2026-04-06T14:04:00.012Z</time></trkpt><trkpt lat="37.0948027" lon="15.2692935"><ele>66.2</ele><time>2026-04-06T14:04:01.013Z</time></trkpt><trkpt lat="37.0947059" lon="15.2693353"><ele>66.6</ele><time>2026-04-06T14:04:02.012Z</time></trkpt><trkpt lat="37.0946137" lon="15.2693788"><ele>67.0</ele><time>2026-04-06T14:04:02.984Z</time></trkpt><trkpt lat="37.0945323" lon="15.2694247"><ele>67.0</ele><time>2026-04-06T14:04:04.021Z</time></trkpt><trkpt lat="37.0944561" lon="15.2694666"><ele>67.0</ele><time>2026-04-06T14:04:05.018Z</time></trkpt><trkpt lat="37.0943798" lon="15.2694997"><ele>67.0</ele><time>2026-04-06T14:04:05.979Z</time></trkpt><trkpt lat="37.0943049" lon="15.2695333"><ele>67.0</ele><time>2026-04-06T14:04:07.025Z</time></trkpt><trkpt lat="37.0942328" lon="15.269568"><ele>67.0</ele><time>2026-04-06T14:04:07.984Z</time></trkpt><trkpt lat="37.0941651" lon="15.269604"><ele>67.0</ele><time>2026-04-06T14:04:09.011Z</time></trkpt><trkpt lat="37.0940966" lon="15.2696408"><ele>67.0</ele><time>2026-04-06T14:04:10.013Z</time></trkpt><trkpt lat="37.0940278" lon="15.2696753"><ele>67.0</ele><time>2026-04-06T14:04:11.027Z</time></trkpt><trkpt lat="37.093958" lon="15.2697055"><ele>67.0</ele><time>2026-04-06T14:04:12.005Z</time></trkpt><trkpt lat="37.0938859" lon="15.2697366"><ele>67.0</ele><time>2026-04-06T14:04:13.016Z</time></trkpt><trkpt lat="37.0938117" lon="15.2697686"><ele>67.0</ele><time>2026-04-06T14:04:14.011Z</time></trkpt><trkpt lat="37.0937365" lon="15.269801"><ele>67.0</ele><time>2026-04-06T14:04:15.009Z</time></trkpt><trkpt lat="37.0936607" lon="15.2698323"><ele>66.66666666666666</ele><time>2026-04-06T14:04:16.011Z</time></trkpt><trkpt lat="37.0935889" lon="15.2698646"><ele>66.33333333333333</ele><time>2026-04-06T14:04:17.008Z</time></trkpt><trkpt lat="37.0935213" lon="15.2698934"><ele>66.0</ele><time>2026-04-06T14:04:18.012Z</time></trkpt><trkpt lat="37.0934516" lon="15.269921"><ele>65.66666666666667</ele><time>2026-04-06T14:04:19.012Z</time></trkpt><trkpt lat="37.0933802" lon="15.2699453"><ele>65.33333333333334</ele><time>2026-04-06T14:04:19.983Z</time></trkpt><trkpt lat="37.0933" lon="15.269966"><ele>65.0</ele><time>2026-04-06T14:04:21.021Z</time></trkpt><trkpt lat="37.0932281" lon="15.2699817"><ele>64.66666666666667</ele><time>2026-04-06T14:04:21.987Z</time></trkpt><trkpt lat="37.0931601" lon="15.2699958"><ele>64.33333333333334</ele><time>2026-04-06T14:04:23.012Z</time></trkpt><trkpt lat="37.0930897" lon="15.2700144"><ele>64.0</ele><time>2026-04-06T14:04:24.001Z</time></trkpt><trkpt lat="37.0930183" lon="15.2700407"><ele>63.66666666666667</ele><time>2026-04-06T14:04:25.013Z</time></trkpt><trkpt lat="37.0929485" lon="15.2700836"><ele>63.333333333333336</ele><time>2026-04-06T14:04:25.985Z</time></trkpt><trkpt lat="37.0928781" lon="15.2701417"><ele>63.0</ele><time>2026-04-06T14:04:27.012Z</time></trkpt><trkpt lat="37.0928076" lon="15.2702053"><ele>63.0</ele><time>2026-04-06T14:04:27.984Z</time></trkpt><trkpt lat="37.0927347" lon="15.2702705"><ele>63.0</ele><time>2026-04-06T14:04:29.014Z</time></trkpt><trkpt lat="37.0926486" lon="15.2703327"><ele>63.0</ele><time>2026-04-06T14:04:30.015Z</time></trkpt><trkpt lat="37.0925504" lon="15.2703888"><ele>63.0</ele><time>2026-04-06T14:04:30.979Z</time></trkpt><trkpt lat="37.0924453" lon="15.2704438"><ele>63.0</ele><time>2026-04-06T14:04:31.998Z</time></trkpt><trkpt lat="37.0923388" lon="15.270497"><ele>63.2</ele><time>2026-04-06T14:04:33.016Z</time></trkpt><trkpt lat="37.092236" lon="15.2705424"><ele>63.4</ele><time>2026-04-06T14:04:34.018Z</time></trkpt><trkpt lat="37.0921327" lon="15.270586"><ele>63.60000000000001</ele><time>2026-04-06T14:04:35.004Z</time></trkpt><trkpt lat="37.092033" lon="15.2706316"><ele>63.800000000000004</ele><time>2026-04-06T14:04:36.022Z</time></trkpt><trkpt lat="37.0919385" lon="15.2706772"><ele>64.0</ele><time>2026-04-06T14:04:36.976Z</time></trkpt><trkpt lat="37.0918444" lon="15.2707275"><ele>63.75</ele><time>2026-04-06T14:04:38.018Z</time></trkpt><trkpt lat="37.0917447" lon="15.2707811"><ele>63.5</ele><time>2026-04-06T14:04:39.011Z</time></trkpt><trkpt lat="37.0916343" lon="15.2708378"><ele>63.25</ele><time>2026-04-06T14:04:40.014Z</time></trkpt><trkpt lat="37.0915139" lon="15.2708952"><ele>63.0</ele><time>2026-04-06T14:04:40.987Z</time></trkpt><trkpt lat="37.0913853" lon="15.2709591"><ele>63.0</ele><time>2026-04-06T14:04:42.022Z</time></trkpt><trkpt lat="37.0912516" lon="15.271026"><ele>63.0</ele><time>2026-04-06T14:04:42.978Z</time></trkpt><trkpt lat="37.0911175" lon="15.27109"><ele>63.0</ele><time>2026-04-06T14:04:44.014Z</time></trkpt><trkpt lat="37.0909854" lon="15.271152"><ele>63.0</ele><time>2026-04-06T14:04:45.021Z</time></trkpt><trkpt lat="37.0908565" lon="15.2712122"><ele>63.0</ele><time>2026-04-06T14:04:46.021Z</time></trkpt><trkpt lat="37.0907307" lon="15.271272"><ele>63.0</ele><time>2026-04-06T14:04:47.019Z</time></trkpt><trkpt lat="37.0906087" lon="15.2713332"><ele>63.0</ele><time>2026-04-06T14:04:48.017Z</time></trkpt><trkpt lat="37.0904879" lon="15.2713922"><ele>63.0</ele><time>2026-04-06T14:04:49Z</time></trkpt><trkpt lat="37.0903673" lon="15.2714506"><ele>63.5</ele><time>2026-04-06T14:04:49.987Z</time></trkpt><trkpt lat="37.0902467" lon="15.2715074"><ele>64.0</ele><time>2026-04-06T14:04:51.014Z</time></trkpt><trkpt lat="37.0901263" lon="15.2715635"><ele>64.5</ele><time>2026-04-06T14:04:51.987Z</time></trkpt><trkpt lat="37.0900064" lon="15.2716194"><ele>65.0</ele><time>2026-04-06T14:04:53.017Z</time></trkpt><trkpt lat="37.0898861" lon="15.2716744"><ele>65.75</ele><time>2026-04-06T14:04:54.016Z</time></trkpt><trkpt lat="37.089766" lon="15.2717309"><ele>66.5</ele><time>2026-04-06T14:04:55.014Z</time></trkpt><trkpt lat="37.0896439" lon="15.2717892"><ele>67.25</ele><time>2026-04-06T14:04:55.984Z</time></trkpt><trkpt lat="37.0895186" lon="15.2718493"><ele>68.0</ele><time>2026-04-06T14:04:57.012Z</time></trkpt><trkpt lat="37.0893894" lon="15.2719117"><ele>68.0</ele><time>2026-04-06T14:04:58.013Z</time></trkpt><trkpt lat="37.0892557" lon="15.2719754"><ele>68.0</ele><time>2026-04-06T14:04:58.991Z</time></trkpt><trkpt lat="37.0891223" lon="15.2720362"><ele>68.0</ele><time>2026-04-06T14:04:59.976Z</time></trkpt><trkpt lat="37.088994" lon="15.272095"><ele>68.0</ele><time>2026-04-06T14:05:01.017Z</time></trkpt><trkpt lat="37.0888678" lon="15.2721529"><ele>67.75</ele><time>2026-04-06T14:05:02.018Z</time></trkpt><trkpt lat="37.0887404" lon="15.2722115"><ele>67.5</ele><time>2026-04-06T14:05:02.998Z</time></trkpt><trkpt lat="37.0886099" lon="15.2722735"><ele>67.25</ele><time>2026-04-06T14:05:04.012Z</time></trkpt><trkpt lat="37.0884762" lon="15.2723388"><ele>67.0</ele><time>2026-04-06T14:05:05.013Z</time></trkpt><trkpt lat="37.0883399" lon="15.272406"><ele>68.0</ele><time>2026-04-06T14:05:06.022Z</time></trkpt><trkpt lat="37.0881994" lon="15.272474"><ele>69.0</ele><time>2026-04-06T14:05:07.011Z</time></trkpt><trkpt lat="37.0880563" lon="15.2725408"><ele>70.0</ele><time>2026-04-06T14:05:08.013Z</time></trkpt><trkpt lat="37.0879162" lon="15.2726063"><ele>70.0</ele><time>2026-04-06T14:05:09.012Z</time></trkpt><trkpt lat="37.0877812" lon="15.2726684"><ele>70.0</ele><time>2026-04-06T14:05:10.032Z</time></trkpt><trkpt lat="37.0876498" lon="15.2727298"><ele>70.0</ele><time>2026-04-06T14:05:11.014Z</time></trkpt><trkpt lat="37.0875183" lon="15.2727948"><ele>70.0</ele><time>2026-04-06T14:05:12.013Z</time></trkpt><trkpt lat="37.0873838" lon="15.2728615"><ele>70.0</ele><time>2026-04-06T14:05:13Z</time></trkpt><trkpt lat="37.0872441" lon="15.2729292"><ele>70.0</ele><time>2026-04-06T14:05:14.003Z</time></trkpt><trkpt lat="37.0871034" lon="15.272997"><ele>70.0</ele><time>2026-04-06T14:05:14.992Z</time></trkpt><trkpt lat="37.0869674" lon="15.2730606"><ele>70.0</ele><time>2026-04-06T14:05:16.013Z</time></trkpt><trkpt lat="37.0868387" lon="15.2731226"><ele>69.0</ele><time>2026-04-06T14:05:17.029Z</time></trkpt><trkpt lat="37.0867158" lon="15.2731833"><ele>68.0</ele><time>2026-04-06T14:05:17.978Z</time></trkpt><trkpt lat="37.0866011" lon="15.2732373"><ele>67.0</ele><time>2026-04-06T14:05:18.983Z</time></trkpt><trkpt lat="37.0864925" lon="15.273289"><ele>66.0</ele><time>2026-04-06T14:05:20.014Z</time></trkpt><trkpt lat="37.0863894" lon="15.2733356"><ele>65.8</ele><time>2026-04-06T14:05:21.018Z</time></trkpt><trkpt lat="37.0862925" lon="15.2733773"><ele>65.6</ele><time>2026-04-06T14:05:22.02Z</time></trkpt><trkpt lat="37.0862003" lon="15.2734181"><ele>65.4</ele><time>2026-04-06T14:05:23.025Z</time></trkpt><trkpt lat="37.0861107" lon="15.2734509"><ele>65.2</ele><time>2026-04-06T14:05:24.008Z</time></trkpt><trkpt lat="37.0860223" lon="15.2734724"><ele>65.0</ele><time>2026-04-06T14:05:24.991Z</time></trkpt><trkpt lat="37.0859369" lon="15.2734849"><ele>65.0</ele><time>2026-04-06T14:05:26.015Z</time></trkpt><trkpt lat="37.0858606" lon="15.2735126"><ele>65.0</ele><time>2026-04-06T14:05:26.99Z</time></trkpt><trkpt lat="37.0857918" lon="15.2735578"><ele>65.0</ele><time>2026-04-06T14:05:27.983Z</time></trkpt><trkpt lat="37.0857194" lon="15.2736211"><ele>65.0</ele><time>2026-04-06T14:05:29.013Z</time></trkpt><trkpt lat="37.0856379" lon="15.2736653"><ele>65.0</ele><time>2026-04-06T14:05:30.01Z</time></trkpt><trkpt lat="37.0855394" lon="15.2737233"><ele>65.0</ele><time>2026-04-06T14:05:30.988Z</time></trkpt><trkpt lat="37.0854232" lon="15.2737869"><ele>65.0</ele><time>2026-04-06T14:05:31.984Z</time></trkpt><trkpt lat="37.0852934" lon="15.2738507"><ele>65.0</ele><time>2026-04-06T14:05:33.015Z</time></trkpt><trkpt lat="37.0851539" lon="15.273922"><ele>65.0</ele><time>2026-04-06T14:05:34.016Z</time></trkpt><trkpt lat="37.0850126" lon="15.2739963"><ele>65.0</ele><time>2026-04-06T14:05:34.986Z</time></trkpt><trkpt lat="37.0848671" lon="15.2740764"><ele>65.0</ele><time>2026-04-06T14:05:36.018Z</time></trkpt><trkpt lat="37.0847182" lon="15.2741557"><ele>65.0</ele><time>2026-04-06T14:05:36.985Z</time></trkpt><trkpt lat="37.0845675" lon="15.2742303"><ele>65.0</ele><time>2026-04-06T14:05:38.014Z</time></trkpt><trkpt lat="37.084417" lon="15.274303"><ele>65.0</ele><time>2026-04-06T14:05:39.013Z</time></trkpt><trkpt lat="37.0842646" lon="15.274374"><ele>65.0</ele><time>2026-04-06T14:05:40.013Z</time></trkpt><trkpt lat="37.0841119" lon="15.274444"><ele>65.0</ele><time>2026-04-06T14:05:41.014Z</time></trkpt><trkpt lat="37.0839586" lon="15.2745155"><ele>65.33333333333334</ele><time>2026-04-06T14:05:42.011Z</time></trkpt><trkpt lat="37.0838056" lon="15.2745903"><ele>65.66666666666667</ele><time>2026-04-06T14:05:43.017Z</time></trkpt><trkpt lat="37.0836569" lon="15.2746614"><ele>66.0</ele><time>2026-04-06T14:05:44.014Z</time></trkpt><trkpt lat="37.083513" lon="15.2747292"><ele>65.25</ele><time>2026-04-06T14:05:45.012Z</time></trkpt><trkpt lat="37.0833737" lon="15.2747931"><ele>64.5</ele><time>2026-04-06T14:05:46.034Z</time></trkpt><trkpt lat="37.0832393" lon="15.2748535"><ele>63.75</ele><time>2026-04-06T14:05:47.031Z</time></trkpt><trkpt lat="37.0831103" lon="15.274912"><ele>63.0</ele><time>2026-04-06T14:05:48.024Z</time></trkpt><trkpt lat="37.0829872" lon="15.2749698"><ele>63.0</ele><time>2026-04-06T14:05:48.986Z</time></trkpt><trkpt lat="37.082869" lon="15.2750271"><ele>63.0</ele><time>2026-04-06T14:05:50.018Z</time></trkpt><trkpt lat="37.0827575" lon="15.2750866"><ele>63.0</ele><time>2026-04-06T14:05:51.014Z</time></trkpt><trkpt lat="37.0826539" lon="15.2751504"><ele>63.0</ele><time>2026-04-06T14:05:52.019Z</time></trkpt><trkpt lat="37.0825524" lon="15.2752226"><ele>63.0</ele><time>2026-04-06T14:05:53.015Z</time></trkpt><trkpt lat="37.0824509" lon="15.2752992"><ele>63.0</ele><time>2026-04-06T14:05:54.013Z</time></trkpt><trkpt lat="37.0823459" lon="15.2753772"><ele>63.0</ele><time>2026-04-06T14:05:55.017Z</time></trkpt><trkpt lat="37.0822352" lon="15.2754533"><ele>63.0</ele><time>2026-04-06T14:05:56.013Z</time></trkpt><trkpt lat="37.082122" lon="15.2755287"><ele>63.0</ele><time>2026-04-06T14:05:56.999Z</time></trkpt><trkpt lat="37.0820068" lon="15.275602"><ele>63.0</ele><time>2026-04-06T14:05:57.987Z</time></trkpt><trkpt lat="37.0818896" lon="15.2756708"><ele>63.0</ele><time>2026-04-06T14:05:59.015Z</time></trkpt><trkpt lat="37.0817725" lon="15.2757402"><ele>63.0</ele><time>2026-04-06T14:06:00.012Z</time></trkpt><trkpt lat="37.0816621" lon="15.2758126"><ele>61.8</ele><time>2026-04-06T14:06:01.015Z</time></trkpt><trkpt lat="37.081554" lon="15.2758819"><ele>60.599999999999994</ele><time>2026-04-06T14:06:02.013Z</time></trkpt><trkpt lat="37.0814514" lon="15.2759526"><ele>59.400000000000006</ele><time>2026-04-06T14:06:03.013Z</time></trkpt><trkpt lat="37.0813598" lon="15.276024"><ele>58.2</ele><time>2026-04-06T14:06:03.976Z</time></trkpt><trkpt lat="37.0812757" lon="15.2760969"><ele>57.0</ele><time>2026-04-06T14:06:05.017Z</time></trkpt><trkpt lat="37.0811997" lon="15.2761659"><ele>57.0</ele><time>2026-04-06T14:06:06.014Z</time></trkpt><trkpt lat="37.0811282" lon="15.2762367"><ele>57.0</ele><time>2026-04-06T14:06:07.016Z</time></trkpt><trkpt lat="37.0810568" lon="15.276311"><ele>57.0</ele><time>2026-04-06T14:06:07.977Z</time></trkpt><trkpt lat="37.0809892" lon="15.2763984"><ele>57.0</ele><time>2026-04-06T14:06:09.014Z</time></trkpt><trkpt lat="37.0809262" lon="15.276498"><ele>57.0</ele><time>2026-04-06T14:06:10.011Z</time></trkpt><trkpt lat="37.0808611" lon="15.2765977"><ele>57.0</ele><time>2026-04-06T14:06:11.015Z</time></trkpt><trkpt lat="37.0807943" lon="15.2767009"><ele>57.0</ele><time>2026-04-06T14:06:12.013Z</time></trkpt><trkpt lat="37.0807275" lon="15.2768133"><ele>57.0</ele><time>2026-04-06T14:06:13.012Z</time></trkpt><trkpt lat="37.0806618" lon="15.276932"><ele>57.0</ele><time>2026-04-06T14:06:14.019Z</time></trkpt><trkpt lat="37.0805997" lon="15.2770608"><ele>56.0</ele><time>2026-04-06T14:06:15.02Z</time></trkpt><trkpt lat="37.0805375" lon="15.2771938"><ele>55.0</ele><time>2026-04-06T14:06:16.014Z</time></trkpt><trkpt lat="37.0804817" lon="15.2773396"><ele>54.0</ele><time>2026-04-06T14:06:16.977Z</time></trkpt><trkpt lat="37.080427" lon="15.2774934"><ele>53.0</ele><time>2026-04-06T14:06:18.018Z</time></trkpt><trkpt lat="37.0803681" lon="15.2776413"><ele>53.0</ele><time>2026-04-06T14:06:19.017Z</time></trkpt><trkpt lat="37.0803179" lon="15.2777915"><ele>53.0</ele><time>2026-04-06T14:06:20.013Z</time></trkpt><trkpt lat="37.0802654" lon="15.2779418"><ele>53.0</ele><time>2026-04-06T14:06:21.013Z</time></trkpt><trkpt lat="37.0802148" lon="15.278097"><ele>53.0</ele><time>2026-04-06T14:06:22.015Z</time></trkpt><trkpt lat="37.0801639" lon="15.2782516"><ele>53.0</ele><time>2026-04-06T14:06:22.985Z</time></trkpt><trkpt lat="37.0801125" lon="15.2784053"><ele>53.0</ele><time>2026-04-06T14:06:24.014Z</time></trkpt><trkpt lat="37.0800608" lon="15.2785573"><ele>53.0</ele><time>2026-04-06T14:06:25.021Z</time></trkpt><trkpt lat="37.0800103" lon="15.2787052"><ele>53.0</ele><time>2026-04-06T14:06:26.021Z</time></trkpt><trkpt lat="37.0799629" lon="15.2788511"><ele>52.4</ele><time>2026-04-06T14:06:27.018Z</time></trkpt><trkpt lat="37.0799205" lon="15.2789924"><ele>51.8</ele><time>2026-04-06T14:06:28.013Z</time></trkpt><trkpt lat="37.0798859" lon="15.2791268"><ele>51.2</ele><time>2026-04-06T14:06:29.028Z</time></trkpt><trkpt lat="37.079858" lon="15.2792505"><ele>50.6</ele><time>2026-04-06T14:06:30.016Z</time></trkpt><trkpt lat="37.079829" lon="15.2793642"><ele>50.0</ele><time>2026-04-06T14:06:31.015Z</time></trkpt><trkpt lat="37.0797994" lon="15.2794669"><ele>50.00000000000001</ele><time>2026-04-06T14:06:31.979Z</time></trkpt><trkpt lat="37.0797684" lon="15.2795452"><ele>50.0</ele><time>2026-04-06T14:06:33.014Z</time></trkpt><trkpt lat="37.079728" lon="15.2796077"><ele>50.0</ele><time>2026-04-06T14:06:33.978Z</time></trkpt><trkpt lat="37.0796693" lon="15.2796524"><ele>50.0</ele><time>2026-04-06T14:06:35.009Z</time></trkpt><trkpt lat="37.0795967" lon="15.2796892"><ele>50.00000000000001</ele><time>2026-04-06T14:06:36.008Z</time></trkpt><trkpt lat="37.0795102" lon="15.2797334"><ele>50.0</ele><time>2026-04-06T14:06:37.02Z</time></trkpt><trkpt lat="37.07941" lon="15.2797938"><ele>49.2</ele><time>2026-04-06T14:06:38.027Z</time></trkpt><trkpt lat="37.0793025" lon="15.2798563"><ele>48.4</ele><time>2026-04-06T14:06:39.011Z</time></trkpt><trkpt lat="37.0791997" lon="15.2799187"><ele>47.599999999999994</ele><time>2026-04-06T14:06:40.02Z</time></trkpt><trkpt lat="37.0791038" lon="15.2799763"><ele>46.8</ele><time>2026-04-06T14:06:41.018Z</time></trkpt><trkpt lat="37.0790217" lon="15.2800317"><ele>46.0</ele><time>2026-04-06T14:06:41.987Z</time></trkpt><trkpt lat="37.078948" lon="15.2800754"><ele>44.66666666666667</ele><time>2026-04-06T14:06:42.997Z</time></trkpt><trkpt lat="37.0788899" lon="15.2801236"><ele>43.333333333333336</ele><time>2026-04-06T14:06:44.013Z</time></trkpt><trkpt lat="37.0788438" lon="15.2801788"><ele>42.0</ele><time>2026-04-06T14:06:44.999Z</time></trkpt><trkpt lat="37.0788116" lon="15.2802512"><ele>40.666666666666664</ele><time>2026-04-06T14:06:46.007Z</time></trkpt><trkpt lat="37.0787881" lon="15.2803387"><ele>39.33333333333333</ele><time>2026-04-06T14:06:47.011Z</time></trkpt><trkpt lat="37.0787785" lon="15.2804453"><ele>38.0</ele><time>2026-04-06T14:06:48.016Z</time></trkpt><trkpt lat="37.0787738" lon="15.2805675"><ele>36.8</ele><time>2026-04-06T14:06:49.02Z</time></trkpt><trkpt lat="37.0787713" lon="15.2806876"><ele>35.599999999999994</ele><time>2026-04-06T14:06:50.018Z</time></trkpt><trkpt lat="37.0787662" lon="15.2808076"><ele>34.400000000000006</ele><time>2026-04-06T14:06:50.986Z</time></trkpt><trkpt lat="37.078759" lon="15.2809209"><ele>33.2</ele><time>2026-04-06T14:06:52.013Z</time></trkpt><trkpt lat="37.0787512" lon="15.2810303"><ele>32.0</ele><time>2026-04-06T14:06:53.017Z</time></trkpt><trkpt lat="37.0787445" lon="15.2811355"><ele>32.0</ele><time>2026-04-06T14:06:53.987Z</time></trkpt><trkpt lat="37.0787322" lon="15.2812287"><ele>32.0</ele><time>2026-04-06T14:06:55.012Z</time></trkpt><trkpt lat="37.0787118" lon="15.2813131"><ele>32.0</ele><time>2026-04-06T14:06:56.025Z</time></trkpt><trkpt lat="37.0786425" lon="15.2814359"><ele>32.0</ele><time>2026-04-06T14:06:58.02Z</time></trkpt><trkpt lat="37.0785431" lon="15.2815228"><ele>32.0</ele><time>2026-04-06T14:07:00.014Z</time></trkpt><trkpt lat="37.0784187" lon="15.2815274"><ele>31.857142857142854</ele><time>2026-04-06T14:07:02.016Z</time></trkpt><trkpt lat="37.0783483" lon="15.2815247"><ele>31.71428571428571</ele><time>2026-04-06T14:07:03.018Z</time></trkpt><trkpt lat="37.07828" lon="15.281517"><ele>31.57142857142857</ele><time>2026-04-06T14:07:04.013Z</time></trkpt><trkpt lat="37.0782173" lon="15.2814968"><ele>31.42857142857143</ele><time>2026-04-06T14:07:05.01Z</time></trkpt><trkpt lat="37.0781529" lon="15.281474"><ele>31.28571428571429</ele><time>2026-04-06T14:07:05.998Z</time></trkpt><trkpt lat="37.0780845" lon="15.2814701"><ele>31.142857142857146</ele><time>2026-04-06T14:07:07.019Z</time></trkpt><trkpt lat="37.0780191" lon="15.28149"><ele>31.0</ele><time>2026-04-06T14:07:07.976Z</time></trkpt><trkpt lat="37.0779445" lon="15.2815119"><ele>30.4</ele><time>2026-04-06T14:07:09.014Z</time></trkpt><trkpt lat="37.0778591" lon="15.2815254"><ele>29.8</ele><time>2026-04-06T14:07:09.976Z</time></trkpt><trkpt lat="37.0777647" lon="15.2815275"><ele>29.199999999999996</ele><time>2026-04-06T14:07:10.986Z</time></trkpt><trkpt lat="37.0776638" lon="15.2815261"><ele>28.599999999999998</ele><time>2026-04-06T14:07:12.013Z</time></trkpt><trkpt lat="37.0775603" lon="15.2815271"><ele>28.0</ele><time>2026-04-06T14:07:13.021Z</time></trkpt><trkpt lat="37.077452" lon="15.281528"><ele>28.0</ele><time>2026-04-06T14:07:13.984Z</time></trkpt><trkpt lat="37.0773389" lon="15.2815282"><ele>28.0</ele><time>2026-04-06T14:07:14.977Z</time></trkpt><trkpt lat="37.0772225" lon="15.2815314"><ele>28.0</ele><time>2026-04-06T14:07:16.021Z</time></trkpt><trkpt lat="37.0771048" lon="15.2815373"><ele>28.0</ele><time>2026-04-06T14:07:17.014Z</time></trkpt><trkpt lat="37.0769859" lon="15.2815456"><ele>28.0</ele><time>2026-04-06T14:07:18.014Z</time></trkpt><trkpt lat="37.0768711" lon="15.2815458"><ele>28.0</ele><time>2026-04-06T14:07:19.012Z</time></trkpt><trkpt lat="37.0767581" lon="15.2815478"><ele>28.0</ele><time>2026-04-06T14:07:20.013Z</time></trkpt><trkpt lat="37.0766463" lon="15.2815498"><ele>28.0</ele><time>2026-04-06T14:07:21.013Z</time></trkpt><trkpt lat="37.0765336" lon="15.2815491"><ele>29.0</ele><time>2026-04-06T14:07:22.013Z</time></trkpt><trkpt lat="37.076417" lon="15.2815484"><ele>30.0</ele><time>2026-04-06T14:07:22.986Z</time></trkpt><trkpt lat="37.0762996" lon="15.2815472"><ele>31.0</ele><time>2026-04-06T14:07:24.012Z</time></trkpt><trkpt lat="37.0761833" lon="15.2815464"><ele>32.0</ele><time>2026-04-06T14:07:25.016Z</time></trkpt><trkpt lat="37.076075" lon="15.2815487"><ele>32.0</ele><time>2026-04-06T14:07:25.981Z</time></trkpt><trkpt lat="37.0759749" lon="15.2815506"><ele>32.0</ele><time>2026-04-06T14:07:27.014Z</time></trkpt><trkpt lat="37.0758808" lon="15.2815528"><ele>32.0</ele><time>2026-04-06T14:07:28.014Z</time></trkpt><trkpt lat="37.0757945" lon="15.2815499"><ele>32.0</ele><time>2026-04-06T14:07:29.016Z</time></trkpt><trkpt lat="37.0757101" lon="15.2815479"><ele>32.0</ele><time>2026-04-06T14:07:30.013Z</time></trkpt><trkpt lat="37.0756199" lon="15.2815457"><ele>31.6</ele><time>2026-04-06T14:07:31.012Z</time></trkpt><trkpt lat="37.0755223" lon="15.2815435"><ele>31.200000000000003</ele><time>2026-04-06T14:07:32.015Z</time></trkpt><trkpt lat="37.075415" lon="15.2815458"><ele>30.8</ele><time>2026-04-06T14:07:33.015Z</time></trkpt><trkpt lat="37.0753024" lon="15.2815528"><ele>30.4</ele><time>2026-04-06T14:07:34.031Z</time></trkpt><trkpt lat="37.0751887" lon="15.2815584"><ele>30.0</ele><time>2026-04-06T14:07:35.029Z</time></trkpt><trkpt lat="37.0750792" lon="15.2815612"><ele>30.0</ele><time>2026-04-06T14:07:36.026Z</time></trkpt><trkpt lat="37.0749785" lon="15.2815537"><ele>30.0</ele><time>2026-04-06T14:07:37.029Z</time></trkpt><trkpt lat="37.0748805" lon="15.2815471"><ele>30.0</ele><time>2026-04-06T14:07:38.001Z</time></trkpt><trkpt lat="37.0747829" lon="15.2815449"><ele>30.0</ele><time>2026-04-06T14:07:38.997Z</time></trkpt><trkpt lat="37.0746899" lon="15.2815435"><ele>30.0</ele><time>2026-04-06T14:07:39.982Z</time></trkpt><trkpt lat="37.0745986" lon="15.2815428"><ele>28.5</ele><time>2026-04-06T14:07:41.013Z</time></trkpt><trkpt lat="37.0745067" lon="15.2815392"><ele>27.0</ele><time>2026-04-06T14:07:42.025Z</time></trkpt><trkpt lat="37.0744171" lon="15.2815347"><ele>25.5</ele><time>2026-04-06T14:07:43.012Z</time></trkpt><trkpt lat="37.0743311" lon="15.2815302"><ele>24.0</ele><time>2026-04-06T14:07:44.015Z</time></trkpt><trkpt lat="37.0742473" lon="15.2815262"><ele>22.5</ele><time>2026-04-06T14:07:45.024Z</time></trkpt><trkpt lat="37.0741682" lon="15.2815213"><ele>21.0</ele><time>2026-04-06T14:07:46.013Z</time></trkpt><trkpt lat="37.0740945" lon="15.2815173"><ele>20.666666666666668</ele><time>2026-04-06T14:07:46.982Z</time></trkpt><trkpt lat="37.0740222" lon="15.2815184"><ele>20.333333333333332</ele><time>2026-04-06T14:07:48.015Z</time></trkpt><trkpt lat="37.073955" lon="15.2815274"><ele>20.0</ele><time>2026-04-06T14:07:49.013Z</time></trkpt><trkpt lat="37.0738449" lon="15.2815726"><ele>19.666666666666664</ele><time>2026-04-06T14:07:51.012Z</time></trkpt><trkpt lat="37.0737519" lon="15.2816661"><ele>19.333333333333332</ele><time>2026-04-06T14:07:53.003Z</time></trkpt><trkpt lat="37.0736999" lon="15.2817198"><ele>19.0</ele><time>2026-04-06T14:07:54.012Z</time></trkpt><trkpt lat="37.0736412" lon="15.2817792"><ele>19.0</ele><time>2026-04-06T14:07:55.018Z</time></trkpt><trkpt lat="37.0735785" lon="15.281844"><ele>19.0</ele><time>2026-04-06T14:07:56.012Z</time></trkpt><trkpt lat="37.0735076" lon="15.2818989"><ele>19.0</ele><time>2026-04-06T14:07:56.983Z</time></trkpt><trkpt lat="37.0734341" lon="15.2819442"><ele>19.0</ele><time>2026-04-06T14:07:57.978Z</time></trkpt><trkpt lat="37.0733569" lon="15.2819873"><ele>19.0</ele><time>2026-04-06T14:07:59.013Z</time></trkpt><trkpt lat="37.0732875" lon="15.2820286"><ele>19.0</ele><time>2026-04-06T14:08:00.012Z</time></trkpt><trkpt lat="37.0732262" lon="15.2820663"><ele>19.0</ele><time>2026-04-06T14:08:01.013Z</time></trkpt><trkpt lat="37.0731335" lon="15.2821278"><ele>19.0</ele><time>2026-04-06T14:08:03.014Z</time></trkpt><trkpt lat="37.0730843" lon="15.282193"><ele>19.0</ele><time>2026-04-06T14:08:05.012Z</time></trkpt><trkpt lat="37.0730715" lon="15.2822861"><ele>19.0</ele><time>2026-04-06T14:08:07.012Z</time></trkpt><trkpt lat="37.0730824" lon="15.2824395"><ele>19.0</ele><time>2026-04-06T14:08:08.979Z</time></trkpt><trkpt lat="37.0730899" lon="15.282531"><ele>19.0</ele><time>2026-04-06T14:08:09.978Z</time></trkpt><trkpt lat="37.0730954" lon="15.2826268"><ele>19.0</ele><time>2026-04-06T14:08:10.977Z</time></trkpt><trkpt lat="37.0730972" lon="15.282722"><ele>19.0</ele><time>2026-04-06T14:08:12.013Z</time></trkpt><trkpt lat="37.0731018" lon="15.2828107"><ele>19.0</ele><time>2026-04-06T14:08:12.977Z</time></trkpt><trkpt lat="37.0731087" lon="15.2828924"><ele>19.0</ele><time>2026-04-06T14:08:13.983Z</time></trkpt><trkpt lat="37.0731155" lon="15.2829711"><ele>19.0</ele><time>2026-04-06T14:08:15.012Z</time></trkpt><trkpt lat="37.0731243" lon="15.2830528"><ele>19.0</ele><time>2026-04-06T14:08:16.012Z</time></trkpt><trkpt lat="37.0731346" lon="15.2831403"><ele>19.0</ele><time>2026-04-06T14:08:17.012Z</time></trkpt><trkpt lat="37.0731424" lon="15.2832369"><ele>19.0</ele><time>2026-04-06T14:08:18.009Z</time></trkpt><trkpt lat="37.0731497" lon="15.2833426"><ele>19.0</ele><time>2026-04-06T14:08:19.014Z</time></trkpt><trkpt lat="37.0731608" lon="15.2834506"><ele>19.0</ele><time>2026-04-06T14:08:19.98Z</time></trkpt><trkpt lat="37.0731732" lon="15.2835552"><ele>19.0</ele><time>2026-04-06T14:08:21.002Z</time></trkpt><trkpt lat="37.0731816" lon="15.2836503"><ele>19.0</ele><time>2026-04-06T14:08:22.026Z</time></trkpt><trkpt lat="37.0731934" lon="15.2837438"><ele>19.0</ele><time>2026-04-06T14:08:23.01Z</time></trkpt><trkpt lat="37.0731979" lon="15.2838277"><ele>18.8</ele><time>2026-04-06T14:08:24.013Z</time></trkpt><trkpt lat="37.0731961" lon="15.2839724"><ele>18.599999999999998</ele><time>2026-04-06T14:08:26.015Z</time></trkpt><trkpt lat="37.0732059" lon="15.2841159"><ele>18.4</ele><time>2026-04-06T14:08:28.014Z</time></trkpt><trkpt lat="37.0732216" lon="15.284227"><ele>18.2</ele><time>2026-04-06T14:08:29.986Z</time></trkpt><trkpt lat="37.0732614" lon="15.2843415"><ele>18.0</ele><time>2026-04-06T14:08:32.016Z</time></trkpt><trkpt lat="37.0732897" lon="15.284436"><ele>18.0</ele><time>2026-04-06T14:08:33.004Z</time></trkpt><trkpt lat="37.0733152" lon="15.2845423"><ele>18.0</ele><time>2026-04-06T14:08:33.977Z</time></trkpt><trkpt lat="37.0733399" lon="15.2846496"><ele>18.0</ele><time>2026-04-06T14:08:34.979Z</time></trkpt><trkpt lat="37.0733621" lon="15.2847589"><ele>18.0</ele><time>2026-04-06T14:08:35.984Z</time></trkpt><trkpt lat="37.0733844" lon="15.2848569"><ele>18.0</ele><time>2026-04-06T14:08:37.001Z</time></trkpt><trkpt lat="37.0734065" lon="15.284938"><ele>18.0</ele><time>2026-04-06T14:08:37.983Z</time></trkpt><trkpt lat="37.07344" lon="15.2850645"><ele>17.28571428571429</ele><time>2026-04-06T14:08:39.977Z</time></trkpt><trkpt lat="37.0734579" lon="15.2851547"><ele>16.571428571428573</ele><time>2026-04-06T14:08:41.978Z</time></trkpt><trkpt lat="37.0734425" lon="15.2852328"><ele>15.857142857142858</ele><time>2026-04-06T14:08:46.016Z</time></trkpt><trkpt lat="37.0733842" lon="15.2852671"><ele>15.142857142857144</ele><time>2026-04-06T14:10:45.977Z</time></trkpt><trkpt lat="37.0734159" lon="15.2851897"><ele>14.42857142857143</ele><time>2026-04-06T14:12:22.008Z</time></trkpt><trkpt lat="37.073483" lon="15.2851814"><ele>13.714285714285714</ele><time>2026-04-06T14:12:28.995Z</time></trkpt><trkpt lat="37.0735484" lon="15.2851872"><ele>13.0</ele><time>2026-04-06T14:12:34.972Z</time></trkpt><trkpt lat="37.0736123" lon="15.2851482"><ele>13.0</ele><time>2026-04-06T14:12:41.972Z</time></trkpt><trkpt lat="37.0736753" lon="15.2851925"><ele>13.0</ele><time>2026-04-06T14:12:49.973Z</time></trkpt><trkpt lat="37.0737062" lon="15.2852653"><ele>13.0</ele><time>2026-04-06T14:12:54.975Z</time></trkpt><trkpt lat="37.0737448" lon="15.285194"><ele>13.0</ele><time>2026-04-06T14:13:13.975Z</time></trkpt><trkpt lat="37.0737937" lon="15.2851361"><ele>13.0</ele><time>2026-04-06T14:13:18.976Z</time></trkpt><trkpt lat="37.0738571" lon="15.285085"><ele>13.0</ele><time>2026-04-06T14:13:23.975Z</time></trkpt><trkpt lat="37.0739241" lon="15.2850573"><ele>13.0</ele><time>2026-04-06T14:13:28.975Z</time></trkpt><trkpt lat="37.0739923" lon="15.2850363"><ele>13.0</ele><time>2026-04-06T14:13:34.943Z</time></trkpt><trkpt lat="37.0740687" lon="15.2850217"><ele>13.0</ele><time>2026-04-06T14:13:51.964Z</time></trkpt><trkpt lat="37.0741353" lon="15.2850353"><ele>13.0</ele><time>2026-04-06T14:14:02.903Z</time></trkpt><trkpt lat="37.0742031" lon="15.2850324"><ele>13.0</ele><time>2026-04-06T14:14:18.976Z</time></trkpt><trkpt lat="37.0742669" lon="15.2850555"><ele>13.0</ele><time>2026-04-06T14:14:27.979Z</time></trkpt><trkpt lat="37.0742712" lon="15.2851428"><ele>13.0</ele><time>2026-04-06T14:14:34.976Z</time></trkpt><trkpt lat="37.0742968" lon="15.2852317"><ele>13.0</ele><time>2026-04-06T14:14:40.976Z</time></trkpt><trkpt lat="37.0743508" lon="15.2852818"><ele>13.333333333333332</ele><time>2026-04-06T14:14:44.974Z</time></trkpt><trkpt lat="37.0743586" lon="15.285363"><ele>13.666666666666666</ele><time>2026-04-06T14:14:57.974Z</time></trkpt><trkpt lat="37.0744186" lon="15.2854124"><ele>14.0</ele><time>2026-04-06T14:15:07.974Z</time></trkpt><trkpt lat="37.0744821" lon="15.285419"><ele>14.333333333333332</ele><time>2026-04-06T14:15:13.972Z</time></trkpt><trkpt lat="37.0745547" lon="15.2854392"><ele>14.666666666666666</ele><time>2026-04-06T14:15:26.957Z</time></trkpt><trkpt lat="37.0745971" lon="15.2853701"><ele>15.0</ele><time>2026-04-06T14:16:47.961Z</time></trkpt><trkpt lat="37.0744385" lon="15.2851884"><ele>15.0</ele><time>2026-04-06T14:16:48.955Z</time></trkpt><trkpt lat="37.0744939" lon="15.2852421"><ele>15.0</ele><time>2026-04-06T14:16:58.957Z</time></trkpt><trkpt lat="37.0745357" lon="15.2853044"><ele>15.0</ele><time>2026-04-06T14:17:03.965Z</time></trkpt><trkpt lat="37.0746096" lon="15.2853269"><ele>15.0</ele><time>2026-04-06T14:17:06.95Z</time></trkpt><trkpt lat="37.0746802" lon="15.2853475"><ele>15.0</ele><time>2026-04-06T14:17:09.951Z</time></trkpt><trkpt lat="37.0747459" lon="15.2853794"><ele>15.0</ele><time>2026-04-06T14:17:14.966Z</time></trkpt><trkpt lat="37.0747478" lon="15.2854591"><ele>15.0</ele><time>2026-04-06T14:17:21.953Z</time></trkpt><trkpt lat="37.0746214" lon="15.2855141"><ele>15.0</ele><time>2026-04-06T14:17:22.946Z</time></trkpt><trkpt lat="37.0745601" lon="15.2855383"><ele>15.0</ele><time>2026-04-06T14:17:25.953Z</time></trkpt><trkpt lat="37.074504" lon="15.2856045"><ele>15.0</ele><time>2026-04-06T14:17:31.952Z</time></trkpt><trkpt lat="37.0745009" lon="15.285694"><ele>15.0</ele><time>2026-04-06T14:17:35.954Z</time></trkpt><trkpt lat="37.0745345" lon="15.2857707"><ele>15.0</ele><time>2026-04-06T14:17:39.954Z</time></trkpt><trkpt lat="37.074586" lon="15.2855843"><ele>15.0</ele><time>2026-04-06T14:19:47.953Z</time></trkpt><trkpt lat="37.0745744" lon="15.2855053"><ele>15.0</ele><time>2026-04-06T14:20:14.969Z</time></trkpt><trkpt lat="37.0746307" lon="15.2854238"><ele>15.0</ele><time>2026-04-06T14:20:22.95Z</time></trkpt><trkpt lat="37.0745787" lon="15.2853793"><ele>15.0</ele><time>2026-04-06T14:20:34.967Z</time></trkpt><trkpt lat="37.0745077" lon="15.2854013"><ele>15.0</ele><time>2026-04-06T14:20:39.953Z</time></trkpt><trkpt lat="37.0744315" lon="15.2853963"><ele>15.0</ele><time>2026-04-06T14:20:43.955Z</time></trkpt><trkpt lat="37.0743611" lon="15.2853651"><ele>15.0</ele><time>2026-04-06T14:20:46.954Z</time></trkpt><trkpt lat="37.0744446" lon="15.285409"><ele>15.0</ele><time>2026-04-06T14:21:03.952Z</time></trkpt><trkpt lat="37.0744262" lon="15.2855558"><ele>15.0</ele><time>2026-04-06T14:21:14.948Z</time></trkpt><trkpt lat="37.074347" lon="15.2857551"><ele>15.0</ele><time>2026-04-06T14:21:15.947Z</time></trkpt><trkpt lat="37.0743958" lon="15.2858203"><ele>15.0</ele><time>2026-04-06T14:21:20.949Z</time></trkpt><trkpt lat="37.0743131" lon="15.2858632"><ele>15.2</ele><time>2026-04-06T14:21:22.953Z</time></trkpt><trkpt lat="37.0743021" lon="15.285944"><ele>15.4</ele><time>2026-04-06T14:21:25.95Z</time></trkpt><trkpt lat="37.0743357" lon="15.2860337"><ele>15.600000000000001</ele><time>2026-04-06T14:21:27.955Z</time></trkpt><trkpt lat="37.0744005" lon="15.2859727"><ele>15.8</ele><time>2026-04-06T14:21:30.949Z</time></trkpt><trkpt lat="37.0743915" lon="15.2858257"><ele>16.0</ele><time>2026-04-06T14:21:31.967Z</time></trkpt><trkpt lat="37.0744079" lon="15.2856246"><ele>15.8</ele><time>2026-04-06T14:21:33.949Z</time></trkpt><trkpt lat="37.0744024" lon="15.2855426"><ele>15.600000000000001</ele><time>2026-04-06T14:21:36.959Z</time></trkpt><trkpt lat="37.0743942" lon="15.2854574"><ele>15.4</ele><time>2026-04-06T14:21:38.959Z</time></trkpt><trkpt lat="37.0743593" lon="15.2853586"><ele>15.2</ele><time>2026-04-06T14:21:41.959Z</time></trkpt><trkpt lat="37.0744083" lon="15.2852191"><ele>15.0</ele><time>2026-04-06T14:21:43.957Z</time></trkpt><trkpt lat="37.07439" lon="15.285565"><ele>15.0</ele><time>2026-04-06T14:21:46.926Z</time></trkpt><trkpt lat="37.0744636" lon="15.2855355"><ele>15.0</ele><time>2026-04-06T14:22:02.903Z</time></trkpt><trkpt lat="37.0745431" lon="15.2855313"><ele>15.0</ele><time>2026-04-06T14:22:09.968Z</time></trkpt><trkpt lat="37.0746068" lon="15.2855436"><ele>15.0</ele><time>2026-04-06T14:22:17.958Z</time></trkpt><trkpt lat="37.0746859" lon="15.285578"><ele>15.0</ele><time>2026-04-06T14:22:24.968Z</time></trkpt><trkpt lat="37.0747441" lon="15.2855383"><ele>15.0</ele><time>2026-04-06T14:22:44.956Z</time></trkpt><trkpt lat="37.0747906" lon="15.2854811"><ele>15.0</ele><time>2026-04-06T14:22:52.956Z</time></trkpt><trkpt lat="37.0748253" lon="15.2854143"><ele>15.0</ele><time>2026-04-06T14:23:02.903Z</time></trkpt><trkpt lat="37.0748927" lon="15.2854259"><ele>15.0</ele><time>2026-04-06T14:23:10.945Z</time></trkpt><trkpt lat="37.0749565" lon="15.2854324"><ele>15.0</ele><time>2026-04-06T14:23:16.954Z</time></trkpt><trkpt lat="37.0750185" lon="15.2853936"><ele>15.0</ele><time>2026-04-06T14:23:21.97Z</time></trkpt><trkpt lat="37.0750866" lon="15.2853946"><ele>15.0</ele><time>2026-04-06T14:23:28.958Z</time></trkpt><trkpt lat="37.0749422" lon="15.2853677"><ele>15.0</ele><time>2026-04-06T14:23:49.968Z</time></trkpt><trkpt lat="37.0748794" lon="15.2853735"><ele>15.0</ele><time>2026-04-06T14:23:51.973Z</time></trkpt><trkpt lat="37.0748994" lon="15.2854588"><ele>15.0</ele><time>2026-04-06T14:24:22.951Z</time></trkpt><trkpt lat="37.0749672" lon="15.2854979"><ele>15.0</ele><time>2026-04-06T14:24:27.967Z</time></trkpt><trkpt lat="37.0749307" lon="15.2855631"><ele>15.0</ele><time>2026-04-06T14:24:35.954Z</time></trkpt><trkpt lat="37.074963" lon="15.2856314"><ele>15.0</ele><time>2026-04-06T14:24:47.954Z</time></trkpt><trkpt lat="37.0749069" lon="15.2855894"><ele>15.0</ele><time>2026-04-06T14:25:24.843Z</time></trkpt><trkpt lat="37.0748609" lon="15.2855344"><ele>15.0</ele><time>2026-04-06T14:25:32.965Z</time></trkpt><trkpt lat="37.0748233" lon="15.285467"><ele>15.0</ele><time>2026-04-06T14:25:41.962Z</time></trkpt><trkpt lat="37.0747842" lon="15.285397"><ele>15.0</ele><time>2026-04-06T14:25:51.971Z</time></trkpt><trkpt lat="37.074734" lon="15.2853418"><ele>15.0</ele><time>2026-04-06T14:26:00.964Z</time></trkpt><trkpt lat="37.0746848" lon="15.2852753"><ele>15.0</ele><time>2026-04-06T14:26:08.967Z</time></trkpt><trkpt lat="37.074649" lon="15.285203"><ele>15.0</ele><time>2026-04-06T14:26:16.956Z</time></trkpt><trkpt lat="37.0745596" lon="15.2853613"><ele>15.0</ele><time>2026-04-06T14:26:25.972Z</time></trkpt><trkpt lat="37.0745351" lon="15.2854391"><ele>15.0</ele><time>2026-04-06T14:26:26.976Z</time></trkpt><trkpt lat="37.0744701" lon="15.2854253"><ele>15.0</ele><time>2026-04-06T14:26:34.97Z</time></trkpt><trkpt lat="37.0744157" lon="15.2853593"><ele>15.0</ele><time>2026-04-06T14:26:39.971Z</time></trkpt><trkpt lat="37.0743665" lon="15.2852692"><ele>15.0</ele><time>2026-04-06T14:26:45.663Z</time></trkpt><trkpt lat="37.0743451" lon="15.2851921"><ele>15.0</ele><time>2026-04-06T14:26:50.923Z</time></trkpt><trkpt lat="37.0743692" lon="15.2851149"><ele>15.0</ele><time>2026-04-06T14:27:03.997Z</time></trkpt><trkpt lat="37.0743119" lon="15.2850661"><ele>15.0</ele><time>2026-04-06T14:27:08.969Z</time></trkpt><trkpt lat="37.0742405" lon="15.2850676"><ele>15.0</ele><time>2026-04-06T14:27:12.963Z</time></trkpt><trkpt lat="37.0742997" lon="15.2850309"><ele>15.0</ele><time>2026-04-06T14:27:14.97Z</time></trkpt><trkpt lat="37.0742359" lon="15.2850414"><ele>15.0</ele><time>2026-04-06T14:28:10.98Z</time></trkpt><trkpt lat="37.0741661" lon="15.2850176"><ele>15.0</ele><time>2026-04-06T14:28:16.973Z</time></trkpt><trkpt lat="37.0741007" lon="15.2850124"><ele>15.0</ele><time>2026-04-06T14:28:22.975Z</time></trkpt><trkpt lat="37.0740363" lon="15.2850279"><ele>15.0</ele><time>2026-04-06T14:28:29.973Z</time></trkpt><trkpt lat="37.0739687" lon="15.2850348"><ele>15.0</ele><time>2026-04-06T14:28:36.983Z</time></trkpt><trkpt lat="37.0739006" lon="15.2850513"><ele>14.714285714285715</ele><time>2026-04-06T14:28:43.977Z</time></trkpt><trkpt lat="37.0738341" lon="15.2850845"><ele>14.428571428571427</ele><time>2026-04-06T14:28:52.971Z</time></trkpt><trkpt lat="37.0737649" lon="15.2851081"><ele>14.142857142857142</ele><time>2026-04-06T14:28:59.985Z</time></trkpt><trkpt lat="37.0737021" lon="15.2851169"><ele>13.857142857142858</ele><time>2026-04-06T14:29:05.978Z</time></trkpt><trkpt lat="37.0736375" lon="15.2851447"><ele>13.571428571428573</ele><time>2026-04-06T14:29:12.984Z</time></trkpt><trkpt lat="37.0735758" lon="15.2851726"><ele>13.285714285714285</ele><time>2026-04-06T14:29:16.986Z</time></trkpt><trkpt lat="37.0735125" lon="15.2851916"><ele>13.0</ele><time>2026-04-06T14:29:22.97Z</time></trkpt><trkpt lat="37.0734469" lon="15.2852029"><ele>12.999999999999998</ele><time>2026-04-06T14:29:28.982Z</time></trkpt><trkpt lat="37.0733791" lon="15.2852221"><ele>13.0</ele><time>2026-04-06T14:29:35.988Z</time></trkpt><trkpt lat="37.0733114" lon="15.2852315"><ele>13.0</ele><time>2026-04-06T14:29:42.983Z</time></trkpt><trkpt lat="37.0733823" lon="15.2853034"><ele>13.0</ele><time>2026-04-06T14:34:29.971Z</time></trkpt><trkpt lat="37.0733189" lon="15.2852287"><ele>12.999999999999998</ele><time>2026-04-06T14:37:27.976Z</time></trkpt><trkpt lat="37.0732591" lon="15.2852739"><ele>13.0</ele><time>2026-04-06T14:37:31.968Z</time></trkpt><trkpt lat="37.0731664" lon="15.285329"><ele>13.8</ele><time>2026-04-06T14:37:33.967Z</time></trkpt><trkpt lat="37.0730562" lon="15.2853771"><ele>14.600000000000001</ele><time>2026-04-06T14:37:35.966Z</time></trkpt><trkpt lat="37.0729406" lon="15.285423"><ele>15.399999999999999</ele><time>2026-04-06T14:37:37.965Z</time></trkpt><trkpt lat="37.0728398" lon="15.2854543"><ele>16.2</ele><time>2026-04-06T14:37:39.965Z</time></trkpt><trkpt lat="37.0727441" lon="15.2854651"><ele>17.0</ele><time>2026-04-06T14:37:42.965Z</time></trkpt><trkpt lat="37.0726865" lon="15.2855435"><ele>17.0</ele><time>2026-04-06T14:37:45.965Z</time></trkpt><trkpt lat="37.0726655" lon="15.285676"><ele>17.0</ele><time>2026-04-06T14:37:47.977Z</time></trkpt><trkpt lat="37.0726624" lon="15.2857668"><ele>17.0</ele><time>2026-04-06T14:37:48.968Z</time></trkpt><trkpt lat="37.0726687" lon="15.2858549"><ele>17.0</ele><time>2026-04-06T14:37:49.967Z</time></trkpt><trkpt lat="37.072683" lon="15.2859413"><ele>17.0</ele><time>2026-04-06T14:37:50.968Z</time></trkpt><trkpt lat="37.0727079" lon="15.286025"><ele>17.0</ele><time>2026-04-06T14:37:51.967Z</time></trkpt><trkpt lat="37.0727371" lon="15.2861051"><ele>17.0</ele><time>2026-04-06T14:37:52.97Z</time></trkpt><trkpt lat="37.0727675" lon="15.2861804"><ele>17.0</ele><time>2026-04-06T14:37:53.965Z</time></trkpt><trkpt lat="37.0727958" lon="15.2862523"><ele>17.0</ele><time>2026-04-06T14:37:54.968Z</time></trkpt><trkpt lat="37.0728208" lon="15.2863759"><ele>17.0</ele><time>2026-04-06T14:37:56.967Z</time></trkpt><trkpt lat="37.0728062" lon="15.2864806"><ele>17.0</ele><time>2026-04-06T14:37:58.968Z</time></trkpt><trkpt lat="37.0727285" lon="15.2865861"><ele>17.0</ele><time>2026-04-06T14:38:00.967Z</time></trkpt><trkpt lat="37.072671" lon="15.2866723"><ele>16.333333333333336</ele><time>2026-04-06T14:38:01.98Z</time></trkpt><trkpt lat="37.0726132" lon="15.286762"><ele>15.666666666666668</ele><time>2026-04-06T14:38:02.972Z</time></trkpt><trkpt lat="37.072569" lon="15.2868598"><ele>15.0</ele><time>2026-04-06T14:38:03.964Z</time></trkpt><trkpt lat="37.0725302" lon="15.2869431"><ele>14.333333333333332</ele><time>2026-04-06T14:38:04.963Z</time></trkpt><trkpt lat="37.0724704" lon="15.2870528"><ele>13.666666666666666</ele><time>2026-04-06T14:38:06.965Z</time></trkpt><trkpt lat="37.072416" lon="15.2871131"><ele>13.0</ele><time>2026-04-06T14:38:08.989Z</time></trkpt><trkpt lat="37.0723423" lon="15.2871592"><ele>12.8</ele><time>2026-04-06T14:38:10.969Z</time></trkpt><trkpt lat="37.0722141" lon="15.2872009"><ele>12.600000000000001</ele><time>2026-04-06T14:38:12.964Z</time></trkpt><trkpt lat="37.0721315" lon="15.2872203"><ele>12.399999999999999</ele><time>2026-04-06T14:38:13.983Z</time></trkpt><trkpt lat="37.0720412" lon="15.2872395"><ele>12.2</ele><time>2026-04-06T14:38:14.965Z</time></trkpt><trkpt lat="37.0719516" lon="15.2872542"><ele>12.0</ele><time>2026-04-06T14:38:15.965Z</time></trkpt><trkpt lat="37.0718706" lon="15.2872603"><ele>11.833333333333334</ele><time>2026-04-06T14:38:16.967Z</time></trkpt><trkpt lat="37.0717879" lon="15.2872721"><ele>11.666666666666666</ele><time>2026-04-06T14:38:17.965Z</time></trkpt><trkpt lat="37.071704" lon="15.287286"><ele>11.5</ele><time>2026-04-06T14:38:18.975Z</time></trkpt><trkpt lat="37.071621" lon="15.2873006"><ele>11.333333333333332</ele><time>2026-04-06T14:38:19.966Z</time></trkpt><trkpt lat="37.071537" lon="15.2873186"><ele>11.166666666666666</ele><time>2026-04-06T14:38:20.996Z</time></trkpt><trkpt lat="37.0714495" lon="15.287332"><ele>11.0</ele><time>2026-04-06T14:38:21.964Z</time></trkpt><trkpt lat="37.0713654" lon="15.2873473"><ele>10.666666666666666</ele><time>2026-04-06T14:38:22.966Z</time></trkpt><trkpt lat="37.0712825" lon="15.2873638"><ele>10.333333333333332</ele><time>2026-04-06T14:38:23.967Z</time></trkpt><trkpt lat="37.0711997" lon="15.2873791"><ele>10.0</ele><time>2026-04-06T14:38:24.963Z</time></trkpt><trkpt lat="37.0711215" lon="15.2873966"><ele>9.666666666666666</ele><time>2026-04-06T14:38:25.989Z</time></trkpt><trkpt lat="37.0710443" lon="15.2874119"><ele>9.333333333333334</ele><time>2026-04-06T14:38:26.964Z</time></trkpt><trkpt lat="37.0709706" lon="15.2874259"><ele>9.0</ele><time>2026-04-06T14:38:27.968Z</time></trkpt><trkpt lat="37.0709003" lon="15.2874427"><ele>9.0</ele><time>2026-04-06T14:38:28.965Z</time></trkpt><trkpt lat="37.070832" lon="15.2874594"><ele>9.0</ele><time>2026-04-06T14:38:29.966Z</time></trkpt><trkpt lat="37.0707685" lon="15.2874768"><ele>9.0</ele><time>2026-04-06T14:38:30.961Z</time></trkpt><trkpt lat="37.0706979" lon="15.2874943"><ele>9.0</ele><time>2026-04-06T14:38:31.982Z</time></trkpt><trkpt lat="37.0706096" lon="15.287514"><ele>9.0</ele><time>2026-04-06T14:38:32.965Z</time></trkpt><trkpt lat="37.0705109" lon="15.287535"><ele>9.0</ele><time>2026-04-06T14:38:33.974Z</time></trkpt><trkpt lat="37.0704219" lon="15.287559"><ele>8.833333333333334</ele><time>2026-04-06T14:38:34.969Z</time></trkpt><trkpt lat="37.0703397" lon="15.2875721"><ele>8.666666666666666</ele><time>2026-04-06T14:38:35.963Z</time></trkpt><trkpt lat="37.0702767" lon="15.2875758"><ele>8.5</ele><time>2026-04-06T14:38:36.985Z</time></trkpt><trkpt lat="37.0702032" lon="15.2875176"><ele>8.333333333333332</ele><time>2026-04-06T14:38:38.985Z</time></trkpt><trkpt lat="37.070178" lon="15.2874112"><ele>8.166666666666666</ele><time>2026-04-06T14:38:40.968Z</time></trkpt><trkpt lat="37.0701596" lon="15.2873158"><ele>8.0</ele><time>2026-04-06T14:38:41.959Z</time></trkpt><trkpt lat="37.0701255" lon="15.2872149"><ele>7.800000000000001</ele><time>2026-04-06T14:38:42.964Z</time></trkpt><trkpt lat="37.0700812" lon="15.2871128"><ele>7.6000000000000005</ele><time>2026-04-06T14:38:44.966Z</time></trkpt><trkpt lat="37.0700147" lon="15.2869768"><ele>7.3999999999999995</ele><time>2026-04-06T14:38:47.985Z</time></trkpt><trkpt lat="37.0699789" lon="15.2868702"><ele>7.199999999999999</ele><time>2026-04-06T14:38:48.966Z</time></trkpt><trkpt lat="37.0699436" lon="15.2867627"><ele>7.0</ele><time>2026-04-06T14:38:49.968Z</time></trkpt><trkpt lat="37.0699177" lon="15.2866763"><ele>7.0</ele><time>2026-04-06T14:38:50.971Z</time></trkpt><trkpt lat="37.0698993" lon="15.2865673"><ele>6.999999999999999</ele><time>2026-04-06T14:38:52.962Z</time></trkpt><trkpt lat="37.0698026" lon="15.286572"><ele>6.999999999999999</ele><time>2026-04-06T14:38:55.977Z</time></trkpt><trkpt lat="37.0697318" lon="15.2866242"><ele>7.0</ele><time>2026-04-06T14:38:56.965Z</time></trkpt><trkpt lat="37.0696219" lon="15.2866867"><ele>7.0</ele><time>2026-04-06T14:38:57.964Z</time></trkpt><trkpt lat="37.069504" lon="15.2867391"><ele>7.0</ele><time>2026-04-06T14:38:58.963Z</time></trkpt><trkpt lat="37.0694003" lon="15.2867889"><ele>6.999999999999999</ele><time>2026-04-06T14:38:59.985Z</time></trkpt><trkpt lat="37.0693208" lon="15.2868391"><ele>6.999999999999999</ele><time>2026-04-06T14:39:00.963Z</time></trkpt><trkpt lat="37.0692447" lon="15.2868745"><ele>7.0</ele><time>2026-04-06T14:39:01.963Z</time></trkpt><trkpt lat="37.0691231" lon="15.2869091"><ele>7.0</ele><time>2026-04-06T14:39:03.981Z</time></trkpt><trkpt lat="37.069057" lon="15.2869298"><ele>7.000000000000001</ele><time>2026-04-06T14:39:04.965Z</time></trkpt><trkpt lat="37.0689791" lon="15.2869626"><ele>7.0</ele><time>2026-04-06T14:39:05.963Z</time></trkpt><trkpt lat="37.0688907" lon="15.2870006"><ele>7.0</ele><time>2026-04-06T14:39:06.963Z</time></trkpt><trkpt lat="37.0688042" lon="15.2870274"><ele>7.0</ele><time>2026-04-06T14:39:07.964Z</time></trkpt><trkpt lat="37.0687253" lon="15.2870595"><ele>7.000000000000001</ele><time>2026-04-06T14:39:08.962Z</time></trkpt><trkpt lat="37.0686528" lon="15.2870894"><ele>7.0</ele><time>2026-04-06T14:39:09.964Z</time></trkpt><trkpt lat="37.0685907" lon="15.2871142"><ele>7.000000000000001</ele><time>2026-04-06T14:39:10.968Z</time></trkpt><trkpt lat="37.0685097" lon="15.2871554"><ele>7.0</ele><time>2026-04-06T14:39:12.967Z</time></trkpt><trkpt lat="37.0685135" lon="15.2872661"><ele>7.0</ele><time>2026-04-06T14:39:17.969Z</time></trkpt><trkpt lat="37.0685477" lon="15.2873634"><ele>7.0</ele><time>2026-04-06T14:39:19.967Z</time></trkpt><trkpt lat="37.0685814" lon="15.2874341"><ele>7.000000000000001</ele><time>2026-04-06T14:39:20.987Z</time></trkpt><trkpt lat="37.0686102" lon="15.2875639"><ele>7.0</ele><time>2026-04-06T14:39:22.968Z</time></trkpt><trkpt lat="37.0685967" lon="15.2876559"><ele>6.8</ele><time>2026-04-06T14:39:24.969Z</time></trkpt><trkpt lat="37.0685331" lon="15.2876961"><ele>6.6</ele><time>2026-04-06T14:39:26.985Z</time></trkpt><trkpt lat="37.0684378" lon="15.2877009"><ele>6.3999999999999995</ele><time>2026-04-06T14:39:28.967Z</time></trkpt><trkpt lat="37.0683189" lon="15.2877095"><ele>6.199999999999999</ele><time>2026-04-06T14:39:30.967Z</time></trkpt><trkpt lat="37.0682209" lon="15.2876758"><ele>6.0</ele><time>2026-04-06T14:39:32.966Z</time></trkpt><trkpt lat="37.068149" lon="15.2875367"><ele>6.199999999999999</ele><time>2026-04-06T14:39:34.967Z</time></trkpt><trkpt lat="37.0681071" lon="15.287429"><ele>6.3999999999999995</ele><time>2026-04-06T14:39:35.987Z</time></trkpt><trkpt lat="37.0680595" lon="15.2873049"><ele>6.6</ele><time>2026-04-06T14:39:36.965Z</time></trkpt><trkpt lat="37.0680075" lon="15.2871723"><ele>6.8</ele><time>2026-04-06T14:39:37.966Z</time></trkpt><trkpt lat="37.0679568" lon="15.2870481"><ele>7.0</ele><time>2026-04-06T14:39:38.984Z</time></trkpt><trkpt lat="37.067913" lon="15.2869402"><ele>7.0</ele><time>2026-04-06T14:39:39.963Z</time></trkpt><trkpt lat="37.0678682" lon="15.2868332"><ele>6.999999999999999</ele><time>2026-04-06T14:39:40.993Z</time></trkpt><trkpt lat="37.0678247" lon="15.286726"><ele>6.999999999999999</ele><time>2026-04-06T14:39:41.963Z</time></trkpt><trkpt lat="37.0677824" lon="15.2866157"><ele>7.0</ele><time>2026-04-06T14:39:42.966Z</time></trkpt><trkpt lat="37.06774" lon="15.2865094"><ele>7.0</ele><time>2026-04-06T14:39:43.983Z</time></trkpt><trkpt lat="37.0677002" lon="15.2864124"><ele>7.500000000000001</ele><time>2026-04-06T14:39:44.965Z</time></trkpt><trkpt lat="37.067664" lon="15.2863216"><ele>8.0</ele><time>2026-04-06T14:39:45.966Z</time></trkpt><trkpt lat="37.0676311" lon="15.2862444"><ele>8.5</ele><time>2026-04-06T14:39:46.974Z</time></trkpt><trkpt lat="37.0675703" lon="15.2861082"><ele>9.0</ele><time>2026-04-06T14:39:48.984Z</time></trkpt><trkpt lat="37.0675383" lon="15.2860385"><ele>9.5</ele><time>2026-04-06T14:39:49.967Z</time></trkpt><trkpt lat="37.0675064" lon="15.2859639"><ele>10.0</ele><time>2026-04-06T14:39:50.989Z</time></trkpt><trkpt lat="37.06748" lon="15.2858806"><ele>10.0</ele><time>2026-04-06T14:39:51.966Z</time></trkpt><trkpt lat="37.0674613" lon="15.285788"><ele>10.0</ele><time>2026-04-06T14:39:52.982Z</time></trkpt><trkpt lat="37.0674576" lon="15.2856969"><ele>10.0</ele><time>2026-04-06T14:39:53.968Z</time></trkpt><trkpt lat="37.0674672" lon="15.2856106"><ele>10.0</ele><time>2026-04-06T14:39:54.99Z</time></trkpt><trkpt lat="37.0674945" lon="15.2855356"><ele>10.0</ele><time>2026-04-06T14:39:55.967Z</time></trkpt><trkpt lat="37.0675365" lon="15.2854665"><ele>10.0</ele><time>2026-04-06T14:39:56.968Z</time></trkpt><trkpt lat="37.0675936" lon="15.2853972"><ele>10.0</ele><time>2026-04-06T14:39:57.972Z</time></trkpt><trkpt lat="37.067662" lon="15.2853375"><ele>10.0</ele><time>2026-04-06T14:39:58.967Z</time></trkpt><trkpt lat="37.0677354" lon="15.2852757"><ele>10.0</ele><time>2026-04-06T14:39:59.966Z</time></trkpt><trkpt lat="37.0678148" lon="15.2852124"><ele>10.0</ele><time>2026-04-06T14:40:00.967Z</time></trkpt><trkpt lat="37.0678931" lon="15.285164"><ele>10.0</ele><time>2026-04-06T14:40:01.965Z</time></trkpt><trkpt lat="37.0679641" lon="15.2851115"><ele>10.0</ele><time>2026-04-06T14:40:02.982Z</time></trkpt><trkpt lat="37.0680241" lon="15.2850658"><ele>10.0</ele><time>2026-04-06T14:40:03.968Z</time></trkpt><trkpt lat="37.0681013" lon="15.2849649"><ele>10.0</ele><time>2026-04-06T14:40:05.969Z</time></trkpt><trkpt lat="37.068106" lon="15.2848681"><ele>10.0</ele><time>2026-04-06T14:40:07.977Z</time></trkpt><trkpt lat="37.0680439" lon="15.2848127"><ele>10.0</ele><time>2026-04-06T14:40:09.967Z</time></trkpt><trkpt lat="37.0679248" lon="15.2847724"><ele>10.0</ele><time>2026-04-06T14:40:11.958Z</time></trkpt><trkpt lat="37.0678472" lon="15.2847418"><ele>10.0</ele><time>2026-04-06T14:40:12.968Z</time></trkpt><trkpt lat="37.0677648" lon="15.2846982"><ele>10.0</ele><time>2026-04-06T14:40:13.97Z</time></trkpt><trkpt lat="37.067686" lon="15.2846584"><ele>10.2</ele><time>2026-04-06T14:40:14.969Z</time></trkpt><trkpt lat="37.0676038" lon="15.2846137"><ele>10.4</ele><time>2026-04-06T14:40:15.968Z</time></trkpt><trkpt lat="37.0675165" lon="15.2845654"><ele>10.600000000000001</ele><time>2026-04-06T14:40:16.967Z</time></trkpt><trkpt lat="37.067426" lon="15.2845131"><ele>10.8</ele><time>2026-04-06T14:40:17.967Z</time></trkpt><trkpt lat="37.0673381" lon="15.2844613"><ele>11.0</ele><time>2026-04-06T14:40:18.967Z</time></trkpt><trkpt lat="37.0672607" lon="15.2844154"><ele>11.0</ele><time>2026-04-06T14:40:19.964Z</time></trkpt><trkpt lat="37.0671954" lon="15.2843702"><ele>11.0</ele><time>2026-04-06T14:40:20.969Z</time></trkpt><trkpt lat="37.0671387" lon="15.2843222"><ele>11.0</ele><time>2026-04-06T14:40:21.966Z</time></trkpt><trkpt lat="37.0670324" lon="15.2842544"><ele>11.0</ele><time>2026-04-06T14:40:23.965Z</time></trkpt><trkpt lat="37.0669294" lon="15.2842106"><ele>11.0</ele><time>2026-04-06T14:40:25.968Z</time></trkpt><trkpt lat="37.0668508" lon="15.2841771"><ele>11.0</ele><time>2026-04-06T14:40:27.967Z</time></trkpt><trkpt lat="37.0667815" lon="15.2841113"><ele>11.0</ele><time>2026-04-06T14:40:30.966Z</time></trkpt><trkpt lat="37.0667781" lon="15.2840268"><ele>11.0</ele><time>2026-04-06T14:40:32.966Z</time></trkpt><trkpt lat="37.066756" lon="15.2839256"><ele>11.0</ele><time>2026-04-06T14:40:34.968Z</time></trkpt><trkpt lat="37.0667176" lon="15.2838467"><ele>11.0</ele><time>2026-04-06T14:40:36.966Z</time></trkpt><trkpt lat="37.066653" lon="15.2837866"><ele>11.0</ele><time>2026-04-06T14:40:38.986Z</time></trkpt><trkpt lat="37.0665758" lon="15.2836878"><ele>10.600000000000001</ele><time>2026-04-06T14:40:40.969Z</time></trkpt><trkpt lat="37.0665238" lon="15.2835784"><ele>10.200000000000001</ele><time>2026-04-06T14:40:42.968Z</time></trkpt><trkpt lat="37.066529" lon="15.283476"><ele>9.8</ele><time>2026-04-06T14:40:44.967Z</time></trkpt><trkpt lat="37.0665654" lon="15.2833516"><ele>9.4</ele><time>2026-04-06T14:40:46.969Z</time></trkpt><trkpt lat="37.0665779" lon="15.2832007"><ele>9.0</ele><time>2026-04-06T14:40:48.967Z</time></trkpt><trkpt lat="37.0665833" lon="15.2831171"><ele>9.166666666666666</ele><time>2026-04-06T14:40:49.968Z</time></trkpt><trkpt lat="37.0665897" lon="15.2830311"><ele>9.333333333333334</ele><time>2026-04-06T14:40:50.97Z</time></trkpt><trkpt lat="37.066596" lon="15.2829491"><ele>9.5</ele><time>2026-04-06T14:40:51.968Z</time></trkpt><trkpt lat="37.0666085" lon="15.2828131"><ele>9.666666666666668</ele><time>2026-04-06T14:40:53.985Z</time></trkpt><trkpt lat="37.066621" lon="15.2826838"><ele>9.833333333333334</ele><time>2026-04-06T14:40:56.968Z</time></trkpt><trkpt lat="37.0666294" lon="15.2825578"><ele>10.0</ele><time>2026-04-06T14:40:59.969Z</time></trkpt><trkpt lat="37.0666537" lon="15.2823993"><ele>10.0</ele><time>2026-04-06T14:41:01.967Z</time></trkpt><trkpt lat="37.0666667" lon="15.2823106"><ele>10.0</ele><time>2026-04-06T14:41:02.969Z</time></trkpt><trkpt lat="37.0666747" lon="15.2822109"><ele>10.0</ele><time>2026-04-06T14:41:03.97Z</time></trkpt><trkpt lat="37.066683" lon="15.2821135"><ele>10.0</ele><time>2026-04-06T14:41:04.971Z</time></trkpt><trkpt lat="37.0666927" lon="15.2820211"><ele>10.0</ele><time>2026-04-06T14:41:05.954Z</time></trkpt><trkpt lat="37.0667026" lon="15.2819292"><ele>10.0</ele><time>2026-04-06T14:41:06.967Z</time></trkpt><trkpt lat="37.0667136" lon="15.2818417"><ele>10.0</ele><time>2026-04-06T14:41:07.967Z</time></trkpt><trkpt lat="37.0667243" lon="15.2817533"><ele>9.666666666666668</ele><time>2026-04-06T14:41:08.969Z</time></trkpt><trkpt lat="37.0667363" lon="15.2816606"><ele>9.333333333333334</ele><time>2026-04-06T14:41:09.968Z</time></trkpt><trkpt lat="37.0667475" lon="15.2815674"><ele>9.0</ele><time>2026-04-06T14:41:10.972Z</time></trkpt><trkpt lat="37.066759" lon="15.2814743"><ele>8.666666666666666</ele><time>2026-04-06T14:41:11.988Z</time></trkpt><trkpt lat="37.0667723" lon="15.2813817"><ele>8.333333333333332</ele><time>2026-04-06T14:41:12.969Z</time></trkpt><trkpt lat="37.0667856" lon="15.2812872"><ele>8.0</ele><time>2026-04-06T14:41:13.975Z</time></trkpt><trkpt lat="37.0667988" lon="15.2811927"><ele>7.666666666666666</ele><time>2026-04-06T14:41:14.971Z</time></trkpt><trkpt lat="37.0668128" lon="15.2810965"><ele>7.333333333333333</ele><time>2026-04-06T14:41:15.966Z</time></trkpt><trkpt lat="37.066824" lon="15.2810006"><ele>7.0</ele><time>2026-04-06T14:41:16.969Z</time></trkpt><trkpt lat="37.0668346" lon="15.280905"><ele>6.666666666666666</ele><time>2026-04-06T14:41:17.969Z</time></trkpt><trkpt lat="37.0668472" lon="15.280811"><ele>6.333333333333333</ele><time>2026-04-06T14:41:18.97Z</time></trkpt><trkpt lat="37.0668617" lon="15.2807132"><ele>6.0</ele><time>2026-04-06T14:41:19.971Z</time></trkpt><trkpt lat="37.066874" lon="15.2806086"><ele>5.3999999999999995</ele><time>2026-04-06T14:41:20.979Z</time></trkpt><trkpt lat="37.0668877" lon="15.2804992"><ele>4.8</ele><time>2026-04-06T14:41:21.97Z</time></trkpt><trkpt lat="37.0669033" lon="15.2803852"><ele>4.199999999999999</ele><time>2026-04-06T14:41:22.969Z</time></trkpt><trkpt lat="37.0669194" lon="15.2802661"><ele>3.5999999999999996</ele><time>2026-04-06T14:41:23.969Z</time></trkpt><trkpt lat="37.0669344" lon="15.2801475"><ele>3.0</ele><time>2026-04-06T14:41:24.968Z</time></trkpt><trkpt lat="37.0669497" lon="15.2800301"><ele>3.0</ele><time>2026-04-06T14:41:25.975Z</time></trkpt><trkpt lat="37.066966" lon="15.2799154"><ele>3.0</ele><time>2026-04-06T14:41:26.969Z</time></trkpt><trkpt lat="37.0669802" lon="15.2798023"><ele>3.0</ele><time>2026-04-06T14:41:27.97Z</time></trkpt><trkpt lat="37.0669938" lon="15.2796907"><ele>3.0</ele><time>2026-04-06T14:41:28.97Z</time></trkpt><trkpt lat="37.0670068" lon="15.2795772"><ele>3.0</ele><time>2026-04-06T14:41:29.97Z</time></trkpt><trkpt lat="37.0670218" lon="15.2794598"><ele>3.4</ele><time>2026-04-06T14:41:30.997Z</time></trkpt><trkpt lat="37.0670382" lon="15.2793396"><ele>3.8</ele><time>2026-04-06T14:41:31.971Z</time></trkpt><trkpt lat="37.0670541" lon="15.2792137"><ele>4.2</ele><time>2026-04-06T14:41:33.006Z</time></trkpt><trkpt lat="37.0670677" lon="15.2790931"><ele>4.6</ele><time>2026-04-06T14:41:33.971Z</time></trkpt><trkpt lat="37.0670812" lon="15.2789776"><ele>5.0</ele><time>2026-04-06T14:41:34.974Z</time></trkpt><trkpt lat="37.0670962" lon="15.2788691"><ele>5.142857142857142</ele><time>2026-04-06T14:41:36Z</time></trkpt><trkpt lat="37.0671113" lon="15.2787661"><ele>5.285714285714286</ele><time>2026-04-06T14:41:36.971Z</time></trkpt><trkpt lat="37.067119" lon="15.2786661"><ele>5.428571428571429</ele><time>2026-04-06T14:41:37.97Z</time></trkpt><trkpt lat="37.0671145" lon="15.2785725"><ele>5.571428571428571</ele><time>2026-04-06T14:41:38.975Z</time></trkpt><trkpt lat="37.0670936" lon="15.2784969"><ele>5.714285714285714</ele><time>2026-04-06T14:41:39.97Z</time></trkpt><trkpt lat="37.0670546" lon="15.2784337"><ele>5.857142857142857</ele><time>2026-04-06T14:41:40.975Z</time></trkpt><trkpt lat="37.0670093" lon="15.2783675"><ele>6.0</ele><time>2026-04-06T14:41:41.967Z</time></trkpt><trkpt lat="37.066961" lon="15.2782841"><ele>6.0</ele><time>2026-04-06T14:41:42.97Z</time></trkpt><trkpt lat="37.0668977" lon="15.2781743"><ele>6.0</ele><time>2026-04-06T14:41:43.994Z</time></trkpt><trkpt lat="37.0668268" lon="15.2780531"><ele>6.0</ele><time>2026-04-06T14:41:44.973Z</time></trkpt><trkpt lat="37.0667568" lon="15.2779279"><ele>6.0</ele><time>2026-04-06T14:41:45.973Z</time></trkpt><trkpt lat="37.0666947" lon="15.2778109"><ele>5.833333333333333</ele><time>2026-04-06T14:41:46.972Z</time></trkpt><trkpt lat="37.0666377" lon="15.2777017"><ele>5.666666666666667</ele><time>2026-04-06T14:41:47.973Z</time></trkpt><trkpt lat="37.0665833" lon="15.2776043"><ele>5.5</ele><time>2026-04-06T14:41:48.971Z</time></trkpt><trkpt lat="37.0665328" lon="15.2775165"><ele>5.333333333333334</ele><time>2026-04-06T14:41:49.978Z</time></trkpt><trkpt lat="37.0664825" lon="15.2774311"><ele>5.166666666666667</ele><time>2026-04-06T14:41:51.002Z</time></trkpt><trkpt lat="37.0664378" lon="15.2773492"><ele>5.0</ele><time>2026-04-06T14:41:51.974Z</time></trkpt><trkpt lat="37.0663956" lon="15.2772708"><ele>5.4</ele><time>2026-04-06T14:41:52.974Z</time></trkpt><trkpt lat="37.0663508" lon="15.2771863"><ele>5.8</ele><time>2026-04-06T14:41:53.973Z</time></trkpt><trkpt lat="37.066296" lon="15.2770898"><ele>6.199999999999999</ele><time>2026-04-06T14:41:54.972Z</time></trkpt><trkpt lat="37.0662351" lon="15.2769808"><ele>6.6</ele><time>2026-04-06T14:41:55.971Z</time></trkpt><trkpt lat="37.066173" lon="15.2768657"><ele>7.0</ele><time>2026-04-06T14:41:56.992Z</time></trkpt><trkpt lat="37.0661151" lon="15.2767555"><ele>7.0</ele><time>2026-04-06T14:41:57.972Z</time></trkpt><trkpt lat="37.066057" lon="15.2766471"><ele>6.999999999999999</ele><time>2026-04-06T14:41:58.973Z</time></trkpt><trkpt lat="37.0659992" lon="15.2765387"><ele>6.999999999999999</ele><time>2026-04-06T14:41:59.972Z</time></trkpt><trkpt lat="37.0659402" lon="15.2764252"><ele>7.0</ele><time>2026-04-06T14:42:01.007Z</time></trkpt><trkpt lat="37.06588" lon="15.27631"><ele>7.0</ele><time>2026-04-06T14:42:01.972Z</time></trkpt><trkpt lat="37.0658178" lon="15.2761911"><ele>6.5</ele><time>2026-04-06T14:42:02.971Z</time></trkpt><trkpt lat="37.0657545" lon="15.2760742"><ele>6.0</ele><time>2026-04-06T14:42:03.969Z</time></trkpt><trkpt lat="37.0656904" lon="15.2759589"><ele>5.5</ele><time>2026-04-06T14:42:04.98Z</time></trkpt><trkpt lat="37.0656247" lon="15.2758395"><ele>5.0</ele><time>2026-04-06T14:42:05.97Z</time></trkpt><trkpt lat="37.0655541" lon="15.2757072"><ele>4.6</ele><time>2026-04-06T14:42:06.994Z</time></trkpt><trkpt lat="37.0654894" lon="15.2755769"><ele>4.2</ele><time>2026-04-06T14:42:07.97Z</time></trkpt><trkpt lat="37.0654304" lon="15.2754514"><ele>3.8</ele><time>2026-04-06T14:42:08.971Z</time></trkpt><trkpt lat="37.0653766" lon="15.2753387"><ele>3.4</ele><time>2026-04-06T14:42:09.971Z</time></trkpt><trkpt lat="37.0653267" lon="15.2752386"><ele>3.0</ele><time>2026-04-06T14:42:10.976Z</time></trkpt><trkpt lat="37.0652723" lon="15.2751589"><ele>3.0</ele><time>2026-04-06T14:42:11.976Z</time></trkpt><trkpt lat="37.0652114" lon="15.2751007"><ele>3.0</ele><time>2026-04-06T14:42:12.973Z</time></trkpt><trkpt lat="37.0651359" lon="15.2750522"><ele>3.0</ele><time>2026-04-06T14:42:13.972Z</time></trkpt><trkpt lat="37.0650455" lon="15.2750055"><ele>3.0</ele><time>2026-04-06T14:42:14.97Z</time></trkpt><trkpt lat="37.0649472" lon="15.274962"><ele>3.0</ele><time>2026-04-06T14:42:15.972Z</time></trkpt><trkpt lat="37.0648376" lon="15.2749163"><ele>3.0</ele><time>2026-04-06T14:42:16.976Z</time></trkpt><trkpt lat="37.0647269" lon="15.2748666"><ele>3.0</ele><time>2026-04-06T14:42:17.972Z</time></trkpt><trkpt lat="37.0646182" lon="15.2748153"><ele>3.0</ele><time>2026-04-06T14:42:18.974Z</time></trkpt><trkpt lat="37.0645159" lon="15.2747678"><ele>3.0</ele><time>2026-04-06T14:42:19.972Z</time></trkpt><trkpt lat="37.0644236" lon="15.2747221"><ele>3.0</ele><time>2026-04-06T14:42:20.976Z</time></trkpt><trkpt lat="37.0643378" lon="15.2746827"><ele>3.0</ele><time>2026-04-06T14:42:21.973Z</time></trkpt><trkpt lat="37.0642559" lon="15.2746495"><ele>3.0</ele><time>2026-04-06T14:42:22.975Z</time></trkpt><trkpt lat="37.0641777" lon="15.2746203"><ele>3.0</ele><time>2026-04-06T14:42:23.976Z</time></trkpt><trkpt lat="37.0641005" lon="15.2745896"><ele>3.0</ele><time>2026-04-06T14:42:24.974Z</time></trkpt><trkpt lat="37.064024" lon="15.2745553"><ele>3.0</ele><time>2026-04-06T14:42:25.972Z</time></trkpt><trkpt lat="37.0639537" lon="15.2745137"><ele>3.0</ele><time>2026-04-06T14:42:26.972Z</time></trkpt><trkpt lat="37.0638871" lon="15.2744665"><ele>3.1666666666666665</ele><time>2026-04-06T14:42:27.975Z</time></trkpt><trkpt lat="37.0638225" lon="15.2744153"><ele>3.333333333333333</ele><time>2026-04-06T14:42:28.972Z</time></trkpt><trkpt lat="37.0637602" lon="15.2743621"><ele>3.5</ele><time>2026-04-06T14:42:29.972Z</time></trkpt><trkpt lat="37.0637003" lon="15.2743068"><ele>3.6666666666666665</ele><time>2026-04-06T14:42:30.973Z</time></trkpt><trkpt lat="37.06365" lon="15.2742502"><ele>3.833333333333333</ele><time>2026-04-06T14:42:31.974Z</time></trkpt><trkpt lat="37.0635809" lon="15.2741302"><ele>4.0</ele><time>2026-04-06T14:42:33.972Z</time></trkpt><trkpt lat="37.0635533" lon="15.2740559"><ele>4.0</ele><time>2026-04-06T14:42:34.97Z</time></trkpt><trkpt lat="37.0634753" lon="15.2739438"><ele>4.0</ele><time>2026-04-06T14:42:36.992Z</time></trkpt><trkpt lat="37.0634061" lon="15.2739051"><ele>4.0</ele><time>2026-04-06T14:42:37.971Z</time></trkpt><trkpt lat="37.0633209" lon="15.2738652"><ele>4.0</ele><time>2026-04-06T14:42:38.972Z</time></trkpt><trkpt lat="37.063229" lon="15.273822"><ele>4.0</ele><time>2026-04-06T14:42:39.972Z</time></trkpt><trkpt lat="37.0631345" lon="15.2737711"><ele>3.8000000000000003</ele><time>2026-04-06T14:42:40.995Z</time></trkpt><trkpt lat="37.0630428" lon="15.273708"><ele>3.6000000000000005</ele><time>2026-04-06T14:42:41.976Z</time></trkpt><trkpt lat="37.0629523" lon="15.2736325"><ele>3.4</ele><time>2026-04-06T14:42:42.973Z</time></trkpt><trkpt lat="37.0628618" lon="15.2735502"><ele>3.2</ele><time>2026-04-06T14:42:43.972Z</time></trkpt><trkpt lat="37.0627702" lon="15.2734689"><ele>3.0</ele><time>2026-04-06T14:42:44.973Z</time></trkpt><trkpt lat="37.0626847" lon="15.273396"><ele>3.0</ele><time>2026-04-06T14:42:45.971Z</time></trkpt><trkpt lat="37.0626075" lon="15.2733265"><ele>3.0</ele><time>2026-04-06T14:42:47.008Z</time></trkpt><trkpt lat="37.0625387" lon="15.2732637"><ele>3.0</ele><time>2026-04-06T14:42:47.972Z</time></trkpt><trkpt lat="37.062473" lon="15.273205"><ele>3.0</ele><time>2026-04-06T14:42:48.972Z</time></trkpt><trkpt lat="37.0624063" lon="15.2731484"><ele>3.0</ele><time>2026-04-06T14:42:49.973Z</time></trkpt><trkpt lat="37.0623352" lon="15.2730892"><ele>3.0</ele><time>2026-04-06T14:42:51.014Z</time></trkpt><trkpt lat="37.0622625" lon="15.273029"><ele>3.0</ele><time>2026-04-06T14:42:51.975Z</time></trkpt><trkpt lat="37.0621831" lon="15.2729631"><ele>3.0</ele><time>2026-04-06T14:42:52.974Z</time></trkpt><trkpt lat="37.0621003" lon="15.2728951"><ele>3.0</ele><time>2026-04-06T14:42:53.972Z</time></trkpt><trkpt lat="37.0620144" lon="15.2728204"><ele>3.0</ele><time>2026-04-06T14:42:54.974Z</time></trkpt><trkpt lat="37.0619263" lon="15.2727391"><ele>3.0</ele><time>2026-04-06T14:42:55.974Z</time></trkpt><trkpt lat="37.0618364" lon="15.2726569"><ele>3.0</ele><time>2026-04-06T14:42:56.973Z</time></trkpt><trkpt lat="37.0617443" lon="15.2725726"><ele>3.0</ele><time>2026-04-06T14:42:57.994Z</time></trkpt><trkpt lat="37.0616499" lon="15.2724905"><ele>3.0</ele><time>2026-04-06T14:42:58.971Z</time></trkpt><trkpt lat="37.0615555" lon="15.2724075"><ele>3.0</ele><time>2026-04-06T14:42:59.971Z</time></trkpt><trkpt lat="37.0614651" lon="15.2723251"><ele>3.0</ele><time>2026-04-06T14:43:00.974Z</time></trkpt><trkpt lat="37.0613777" lon="15.2722437"><ele>3.0</ele><time>2026-04-06T14:43:01.972Z</time></trkpt><trkpt lat="37.061289" lon="15.2721637"><ele>3.0</ele><time>2026-04-06T14:43:02.98Z</time></trkpt><trkpt lat="37.0611959" lon="15.2720811"><ele>3.0</ele><time>2026-04-06T14:43:03.971Z</time></trkpt><trkpt lat="37.0610973" lon="15.2719966"><ele>3.0</ele><time>2026-04-06T14:43:04.973Z</time></trkpt><trkpt lat="37.0609965" lon="15.2719112"><ele>3.0</ele><time>2026-04-06T14:43:05.973Z</time></trkpt><trkpt lat="37.0608942" lon="15.2718252"><ele>3.0</ele><time>2026-04-06T14:43:06.973Z</time></trkpt><trkpt lat="37.0607897" lon="15.271735"><ele>3.0</ele><time>2026-04-06T14:43:07.972Z</time></trkpt><trkpt lat="37.0606824" lon="15.2716411"><ele>3.25</ele><time>2026-04-06T14:43:09.019Z</time></trkpt><trkpt lat="37.0605774" lon="15.2715497"><ele>3.5</ele><time>2026-04-06T14:43:09.971Z</time></trkpt><trkpt lat="37.0604675" lon="15.2714544"><ele>3.75</ele><time>2026-04-06T14:43:10.974Z</time></trkpt><trkpt lat="37.0603578" lon="15.2713581"><ele>4.0</ele><time>2026-04-06T14:43:11.967Z</time></trkpt><trkpt lat="37.0602501" lon="15.271262"><ele>4.0</ele><time>2026-04-06T14:43:12.979Z</time></trkpt><trkpt lat="37.0601514" lon="15.271175"><ele>4.0</ele><time>2026-04-06T14:43:13.973Z</time></trkpt><trkpt lat="37.0600605" lon="15.2710968"><ele>4.0</ele><time>2026-04-06T14:43:14.972Z</time></trkpt><trkpt lat="37.0599779" lon="15.2710206"><ele>4.0</ele><time>2026-04-06T14:43:16.012Z</time></trkpt><trkpt lat="37.0599064" lon="15.2709524"><ele>4.0</ele><time>2026-04-06T14:43:16.973Z</time></trkpt><trkpt lat="37.0598359" lon="15.2708887"><ele>4.0</ele><time>2026-04-06T14:43:17.975Z</time></trkpt><trkpt lat="37.0597655" lon="15.2708284"><ele>4.0</ele><time>2026-04-06T14:43:18.993Z</time></trkpt><trkpt lat="37.0596932" lon="15.2707659"><ele>4.0</ele><time>2026-04-06T14:43:19.973Z</time></trkpt><trkpt lat="37.0596184" lon="15.2707002"><ele>4.0</ele><time>2026-04-06T14:43:20.976Z</time></trkpt><trkpt lat="37.0595443" lon="15.2706315"><ele>4.0</ele><time>2026-04-06T14:43:21.974Z</time></trkpt><trkpt lat="37.0594721" lon="15.2705551"><ele>4.0</ele><time>2026-04-06T14:43:22.975Z</time></trkpt><trkpt lat="37.0593987" lon="15.2704702"><ele>4.0</ele><time>2026-04-06T14:43:23.975Z</time></trkpt><trkpt lat="37.0593216" lon="15.2703756"><ele>4.0</ele><time>2026-04-06T14:43:24.992Z</time></trkpt><trkpt lat="37.0592412" lon="15.2702695"><ele>4.0</ele><time>2026-04-06T14:43:25.973Z</time></trkpt><trkpt lat="37.059155" lon="15.2701594"><ele>4.0</ele><time>2026-04-06T14:43:26.975Z</time></trkpt><trkpt lat="37.059066" lon="15.2700469"><ele>4.0</ele><time>2026-04-06T14:43:27.974Z</time></trkpt><trkpt lat="37.0589752" lon="15.2699299"><ele>4.0</ele><time>2026-04-06T14:43:28.972Z</time></trkpt><trkpt lat="37.0588804" lon="15.2698107"><ele>4.0</ele><time>2026-04-06T14:43:29.972Z</time></trkpt><trkpt lat="37.0587839" lon="15.26969"><ele>4.0</ele><time>2026-04-06T14:43:30.976Z</time></trkpt><trkpt lat="37.0586863" lon="15.2695636"><ele>3.75</ele><time>2026-04-06T14:43:32.015Z</time></trkpt><trkpt lat="37.058591" lon="15.2694409"><ele>3.5</ele><time>2026-04-06T14:43:32.976Z</time></trkpt><trkpt lat="37.0584938" lon="15.2693169"><ele>3.25</ele><time>2026-04-06T14:43:33.969Z</time></trkpt><trkpt lat="37.0583968" lon="15.269192"><ele>3.0</ele><time>2026-04-06T14:43:34.974Z</time></trkpt><trkpt lat="37.0583016" lon="15.2690652"><ele>3.25</ele><time>2026-04-06T14:43:35.972Z</time></trkpt><trkpt lat="37.0582045" lon="15.268936"><ele>3.5</ele><time>2026-04-06T14:43:36.994Z</time></trkpt><trkpt lat="37.0581071" lon="15.2688093"><ele>3.75</ele><time>2026-04-06T14:43:37.974Z</time></trkpt><trkpt lat="37.0580064" lon="15.2686831"><ele>4.0</ele><time>2026-04-06T14:43:38.978Z</time></trkpt><trkpt lat="37.0579076" lon="15.2685606"><ele>4.0</ele><time>2026-04-06T14:43:39.974Z</time></trkpt><trkpt lat="37.0578127" lon="15.2684437"><ele>4.0</ele><time>2026-04-06T14:43:40.975Z</time></trkpt><trkpt lat="37.0577195" lon="15.2683292"><ele>4.0</ele><time>2026-04-06T14:43:41.976Z</time></trkpt><trkpt lat="37.0576282" lon="15.2682146"><ele>4.0</ele><time>2026-04-06T14:43:42.981Z</time></trkpt><trkpt lat="37.0575401" lon="15.2681034"><ele>4.25</ele><time>2026-04-06T14:43:43.974Z</time></trkpt><trkpt lat="37.0574523" lon="15.2679925"><ele>4.5</ele><time>2026-04-06T14:43:44.974Z</time></trkpt><trkpt lat="37.0573629" lon="15.2678807"><ele>4.75</ele><time>2026-04-06T14:43:45.974Z</time></trkpt><trkpt lat="37.057272" lon="15.2677672"><ele>5.0</ele><time>2026-04-06T14:43:47.01Z</time></trkpt><trkpt lat="37.0571861" lon="15.2676577"><ele>4.25</ele><time>2026-04-06T14:43:47.976Z</time></trkpt><trkpt lat="37.0570997" lon="15.267551"><ele>3.5</ele><time>2026-04-06T14:43:48.974Z</time></trkpt><trkpt lat="37.0570121" lon="15.267448"><ele>2.75</ele><time>2026-04-06T14:43:49.975Z</time></trkpt><trkpt lat="37.0569238" lon="15.2673423"><ele>2.0</ele><time>2026-04-06T14:43:50.975Z</time></trkpt><trkpt lat="37.0568357" lon="15.2672335"><ele>2.0</ele><time>2026-04-06T14:43:51.973Z</time></trkpt><trkpt lat="37.0567466" lon="15.2671231"><ele>2.0</ele><time>2026-04-06T14:43:52.994Z</time></trkpt><trkpt lat="37.0566583" lon="15.2670142"><ele>2.0</ele><time>2026-04-06T14:43:53.976Z</time></trkpt><trkpt lat="37.0565693" lon="15.2669042"><ele>2.0</ele><time>2026-04-06T14:43:54.97Z</time></trkpt><trkpt lat="37.0564809" lon="15.2667944"><ele>2.0</ele><time>2026-04-06T14:43:55.959Z</time></trkpt><trkpt lat="37.0563921" lon="15.2666844"><ele>2.0</ele><time>2026-04-06T14:43:56.968Z</time></trkpt><trkpt lat="37.0563026" lon="15.2665765"><ele>2.0</ele><time>2026-04-06T14:43:57.98Z</time></trkpt><trkpt lat="37.0562121" lon="15.2664695"><ele>2.0</ele><time>2026-04-06T14:43:58.973Z</time></trkpt><trkpt lat="37.0561187" lon="15.2663628"><ele>2.0</ele><time>2026-04-06T14:43:59.974Z</time></trkpt><trkpt lat="37.0560205" lon="15.2662671"><ele>2.0</ele><time>2026-04-06T14:44:00.973Z</time></trkpt><trkpt lat="37.0559162" lon="15.2661867"><ele>2.0</ele><time>2026-04-06T14:44:01.975Z</time></trkpt><trkpt lat="37.0558047" lon="15.2661156"><ele>2.0</ele><time>2026-04-06T14:44:02.99Z</time></trkpt><trkpt lat="37.0556887" lon="15.26605"><ele>2.0</ele><time>2026-04-06T14:44:03.972Z</time></trkpt><trkpt lat="37.0555673" lon="15.2659806"><ele>2.0</ele><time>2026-04-06T14:44:04.975Z</time></trkpt><trkpt lat="37.0554447" lon="15.2659107"><ele>2.0</ele><time>2026-04-06T14:44:05.972Z</time></trkpt><trkpt lat="37.0553178" lon="15.2658395"><ele>2.0</ele><time>2026-04-06T14:44:06.971Z</time></trkpt><trkpt lat="37.0551892" lon="15.2657675"><ele>2.0</ele><time>2026-04-06T14:44:07.968Z</time></trkpt><trkpt lat="37.0550613" lon="15.2656975"><ele>2.0</ele><time>2026-04-06T14:44:08.973Z</time></trkpt><trkpt lat="37.0549399" lon="15.2656312"><ele>2.0</ele><time>2026-04-06T14:44:09.972Z</time></trkpt><trkpt lat="37.0548317" lon="15.2655673"><ele>2.0</ele><time>2026-04-06T14:44:10.979Z</time></trkpt><trkpt lat="37.0547243" lon="15.2655066"><ele>2.5</ele><time>2026-04-06T14:44:11.968Z</time></trkpt><trkpt lat="37.0546154" lon="15.2654478"><ele>3.0</ele><time>2026-04-06T14:44:12.972Z</time></trkpt><trkpt lat="37.0545037" lon="15.2653912"><ele>3.5</ele><time>2026-04-06T14:44:13.981Z</time></trkpt><trkpt lat="37.0543879" lon="15.2653383"><ele>4.0</ele><time>2026-04-06T14:44:14.974Z</time></trkpt><trkpt lat="37.0542651" lon="15.265296"><ele>4.0</ele><time>2026-04-06T14:44:16.007Z</time></trkpt><trkpt lat="37.0541414" lon="15.2652648"><ele>4.0</ele><time>2026-04-06T14:44:17.011Z</time></trkpt><trkpt lat="37.0540186" lon="15.2652391"><ele>4.0</ele><time>2026-04-06T14:44:18.011Z</time></trkpt><trkpt lat="37.0538982" lon="15.2652168"><ele>4.0</ele><time>2026-04-06T14:44:19.01Z</time></trkpt><trkpt lat="37.0537854" lon="15.2651948"><ele>3.8000000000000003</ele><time>2026-04-06T14:44:19.996Z</time></trkpt><trkpt lat="37.0536749" lon="15.2651709"><ele>3.6000000000000005</ele><time>2026-04-06T14:44:21.011Z</time></trkpt><trkpt lat="37.0535696" lon="15.2651458"><ele>3.4</ele><time>2026-04-06T14:44:21.981Z</time></trkpt><trkpt lat="37.0534666" lon="15.2651215"><ele>3.2</ele><time>2026-04-06T14:44:22.972Z</time></trkpt><trkpt lat="37.0533642" lon="15.2650968"><ele>3.0</ele><time>2026-04-06T14:44:23.991Z</time></trkpt><trkpt lat="37.0532587" lon="15.2650712"><ele>3.0</ele><time>2026-04-06T14:44:25.006Z</time></trkpt><trkpt lat="37.0531505" lon="15.2650463"><ele>3.0</ele><time>2026-04-06T14:44:25.992Z</time></trkpt><trkpt lat="37.0530365" lon="15.2650216"><ele>3.0</ele><time>2026-04-06T14:44:26.993Z</time></trkpt><trkpt lat="37.0529156" lon="15.2649957"><ele>3.0</ele><time>2026-04-06T14:44:28Z</time></trkpt><trkpt lat="37.0527944" lon="15.2649698"><ele>3.0</ele><time>2026-04-06T14:44:29.009Z</time></trkpt><trkpt lat="37.0526711" lon="15.2649425"><ele>3.0</ele><time>2026-04-06T14:44:29.976Z</time></trkpt><trkpt lat="37.052545" lon="15.2649145"><ele>3.0</ele><time>2026-04-06T14:44:30.978Z</time></trkpt><trkpt lat="37.0524205" lon="15.2648848"><ele>3.0</ele><time>2026-04-06T14:44:31.992Z</time></trkpt><trkpt lat="37.0522957" lon="15.2648571"><ele>2.75</ele><time>2026-04-06T14:44:33.001Z</time></trkpt><trkpt lat="37.0521675" lon="15.2648305"><ele>2.5</ele><time>2026-04-06T14:44:33.992Z</time></trkpt><trkpt lat="37.0520374" lon="15.2648018"><ele>2.25</ele><time>2026-04-06T14:44:34.974Z</time></trkpt><trkpt lat="37.0519061" lon="15.2647748"><ele>2.0</ele><time>2026-04-06T14:44:35.991Z</time></trkpt><trkpt lat="37.0517791" lon="15.2647477"><ele>2.0</ele><time>2026-04-06T14:44:36.973Z</time></trkpt><trkpt lat="37.0516594" lon="15.2647208"><ele>2.0</ele><time>2026-04-06T14:44:38.01Z</time></trkpt><trkpt lat="37.0515478" lon="15.2646965"><ele>2.0</ele><time>2026-04-06T14:44:38.992Z</time></trkpt><trkpt lat="37.0514393" lon="15.264675"><ele>2.0</ele><time>2026-04-06T14:44:39.996Z</time></trkpt><trkpt lat="37.0513353" lon="15.2646549"><ele>2.6</ele><time>2026-04-06T14:44:41.032Z</time></trkpt><trkpt lat="37.0512343" lon="15.2646347"><ele>3.2</ele><time>2026-04-06T14:44:42.015Z</time></trkpt><trkpt lat="37.0511332" lon="15.2646134"><ele>3.8</ele><time>2026-04-06T14:44:43.011Z</time></trkpt><trkpt lat="37.0510311" lon="15.2645852"><ele>4.4</ele><time>2026-04-06T14:44:44.019Z</time></trkpt><trkpt lat="37.0509272" lon="15.264543"><ele>5.0</ele><time>2026-04-06T14:44:45.014Z</time></trkpt><trkpt lat="37.0508273" lon="15.2644833"><ele>6.25</ele><time>2026-04-06T14:44:45.974Z</time></trkpt><trkpt lat="37.0507325" lon="15.2644174"><ele>7.5</ele><time>2026-04-06T14:44:46.976Z</time></trkpt><trkpt lat="37.0506316" lon="15.2643347"><ele>8.75</ele><time>2026-04-06T14:44:47.972Z</time></trkpt><trkpt lat="37.05054" lon="15.2642328"><ele>10.0</ele><time>2026-04-06T14:44:49.01Z</time></trkpt><trkpt lat="37.0504519" lon="15.2641142"><ele>10.0</ele><time>2026-04-06T14:44:50.01Z</time></trkpt><trkpt lat="37.0503689" lon="15.2639862"><ele>10.0</ele><time>2026-04-06T14:44:50.975Z</time></trkpt><trkpt lat="37.0502822" lon="15.2638496"><ele>10.0</ele><time>2026-04-06T14:44:51.997Z</time></trkpt><trkpt lat="37.0502009" lon="15.2637049"><ele>10.0</ele><time>2026-04-06T14:44:53.017Z</time></trkpt><trkpt lat="37.0501241" lon="15.2635727"><ele>10.2</ele><time>2026-04-06T14:44:54.015Z</time></trkpt><trkpt lat="37.0500488" lon="15.2634524"><ele>10.4</ele><time>2026-04-06T14:44:54.987Z</time></trkpt><trkpt lat="37.0499762" lon="15.2633423"><ele>10.600000000000001</ele><time>2026-04-06T14:44:55.991Z</time></trkpt><trkpt lat="37.0499065" lon="15.2632437"><ele>10.8</ele><time>2026-04-06T14:44:57.012Z</time></trkpt><trkpt lat="37.0498405" lon="15.2631548"><ele>11.0</ele><time>2026-04-06T14:44:58.008Z</time></trkpt><trkpt lat="37.0497699" lon="15.2630687"><ele>11.8</ele><time>2026-04-06T14:44:58.992Z</time></trkpt><trkpt lat="37.0496953" lon="15.2629874"><ele>12.600000000000001</ele><time>2026-04-06T14:44:59.991Z</time></trkpt><trkpt lat="37.0496191" lon="15.2629212"><ele>13.4</ele><time>2026-04-06T14:45:00.994Z</time></trkpt><trkpt lat="37.0495364" lon="15.262862"><ele>14.2</ele><time>2026-04-06T14:45:01.992Z</time></trkpt><trkpt lat="37.0494435" lon="15.2628149"><ele>15.0</ele><time>2026-04-06T14:45:02.992Z</time></trkpt><trkpt lat="37.0493473" lon="15.2627717"><ele>15.0</ele><time>2026-04-06T14:45:03.991Z</time></trkpt><trkpt lat="37.0492509" lon="15.2627276"><ele>15.0</ele><time>2026-04-06T14:45:04.977Z</time></trkpt><trkpt lat="37.0491493" lon="15.2626805"><ele>15.0</ele><time>2026-04-06T14:45:05.992Z</time></trkpt><trkpt lat="37.0490379" lon="15.2626315"><ele>15.0</ele><time>2026-04-06T14:45:07.009Z</time></trkpt><trkpt lat="37.0489258" lon="15.2625825"><ele>15.0</ele><time>2026-04-06T14:45:07.977Z</time></trkpt><trkpt lat="37.0488157" lon="15.262533"><ele>15.5</ele><time>2026-04-06T14:45:08.995Z</time></trkpt><trkpt lat="37.0487078" lon="15.2624821"><ele>16.0</ele><time>2026-04-06T14:45:10.006Z</time></trkpt><trkpt lat="37.048598" lon="15.2624316"><ele>16.5</ele><time>2026-04-06T14:45:11.015Z</time></trkpt><trkpt lat="37.0484864" lon="15.2623807"><ele>17.0</ele><time>2026-04-06T14:45:11.972Z</time></trkpt><trkpt lat="37.0483745" lon="15.2623316"><ele>16.75</ele><time>2026-04-06T14:45:12.995Z</time></trkpt><trkpt lat="37.0482584" lon="15.262277"><ele>16.5</ele><time>2026-04-06T14:45:13.995Z</time></trkpt><trkpt lat="37.0481388" lon="15.2622174"><ele>16.25</ele><time>2026-04-06T14:45:15.01Z</time></trkpt><trkpt lat="37.0480227" lon="15.2621612"><ele>16.0</ele><time>2026-04-06T14:45:15.994Z</time></trkpt><trkpt lat="37.0479144" lon="15.2621101"><ele>16.0</ele><time>2026-04-06T14:45:16.997Z</time></trkpt><trkpt lat="37.0478128" lon="15.2620597"><ele>16.0</ele><time>2026-04-06T14:45:17.981Z</time></trkpt><trkpt lat="37.0477151" lon="15.2620164"><ele>16.0</ele><time>2026-04-06T14:45:18.979Z</time></trkpt><trkpt lat="37.0476218" lon="15.261982"><ele>16.0</ele><time>2026-04-06T14:45:19.979Z</time></trkpt><trkpt lat="37.0475263" lon="15.2619545"><ele>16.0</ele><time>2026-04-06T14:45:20.977Z</time></trkpt><trkpt lat="37.0474256" lon="15.261931"><ele>16.0</ele><time>2026-04-06T14:45:22.016Z</time></trkpt><trkpt lat="37.047323" lon="15.2619032"><ele>16.0</ele><time>2026-04-06T14:45:22.979Z</time></trkpt><trkpt lat="37.0472136" lon="15.2618645"><ele>16.0</ele><time>2026-04-06T14:45:23.983Z</time></trkpt><trkpt lat="37.0470976" lon="15.2618182"><ele>16.0</ele><time>2026-04-06T14:45:24.98Z</time></trkpt><trkpt lat="37.04698" lon="15.2617584"><ele>16.0</ele><time>2026-04-06T14:45:25.994Z</time></trkpt><trkpt lat="37.0468541" lon="15.2616814"><ele>16.0</ele><time>2026-04-06T14:45:26.996Z</time></trkpt><trkpt lat="37.0467291" lon="15.2615962"><ele>16.0</ele><time>2026-04-06T14:45:27.972Z</time></trkpt><trkpt lat="37.046596" lon="15.2615144"><ele>16.0</ele><time>2026-04-06T14:45:29.006Z</time></trkpt><trkpt lat="37.0464612" lon="15.2614413"><ele>16.5</ele><time>2026-04-06T14:45:29.996Z</time></trkpt><trkpt lat="37.04633" lon="15.2613818"><ele>17.0</ele><time>2026-04-06T14:45:31.017Z</time></trkpt><trkpt lat="37.0462051" lon="15.2613189"><ele>17.5</ele><time>2026-04-06T14:45:31.982Z</time></trkpt><trkpt lat="37.046086" lon="15.261262"><ele>18.0</ele><time>2026-04-06T14:45:33.01Z</time></trkpt><trkpt lat="37.0459671" lon="15.2612069"><ele>18.0</ele><time>2026-04-06T14:45:33.994Z</time></trkpt><trkpt lat="37.0458522" lon="15.2611578"><ele>18.0</ele><time>2026-04-06T14:45:34.979Z</time></trkpt><trkpt lat="37.0457383" lon="15.2611051"><ele>18.0</ele><time>2026-04-06T14:45:35.98Z</time></trkpt><trkpt lat="37.0456225" lon="15.2610528"><ele>18.0</ele><time>2026-04-06T14:45:36.981Z</time></trkpt><trkpt lat="37.0455037" lon="15.2609944"><ele>18.0</ele><time>2026-04-06T14:45:37.999Z</time></trkpt><trkpt lat="37.0453811" lon="15.2609363"><ele>18.0</ele><time>2026-04-06T14:45:38.984Z</time></trkpt><trkpt lat="37.0452549" lon="15.2608747"><ele>18.0</ele><time>2026-04-06T14:45:39.994Z</time></trkpt><trkpt lat="37.045122" lon="15.2608087"><ele>18.0</ele><time>2026-04-06T14:45:40.981Z</time></trkpt><trkpt lat="37.0449791" lon="15.2607404"><ele>18.333333333333332</ele><time>2026-04-06T14:45:41.974Z</time></trkpt><trkpt lat="37.044826" lon="15.2606655"><ele>18.666666666666664</ele><time>2026-04-06T14:45:43.005Z</time></trkpt><trkpt lat="37.044669" lon="15.2605892"><ele>19.0</ele><time>2026-04-06T14:45:43.993Z</time></trkpt><trkpt lat="37.04451" lon="15.2605135"><ele>19.0</ele><time>2026-04-06T14:45:45.014Z</time></trkpt><trkpt lat="37.0443461" lon="15.2604406"><ele>19.0</ele><time>2026-04-06T14:45:46.001Z</time></trkpt><trkpt lat="37.044179" lon="15.260367"><ele>19.0</ele><time>2026-04-06T14:45:46.997Z</time></trkpt><trkpt lat="37.04401" lon="15.2602907"><ele>19.333333333333332</ele><time>2026-04-06T14:45:47.998Z</time></trkpt><trkpt lat="37.0438367" lon="15.2602103"><ele>19.666666666666668</ele><time>2026-04-06T14:45:48.975Z</time></trkpt><trkpt lat="37.0436608" lon="15.2601271"><ele>20.0</ele><time>2026-04-06T14:45:50.011Z</time></trkpt><trkpt lat="37.0434844" lon="15.2600425"><ele>20.0</ele><time>2026-04-06T14:45:50.98Z</time></trkpt><trkpt lat="37.0433052" lon="15.2599576"><ele>20.0</ele><time>2026-04-06T14:45:52.018Z</time></trkpt><trkpt lat="37.0431239" lon="15.2598731"><ele>20.0</ele><time>2026-04-06T14:45:53Z</time></trkpt><trkpt lat="37.0429395" lon="15.2597876"><ele>19.666666666666668</ele><time>2026-04-06T14:45:53.981Z</time></trkpt><trkpt lat="37.042752" lon="15.2596996"><ele>19.333333333333332</ele><time>2026-04-06T14:45:54.992Z</time></trkpt><trkpt lat="37.042565" lon="15.2596138"><ele>19.0</ele><time>2026-04-06T14:45:56.025Z</time></trkpt><trkpt lat="37.0423852" lon="15.2595304"><ele>19.0</ele><time>2026-04-06T14:45:56.998Z</time></trkpt><trkpt lat="37.0422129" lon="15.2594478"><ele>19.0</ele><time>2026-04-06T14:45:58Z</time></trkpt><trkpt lat="37.0420485" lon="15.2593694"><ele>19.0</ele><time>2026-04-06T14:45:59.011Z</time></trkpt><trkpt lat="37.0418887" lon="15.2592934"><ele>19.0</ele><time>2026-04-06T14:46:00.02Z</time></trkpt><trkpt lat="37.0417317" lon="15.2592196"><ele>19.0</ele><time>2026-04-06T14:46:00.981Z</time></trkpt><trkpt lat="37.0415757" lon="15.2591467"><ele>19.0</ele><time>2026-04-06T14:46:01.98Z</time></trkpt><trkpt lat="37.0414198" lon="15.259074"><ele>18.666666666666664</ele><time>2026-04-06T14:46:02.975Z</time></trkpt><trkpt lat="37.0412645" lon="15.2590033"><ele>18.333333333333332</ele><time>2026-04-06T14:46:03.979Z</time></trkpt><trkpt lat="37.0411093" lon="15.258935"><ele>18.0</ele><time>2026-04-06T14:46:05.011Z</time></trkpt><trkpt lat="37.0409536" lon="15.2588642"><ele>18.0</ele><time>2026-04-06T14:46:06.011Z</time></trkpt><trkpt lat="37.0407999" lon="15.2587939"><ele>18.0</ele><time>2026-04-06T14:46:06.998Z</time></trkpt><trkpt lat="37.0406434" lon="15.2587225"><ele>18.0</ele><time>2026-04-06T14:46:08.02Z</time></trkpt><trkpt lat="37.040489" lon="15.2586505"><ele>18.666666666666668</ele><time>2026-04-06T14:46:08.998Z</time></trkpt><trkpt lat="37.0403312" lon="15.2585755"><ele>19.333333333333336</ele><time>2026-04-06T14:46:10.001Z</time></trkpt><trkpt lat="37.0401697" lon="15.258499"><ele>20.0</ele><time>2026-04-06T14:46:11.003Z</time></trkpt><trkpt lat="37.0400016" lon="15.2584208"><ele>20.0</ele><time>2026-04-06T14:46:11.975Z</time></trkpt><trkpt lat="37.0398316" lon="15.2583406"><ele>20.0</ele><time>2026-04-06T14:46:12.998Z</time></trkpt><trkpt lat="37.0396653" lon="15.258262"><ele>20.0</ele><time>2026-04-06T14:46:13.975Z</time></trkpt><trkpt lat="37.0395072" lon="15.2581875"><ele>20.0</ele><time>2026-04-06T14:46:15.001Z</time></trkpt><trkpt lat="37.0393568" lon="15.2581185"><ele>20.0</ele><time>2026-04-06T14:46:15.981Z</time></trkpt><trkpt lat="37.03921" lon="15.2580504"><ele>20.0</ele><time>2026-04-06T14:46:16.997Z</time></trkpt><trkpt lat="37.0390671" lon="15.257983"><ele>20.5</ele><time>2026-04-06T14:46:17.998Z</time></trkpt><trkpt lat="37.0389255" lon="15.2579167"><ele>21.0</ele><time>2026-04-06T14:46:19.017Z</time></trkpt><trkpt lat="37.0387864" lon="15.2578511"><ele>21.5</ele><time>2026-04-06T14:46:20.01Z</time></trkpt><trkpt lat="37.0386475" lon="15.2577839"><ele>22.0</ele><time>2026-04-06T14:46:21.015Z</time></trkpt><trkpt lat="37.0385102" lon="15.257718"><ele>22.0</ele><time>2026-04-06T14:46:22.001Z</time></trkpt><trkpt lat="37.0383705" lon="15.2576523"><ele>22.0</ele><time>2026-04-06T14:46:22.995Z</time></trkpt><trkpt lat="37.0382312" lon="15.2575887"><ele>22.0</ele><time>2026-04-06T14:46:24Z</time></trkpt><trkpt lat="37.038095" lon="15.2575281"><ele>22.0</ele><time>2026-04-06T14:46:25.01Z</time></trkpt><trkpt lat="37.0379588" lon="15.2574668"><ele>22.0</ele><time>2026-04-06T14:46:25.997Z</time></trkpt><trkpt lat="37.0378251" lon="15.2574062"><ele>22.0</ele><time>2026-04-06T14:46:26.999Z</time></trkpt><trkpt lat="37.0376926" lon="15.2573447"><ele>22.0</ele><time>2026-04-06T14:46:27.981Z</time></trkpt><trkpt lat="37.0375625" lon="15.257285"><ele>22.0</ele><time>2026-04-06T14:46:28.979Z</time></trkpt><trkpt lat="37.0374358" lon="15.2572275"><ele>22.0</ele><time>2026-04-06T14:46:30.016Z</time></trkpt><trkpt lat="37.037319" lon="15.2571724"><ele>22.0</ele><time>2026-04-06T14:46:30.991Z</time></trkpt><trkpt lat="37.0372109" lon="15.2571206"><ele>22.0</ele><time>2026-04-06T14:46:32.017Z</time></trkpt><trkpt lat="37.0371104" lon="15.2570764"><ele>22.0</ele><time>2026-04-06T14:46:33.011Z</time></trkpt><trkpt lat="37.0370174" lon="15.2570396"><ele>22.0</ele><time>2026-04-06T14:46:34.01Z</time></trkpt><trkpt lat="37.0369331" lon="15.2570048"><ele>22.0</ele><time>2026-04-06T14:46:34.993Z</time></trkpt><trkpt lat="37.0368558" lon="15.2569703"><ele>22.0</ele><time>2026-04-06T14:46:36.013Z</time></trkpt><trkpt lat="37.0367886" lon="15.2569335"><ele>22.0</ele><time>2026-04-06T14:46:37.013Z</time></trkpt><trkpt lat="37.0367279" lon="15.2568873"><ele>22.0</ele><time>2026-04-06T14:46:38.013Z</time></trkpt><trkpt lat="37.0366651" lon="15.2568355"><ele>22.0</ele><time>2026-04-06T14:46:38.977Z</time></trkpt><trkpt lat="37.0365982" lon="15.2567957"><ele>22.0</ele><time>2026-04-06T14:46:40.014Z</time></trkpt><trkpt lat="37.0365336" lon="15.2567731"><ele>22.0</ele><time>2026-04-06T14:46:41.023Z</time></trkpt><trkpt lat="37.0364601" lon="15.2567942"><ele>22.200000000000003</ele><time>2026-04-06T14:46:41.973Z</time></trkpt><trkpt lat="37.0363827" lon="15.2568268"><ele>22.4</ele><time>2026-04-06T14:46:42.98Z</time></trkpt><trkpt lat="37.0362898" lon="15.2568507"><ele>22.6</ele><time>2026-04-06T14:46:43.998Z</time></trkpt><trkpt lat="37.0361868" lon="15.2568681"><ele>22.799999999999997</ele><time>2026-04-06T14:46:44.987Z</time></trkpt><trkpt lat="37.0360647" lon="15.2568682"><ele>23.0</ele><time>2026-04-06T14:46:45.993Z</time></trkpt><trkpt lat="37.0359294" lon="15.2568523"><ele>23.5</ele><time>2026-04-06T14:46:47.012Z</time></trkpt><trkpt lat="37.0357898" lon="15.2568359"><ele>24.0</ele><time>2026-04-06T14:46:47.998Z</time></trkpt><trkpt lat="37.0356444" lon="15.2568293"><ele>24.5</ele><time>2026-04-06T14:46:48.998Z</time></trkpt><trkpt lat="37.0354927" lon="15.2568173"><ele>25.0</ele><time>2026-04-06T14:46:50.007Z</time></trkpt><trkpt lat="37.0353313" lon="15.2568022"><ele>25.0</ele><time>2026-04-06T14:46:50.981Z</time></trkpt><trkpt lat="37.0351641" lon="15.2567851"><ele>25.0</ele><time>2026-04-06T14:46:52.002Z</time></trkpt><trkpt lat="37.0349901" lon="15.256767"><ele>25.0</ele><time>2026-04-06T14:46:52.981Z</time></trkpt><trkpt lat="37.034815" lon="15.2567499"><ele>24.333333333333336</ele><time>2026-04-06T14:46:53.995Z</time></trkpt><trkpt lat="37.0346417" lon="15.2567358"><ele>23.666666666666668</ele><time>2026-04-06T14:46:54.997Z</time></trkpt><trkpt lat="37.0344673" lon="15.2567203"><ele>23.0</ele><time>2026-04-06T14:46:56Z</time></trkpt><trkpt lat="37.0342939" lon="15.2567066"><ele>22.333333333333336</ele><time>2026-04-06T14:46:56.989Z</time></trkpt><trkpt lat="37.0341189" lon="15.2566882"><ele>21.666666666666668</ele><time>2026-04-06T14:46:58.01Z</time></trkpt><trkpt lat="37.0339457" lon="15.2566736"><ele>21.0</ele><time>2026-04-06T14:46:59.007Z</time></trkpt><trkpt lat="37.0337723" lon="15.2566592"><ele>21.0</ele><time>2026-04-06T14:46:59.993Z</time></trkpt><trkpt lat="37.0335957" lon="15.2566464"><ele>21.0</ele><time>2026-04-06T14:47:00.994Z</time></trkpt><trkpt lat="37.0334143" lon="15.2566326"><ele>21.0</ele><time>2026-04-06T14:47:01.996Z</time></trkpt><trkpt lat="37.0332289" lon="15.256619"><ele>20.666666666666668</ele><time>2026-04-06T14:47:02.981Z</time></trkpt><trkpt lat="37.0330398" lon="15.2566043"><ele>20.333333333333336</ele><time>2026-04-06T14:47:04.016Z</time></trkpt><trkpt lat="37.0328502" lon="15.2565861"><ele>20.0</ele><time>2026-04-06T14:47:04.999Z</time></trkpt><trkpt lat="37.032664" lon="15.2565658"><ele>20.0</ele><time>2026-04-06T14:47:05.992Z</time></trkpt><trkpt lat="37.0324847" lon="15.2565469"><ele>20.0</ele><time>2026-04-06T14:47:06.997Z</time></trkpt><trkpt lat="37.0323133" lon="15.2565305"><ele>20.0</ele><time>2026-04-06T14:47:08.011Z</time></trkpt><trkpt lat="37.0321496" lon="15.2565137"><ele>20.0</ele><time>2026-04-06T14:47:08.996Z</time></trkpt><trkpt lat="37.0319901" lon="15.2564998"><ele>20.0</ele><time>2026-04-06T14:47:09.976Z</time></trkpt><trkpt lat="37.0318324" lon="15.2564836"><ele>20.0</ele><time>2026-04-06T14:47:11.028Z</time></trkpt><trkpt lat="37.0316746" lon="15.256468"><ele>20.0</ele><time>2026-04-06T14:47:12.011Z</time></trkpt><trkpt lat="37.0315138" lon="15.2564572"><ele>20.0</ele><time>2026-04-06T14:47:12.994Z</time></trkpt><trkpt lat="37.0313497" lon="15.256446"><ele>20.0</ele><time>2026-04-06T14:47:13.976Z</time></trkpt><trkpt lat="37.0311815" lon="15.2564323"><ele>20.0</ele><time>2026-04-06T14:47:14.974Z</time></trkpt><trkpt lat="37.0310076" lon="15.2564128"><ele>20.0</ele><time>2026-04-06T14:47:16.009Z</time></trkpt><trkpt lat="37.0308251" lon="15.2563898"><ele>20.0</ele><time>2026-04-06T14:47:16.978Z</time></trkpt><trkpt lat="37.0306344" lon="15.2563719"><ele>20.333333333333336</ele><time>2026-04-06T14:47:17.999Z</time></trkpt><trkpt lat="37.0304365" lon="15.2563562"><ele>20.666666666666668</ele><time>2026-04-06T14:47:18.975Z</time></trkpt><trkpt lat="37.0302351" lon="15.25634"><ele>21.0</ele><time>2026-04-06T14:47:19.992Z</time></trkpt><trkpt lat="37.0300301" lon="15.2563204"><ele>21.333333333333332</ele><time>2026-04-06T14:47:20.999Z</time></trkpt><trkpt lat="37.0298206" lon="15.2563027"><ele>21.666666666666664</ele><time>2026-04-06T14:47:21.99Z</time></trkpt><trkpt lat="37.0296075" lon="15.2562835"><ele>22.0</ele><time>2026-04-06T14:47:22.998Z</time></trkpt><trkpt lat="37.0293953" lon="15.2562662"><ele>22.0</ele><time>2026-04-06T14:47:23.992Z</time></trkpt><trkpt lat="37.0291819" lon="15.2562468"><ele>22.0</ele><time>2026-04-06T14:47:24.991Z</time></trkpt><trkpt lat="37.0289666" lon="15.2562262"><ele>22.0</ele><time>2026-04-06T14:47:26.008Z</time></trkpt><trkpt lat="37.0287587" lon="15.2562102"><ele>22.333333333333332</ele><time>2026-04-06T14:47:27Z</time></trkpt><trkpt lat="37.0285561" lon="15.2561956"><ele>22.666666666666668</ele><time>2026-04-06T14:47:27.973Z</time></trkpt><trkpt lat="37.0283553" lon="15.2561813"><ele>23.0</ele><time>2026-04-06T14:47:28.995Z</time></trkpt><trkpt lat="37.0281629" lon="15.2561662"><ele>23.0</ele><time>2026-04-06T14:47:30.001Z</time></trkpt><trkpt lat="37.0279749" lon="15.2561493"><ele>23.0</ele><time>2026-04-06T14:47:30.992Z</time></trkpt><trkpt lat="37.0277905" lon="15.2561316"><ele>23.0</ele><time>2026-04-06T14:47:31.976Z</time></trkpt><trkpt lat="37.0276066" lon="15.2561116"><ele>23.333333333333336</ele><time>2026-04-06T14:47:32.995Z</time></trkpt><trkpt lat="37.0274266" lon="15.2560926"><ele>23.666666666666668</ele><time>2026-04-06T14:47:33.993Z</time></trkpt><trkpt lat="37.0272467" lon="15.2560754"><ele>24.0</ele><time>2026-04-06T14:47:34.993Z</time></trkpt><trkpt lat="37.0270678" lon="15.2560587"><ele>24.0</ele><time>2026-04-06T14:47:36.011Z</time></trkpt><trkpt lat="37.0268932" lon="15.2560424"><ele>24.0</ele><time>2026-04-06T14:47:36.994Z</time></trkpt><trkpt lat="37.0267175" lon="15.2560258"><ele>24.0</ele><time>2026-04-06T14:47:38Z</time></trkpt><trkpt lat="37.0265405" lon="15.2560086"><ele>23.666666666666668</ele><time>2026-04-06T14:47:38.999Z</time></trkpt><trkpt lat="37.0263632" lon="15.255991"><ele>23.333333333333336</ele><time>2026-04-06T14:47:39.994Z</time></trkpt><trkpt lat="37.0261837" lon="15.2559743"><ele>23.0</ele><time>2026-04-06T14:47:41.002Z</time></trkpt><trkpt lat="37.0260037" lon="15.2559573"><ele>23.0</ele><time>2026-04-06T14:47:41.995Z</time></trkpt><trkpt lat="37.0258218" lon="15.2559407"><ele>23.0</ele><time>2026-04-06T14:47:43.012Z</time></trkpt><trkpt lat="37.0256398" lon="15.2559242"><ele>23.0</ele><time>2026-04-06T14:47:44.014Z</time></trkpt><trkpt lat="37.0254584" lon="15.2559069"><ele>23.0</ele><time>2026-04-06T14:47:44.975Z</time></trkpt><trkpt lat="37.0252722" lon="15.2558899"><ele>23.0</ele><time>2026-04-06T14:47:45.98Z</time></trkpt><trkpt lat="37.025086" lon="15.2558731"><ele>23.0</ele><time>2026-04-06T14:47:47.013Z</time></trkpt><trkpt lat="37.0249082" lon="15.2558551"><ele>23.0</ele><time>2026-04-06T14:47:47.995Z</time></trkpt><trkpt lat="37.0247338" lon="15.2558374"><ele>23.0</ele><time>2026-04-06T14:47:48.983Z</time></trkpt><trkpt lat="37.0245659" lon="15.25582"><ele>23.0</ele><time>2026-04-06T14:47:50.019Z</time></trkpt><trkpt lat="37.0244102" lon="15.2558054"><ele>23.0</ele><time>2026-04-06T14:47:51Z</time></trkpt><trkpt lat="37.0242563" lon="15.2557919"><ele>23.0</ele><time>2026-04-06T14:47:52.022Z</time></trkpt><trkpt lat="37.0241065" lon="15.2557806"><ele>23.0</ele><time>2026-04-06T14:47:53.012Z</time></trkpt><trkpt lat="37.0239536" lon="15.2557674"><ele>23.0</ele><time>2026-04-06T14:47:53.997Z</time></trkpt><trkpt lat="37.0237972" lon="15.2557524"><ele>23.0</ele><time>2026-04-06T14:47:54.981Z</time></trkpt><trkpt lat="37.0236354" lon="15.255737"><ele>23.0</ele><time>2026-04-06T14:47:55.997Z</time></trkpt><trkpt lat="37.023474" lon="15.2557211"><ele>23.0</ele><time>2026-04-06T14:47:57.009Z</time></trkpt><trkpt lat="37.023319" lon="15.2557054"><ele>23.0</ele><time>2026-04-06T14:47:57.996Z</time></trkpt><trkpt lat="37.0231687" lon="15.2556931"><ele>23.0</ele><time>2026-04-06T14:47:58.996Z</time></trkpt><trkpt lat="37.0230251" lon="15.2556817"><ele>23.0</ele><time>2026-04-06T14:47:59.995Z</time></trkpt><trkpt lat="37.0228859" lon="15.255672"><ele>23.0</ele><time>2026-04-06T14:48:01.029Z</time></trkpt><trkpt lat="37.0227558" lon="15.255662"><ele>23.0</ele><time>2026-04-06T14:48:01.997Z</time></trkpt><trkpt lat="37.0226293" lon="15.2556504"><ele>23.0</ele><time>2026-04-06T14:48:02.992Z</time></trkpt><trkpt lat="37.0225073" lon="15.2556381"><ele>23.0</ele><time>2026-04-06T14:48:03.997Z</time></trkpt><trkpt lat="37.0223895" lon="15.2556272"><ele>23.0</ele><time>2026-04-06T14:48:05.012Z</time></trkpt><trkpt lat="37.0222792" lon="15.2556181"><ele>23.0</ele><time>2026-04-06T14:48:05.999Z</time></trkpt><trkpt lat="37.0221731" lon="15.2556094"><ele>23.0</ele><time>2026-04-06T14:48:06.998Z</time></trkpt><trkpt lat="37.0220743" lon="15.2555996"><ele>23.0</ele><time>2026-04-06T14:48:08Z</time></trkpt><trkpt lat="37.0219857" lon="15.2555905"><ele>23.0</ele><time>2026-04-06T14:48:08.993Z</time></trkpt><trkpt lat="37.0219082" lon="15.2555877"><ele>23.0</ele><time>2026-04-06T14:48:09.994Z</time></trkpt><trkpt lat="37.0218446" lon="15.2555987"><ele>23.0</ele><time>2026-04-06T14:48:11.014Z</time></trkpt><trkpt lat="37.0217654" lon="15.2556775"><ele>23.0</ele><time>2026-04-06T14:48:12.996Z</time></trkpt><trkpt lat="37.021698" lon="15.2558125"><ele>23.0</ele><time>2026-04-06T14:48:14.997Z</time></trkpt><trkpt lat="37.0216494" lon="15.2558838"><ele>23.0</ele><time>2026-04-06T14:48:16.011Z</time></trkpt><trkpt lat="37.0215877" lon="15.255944"><ele>23.0</ele><time>2026-04-06T14:48:16.994Z</time></trkpt><trkpt lat="37.0215115" lon="15.255989"><ele>23.0</ele><time>2026-04-06T14:48:17.979Z</time></trkpt><trkpt lat="37.0214268" lon="15.2560256"><ele>23.0</ele><time>2026-04-06T14:48:18.98Z</time></trkpt><trkpt lat="37.0213359" lon="15.2560542"><ele>23.0</ele><time>2026-04-06T14:48:20.011Z</time></trkpt><trkpt lat="37.0212427" lon="15.2560876"><ele>23.0</ele><time>2026-04-06T14:48:21.03Z</time></trkpt><trkpt lat="37.0211413" lon="15.2561216"><ele>23.0</ele><time>2026-04-06T14:48:21.994Z</time></trkpt><trkpt lat="37.0210367" lon="15.2561621"><ele>23.0</ele><time>2026-04-06T14:48:23.012Z</time></trkpt><trkpt lat="37.02093" lon="15.256206"><ele>23.0</ele><time>2026-04-06T14:48:24.011Z</time></trkpt><trkpt lat="37.0208216" lon="15.2562466"><ele>23.0</ele><time>2026-04-06T14:48:24.995Z</time></trkpt><trkpt lat="37.0207154" lon="15.2562833"><ele>23.0</ele><time>2026-04-06T14:48:26.012Z</time></trkpt><trkpt lat="37.0206084" lon="15.2563157"><ele>22.599999999999998</ele><time>2026-04-06T14:48:27.008Z</time></trkpt><trkpt lat="37.0205046" lon="15.2563396"><ele>22.2</ele><time>2026-04-06T14:48:28.008Z</time></trkpt><trkpt lat="37.0204015" lon="15.2563554"><ele>21.8</ele><time>2026-04-06T14:48:28.992Z</time></trkpt><trkpt lat="37.0202981" lon="15.2563725"><ele>21.4</ele><time>2026-04-06T14:48:30.012Z</time></trkpt><trkpt lat="37.0201927" lon="15.2563904"><ele>21.0</ele><time>2026-04-06T14:48:30.982Z</time></trkpt><trkpt lat="37.0200812" lon="15.2564124"><ele>20.75</ele><time>2026-04-06T14:48:32.02Z</time></trkpt><trkpt lat="37.0199665" lon="15.2564348"><ele>20.5</ele><time>2026-04-06T14:48:33.015Z</time></trkpt><trkpt lat="37.0198478" lon="15.2564527"><ele>20.25</ele><time>2026-04-06T14:48:33.996Z</time></trkpt><trkpt lat="37.0197312" lon="15.2564767"><ele>20.0</ele><time>2026-04-06T14:48:34.98Z</time></trkpt><trkpt lat="37.0196228" lon="15.2565124"><ele>20.4</ele><time>2026-04-06T14:48:35.984Z</time></trkpt><trkpt lat="37.019524" lon="15.25656"><ele>20.8</ele><time>2026-04-06T14:48:37.014Z</time></trkpt><trkpt lat="37.0194305" lon="15.2566187"><ele>21.200000000000003</ele><time>2026-04-06T14:48:37.994Z</time></trkpt><trkpt lat="37.0193412" lon="15.256696"><ele>21.6</ele><time>2026-04-06T14:48:38.995Z</time></trkpt><trkpt lat="37.0192501" lon="15.2567747"><ele>22.0</ele><time>2026-04-06T14:48:40.007Z</time></trkpt><trkpt lat="37.0191598" lon="15.2568319"><ele>22.25</ele><time>2026-04-06T14:48:41Z</time></trkpt><trkpt lat="37.019064" lon="15.2568889"><ele>22.5</ele><time>2026-04-06T14:48:42.003Z</time></trkpt><trkpt lat="37.0189603" lon="15.2569413"><ele>22.75</ele><time>2026-04-06T14:48:42.996Z</time></trkpt><trkpt lat="37.0188463" lon="15.2569858"><ele>23.0</ele><time>2026-04-06T14:48:43.996Z</time></trkpt><trkpt lat="37.0187211" lon="15.2570265"><ele>23.0</ele><time>2026-04-06T14:48:45.02Z</time></trkpt><trkpt lat="37.0185825" lon="15.2570667"><ele>23.0</ele><time>2026-04-06T14:48:45.994Z</time></trkpt><trkpt lat="37.018444" lon="15.2571034"><ele>23.0</ele><time>2026-04-06T14:48:46.994Z</time></trkpt><trkpt lat="37.0183021" lon="15.2571427"><ele>23.0</ele><time>2026-04-06T14:48:47.984Z</time></trkpt><trkpt lat="37.0181547" lon="15.25718"><ele>22.666666666666668</ele><time>2026-04-06T14:48:48.982Z</time></trkpt><trkpt lat="37.0180032" lon="15.2572185"><ele>22.333333333333332</ele><time>2026-04-06T14:48:49.998Z</time></trkpt><trkpt lat="37.0178508" lon="15.2572587"><ele>22.0</ele><time>2026-04-06T14:48:50.984Z</time></trkpt><trkpt lat="37.0176976" lon="15.2573006"><ele>22.0</ele><time>2026-04-06T14:48:51.996Z</time></trkpt><trkpt lat="37.0175418" lon="15.2573448"><ele>22.0</ele><time>2026-04-06T14:48:53.013Z</time></trkpt><trkpt lat="37.0173874" lon="15.2573886"><ele>22.0</ele><time>2026-04-06T14:48:53.994Z</time></trkpt><trkpt lat="37.0172315" lon="15.2574338"><ele>21.333333333333332</ele><time>2026-04-06T14:48:54.98Z</time></trkpt><trkpt lat="37.0170753" lon="15.2574749"><ele>20.666666666666668</ele><time>2026-04-06T14:48:55.978Z</time></trkpt><trkpt lat="37.0169193" lon="15.2575091"><ele>20.0</ele><time>2026-04-06T14:48:56.981Z</time></trkpt><trkpt lat="37.0167629" lon="15.2575345"><ele>19.666666666666668</ele><time>2026-04-06T14:48:57.982Z</time></trkpt><trkpt lat="37.0166061" lon="15.2575556"><ele>19.333333333333332</ele><time>2026-04-06T14:48:59.012Z</time></trkpt><trkpt lat="37.0164494" lon="15.2575702"><ele>19.0</ele><time>2026-04-06T14:48:59.998Z</time></trkpt><trkpt lat="37.0162873" lon="15.257582"><ele>19.0</ele><time>2026-04-06T14:49:00.981Z</time></trkpt><trkpt lat="37.0161184" lon="15.257592"><ele>19.0</ele><time>2026-04-06T14:49:01.981Z</time></trkpt><trkpt lat="37.0159462" lon="15.2576019"><ele>19.0</ele><time>2026-04-06T14:49:02.996Z</time></trkpt><trkpt lat="37.0157756" lon="15.2576137"><ele>19.0</ele><time>2026-04-06T14:49:03.992Z</time></trkpt><trkpt lat="37.0156039" lon="15.2576283"><ele>19.0</ele><time>2026-04-06T14:49:04.999Z</time></trkpt><trkpt lat="37.0154365" lon="15.2576434"><ele>19.0</ele><time>2026-04-06T14:49:05.979Z</time></trkpt><trkpt lat="37.0152685" lon="15.2576598"><ele>19.0</ele><time>2026-04-06T14:49:07.009Z</time></trkpt><trkpt lat="37.0151099" lon="15.257677"><ele>19.0</ele><time>2026-04-06T14:49:07.994Z</time></trkpt><trkpt lat="37.0149551" lon="15.2576947"><ele>19.0</ele><time>2026-04-06T14:49:08.978Z</time></trkpt><trkpt lat="37.014805" lon="15.2577132"><ele>19.25</ele><time>2026-04-06T14:49:09.981Z</time></trkpt><trkpt lat="37.0146597" lon="15.2577365"><ele>19.5</ele><time>2026-04-06T14:49:10.988Z</time></trkpt><trkpt lat="37.0145242" lon="15.2577711"><ele>19.75</ele><time>2026-04-06T14:49:11.971Z</time></trkpt><trkpt lat="37.0143943" lon="15.2578161"><ele>20.0</ele><time>2026-04-06T14:49:12.981Z</time></trkpt><trkpt lat="37.0142703" lon="15.2578684"><ele>20.25</ele><time>2026-04-06T14:49:13.982Z</time></trkpt><trkpt lat="37.014153" lon="15.2579255"><ele>20.5</ele><time>2026-04-06T14:49:14.981Z</time></trkpt><trkpt lat="37.0140402" lon="15.2579851"><ele>20.75</ele><time>2026-04-06T14:49:15.996Z</time></trkpt><trkpt lat="37.0139389" lon="15.2580414"><ele>21.0</ele><time>2026-04-06T14:49:16.998Z</time></trkpt><trkpt lat="37.0138445" lon="15.2580914"><ele>21.0</ele><time>2026-04-06T14:49:17.997Z</time></trkpt><trkpt lat="37.0137587" lon="15.2581358"><ele>21.0</ele><time>2026-04-06T14:49:18.993Z</time></trkpt><trkpt lat="37.0136795" lon="15.2581748"><ele>21.0</ele><time>2026-04-06T14:49:19.98Z</time></trkpt><trkpt lat="37.013609" lon="15.2582042"><ele>21.0</ele><time>2026-04-06T14:49:20.987Z</time></trkpt><trkpt lat="37.013499" lon="15.2582184"><ele>21.0</ele><time>2026-04-06T14:49:22.984Z</time></trkpt><trkpt lat="37.0133979" lon="15.2581833"><ele>21.0</ele><time>2026-04-06T14:49:25.015Z</time></trkpt><trkpt lat="37.0132896" lon="15.258089"><ele>21.0</ele><time>2026-04-06T14:49:27.016Z</time></trkpt><trkpt lat="37.0132217" lon="15.2580173"><ele>21.0</ele><time>2026-04-06T14:49:27.992Z</time></trkpt><trkpt lat="37.0131376" lon="15.2579345"><ele>21.0</ele><time>2026-04-06T14:49:28.979Z</time></trkpt><trkpt lat="37.0130469" lon="15.257834"><ele>21.0</ele><time>2026-04-06T14:49:29.978Z</time></trkpt><trkpt lat="37.0129492" lon="15.2577296"><ele>21.0</ele><time>2026-04-06T14:49:30.997Z</time></trkpt><trkpt lat="37.0128465" lon="15.2576285"><ele>21.0</ele><time>2026-04-06T14:49:32.007Z</time></trkpt><trkpt lat="37.0127388" lon="15.2575325"><ele>21.0</ele><time>2026-04-06T14:49:32.978Z</time></trkpt><trkpt lat="37.0126258" lon="15.2574341"><ele>21.0</ele><time>2026-04-06T14:49:33.993Z</time></trkpt><trkpt lat="37.0125127" lon="15.257331"><ele>21.25</ele><time>2026-04-06T14:49:35.01Z</time></trkpt><trkpt lat="37.0124042" lon="15.2572212"><ele>21.5</ele><time>2026-04-06T14:49:35.992Z</time></trkpt><trkpt lat="37.0122961" lon="15.2571012"><ele>21.75</ele><time>2026-04-06T14:49:36.979Z</time></trkpt><trkpt lat="37.0121893" lon="15.2569746"><ele>22.0</ele><time>2026-04-06T14:49:37.992Z</time></trkpt><trkpt lat="37.0120836" lon="15.2568436"><ele>22.0</ele><time>2026-04-06T14:49:39.004Z</time></trkpt><trkpt lat="37.0119774" lon="15.256713"><ele>22.0</ele><time>2026-04-06T14:49:39.978Z</time></trkpt><trkpt lat="37.0118661" lon="15.2565807"><ele>22.0</ele><time>2026-04-06T14:49:41.001Z</time></trkpt><trkpt lat="37.0117537" lon="15.2564573"><ele>21.666666666666664</ele><time>2026-04-06T14:49:41.97Z</time></trkpt><trkpt lat="37.0116338" lon="15.256341"><ele>21.333333333333332</ele><time>2026-04-06T14:49:42.993Z</time></trkpt><trkpt lat="37.0115089" lon="15.2562378"><ele>21.0</ele><time>2026-04-06T14:49:44.006Z</time></trkpt><trkpt lat="37.0113797" lon="15.2561403"><ele>21.0</ele><time>2026-04-06T14:49:45.004Z</time></trkpt><trkpt lat="37.011244" lon="15.256047"><ele>21.0</ele><time>2026-04-06T14:49:46.008Z</time></trkpt><trkpt lat="37.0111048" lon="15.2559561"><ele>21.0</ele><time>2026-04-06T14:49:46.996Z</time></trkpt><trkpt lat="37.0109617" lon="15.2558647"><ele>21.0</ele><time>2026-04-06T14:49:48.002Z</time></trkpt><trkpt lat="37.0108172" lon="15.2557744"><ele>21.0</ele><time>2026-04-06T14:49:48.993Z</time></trkpt><trkpt lat="37.0106689" lon="15.2556851"><ele>21.0</ele><time>2026-04-06T14:49:49.993Z</time></trkpt><trkpt lat="37.0105203" lon="15.2555992"><ele>21.333333333333332</ele><time>2026-04-06T14:49:50.982Z</time></trkpt><trkpt lat="37.0103709" lon="15.2555102"><ele>21.666666666666664</ele><time>2026-04-06T14:49:51.981Z</time></trkpt><trkpt lat="37.01022" lon="15.2554171"><ele>22.0</ele><time>2026-04-06T14:49:52.994Z</time></trkpt><trkpt lat="37.0100693" lon="15.2553169"><ele>21.333333333333332</ele><time>2026-04-06T14:49:53.994Z</time></trkpt><trkpt lat="37.0099187" lon="15.2552121"><ele>20.666666666666668</ele><time>2026-04-06T14:49:54.98Z</time></trkpt><trkpt lat="37.0097649" lon="15.2551009"><ele>20.0</ele><time>2026-04-06T14:49:56.01Z</time></trkpt><trkpt lat="37.0096113" lon="15.2549861"><ele>20.0</ele><time>2026-04-06T14:49:57.009Z</time></trkpt><trkpt lat="37.0094567" lon="15.2548665"><ele>20.0</ele><time>2026-04-06T14:49:57.993Z</time></trkpt><trkpt lat="37.0092989" lon="15.2547411"><ele>20.0</ele><time>2026-04-06T14:49:58.992Z</time></trkpt><trkpt lat="37.0091404" lon="15.2546155"><ele>20.0</ele><time>2026-04-06T14:49:59.977Z</time></trkpt><trkpt lat="37.0089796" lon="15.254491"><ele>20.0</ele><time>2026-04-06T14:50:00.978Z</time></trkpt><trkpt lat="37.0088229" lon="15.2543689"><ele>20.0</ele><time>2026-04-06T14:50:01.979Z</time></trkpt><trkpt lat="37.0086726" lon="15.2542469"><ele>20.0</ele><time>2026-04-06T14:50:03.019Z</time></trkpt><trkpt lat="37.0085332" lon="15.2541273"><ele>20.0</ele><time>2026-04-06T14:50:03.989Z</time></trkpt><trkpt lat="37.0083961" lon="15.2540007"><ele>20.0</ele><time>2026-04-06T14:50:05.007Z</time></trkpt><trkpt lat="37.0082629" lon="15.2538714"><ele>20.0</ele><time>2026-04-06T14:50:05.991Z</time></trkpt><trkpt lat="37.0081258" lon="15.2537401"><ele>20.0</ele><time>2026-04-06T14:50:07.014Z</time></trkpt><trkpt lat="37.0079874" lon="15.2536149"><ele>20.0</ele><time>2026-04-06T14:50:08.009Z</time></trkpt><trkpt lat="37.0078504" lon="15.253496"><ele>20.0</ele><time>2026-04-06T14:50:09.012Z</time></trkpt><trkpt lat="37.0077222" lon="15.2533822"><ele>20.0</ele><time>2026-04-06T14:50:09.98Z</time></trkpt><trkpt lat="37.0075969" lon="15.2532689"><ele>20.0</ele><time>2026-04-06T14:50:11.01Z</time></trkpt><trkpt lat="37.0074799" lon="15.2531605"><ele>19.75</ele><time>2026-04-06T14:50:12.011Z</time></trkpt><trkpt lat="37.0073682" lon="15.2530551"><ele>19.5</ele><time>2026-04-06T14:50:12.994Z</time></trkpt><trkpt lat="37.0072588" lon="15.2529477"><ele>19.25</ele><time>2026-04-06T14:50:14.01Z</time></trkpt><trkpt lat="37.0071536" lon="15.2528429"><ele>19.0</ele><time>2026-04-06T14:50:14.992Z</time></trkpt><trkpt lat="37.0070502" lon="15.252741"><ele>19.0</ele><time>2026-04-06T14:50:15.976Z</time></trkpt><trkpt lat="37.0069503" lon="15.2526435"><ele>19.0</ele><time>2026-04-06T14:50:16.972Z</time></trkpt><trkpt lat="37.0068552" lon="15.2525526"><ele>19.0</ele><time>2026-04-06T14:50:18.001Z</time></trkpt><trkpt lat="37.0067674" lon="15.252468"><ele>19.0</ele><time>2026-04-06T14:50:18.993Z</time></trkpt><trkpt lat="37.0066811" lon="15.2523855"><ele>18.8</ele><time>2026-04-06T14:50:20.014Z</time></trkpt><trkpt lat="37.006594" lon="15.2523028"><ele>18.599999999999998</ele><time>2026-04-06T14:50:21.017Z</time></trkpt><trkpt lat="37.0065068" lon="15.2522192"><ele>18.4</ele><time>2026-04-06T14:50:21.975Z</time></trkpt><trkpt lat="37.0064229" lon="15.2521359"><ele>18.2</ele><time>2026-04-06T14:50:22.972Z</time></trkpt><trkpt lat="37.0063421" lon="15.2520563"><ele>18.0</ele><time>2026-04-06T14:50:24.002Z</time></trkpt><trkpt lat="37.0062635" lon="15.2519843"><ele>18.0</ele><time>2026-04-06T14:50:24.996Z</time></trkpt><trkpt lat="37.0061852" lon="15.2519187"><ele>18.0</ele><time>2026-04-06T14:50:25.974Z</time></trkpt><trkpt lat="37.0061032" lon="15.2518529"><ele>18.0</ele><time>2026-04-06T14:50:27.011Z</time></trkpt><trkpt lat="37.0060207" lon="15.2517866"><ele>18.0</ele><time>2026-04-06T14:50:28.005Z</time></trkpt><trkpt lat="37.0059361" lon="15.2517178"><ele>18.0</ele><time>2026-04-06T14:50:28.983Z</time></trkpt><trkpt lat="37.0058488" lon="15.251646"><ele>18.0</ele><time>2026-04-06T14:50:29.972Z</time></trkpt><trkpt lat="37.0057598" lon="15.2515716"><ele>18.0</ele><time>2026-04-06T14:50:30.995Z</time></trkpt><trkpt lat="37.0056703" lon="15.251497"><ele>18.0</ele><time>2026-04-06T14:50:31.975Z</time></trkpt><trkpt lat="37.0055729" lon="15.2514204"><ele>18.0</ele><time>2026-04-06T14:50:32.977Z</time></trkpt><trkpt lat="37.0054714" lon="15.2513402"><ele>18.0</ele><time>2026-04-06T14:50:33.974Z</time></trkpt><trkpt lat="37.0053656" lon="15.2512552"><ele>18.0</ele><time>2026-04-06T14:50:34.972Z</time></trkpt><trkpt lat="37.0052531" lon="15.251164"><ele>18.0</ele><time>2026-04-06T14:50:35.969Z</time></trkpt><trkpt lat="37.0051371" lon="15.2510629"><ele>18.0</ele><time>2026-04-06T14:50:36.994Z</time></trkpt><trkpt lat="37.0050245" lon="15.2509613"><ele>18.0</ele><time>2026-04-06T14:50:37.993Z</time></trkpt><trkpt lat="37.0049187" lon="15.2508596"><ele>18.0</ele><time>2026-04-06T14:50:38.984Z</time></trkpt><trkpt lat="37.0048188" lon="15.2507555"><ele>18.0</ele><time>2026-04-06T14:50:39.992Z</time></trkpt><trkpt lat="37.0047226" lon="15.2506493"><ele>18.0</ele><time>2026-04-06T14:50:40.982Z</time></trkpt><trkpt lat="37.0046224" lon="15.2505425"><ele>18.0</ele><time>2026-04-06T14:50:41.971Z</time></trkpt><trkpt lat="37.0045134" lon="15.250434"><ele>18.0</ele><time>2026-04-06T14:50:42.976Z</time></trkpt><trkpt lat="37.0043958" lon="15.2503207"><ele>18.0</ele><time>2026-04-06T14:50:44.01Z</time></trkpt><trkpt lat="37.0042775" lon="15.2502095"><ele>18.0</ele><time>2026-04-06T14:50:45.009Z</time></trkpt><trkpt lat="37.0041636" lon="15.2501009"><ele>18.0</ele><time>2026-04-06T14:50:45.975Z</time></trkpt><trkpt lat="37.0040524" lon="15.2499977"><ele>18.0</ele><time>2026-04-06T14:50:46.975Z</time></trkpt><trkpt lat="37.0039422" lon="15.2499078"><ele>18.0</ele><time>2026-04-06T14:50:47.975Z</time></trkpt><trkpt lat="37.003832" lon="15.2498258"><ele>18.0</ele><time>2026-04-06T14:50:48.979Z</time></trkpt><trkpt lat="37.0037229" lon="15.2497499"><ele>18.0</ele><time>2026-04-06T14:50:49.972Z</time></trkpt><trkpt lat="37.0036092" lon="15.2496723"><ele>18.0</ele><time>2026-04-06T14:50:50.971Z</time></trkpt><trkpt lat="37.0034931" lon="15.2495934"><ele>18.0</ele><time>2026-04-06T14:50:51.971Z</time></trkpt><trkpt lat="37.0033756" lon="15.2495088"><ele>18.0</ele><time>2026-04-06T14:50:53.008Z</time></trkpt><trkpt lat="37.0032597" lon="15.2494298"><ele>18.0</ele><time>2026-04-06T14:50:53.98Z</time></trkpt><trkpt lat="37.0031425" lon="15.2493583"><ele>18.0</ele><time>2026-04-06T14:50:54.993Z</time></trkpt><trkpt lat="37.0030308" lon="15.2493048"><ele>18.0</ele><time>2026-04-06T14:50:56.01Z</time></trkpt><trkpt lat="37.0029235" lon="15.2492695"><ele>18.0</ele><time>2026-04-06T14:50:57.013Z</time></trkpt><trkpt lat="37.0028163" lon="15.2492443"><ele>18.0</ele><time>2026-04-06T14:50:57.977Z</time></trkpt><trkpt lat="37.0027056" lon="15.2492241"><ele>18.0</ele><time>2026-04-06T14:50:58.997Z</time></trkpt><trkpt lat="37.0025927" lon="15.2492027"><ele>18.0</ele><time>2026-04-06T14:51:00.001Z</time></trkpt><trkpt lat="37.0024719" lon="15.2491758"><ele>18.0</ele><time>2026-04-06T14:51:01.007Z</time></trkpt><trkpt lat="37.0023428" lon="15.2491439"><ele>18.25</ele><time>2026-04-06T14:51:01.971Z</time></trkpt><trkpt lat="37.0022043" lon="15.2491039"><ele>18.5</ele><time>2026-04-06T14:51:02.99Z</time></trkpt><trkpt lat="37.0020634" lon="15.2490604"><ele>18.75</ele><time>2026-04-06T14:51:03.972Z</time></trkpt><trkpt lat="37.0019107" lon="15.2490155"><ele>19.0</ele><time>2026-04-06T14:51:04.973Z</time></trkpt><trkpt lat="37.0017525" lon="15.2489704"><ele>18.666666666666664</ele><time>2026-04-06T14:51:05.992Z</time></trkpt><trkpt lat="37.0015972" lon="15.2489258"><ele>18.333333333333332</ele><time>2026-04-06T14:51:06.998Z</time></trkpt><trkpt lat="37.001449" lon="15.2488831"><ele>18.0</ele><time>2026-04-06T14:51:08.008Z</time></trkpt><trkpt lat="37.0013102" lon="15.2488447"><ele>18.0</ele><time>2026-04-06T14:51:08.981Z</time></trkpt><trkpt lat="37.0011724" lon="15.2488071"><ele>18.0</ele><time>2026-04-06T14:51:09.993Z</time></trkpt><trkpt lat="37.001039" lon="15.2487684"><ele>18.0</ele><time>2026-04-06T14:51:11Z</time></trkpt><trkpt lat="37.0009083" lon="15.248726"><ele>18.0</ele><time>2026-04-06T14:51:11.976Z</time></trkpt><trkpt lat="37.0007734" lon="15.2486792"><ele>18.0</ele><time>2026-04-06T14:51:12.992Z</time></trkpt><trkpt lat="37.0006371" lon="15.2486345"><ele>18.0</ele><time>2026-04-06T14:51:13.992Z</time></trkpt><trkpt lat="37.0004973" lon="15.2485914"><ele>18.0</ele><time>2026-04-06T14:51:15.01Z</time></trkpt><trkpt lat="37.000356" lon="15.2485509"><ele>18.0</ele><time>2026-04-06T14:51:15.987Z</time></trkpt><trkpt lat="37.0002061" lon="15.2485125"><ele>18.0</ele><time>2026-04-06T14:51:17.011Z</time></trkpt><trkpt lat="37.0000531" lon="15.2484801"><ele>18.0</ele><time>2026-04-06T14:51:17.994Z</time></trkpt><trkpt lat="36.9998941" lon="15.2484549"><ele>18.0</ele><time>2026-04-06T14:51:18.995Z</time></trkpt><trkpt lat="36.9997333" lon="15.2484311"><ele>18.0</ele><time>2026-04-06T14:51:19.993Z</time></trkpt><trkpt lat="36.9995794" lon="15.248415"><ele>18.0</ele><time>2026-04-06T14:51:20.978Z</time></trkpt><trkpt lat="36.9994278" lon="15.248407"><ele>18.0</ele><time>2026-04-06T14:51:22.007Z</time></trkpt><trkpt lat="36.9992876" lon="15.2484009"><ele>18.0</ele><time>2026-04-06T14:51:22.972Z</time></trkpt><trkpt lat="36.9991486" lon="15.2483978"><ele>17.5</ele><time>2026-04-06T14:51:23.972Z</time></trkpt><trkpt lat="36.9990117" lon="15.2483962"><ele>17.0</ele><time>2026-04-06T14:51:24.974Z</time></trkpt><trkpt lat="36.9988735" lon="15.2483986"><ele>16.5</ele><time>2026-04-06T14:51:25.971Z</time></trkpt><trkpt lat="36.9987307" lon="15.2484018"><ele>16.0</ele><time>2026-04-06T14:51:26.993Z</time></trkpt><trkpt lat="36.9985848" lon="15.2484023"><ele>16.0</ele><time>2026-04-06T14:51:27.971Z</time></trkpt><trkpt lat="36.9984343" lon="15.2483966"><ele>16.0</ele><time>2026-04-06T14:51:28.98Z</time></trkpt><trkpt lat="36.9982835" lon="15.2483861"><ele>16.0</ele><time>2026-04-06T14:51:29.975Z</time></trkpt><trkpt lat="36.9981314" lon="15.2483695"><ele>16.0</ele><time>2026-04-06T14:51:30.976Z</time></trkpt><trkpt lat="36.9979847" lon="15.2483494"><ele>16.0</ele><time>2026-04-06T14:51:31.972Z</time></trkpt><trkpt lat="36.997844" lon="15.2483314"><ele>16.0</ele><time>2026-04-06T14:51:33.012Z</time></trkpt><trkpt lat="36.9977148" lon="15.2483153"><ele>16.0</ele><time>2026-04-06T14:51:33.996Z</time></trkpt><trkpt lat="36.9975909" lon="15.2482995"><ele>15.75</ele><time>2026-04-06T14:51:34.973Z</time></trkpt><trkpt lat="36.9974681" lon="15.2482836"><ele>15.5</ele><time>2026-04-06T14:51:35.991Z</time></trkpt><trkpt lat="36.9973473" lon="15.2482655"><ele>15.25</ele><time>2026-04-06T14:51:36.971Z</time></trkpt><trkpt lat="36.9972221" lon="15.2482479"><ele>15.0</ele><time>2026-04-06T14:51:37.989Z</time></trkpt><trkpt lat="36.9970947" lon="15.2482303"><ele>15.0</ele><time>2026-04-06T14:51:38.999Z</time></trkpt><trkpt lat="36.9969626" lon="15.2482097"><ele>15.0</ele><time>2026-04-06T14:51:39.992Z</time></trkpt><trkpt lat="36.9968251" lon="15.2481895"><ele>15.0</ele><time>2026-04-06T14:51:40.994Z</time></trkpt><trkpt lat="36.996685" lon="15.2481685"><ele>15.0</ele><time>2026-04-06T14:51:41.981Z</time></trkpt><trkpt lat="36.9965397" lon="15.2481481"><ele>15.25</ele><time>2026-04-06T14:51:42.98Z</time></trkpt><trkpt lat="36.9963915" lon="15.2481282"><ele>15.5</ele><time>2026-04-06T14:51:43.991Z</time></trkpt><trkpt lat="36.9962451" lon="15.2481104"><ele>15.75</ele><time>2026-04-06T14:51:44.981Z</time></trkpt><trkpt lat="36.9961064" lon="15.2480936"><ele>16.0</ele><time>2026-04-06T14:51:45.971Z</time></trkpt><trkpt lat="36.9959716" lon="15.2480769"><ele>16.25</ele><time>2026-04-06T14:51:46.971Z</time></trkpt><trkpt lat="36.9958351" lon="15.2480611"><ele>16.5</ele><time>2026-04-06T14:51:47.994Z</time></trkpt><trkpt lat="36.9956968" lon="15.2480439"><ele>16.75</ele><time>2026-04-06T14:51:48.982Z</time></trkpt><trkpt lat="36.9955553" lon="15.248028"><ele>17.0</ele><time>2026-04-06T14:51:49.972Z</time></trkpt><trkpt lat="36.9954137" lon="15.2480155"><ele>17.0</ele><time>2026-04-06T14:51:50.981Z</time></trkpt><trkpt lat="36.9952676" lon="15.2480036"><ele>17.0</ele><time>2026-04-06T14:51:51.974Z</time></trkpt><trkpt lat="36.9951185" lon="15.24799"><ele>17.0</ele><time>2026-04-06T14:51:52.973Z</time></trkpt><trkpt lat="36.9949655" lon="15.2479764"><ele>17.0</ele><time>2026-04-06T14:51:53.972Z</time></trkpt><trkpt lat="36.9948083" lon="15.2479617"><ele>16.0</ele><time>2026-04-06T14:51:54.971Z</time></trkpt><trkpt lat="36.9946503" lon="15.2479453"><ele>15.0</ele><time>2026-04-06T14:51:55.991Z</time></trkpt><trkpt lat="36.9945002" lon="15.2479269"><ele>14.0</ele><time>2026-04-06T14:51:56.992Z</time></trkpt><trkpt lat="36.994352" lon="15.2479072"><ele>14.0</ele><time>2026-04-06T14:51:58.008Z</time></trkpt><trkpt lat="36.9942026" lon="15.2478843"><ele>14.0</ele><time>2026-04-06T14:51:58.971Z</time></trkpt><trkpt lat="36.9940441" lon="15.2478576"><ele>14.0</ele><time>2026-04-06T14:51:59.972Z</time></trkpt><trkpt lat="36.9938807" lon="15.2478297"><ele>14.0</ele><time>2026-04-06T14:52:00.974Z</time></trkpt><trkpt lat="36.9937133" lon="15.2478017"><ele>14.0</ele><time>2026-04-06T14:52:01.98Z</time></trkpt><trkpt lat="36.9935465" lon="15.2477788"><ele>14.0</ele><time>2026-04-06T14:52:02.971Z</time></trkpt><trkpt lat="36.9933792" lon="15.2477651"><ele>14.0</ele><time>2026-04-06T14:52:03.98Z</time></trkpt><trkpt lat="36.9932154" lon="15.2477622"><ele>14.0</ele><time>2026-04-06T14:52:04.974Z</time></trkpt><trkpt lat="36.9930499" lon="15.2477678"><ele>14.0</ele><time>2026-04-06T14:52:05.971Z</time></trkpt><trkpt lat="36.9928854" lon="15.2477806"><ele>14.0</ele><time>2026-04-06T14:52:06.993Z</time></trkpt><trkpt lat="36.9927292" lon="15.247796"><ele>14.0</ele><time>2026-04-06T14:52:07.978Z</time></trkpt><trkpt lat="36.9925754" lon="15.2478123"><ele>14.0</ele><time>2026-04-06T14:52:08.965Z</time></trkpt><trkpt lat="36.9924242" lon="15.2478312"><ele>14.0</ele><time>2026-04-06T14:52:10.008Z</time></trkpt><trkpt lat="36.9922803" lon="15.2478495"><ele>14.0</ele><time>2026-04-06T14:52:11Z</time></trkpt><trkpt lat="36.9921348" lon="15.2478723"><ele>14.0</ele><time>2026-04-06T14:52:11.971Z</time></trkpt><trkpt lat="36.9919886" lon="15.247899"><ele>14.0</ele><time>2026-04-06T14:52:12.981Z</time></trkpt><trkpt lat="36.9918477" lon="15.2479288"><ele>14.0</ele><time>2026-04-06T14:52:13.995Z</time></trkpt><trkpt lat="36.9917101" lon="15.2479589"><ele>14.0</ele><time>2026-04-06T14:52:14.994Z</time></trkpt><trkpt lat="36.9915752" lon="15.2479882"><ele>14.0</ele><time>2026-04-06T14:52:15.993Z</time></trkpt><trkpt lat="36.9914373" lon="15.2480207"><ele>14.0</ele><time>2026-04-06T14:52:16.994Z</time></trkpt><trkpt lat="36.9912969" lon="15.2480618"><ele>13.75</ele><time>2026-04-06T14:52:17.995Z</time></trkpt><trkpt lat="36.9911562" lon="15.2481119"><ele>13.5</ele><time>2026-04-06T14:52:19.018Z</time></trkpt><trkpt lat="36.9910201" lon="15.24817"><ele>13.25</ele><time>2026-04-06T14:52:19.992Z</time></trkpt><trkpt lat="36.9908824" lon="15.2482387"><ele>13.0</ele><time>2026-04-06T14:52:21.012Z</time></trkpt><trkpt lat="36.9907479" lon="15.2483122"><ele>13.0</ele><time>2026-04-06T14:52:21.999Z</time></trkpt><trkpt lat="36.9906193" lon="15.2483883"><ele>13.0</ele><time>2026-04-06T14:52:22.994Z</time></trkpt><trkpt lat="36.9904969" lon="15.2484658"><ele>13.0</ele><time>2026-04-06T14:52:23.974Z</time></trkpt><trkpt lat="36.990377" lon="15.2485484"><ele>13.0</ele><time>2026-04-06T14:52:24.97Z</time></trkpt><trkpt lat="36.9902613" lon="15.2486381"><ele>13.0</ele><time>2026-04-06T14:52:25.993Z</time></trkpt><trkpt lat="36.9901492" lon="15.2487353"><ele>13.0</ele><time>2026-04-06T14:52:26.971Z</time></trkpt><trkpt lat="36.9900318" lon="15.2488499"><ele>13.0</ele><time>2026-04-06T14:52:28.006Z</time></trkpt><trkpt lat="36.9899187" lon="15.248965"><ele>13.0</ele><time>2026-04-06T14:52:28.986Z</time></trkpt><trkpt lat="36.9898072" lon="15.2490849"><ele>13.0</ele><time>2026-04-06T14:52:29.971Z</time></trkpt><trkpt lat="36.9896978" lon="15.2492047"><ele>13.0</ele><time>2026-04-06T14:52:30.975Z</time></trkpt><trkpt lat="36.9895903" lon="15.2493189"><ele>13.0</ele><time>2026-04-06T14:52:31.978Z</time></trkpt><trkpt lat="36.9894887" lon="15.249427"><ele>13.0</ele><time>2026-04-06T14:52:32.99Z</time></trkpt><trkpt lat="36.9893922" lon="15.249528"><ele>13.0</ele><time>2026-04-06T14:52:33.993Z</time></trkpt><trkpt lat="36.9893008" lon="15.2496261"><ele>13.0</ele><time>2026-04-06T14:52:34.972Z</time></trkpt><trkpt lat="36.9892133" lon="15.2497217"><ele>13.0</ele><time>2026-04-06T14:52:35.971Z</time></trkpt><trkpt lat="36.9891273" lon="15.2498151"><ele>13.0</ele><time>2026-04-06T14:52:36.991Z</time></trkpt><trkpt lat="36.9890445" lon="15.2499047"><ele>13.25</ele><time>2026-04-06T14:52:37.992Z</time></trkpt><trkpt lat="36.9889624" lon="15.2499946"><ele>13.5</ele><time>2026-04-06T14:52:38.991Z</time></trkpt><trkpt lat="36.9888766" lon="15.2500837"><ele>13.75</ele><time>2026-04-06T14:52:39.972Z</time></trkpt><trkpt lat="36.9887854" lon="15.2501738"><ele>14.0</ele><time>2026-04-06T14:52:40.975Z</time></trkpt><trkpt lat="36.9886942" lon="15.2502632"><ele>14.0</ele><time>2026-04-06T14:52:41.972Z</time></trkpt><trkpt lat="36.9886008" lon="15.2503514"><ele>14.0</ele><time>2026-04-06T14:52:42.971Z</time></trkpt><trkpt lat="36.9885006" lon="15.2504313"><ele>14.0</ele><time>2026-04-06T14:52:44.01Z</time></trkpt><trkpt lat="36.9883952" lon="15.2504999"><ele>14.0</ele><time>2026-04-06T14:52:44.991Z</time></trkpt><trkpt lat="36.9882814" lon="15.2505614"><ele>14.0</ele><time>2026-04-06T14:52:45.973Z</time></trkpt><trkpt lat="36.9881595" lon="15.2506161"><ele>14.0</ele><time>2026-04-06T14:52:46.976Z</time></trkpt><trkpt lat="36.9880331" lon="15.2506675"><ele>14.0</ele><time>2026-04-06T14:52:47.977Z</time></trkpt><trkpt lat="36.9879014" lon="15.2507272"><ele>14.0</ele><time>2026-04-06T14:52:48.967Z</time></trkpt><trkpt lat="36.9877703" lon="15.250795"><ele>14.0</ele><time>2026-04-06T14:52:49.972Z</time></trkpt><trkpt lat="36.9876513" lon="15.2508737"><ele>14.0</ele><time>2026-04-06T14:52:50.971Z</time></trkpt><trkpt lat="36.9875404" lon="15.250957"><ele>14.0</ele><time>2026-04-06T14:52:51.97Z</time></trkpt><trkpt lat="36.9874333" lon="15.2510397"><ele>14.0</ele><time>2026-04-06T14:52:52.972Z</time></trkpt><trkpt lat="36.9873257" lon="15.2511223"><ele>14.5</ele><time>2026-04-06T14:52:53.977Z</time></trkpt><trkpt lat="36.9872179" lon="15.251203"><ele>15.0</ele><time>2026-04-06T14:52:54.974Z</time></trkpt><trkpt lat="36.9871118" lon="15.2512831"><ele>15.5</ele><time>2026-04-06T14:52:55.971Z</time></trkpt><trkpt lat="36.9870047" lon="15.251363"><ele>16.0</ele><time>2026-04-06T14:52:56.971Z</time></trkpt><trkpt lat="36.9868955" lon="15.2514426"><ele>15.75</ele><time>2026-04-06T14:52:57.971Z</time></trkpt><trkpt lat="36.9867835" lon="15.2515226"><ele>15.5</ele><time>2026-04-06T14:52:58.996Z</time></trkpt><trkpt lat="36.9866721" lon="15.2516018"><ele>15.25</ele><time>2026-04-06T14:52:59.977Z</time></trkpt><trkpt lat="36.9865562" lon="15.2516815"><ele>15.0</ele><time>2026-04-06T14:53:00.974Z</time></trkpt><trkpt lat="36.98644" lon="15.2517616"><ele>15.5</ele><time>2026-04-06T14:53:01.971Z</time></trkpt><trkpt lat="36.9863231" lon="15.2518429"><ele>16.0</ele><time>2026-04-06T14:53:02.994Z</time></trkpt><trkpt lat="36.9862079" lon="15.2519229"><ele>16.5</ele><time>2026-04-06T14:53:03.979Z</time></trkpt><trkpt lat="36.9860922" lon="15.2520031"><ele>17.0</ele><time>2026-04-06T14:53:04.976Z</time></trkpt><trkpt lat="36.9859761" lon="15.2520825"><ele>17.0</ele><time>2026-04-06T14:53:06.004Z</time></trkpt><trkpt lat="36.9858639" lon="15.2521605"><ele>17.0</ele><time>2026-04-06T14:53:07.01Z</time></trkpt><trkpt lat="36.9857561" lon="15.2522348"><ele>17.0</ele><time>2026-04-06T14:53:08.01Z</time></trkpt><trkpt lat="36.985653" lon="15.2523031"><ele>17.0</ele><time>2026-04-06T14:53:08.992Z</time></trkpt><trkpt lat="36.9855543" lon="15.2523632"><ele>17.4</ele><time>2026-04-06T14:53:09.994Z</time></trkpt><trkpt lat="36.9854634" lon="15.2524105"><ele>17.799999999999997</ele><time>2026-04-06T14:53:10.984Z</time></trkpt><trkpt lat="36.9853759" lon="15.2524486"><ele>18.2</ele><time>2026-04-06T14:53:11.983Z</time></trkpt><trkpt lat="36.9852883" lon="15.2524828"><ele>18.599999999999998</ele><time>2026-04-06T14:53:12.978Z</time></trkpt><trkpt lat="36.9851989" lon="15.25251"><ele>19.0</ele><time>2026-04-06T14:53:13.994Z</time></trkpt><trkpt lat="36.9851044" lon="15.2525281"><ele>19.0</ele><time>2026-04-06T14:53:14.994Z</time></trkpt><trkpt lat="36.9849966" lon="15.2525363"><ele>19.0</ele><time>2026-04-06T14:53:15.98Z</time></trkpt><trkpt lat="36.9848779" lon="15.2525367"><ele>19.0</ele><time>2026-04-06T14:53:16.98Z</time></trkpt><trkpt lat="36.9847448" lon="15.2525377"><ele>19.0</ele><time>2026-04-06T14:53:17.998Z</time></trkpt><trkpt lat="36.9846014" lon="15.2525329"><ele>19.0</ele><time>2026-04-06T14:53:18.992Z</time></trkpt><trkpt lat="36.9844621" lon="15.2525299"><ele>19.0</ele><time>2026-04-06T14:53:19.995Z</time></trkpt><trkpt lat="36.9843296" lon="15.2525298"><ele>19.0</ele><time>2026-04-06T14:53:20.996Z</time></trkpt><trkpt lat="36.984199" lon="15.2525294"><ele>19.0</ele><time>2026-04-06T14:53:21.993Z</time></trkpt><trkpt lat="36.9840684" lon="15.2525323"><ele>18.5</ele><time>2026-04-06T14:53:22.992Z</time></trkpt><trkpt lat="36.9839337" lon="15.2525398"><ele>18.0</ele><time>2026-04-06T14:53:24.006Z</time></trkpt><trkpt lat="36.9837977" lon="15.2525477"><ele>17.5</ele><time>2026-04-06T14:53:24.993Z</time></trkpt><trkpt lat="36.9836619" lon="15.2525538"><ele>17.0</ele><time>2026-04-06T14:53:25.998Z</time></trkpt><trkpt lat="36.9835299" lon="15.2525598"><ele>17.0</ele><time>2026-04-06T14:53:26.992Z</time></trkpt><trkpt lat="36.9834041" lon="15.2525685"><ele>17.0</ele><time>2026-04-06T14:53:27.993Z</time></trkpt><trkpt lat="36.9832835" lon="15.252579"><ele>17.0</ele><time>2026-04-06T14:53:29Z</time></trkpt><trkpt lat="36.9831703" lon="15.2525913"><ele>17.0</ele><time>2026-04-06T14:53:29.978Z</time></trkpt><trkpt lat="36.9830623" lon="15.2526029"><ele>16.8</ele><time>2026-04-06T14:53:30.997Z</time></trkpt><trkpt lat="36.9829604" lon="15.2526117"><ele>16.6</ele><time>2026-04-06T14:53:31.991Z</time></trkpt><trkpt lat="36.9828608" lon="15.2526186"><ele>16.400000000000002</ele><time>2026-04-06T14:53:32.997Z</time></trkpt><trkpt lat="36.9827669" lon="15.2526233"><ele>16.2</ele><time>2026-04-06T14:53:33.993Z</time></trkpt><trkpt lat="36.9826749" lon="15.2526237"><ele>16.0</ele><time>2026-04-06T14:53:34.993Z</time></trkpt><trkpt lat="36.9825903" lon="15.2526161"><ele>15.833333333333332</ele><time>2026-04-06T14:53:36.01Z</time></trkpt><trkpt lat="36.9825022" lon="15.2526064"><ele>15.666666666666666</ele><time>2026-04-06T14:53:36.996Z</time></trkpt><trkpt lat="36.9824187" lon="15.2525897"><ele>15.5</ele><time>2026-04-06T14:53:37.995Z</time></trkpt><trkpt lat="36.9823437" lon="15.2525634"><ele>15.333333333333332</ele><time>2026-04-06T14:53:39.009Z</time></trkpt><trkpt lat="36.982279" lon="15.2525262"><ele>15.166666666666666</ele><time>2026-04-06T14:53:40.007Z</time></trkpt><trkpt lat="36.9822181" lon="15.2524967"><ele>15.0</ele><time>2026-04-06T14:53:41.008Z</time></trkpt><trkpt lat="36.982118" lon="15.2525347"><ele>15.0</ele><time>2026-04-06T14:53:43.007Z</time></trkpt><trkpt lat="36.9820756" lon="15.2526613"><ele>15.0</ele><time>2026-04-06T14:53:44.993Z</time></trkpt><trkpt lat="36.9820639" lon="15.2527649"><ele>15.0</ele><time>2026-04-06T14:53:45.993Z</time></trkpt><trkpt lat="36.9820369" lon="15.2528866"><ele>15.0</ele><time>2026-04-06T14:53:46.991Z</time></trkpt><trkpt lat="36.9819967" lon="15.2530129"><ele>15.0</ele><time>2026-04-06T14:53:47.973Z</time></trkpt><trkpt lat="36.9819462" lon="15.2531408"><ele>15.2</ele><time>2026-04-06T14:53:48.993Z</time></trkpt><trkpt lat="36.9819001" lon="15.2532689"><ele>15.4</ele><time>2026-04-06T14:53:50.008Z</time></trkpt><trkpt lat="36.9818577" lon="15.2533929"><ele>15.600000000000001</ele><time>2026-04-06T14:53:50.99Z</time></trkpt><trkpt lat="36.9818155" lon="15.2535091"><ele>15.8</ele><time>2026-04-06T14:53:52.001Z</time></trkpt><trkpt lat="36.9817779" lon="15.2536148"><ele>16.0</ele><time>2026-04-06T14:53:52.991Z</time></trkpt><trkpt lat="36.981743" lon="15.2537095"><ele>15.999999999999998</ele><time>2026-04-06T14:53:54Z</time></trkpt><trkpt lat="36.981711" lon="15.2537941"><ele>16.0</ele><time>2026-04-06T14:53:54.991Z</time></trkpt><trkpt lat="36.9816716" lon="15.2538722"><ele>16.0</ele><time>2026-04-06T14:53:55.974Z</time></trkpt><trkpt lat="36.981638" lon="15.2539564"><ele>16.0</ele><time>2026-04-06T14:53:56.977Z</time></trkpt><trkpt lat="36.9816067" lon="15.2540462"><ele>15.999999999999998</ele><time>2026-04-06T14:53:57.979Z</time></trkpt><trkpt lat="36.9815733" lon="15.2541453"><ele>16.0</ele><time>2026-04-06T14:53:58.992Z</time></trkpt><trkpt lat="36.9815405" lon="15.2542523"><ele>15.499999999999998</ele><time>2026-04-06T14:53:59.972Z</time></trkpt><trkpt lat="36.9815054" lon="15.2543585"><ele>15.0</ele><time>2026-04-06T14:54:00.979Z</time></trkpt><trkpt lat="36.9814697" lon="15.2544586"><ele>14.5</ele><time>2026-04-06T14:54:01.98Z</time></trkpt><trkpt lat="36.9814371" lon="15.2545541"><ele>14.0</ele><time>2026-04-06T14:54:02.979Z</time></trkpt><trkpt lat="36.9814065" lon="15.254644"><ele>13.499999999999998</ele><time>2026-04-06T14:54:03.976Z</time></trkpt><trkpt lat="36.9813769" lon="15.2547272"><ele>13.0</ele><time>2026-04-06T14:54:04.992Z</time></trkpt><trkpt lat="36.9813481" lon="15.2548031"><ele>13.0</ele><time>2026-04-06T14:54:05.993Z</time></trkpt><trkpt lat="36.9813207" lon="15.2548754"><ele>13.0</ele><time>2026-04-06T14:54:07Z</time></trkpt><trkpt lat="36.9812924" lon="15.2549466"><ele>13.0</ele><time>2026-04-06T14:54:08Z</time></trkpt><trkpt lat="36.9812622" lon="15.2550218"><ele>13.0</ele><time>2026-04-06T14:54:08.979Z</time></trkpt><trkpt lat="36.9812317" lon="15.2551031"><ele>13.0</ele><time>2026-04-06T14:54:09.977Z</time></trkpt><trkpt lat="36.981196" lon="15.2551925"><ele>13.0</ele><time>2026-04-06T14:54:11.003Z</time></trkpt><trkpt lat="36.9811612" lon="15.2552899"><ele>13.0</ele><time>2026-04-06T14:54:11.972Z</time></trkpt><trkpt lat="36.9811271" lon="15.2553912"><ele>13.0</ele><time>2026-04-06T14:54:12.994Z</time></trkpt><trkpt lat="36.9810896" lon="15.2554948"><ele>13.0</ele><time>2026-04-06T14:54:13.993Z</time></trkpt><trkpt lat="36.9810498" lon="15.2556022"><ele>13.0</ele><time>2026-04-06T14:54:14.999Z</time></trkpt><trkpt lat="36.9810095" lon="15.2557151"><ele>13.0</ele><time>2026-04-06T14:54:16.011Z</time></trkpt><trkpt lat="36.9809695" lon="15.2558279"><ele>13.0</ele><time>2026-04-06T14:54:16.975Z</time></trkpt><trkpt lat="36.9809322" lon="15.2559393"><ele>12.999999999999998</ele><time>2026-04-06T14:54:18.025Z</time></trkpt><trkpt lat="36.9808978" lon="15.2560429"><ele>13.0</ele><time>2026-04-06T14:54:18.995Z</time></trkpt><trkpt lat="36.9808647" lon="15.2561394"><ele>13.0</ele><time>2026-04-06T14:54:19.993Z</time></trkpt><trkpt lat="36.9808315" lon="15.2562329"><ele>13.0</ele><time>2026-04-06T14:54:20.997Z</time></trkpt><trkpt lat="36.9807981" lon="15.2563214"><ele>12.999999999999998</ele><time>2026-04-06T14:54:21.993Z</time></trkpt><trkpt lat="36.9807696" lon="15.2564091"><ele>13.0</ele><time>2026-04-06T14:54:23.016Z</time></trkpt><trkpt lat="36.9807417" lon="15.2564936"><ele>12.333333333333332</ele><time>2026-04-06T14:54:23.993Z</time></trkpt><trkpt lat="36.9807126" lon="15.2565742"><ele>11.666666666666666</ele><time>2026-04-06T14:54:25.011Z</time></trkpt><trkpt lat="36.9806839" lon="15.256654"><ele>11.0</ele><time>2026-04-06T14:54:26.008Z</time></trkpt><trkpt lat="36.9806596" lon="15.2567324"><ele>10.333333333333332</ele><time>2026-04-06T14:54:26.998Z</time></trkpt><trkpt lat="36.9806359" lon="15.2568094"><ele>9.666666666666666</ele><time>2026-04-06T14:54:28.013Z</time></trkpt><trkpt lat="36.9806116" lon="15.2568828"><ele>9.0</ele><time>2026-04-06T14:54:28.999Z</time></trkpt><trkpt lat="36.9805693" lon="15.2570166"><ele>9.0</ele><time>2026-04-06T14:54:31.011Z</time></trkpt><trkpt lat="36.9805133" lon="15.2571301"><ele>9.0</ele><time>2026-04-06T14:54:32.994Z</time></trkpt><trkpt lat="36.9804295" lon="15.2571945"><ele>9.0</ele><time>2026-04-06T14:54:34.977Z</time></trkpt><trkpt lat="36.9803538" lon="15.2571895"><ele>9.0</ele><time>2026-04-06T14:54:36.993Z</time></trkpt><trkpt lat="36.9802882" lon="15.2571513"><ele>9.0</ele><time>2026-04-06T14:54:39.017Z</time></trkpt><trkpt lat="36.9802323" lon="15.2571123"><ele>9.0</ele><time>2026-04-06T14:54:41.971Z</time></trkpt><trkpt lat="36.9801488" lon="15.2570915"><ele>9.0</ele><time>2026-04-06T14:55:13.996Z</time></trkpt><trkpt lat="36.9800906" lon="15.2571426"><ele>9.0</ele><time>2026-04-06T14:55:16.994Z</time></trkpt><trkpt lat="36.9800387" lon="15.2572153"><ele>9.0</ele><time>2026-04-06T14:55:20.012Z</time></trkpt><trkpt lat="36.9799914" lon="15.2572998"><ele>9.0</ele><time>2026-04-06T14:55:23.008Z</time></trkpt><trkpt lat="36.9799583" lon="15.2573739"><ele>9.0</ele><time>2026-04-06T14:55:25Z</time></trkpt><trkpt lat="36.9799184" lon="15.2574636"><ele>9.0</ele><time>2026-04-06T14:55:27.996Z</time></trkpt><trkpt lat="36.9798715" lon="15.2575677"><ele>8.6</ele><time>2026-04-06T14:55:30.981Z</time></trkpt><trkpt lat="36.9799011" lon="15.2576499"><ele>8.2</ele><time>2026-04-06T14:55:32.999Z</time></trkpt><trkpt lat="36.979934" lon="15.25775"><ele>7.799999999999999</ele><time>2026-04-06T14:55:35.013Z</time></trkpt><trkpt lat="36.9798623" lon="15.2578935"><ele>7.3999999999999995</ele><time>2026-04-06T14:55:36.984Z</time></trkpt><trkpt lat="36.9798143" lon="15.2579906"><ele>7.0</ele><time>2026-04-06T14:55:37.996Z</time></trkpt><trkpt lat="36.9797676" lon="15.2580782"><ele>6.833333333333334</ele><time>2026-04-06T14:55:38.998Z</time></trkpt><trkpt lat="36.9797318" lon="15.2581528"><ele>6.666666666666667</ele><time>2026-04-06T14:55:40.008Z</time></trkpt><trkpt lat="36.9796681" lon="15.2582833"><ele>6.5</ele><time>2026-04-06T14:55:41.992Z</time></trkpt><trkpt lat="36.9796249" lon="15.2583539"><ele>6.333333333333334</ele><time>2026-04-06T14:55:42.998Z</time></trkpt><trkpt lat="36.9795883" lon="15.258423"><ele>6.166666666666667</ele><time>2026-04-06T14:55:43.978Z</time></trkpt><trkpt lat="36.9795488" lon="15.258492"><ele>6.0</ele><time>2026-04-06T14:55:44.974Z</time></trkpt><trkpt lat="36.9794875" lon="15.2586123"><ele>6.0</ele><time>2026-04-06T14:55:46.992Z</time></trkpt><trkpt lat="36.979444" lon="15.2587157"><ele>6.0</ele><time>2026-04-06T14:55:48.994Z</time></trkpt><trkpt lat="36.9793949" lon="15.2588194"><ele>6.0</ele><time>2026-04-06T14:55:51.012Z</time></trkpt><trkpt lat="36.9793704" lon="15.2589387"><ele>6.0</ele><time>2026-04-06T14:55:53.027Z</time></trkpt><trkpt lat="36.9793658" lon="15.2590777"><ele>6.0</ele><time>2026-04-06T14:55:54.983Z</time></trkpt><trkpt lat="36.9793787" lon="15.2592193"><ele>6.166666666666667</ele><time>2026-04-06T14:55:57.013Z</time></trkpt><trkpt lat="36.9793937" lon="15.259335"><ele>6.333333333333334</ele><time>2026-04-06T14:55:58.995Z</time></trkpt><trkpt lat="36.9794217" lon="15.259424"><ele>6.5</ele><time>2026-04-06T14:56:01.011Z</time></trkpt><trkpt lat="36.9794778" lon="15.259494"><ele>6.666666666666667</ele><time>2026-04-06T14:56:03.009Z</time></trkpt><trkpt lat="36.9795587" lon="15.2595424"><ele>6.833333333333334</ele><time>2026-04-06T14:56:05.011Z</time></trkpt><trkpt lat="36.9796554" lon="15.259589"><ele>7.0</ele><time>2026-04-06T14:56:06.994Z</time></trkpt><trkpt lat="36.9797672" lon="15.2596256"><ele>7.0</ele><time>2026-04-06T14:56:08.979Z</time></trkpt><trkpt lat="36.9798258" lon="15.2596546"><ele>7.0</ele><time>2026-04-06T14:56:09.994Z</time></trkpt><trkpt lat="36.9798862" lon="15.2596899"><ele>7.0</ele><time>2026-04-06T14:56:11.02Z</time></trkpt><trkpt lat="36.9799454" lon="15.2597255"><ele>7.0</ele><time>2026-04-06T14:56:12.017Z</time></trkpt><trkpt lat="36.9800056" lon="15.2597595"><ele>7.0</ele><time>2026-04-06T14:56:12.994Z</time></trkpt><trkpt lat="36.9800713" lon="15.2597972"><ele>7.0</ele><time>2026-04-06T14:56:13.994Z</time></trkpt><trkpt lat="36.9801388" lon="15.2598363"><ele>7.0</ele><time>2026-04-06T14:56:14.996Z</time></trkpt><trkpt lat="36.9801996" lon="15.2598721"><ele>7.8</ele><time>2026-04-06T14:56:16.009Z</time></trkpt><trkpt lat="36.9802627" lon="15.259892"><ele>8.6</ele><time>2026-04-06T14:56:16.983Z</time></trkpt><trkpt lat="36.9803541" lon="15.2599451"><ele>9.4</ele><time>2026-04-06T14:56:18.985Z</time></trkpt><trkpt lat="36.9804141" lon="15.2600262"><ele>10.200000000000001</ele><time>2026-04-06T14:56:21.007Z</time></trkpt><trkpt lat="36.9804569" lon="15.2601522"><ele>11.0</ele><time>2026-04-06T14:56:22.991Z</time></trkpt><trkpt lat="36.9805202" lon="15.2602515"><ele>11.0</ele><time>2026-04-06T14:56:25.013Z</time></trkpt><trkpt lat="36.9805812" lon="15.260335"><ele>11.0</ele><time>2026-04-06T14:56:26.992Z</time></trkpt><trkpt lat="36.9806375" lon="15.2604112"><ele>11.0</ele><time>2026-04-06T14:56:29.008Z</time></trkpt><trkpt lat="36.9806942" lon="15.2604954"><ele>11.0</ele><time>2026-04-06T14:56:30.994Z</time></trkpt><trkpt lat="36.9807748" lon="15.2606009"><ele>11.0</ele><time>2026-04-06T14:56:32.996Z</time></trkpt><trkpt lat="36.9808532" lon="15.2606989"><ele>10.857142857142858</ele><time>2026-04-06T14:56:34.998Z</time></trkpt><trkpt lat="36.9808995" lon="15.260767"><ele>10.714285714285714</ele><time>2026-04-06T14:56:36.997Z</time></trkpt><trkpt lat="36.9809467" lon="15.2608478"><ele>10.571428571428571</ele><time>2026-04-06T14:56:40.016Z</time></trkpt><trkpt lat="36.9809872" lon="15.260911"><ele>10.428571428571429</ele><time>2026-04-06T14:56:45.011Z</time></trkpt><trkpt lat="36.9810456" lon="15.2609742"><ele>10.285714285714286</ele><time>2026-04-06T14:56:51.014Z</time></trkpt><trkpt lat="36.9810916" lon="15.2610353"><ele>10.142857142857142</ele><time>2026-04-06T14:56:53.992Z</time></trkpt><trkpt lat="36.9811471" lon="15.2610954"><ele>10.0</ele><time>2026-04-06T14:56:58.011Z</time></trkpt><trkpt lat="36.9812162" lon="15.2611622"><ele>10.0</ele><time>2026-04-06T14:57:00.993Z</time></trkpt><trkpt lat="36.9812775" lon="15.2612072"><ele>10.0</ele><time>2026-04-06T14:57:02.999Z</time></trkpt><trkpt lat="36.9813429" lon="15.2612489"><ele>10.0</ele><time>2026-04-06T14:57:05.02Z</time></trkpt><trkpt lat="36.9814049" lon="15.2612921"><ele>10.0</ele><time>2026-04-06T14:57:07.01Z</time></trkpt><trkpt lat="36.9814641" lon="15.2613347"><ele>10.0</ele><time>2026-04-06T14:57:08.98Z</time></trkpt><trkpt lat="36.9815257" lon="15.2613715"><ele>10.0</ele><time>2026-04-06T14:57:11.009Z</time></trkpt><trkpt lat="36.9815902" lon="15.2613959"><ele>10.0</ele><time>2026-04-06T14:57:13.01Z</time></trkpt><trkpt lat="36.9816548" lon="15.2614284"><ele>9.857142857142858</ele><time>2026-04-06T14:57:14.992Z</time></trkpt><trkpt lat="36.9817131" lon="15.2614595"><ele>9.714285714285715</ele><time>2026-04-06T14:57:16.993Z</time></trkpt><trkpt lat="36.9817771" lon="15.2614906"><ele>9.571428571428573</ele><time>2026-04-06T14:57:19.992Z</time></trkpt><trkpt lat="36.9818535" lon="15.261531"><ele>9.428571428571429</ele><time>2026-04-06T14:57:24.018Z</time></trkpt><trkpt lat="36.9819258" lon="15.2615684"><ele>9.285714285714286</ele><time>2026-04-06T14:57:26.993Z</time></trkpt><trkpt lat="36.9820121" lon="15.2616"><ele>9.142857142857144</ele><time>2026-04-06T14:57:30.996Z</time></trkpt><trkpt lat="36.9820743" lon="15.2616275"><ele>9.0</ele><time>2026-04-06T14:57:32.996Z</time></trkpt><trkpt lat="36.9821446" lon="15.2616573"><ele>9.0</ele><time>2026-04-06T14:57:34.994Z</time></trkpt><trkpt lat="36.9822214" lon="15.2616977"><ele>9.0</ele><time>2026-04-06T14:57:37.993Z</time></trkpt><trkpt lat="36.9822976" lon="15.2617324"><ele>9.0</ele><time>2026-04-06T14:57:42.017Z</time></trkpt><trkpt lat="36.9823592" lon="15.2617543"><ele>9.0</ele><time>2026-04-06T14:57:44.994Z</time></trkpt><trkpt lat="36.9824345" lon="15.2617688"><ele>9.0</ele><time>2026-04-06T14:57:48.992Z</time></trkpt><trkpt lat="36.9825129" lon="15.261729"><ele>9.0</ele><time>2026-04-06T14:57:51.978Z</time></trkpt><trkpt lat="36.9825769" lon="15.2616809"><ele>9.0</ele><time>2026-04-06T14:57:53.993Z</time></trkpt><trkpt lat="36.9826584" lon="15.2616336"><ele>9.0</ele><time>2026-04-06T14:57:55.982Z</time></trkpt><trkpt lat="36.9827349" lon="15.2616011"><ele>9.0</ele><time>2026-04-06T14:57:58.005Z</time></trkpt><trkpt lat="36.9828225" lon="15.2615722"><ele>9.0</ele><time>2026-04-06T14:58:01.002Z</time></trkpt><trkpt lat="36.9829021" lon="15.2615645"><ele>9.0</ele><time>2026-04-06T14:58:03.982Z</time></trkpt><trkpt lat="36.9829693" lon="15.2615797"><ele>9.0</ele><time>2026-04-06T14:58:06.993Z</time></trkpt><trkpt lat="36.9830444" lon="15.2616204"><ele>9.0</ele><time>2026-04-06T14:58:09.992Z</time></trkpt><trkpt lat="36.9831107" lon="15.2616621"><ele>9.0</ele><time>2026-04-06T14:58:12.994Z</time></trkpt><trkpt lat="36.9831864" lon="15.2617272"><ele>9.0</ele><time>2026-04-06T14:58:15.999Z</time></trkpt><trkpt lat="36.9832504" lon="15.2617869"><ele>9.0</ele><time>2026-04-06T14:58:17.981Z</time></trkpt><trkpt lat="36.9833079" lon="15.2618424"><ele>9.0</ele><time>2026-04-06T14:58:19.994Z</time></trkpt><trkpt lat="36.9833535" lon="15.2619092"><ele>9.0</ele><time>2026-04-06T14:58:23.982Z</time></trkpt><trkpt lat="36.9834067" lon="15.262004"><ele>9.285714285714286</ele><time>2026-04-06T14:58:27.994Z</time></trkpt><trkpt lat="36.9834468" lon="15.2620861"><ele>9.571428571428571</ele><time>2026-04-06T14:58:30.001Z</time></trkpt><trkpt lat="36.9834767" lon="15.2621635"><ele>9.857142857142858</ele><time>2026-04-06T14:58:33Z</time></trkpt><trkpt lat="36.9835156" lon="15.2622263"><ele>10.142857142857142</ele><time>2026-04-06T14:58:41.008Z</time></trkpt><trkpt lat="36.9835549" lon="15.2623208"><ele>10.428571428571429</ele><time>2026-04-06T14:58:45.999Z</time></trkpt><trkpt lat="36.9835916" lon="15.2623951"><ele>10.714285714285715</ele><time>2026-04-06T14:58:48.026Z</time></trkpt><trkpt lat="36.9836302" lon="15.262488"><ele>11.0</ele><time>2026-04-06T14:58:49.993Z</time></trkpt><trkpt lat="36.983655" lon="15.2625965"><ele>11.0</ele><time>2026-04-06T14:58:51.976Z</time></trkpt><trkpt lat="36.9836731" lon="15.2627232"><ele>11.0</ele><time>2026-04-06T14:58:53.98Z</time></trkpt><trkpt lat="36.9836555" lon="15.2628407"><ele>11.0</ele><time>2026-04-06T14:58:56Z</time></trkpt><trkpt lat="36.9836188" lon="15.2629372"><ele>11.0</ele><time>2026-04-06T14:58:57.981Z</time></trkpt><trkpt lat="36.9835622" lon="15.2630176"><ele>11.0</ele><time>2026-04-06T14:58:59.998Z</time></trkpt><trkpt lat="36.9835113" lon="15.2630979"><ele>10.833333333333332</ele><time>2026-04-06T14:59:01.981Z</time></trkpt><trkpt lat="36.9834805" lon="15.2631809"><ele>10.666666666666666</ele><time>2026-04-06T14:59:03.98Z</time></trkpt><trkpt lat="36.9834607" lon="15.2632928"><ele>10.5</ele><time>2026-04-06T14:59:06.999Z</time></trkpt><trkpt lat="36.9834961" lon="15.2633826"><ele>10.333333333333334</ele><time>2026-04-06T14:59:09.993Z</time></trkpt><trkpt lat="36.9835678" lon="15.2634334"><ele>10.166666666666668</ele><time>2026-04-06T14:59:13.995Z</time></trkpt><trkpt lat="36.983625" lon="15.2634747"><ele>10.0</ele><time>2026-04-06T14:59:15.998Z</time></trkpt><trkpt lat="36.9836875" lon="15.2635278"><ele>10.0</ele><time>2026-04-06T14:59:17.996Z</time></trkpt><trkpt lat="36.983747" lon="15.2635909"><ele>10.0</ele><time>2026-04-06T14:59:19.979Z</time></trkpt><trkpt lat="36.9837992" lon="15.2636566"><ele>10.0</ele><time>2026-04-06T14:59:21.994Z</time></trkpt><trkpt lat="36.9838401" lon="15.2637218"><ele>10.0</ele><time>2026-04-06T14:59:23.994Z</time></trkpt><trkpt lat="36.9838943" lon="15.2638159"><ele>10.0</ele><time>2026-04-06T14:59:26.98Z</time></trkpt><trkpt lat="36.9839372" lon="15.2638906"><ele>10.0</ele><time>2026-04-06T14:59:28.994Z</time></trkpt><trkpt lat="36.9839858" lon="15.2639619"><ele>10.166666666666668</ele><time>2026-04-06T14:59:31.01Z</time></trkpt><trkpt lat="36.9840363" lon="15.2640241"><ele>10.333333333333334</ele><time>2026-04-06T14:59:33.012Z</time></trkpt><trkpt lat="36.9841008" lon="15.2640938"><ele>10.5</ele><time>2026-04-06T14:59:35.995Z</time></trkpt><trkpt lat="36.9841609" lon="15.2641758"><ele>10.666666666666666</ele><time>2026-04-06T14:59:38.995Z</time></trkpt><trkpt lat="36.9842205" lon="15.2642668"><ele>10.833333333333332</ele><time>2026-04-06T14:59:41.971Z</time></trkpt><trkpt lat="36.9842703" lon="15.2643416"><ele>11.0</ele><time>2026-04-06T14:59:44Z</time></trkpt><trkpt lat="36.9843303" lon="15.264433"><ele>11.0</ele><time>2026-04-06T14:59:45.997Z</time></trkpt><trkpt lat="36.9843929" lon="15.2645336"><ele>11.0</ele><time>2026-04-06T14:59:47.978Z</time></trkpt><trkpt lat="36.9844617" lon="15.2646316"><ele>11.0</ele><time>2026-04-06T14:59:49.998Z</time></trkpt><trkpt lat="36.9845324" lon="15.264711"><ele>11.0</ele><time>2026-04-06T14:59:51.995Z</time></trkpt><trkpt lat="36.9845903" lon="15.2647734"><ele>11.0</ele><time>2026-04-06T14:59:53.977Z</time></trkpt><trkpt lat="36.9846584" lon="15.264846"><ele>10.0</ele><time>2026-04-06T14:59:57.009Z</time></trkpt><trkpt lat="36.9846965" lon="15.2649129"><ele>10.0</ele><time>2026-04-06T15:00:00.02Z</time></trkpt><trkpt lat="36.9847077" lon="15.2649916"><ele>10.0</ele><time>2026-04-06T15:00:04.994Z</time></trkpt><trkpt lat="36.9846617" lon="15.2650574"><ele>10.0</ele><time>2026-04-06T15:00:11.012Z</time></trkpt></trkseg></trk></gpx>